# Wetter Temperatur Luftdruck Luftfeuchtigkeit Sichtweite Windgeschwindigkeit Windrichtung Zeit
1 Clouds 27 1010 57 10000 2.87 183 15:24 01.02.2023
2 Clouds 29 1009 78 10000 3.34 156 13:20 01.02.2023
3 Clouds 30 1008 49 10000 3.28 172 12:59 01.02.2023
4 Clouds 32 1007 44 10000 3.14 175 11:57 01.02.2023
5 Clouds 33 1006 74 10000 2.1 166 09:38 01.02.2023
6 Clouds 25 1012 56 10000 0.83 18 03:18 01.02.2023
7 Clouds 23 1009 63 10000 1.62 306 21:45 31.01.2023
8 Clouds 23 1010 67 10000 1.94 282 20:20 31.01.2023
9 Clouds 24 1010 62 10000 2.22 246 18:50 31.01.2023
10 Clouds 26 1010 52 10000 1.67 226 16:34 31.01.2023
11 Clouds 26 1010 50 10000 1.48 229 15:36 31.01.2023
12 Clouds 26 1010 50 10000 1.39 236 15:18 31.01.2023
13 Clouds 28 1008 49 10000 1.02 264 12:33 31.01.2023
14 Clouds 30 1008 44 10000 0.99 295 11:21 31.01.2023
15 Rain 30 1008 41 10000 0.54 270 09:54 31.01.2023
16 Clouds 30 1008 38 10000 0.84 237 08:59 31.01.2023
17 Clouds 30 1008 38 10000 0.84 237 08:35 31.01.2023
18 Clouds 28 1013 39 10000 0.89 333 05:46 31.01.2023
19 Clouds 21 1012 59 10000 1.94 304 23:58 30.01.2023
20 Clouds 21 1012 63 10000 2.02 302 22:54 30.01.2023
21 Clouds 21 1012 62 10000 2.02 302 22:31 30.01.2023
22 Clouds 21 1012 58 10000 1.18 284 21:22 30.01.2023
23 Clouds 21 1012 56 10000 1.18 284 20:34 30.01.2023
24 Clouds 22 1013 47 10000 1.42 303 17:54 30.01.2023
25 Clouds 23 1013 47 10000 2.19 312 16:34 30.01.2023
26 Clouds 24 1013 46 10000 1.62 290 14:27 30.01.2023
27 Clouds 25 1012 41 10000 0.49 347 12:44 30.01.2023
28 Clouds 27 1011 41 10000 1.47 35 11:27 30.01.2023
29 Clouds 27 1011 45 10000 2.08 18 09:54 30.01.2023
30 Clouds 27 1011 47 10000 2.37 11 08:56 30.01.2023
31 Clouds 26 1013 50 10000 2.54 355 06:55 30.01.2023
32 Clouds 19 1016 62 10000 2.04 85 01:39 30.01.2023
33 Clouds 20 1014 61 10000 2.29 345 23:35 29.01.2023
34 Clouds 20 1014 60 10000 1.86 344 22:37 29.01.2023
35 Clouds 20 1014 61 10000 1.79 15 21:40 29.01.2023
36 Clear 21 1014 58 10000 2.15 53 20:36 29.01.2023
37 Clear 21 1014 57 10000 2.68 54 19:34 29.01.2023
38 Clouds 21 1015 56 10000 2.86 52 18:44 29.01.2023
39 Clouds 22 1015 55 10000 3.96 49 17:35 29.01.2023
40 Clouds 22 1015 53 10000 5.58 63 16:21 29.01.2023
41 Clouds 23 1015 51 10000 6.02 67 14:48 29.01.2023
42 Clouds 25 1012 50 10000 5.92 75 13:26 29.01.2023
43 Clouds 25 1012 50 10000 5.92 75 12:40 29.01.2023
44 Clouds 25 1012 50 10000 5.92 75 12:40 29.01.2023
45 Clear 26 1011 51 10000 4.38 72 12:22 29.01.2023
46 Clear 26 1011 50 10000 4.38 72 11:48 29.01.2023
47 Clear 29 1012 79 10000 3.04 71 11:26 29.01.2023
48 Clear 27 1010 50 10000 3.2 60 09:37 29.01.2023
49 Clouds 26 1013 52 10000 2.8 33 07:19 29.01.2023
50 Clouds 20 1013 68 10000 2.52 79 00:59 29.01.2023
51 Clouds 21 1011 62 10000 2.32 22 21:57 28.01.2023
52 Clear 22 1011 60 10000 2.44 23 20:38 28.01.2023
53 Clear 22 1011 62 10000 3.2 41 19:52 28.01.2023
54 Clouds 23 1012 60 10000 4.7 63 18:27 28.01.2023
55 Clouds 24 1012 58 10000 5.21 68 16:59 28.01.2023
56 Clouds 24 1013 58 10000 5.44 74 16:20 28.01.2023
57 Clouds 24 1013 57 10000 5.44 74 15:49 28.01.2023
58 Clouds 25 1012 55 10000 4.95 83 14:26 28.01.2023
59 Clouds 26 1010 54 10000 4.32 77 12:50 28.01.2023
60 Clear 27 1009 53 10000 2.34 50 11:54 28.01.2023
61 Clear 28 1009 53 10000 2.41 40 10:34 28.01.2023
62 Clear 27 1012 55 10000 3.3 350 07:21 28.01.2023
63 Clear 21 1014 68 10000 3.22 72 01:40 28.01.2023
64 Clear 22 1012 69 10000 4.21 71 00:25 28.01.2023
65 Clouds 24 1010 70 10000 4.3 72 20:59 27.01.2023
66 Clouds 26 1011 59 10000 5.69 67 18:25 27.01.2023
67 Clouds 26 1011 59 10000 5.69 67 17:57 27.01.2023
68 Clouds 26 1011 57 10000 4.1 51 17:18 27.01.2023
69 Clouds 27 1011 58 10000 4.1 51 16:34 27.01.2023
70 Rain 28 1011 54 10000 4.59 55 14:55 27.01.2023
71 Clouds 28 1010 53 10000 4.44 63 14:24 27.01.2023
72 Clouds 29 1009 47 10000 1.92 52 12:49 27.01.2023
73 Clouds 31 1008 42 10000 2.52 47 08:41 27.01.2023
74 Clouds 29 1013 50 10000 2.31 8 04:55 27.01.2023
75 Clear 24 1010 63 10000 1.09 41 22:55 26.01.2023
76 Clear 24 1010 65 10000 1.12 46 21:40 26.01.2023
77 Clear 24 1010 68 10000 1.21 62 20:36 26.01.2023
78 Clear 25 1011 58 10000 1.24 43 19:21 26.01.2023
79 Clear 27 1010 52 10000 1.19 340 17:42 26.01.2023
80 Clear 27 1011 52 10000 0.83 239 16:27 26.01.2023
81 Clear 27 1011 53 10000 0.83 239 15:55 26.01.2023
82 Clear 27 1011 53 10000 0.83 239 15:31 26.01.2023
83 Clear 28 1011 53 10000 0.91 231 14:58 26.01.2023
84 Clear 28 1010 56 10000 0.78 247 13:30 26.01.2023
85 Clouds 30 1009 44 10000 1.34 313 11:38 26.01.2023
86 Clouds 31 1008 42 10000 1.72 330 10:31 26.01.2023
87 Clear 31 1008 42 10000 1.87 343 09:44 26.01.2023
88 Clear 31 1009 41 10000 2.01 355 08:25 26.01.2023
89 Clouds 29 1012 43 10000 1.99 342 06:26 26.01.2023
90 Clouds 22 1011 68 10000 1.68 303 23:39 25.01.2023
91 Clouds 22 1011 60 10000 0.85 331 22:21 25.01.2023
92 Clouds 22 1011 59 10000 0.36 91 21:24 25.01.2023
93 Clouds 23 1012 57 10000 1.41 87 19:41 25.01.2023
94 Clouds 24 1013 56 10000 3.13 98 18:24 25.01.2023
95 Clouds 25 1013 55 10000 2.1 96 15:51 25.01.2023
96 Clear 25 1012 54 10000 0.97 49 13:33 25.01.2023
97 Clouds 27 1009 52 10000 2.31 345 11:25 25.01.2023
98 Clouds 28 1009 51 10000 2.39 345 09:52 25.01.2023
99 Clouds 28 1010 38 10000 2.65 344 07:59 25.01.2023
100 Clouds 21 1015 63 10000 2.45 60 01:51 25.01.2023
101 Clouds 21 1013 63 10000 2.14 35 00:25 25.01.2023
102 Clouds 23 1012 62 10000 4.41 62 21:35 24.01.2023
103 Clouds 23 1012 61 10000 5.45 72 20:39 24.01.2023
104 Clouds 25 1013 56 10000 6.73 72 19:18 24.01.2023
105 Clouds 26 1013 54 10000 7.78 79 18:29 24.01.2023
106 Clouds 27 1013 61 10000 7.97 82 17:18 24.01.2023
107 Clouds 27 1013 61 10000 7.97 82 16:43 24.01.2023
108 Clouds 30 1010 59 10000 4.82 66 13:50 24.01.2023
109 Clouds 31 1008 52 10000 5.51 72 11:59 24.01.2023
110 Clouds 32 1009 47 10000 5.48 66 08:43 24.01.2023
111 Clouds 32 1010 47 10000 5.78 79 08:18 24.01.2023
112 Clouds 31 1010 49 10000 5.78 79 07:48 24.01.2023
113 Clouds 26 1013 60 10000 2.5 7 02:43 24.01.2023
114 Clouds 25 1011 61 10000 2.17 359 00:40 24.01.2023
115 Clouds 25 1009 56 10000 2.05 356 22:32 23.01.2023
116 Clouds 25 1009 53 10000 1.63 13 20:43 23.01.2023
117 Clouds 26 1009 50 10000 2.08 23 19:21 23.01.2023
118 Clouds 28 1010 44 10000 1.39 28 17:19 23.01.2023
119 Clear 29 1009 41 10000 1.89 325 15:32 23.01.2023
120 Clear 30 1008 44 10000 2.28 297 13:56 23.01.2023
121 Clouds 30 1008 49 10000 1.92 295 12:55 23.01.2023
122 Clouds 33 1007 41 10000 1.49 326 11:46 23.01.2023
123 Clouds 33 1006 41 10000 1.37 353 11:28 23.01.2023
124 Clouds 33 1006 41 10000 1.37 353 11:28 23.01.2023
125 Clear 34 1007 33 10000 1.55 18 08:25 23.01.2023
126 Clear 23 1010 71 10000 2.55 337 00:22 23.01.2023
127 Clear 23 1009 32 10000 2.5 330 21:51 22.01.2023
128 Clear 24 1009 58 10000 2.21 337 21:19 22.01.2023
129 Clear 25 1009 54 10000 1.76 3 19:56 22.01.2023
130 Clear 26 1009 54 10000 1.76 3 19:37 22.01.2023
131 Clear 26 1010 54 10000 1.74 355 18:43 22.01.2023
132 Clear 26 1010 51 10000 1.95 318 17:55 22.01.2023
133 Clear 27 1010 51 10000 2.18 296 17:24 22.01.2023
134 Clear 28 1010 50 10000 1.47 234 15:29 22.01.2023
135 Clear 28 1010 53 10000 1.47 234 14:41 22.01.2023
136 Clear 29 1008 52 10000 0.92 143 13:27 22.01.2023
137 Clear 31 1009 79 10000 0.92 143 12:31 22.01.2023
138 Clear 31 1008 43 10000 0.63 59 11:34 22.01.2023
139 Clear 33 1008 76 10000 2.04 13 09:35 22.01.2023
140 Clear 30 1012 77 10000 2.07 11 05:41 22.01.2023
141 Clear 22 1011 67 10000 2.37 344 23:49 21.01.2023
142 Clear 23 1010 65 10000 2.41 335 23:29 21.01.2023
143 Clear 23 1010 58 10000 2.32 328 21:35 21.01.2023
144 Clear 25 1011 53 10000 1.72 356 18:55 21.01.2023
145 Clouds 26 1012 48 10000 1.4 13 16:40 21.01.2023
146 Clear 27 1011 47 10000 1.89 336 14:24 21.01.2023
147 Clouds 28 1010 64 10000 0.88 301 12:57 21.01.2023
148 Clouds 31 1009 39 10000 0.84 335 11:42 21.01.2023
149 Clouds 31 1008 38 10000 1.22 10 10:49 21.01.2023
150 Clouds 31 1009 38 10000 1.59 34 08:50 21.01.2023
151 Clouds 27 1014 55 10000 1.75 17 04:31 21.01.2023
152 Clouds 23 1011 68 10000 1.99 296 22:28 20.01.2023
153 Clouds 23 1011 66 10000 1.99 296 21:38 20.01.2023
154 Clouds 23 1011 63 10000 0.79 278 20:55 20.01.2023
155 Clouds 24 1013 62 10000 0.65 83 19:20 20.01.2023
156 Clouds 27 1013 59 10000 1.54 71 16:37 20.01.2023
157 Clouds 27 1013 59 10000 2.73 29 14:46 20.01.2023
158 Clouds 28 1012 59 10000 2.4 18 13:37 20.01.2023
159 Clouds 31 1010 51 10000 2.47 61 10:24 20.01.2023
160 Clouds 30 1011 53 10000 2.38 65 08:22 20.01.2023
161 Clouds 27 1016 56 10000 1.44 20 04:22 20.01.2023
162 Clear 23 1015 67 10000 2.25 331 02:29 20.01.2023
163 Clouds 24 1012 64 10000 2.3 316 22:32 19.01.2023
164 Clear 24 1012 63 10000 1.88 56 20:25 19.01.2023
165 Clouds 24 1012 62 10000 2.27 83 19:23 19.01.2023
166 Clouds 26 1014 57 10000 2.49 83 16:25 19.01.2023
167 Clouds 28 1011 50 10000 1.25 124 12:50 19.01.2023
168 Clouds 30 1010 48 10000 1.54 67 08:59 19.01.2023
169 Clouds 22 1014 77 10000 1.72 304 00:45 19.01.2023
170 Clouds 23 1013 73 10000 2.23 78 21:22 18.01.2023
171 Clear 24 1013 71 10000 2.19 86 20:20 18.01.2023
172 Clear 24 1013 69 10000 2.19 86 19:37 18.01.2023
173 Clouds 26 1014 66 10000 2.09 71 17:49 18.01.2023
174 Clouds 27 1014 59 10000 3.35 50 15:41 18.01.2023
175 Clouds 28 1013 56 10000 2.03 58 13:30 18.01.2023
176 Clear 31 1011 52 10000 3.15 75 11:25 18.01.2023
177 Clear 31 1011 55 10000 3.33 78 08:44 18.01.2023
178 Clouds 24 1014 72 10000 2.48 94 01:28 18.01.2023
179 Clouds 25 1013 73 10000 2.72 100 23:54 17.01.2023
180 Clouds 26 1012 72 10000 2.53 77 20:38 17.01.2023
181 Clear 26 1013 77 10000 1.4 91 19:34 17.01.2023
182 Clouds 26 1012 77 10000 2.09 188 19:34 17.01.2023
183 Clouds 27 1013 76 10000 2.33 198 18:28 17.01.2023
184 Clouds 27 1013 76 10000 2.68 204 16:33 17.01.2023
185 Clouds 28 1013 70 10000 2.59 195 14:56 17.01.2023
186 Clouds 29 1012 68 10000 3.21 187 14:20 17.01.2023
187 Clouds 30 1011 61 10000 2.66 191 12:48 17.01.2023
188 Clouds 31 1011 49 10000 2.45 190 11:42 17.01.2023
189 Clouds 32 1010 48 10000 3.2 177 09:34 17.01.2023
190 Clouds 32 1010 55 10000 2.98 140 07:54 17.01.2023
191 Clouds 28 1015 76 10000 0.93 79 03:57 17.01.2023
192 Clouds 24 1012 87 10000 0.23 237 00:57 17.01.2023
193 Clouds 24 1012 85 10000 0.79 225 23:38 16.01.2023
194 Clear 25 1011 81 10000 1.49 220 21:52 16.01.2023
195 Clear 26 1011 80 10000 2.2 201 20:27 16.01.2023
196 Clear 26 1011 81 10000 2.22 182 19:40 16.01.2023
197 Clouds 26 1011 80 10000 2.52 192 18:54 16.01.2023
198 Clouds 26 1012 79 10000 2.89 195 18:21 16.01.2023
199 Clouds 26 1012 78 10000 2.89 195 17:35 16.01.2023
200 Clear 28 1011 76 10000 3.06 199 15:33 16.01.2023
201 Clear 30 1011 88 10000 3.65 193 13:39 16.01.2023
202 Clear 32 1008 55 10000 4.33 196 10:53 16.01.2023
203 Clear 32 1008 53 10000 3.36 196 10:18 16.01.2023
204 Clouds 25 1010 90 10000 0.95 237 23:37 15.01.2023
205 Clouds 25 1009 89 10000 1.26 222 22:26 15.01.2023
206 Clear 25 1009 87 10000 2.4 200 20:40 15.01.2023
207 Clear 25 1009 86 10000 3.08 199 19:49 15.01.2023
208 Clear 26 1009 78 10000 4 195 17:46 15.01.2023
209 Clear 27 1009 59 10000 3.57 186 15:44 15.01.2023
210 Clear 30 1007 63 10000 3.59 175 12:31 15.01.2023
211 Clear 31 1006 56 10000 3.27 188 11:35 15.01.2023
212 Clear 32 1006 59 10000 1.68 256 10:28 15.01.2023
213 Clear 32 1006 56 10000 1.68 256 09:35 15.01.2023
214 Clouds 25 1010 85 10000 1.99 282 01:47 15.01.2023
215 Clear 25 1007 91 10000 1.56 232 22:50 14.01.2023
216 Clear 25 1007 91 10000 1.76 223 21:58 14.01.2023
217 Clear 26 1007 91 10000 1.76 223 21:36 14.01.2023
218 Clear 26 1008 92 10000 2.08 204 21:18 14.01.2023
219 Clear 26 1008 91 10000 2.08 204 20:38 14.01.2023
220 Clear 26 1009 91 10000 2.77 207 18:40 14.01.2023
221 Clear 27 1009 88 10000 4.16 188 16:19 14.01.2023
222 Clear 27 1009 85 10000 3.63 169 15:27 14.01.2023
223 Clear 28 1008 75 10000 3.94 149 14:25 14.01.2023
224 Clear 29 1008 75 10000 3.94 149 13:33 14.01.2023
225 Clear 32 1006 68 10000 2.18 178 10:52 14.01.2023
226 Clear 32 1006 67 10000 1.49 212 09:59 14.01.2023
227 Clouds 30 1010 70 10000 1.77 233 05:37 14.01.2023
228 Clear 25 1009 90 10000 2.59 209 23:23 13.01.2023
229 Clear 25 1009 90 10000 2.59 209 22:45 13.01.2023
230 Clear 25 1009 90 10000 2.87 191 22:20 13.01.2023
231 Clear 26 1009 90 10000 2.87 191 21:34 13.01.2023
232 Clear 26 1009 89 10000 2.79 194 19:38 13.01.2023
233 Clear 27 1010 86 10000 3.55 188 18:19 13.01.2023
234 Clear 27 1011 85 10000 4.11 182 16:24 13.01.2023
235 Clear 29 1009 79 10000 4.04 170 12:51 13.01.2023
236 Clouds 29 1008 78 10000 4.22 173 12:19 13.01.2023
237 Clouds 32 1008 66 10000 3.53 193 10:24 13.01.2023
238 Clouds 32 1008 64 10000 3.53 193 09:45 13.01.2023
239 Clouds 32 1008 64 10000 3.2 198 08:52 13.01.2023
240 Clear 32 1009 68 10000 2.84 196 07:49 13.01.2023
241 Clouds 31 1010 64 10000 2.36 186 06:52 13.01.2023
242 Clouds 27 1013 87 10000 1.61 144 03:26 13.01.2023
243 Clouds 25 1010 93 10000 1.45 174 23:43 12.01.2023
244 Clouds 25 1010 92 10000 2.09 185 22:40 12.01.2023
245 Clouds 26 1009 91 9537 2.22 184 20:55 12.01.2023
246 Clouds 26 1010 89 10000 2.53 193 18:53 12.01.2023
247 Clouds 26 1011 88 10000 2.77 187 17:33 12.01.2023
248 Clouds 26 1011 88 10000 2.77 187 17:33 12.01.2023
249 Clouds 27 1010 86 10000 3.48 163 15:53 12.01.2023
250 Clouds 27 1010 84 10000 3.36 160 14:44 12.01.2023
251 Clouds 27 1010 83 10000 3.1 172 14:21 12.01.2023
252 Clouds 28 1008 78 10000 3.91 179 12:45 12.01.2023
253 Clouds 31 1007 50 10000 2.53 186 10:34 12.01.2023
254 Clouds 31 1008 61 10000 0.53 208 08:21 12.01.2023
255 Clear 24 1012 90 10000 2.37 59 01:49 12.01.2023
256 Clouds 24 1010 89 10000 2.23 46 23:59 11.01.2023
257 Clouds 24 1010 89 10000 2.23 46 23:39 11.01.2023
258 Clouds 24 1010 89 10000 2.59 67 23:20 11.01.2023
259 Clouds 24 1010 88 10000 2.62 69 21:41 11.01.2023
260 Clouds 25 1010 86 10000 2.56 88 19:40 11.01.2023
261 Clouds 25 1011 86 10000 2.91 101 18:26 11.01.2023
262 Clouds 25 1011 85 10000 2.71 100 16:34 11.01.2023
263 Clouds 25 1011 83 10000 2.4 102 14:40 11.01.2023
264 Clouds 26 1009 80 10000 2.82 112 12:34 11.01.2023
265 Clouds 27 1008 80 10000 3.04 107 11:51 11.01.2023
266 Clouds 28 1008 76 10000 2.88 86 09:46 11.01.2023
267 Clouds 27 1009 78 10000 3.89 72 07:37 11.01.2023
268 Clouds 27 1011 79 10000 3.59 68 06:57 11.01.2023
269 Clouds 24 1011 83 10000 1.71 66 23:55 10.01.2023
270 Clouds 25 1010 81 10000 1.94 66 22:36 10.01.2023
271 Rain 25 1011 81 10000 2.39 80 21:29 10.01.2023
272 Clouds 25 1011 80 10000 2.16 79 19:56 10.01.2023
273 Clouds 25 1012 80 10000 2.02 87 19:29 10.01.2023
274 Clouds 26 1011 79 10000 2.13 88 18:47 10.01.2023
275 Clouds 26 1012 77 10000 2.42 89 17:33 10.01.2023
276 Clouds 27 1012 76 10000 2.2 89 15:47 10.01.2023
277 Clouds 27 1012 77 10000 1.8 70 15:21 10.01.2023
278 Clouds 28 1011 74 10000 1.46 53 13:33 10.01.2023
279 Clouds 29 1009 67 10000 2.66 72 11:28 10.01.2023
280 Clouds 30 1009 65 10000 2.35 68 08:44 10.01.2023
281 Clouds 30 1010 63 10000 2.26 77 07:59 10.01.2023
282 Clouds 30 1012 62 10000 2.24 62 07:25 10.01.2023
283 Clouds 28 1014 67 10000 1.61 13 03:33 10.01.2023
284 Clouds 26 1011 68 10000 1.36 4 22:41 09.01.2023
285 Clouds 27 1011 66 10000 1.15 0 21:20 09.01.2023
286 Clouds 27 1012 65 10000 0.33 16 20:25 09.01.2023
287 Clouds 28 1012 64 10000 1.2 97 18:40 09.01.2023
288 Clouds 28 1013 62 10000 1.85 107 17:50 09.01.2023
289 Clouds 28 1013 61 10000 1.93 91 16:34 09.01.2023
290 Clouds 28 1013 62 10000 1.82 73 15:59 09.01.2023
291 Clouds 28 1013 62 10000 1.43 43 15:22 09.01.2023
292 Clouds 29 1013 60 10000 1.43 43 14:42 09.01.2023
293 Clouds 29 1011 56 10000 0.92 38 12:54 09.01.2023
294 Clouds 30 1010 55 10000 1.23 42 11:59 09.01.2023
295 Clouds 30 1009 54 10000 1.29 56 11:19 09.01.2023
296 Clouds 31 1012 47 10000 1.38 334 06:59 09.01.2023
297 Clouds 26 1015 61 10000 1.72 17 02:55 09.01.2023
298 Clouds 25 1014 63 10000 2.27 354 01:49 09.01.2023
299 Clouds 25 1012 64 10000 2.88 4 22:29 08.01.2023
300 Clouds 25 1012 64 10000 3.01 0 21:22 08.01.2023
301 Clouds 25 1012 66 10000 2.09 11 20:37 08.01.2023
302 Clouds 26 1013 64 10000 2.76 6 18:51 08.01.2023
303 Clouds 26 1014 62 10000 3.26 354 17:22 08.01.2023
304 Clouds 27 1014 60 10000 3.26 354 16:43 08.01.2023
305 Clouds 27 1014 57 10000 2.72 7 15:36 08.01.2023
306 Clouds 28 1013 54 10000 3.63 353 13:58 08.01.2023
307 Clouds 27 1013 53 10000 3.63 353 13:30 08.01.2023
308 Clouds 27 1012 53 10000 3.92 352 12:46 08.01.2023
309 Clouds 28 1010 53 10000 3.49 357 10:37 08.01.2023
310 Clouds 28 1010 52 10000 3.29 360 09:36 08.01.2023
311 Clouds 29 1011 49 10000 2.75 6 07:48 08.01.2023
312 Clouds 24 1012 60 10000 1.07 85 00:24 08.01.2023
313 Clouds 24 1012 60 10000 1.41 74 22:48 07.01.2023
314 Clouds 25 1011 61 10000 1.6 69 22:24 07.01.2023
315 Clouds 25 1011 60 10000 1.6 69 21:47 07.01.2023
316 Clouds 25 1012 60 10000 1.73 71 20:43 07.01.2023
317 Clouds 25 1012 60 10000 1.27 59 20:22 07.01.2023
318 Clouds 25 1013 58 10000 0.67 59 18:45 07.01.2023
319 Clouds 26 1014 57 10000 1.23 70 17:50 07.01.2023
320 Clouds 26 1014 56 10000 1.44 42 17:28 07.01.2023
321 Clouds 26 1014 55 10000 1.44 42 16:37 07.01.2023
322 Clouds 26 1014 56 10000 1.95 10 15:46 07.01.2023
323 Clouds 26 1013 56 10000 2.61 4 15:24 07.01.2023
324 Clouds 26 1013 58 10000 2.73 42 14:27 07.01.2023
325 Clouds 26 1013 57 10000 2.73 42 13:47 07.01.2023
326 Clouds 26 1012 57 10000 3.04 70 13:23 07.01.2023
327 Clouds 27 1011 55 10000 3.19 87 12:22 07.01.2023
328 Clouds 28 1010 52 10000 2.71 82 11:18 07.01.2023
329 Clouds 30 1011 81 10000 2.45 84 10:25 07.01.2023
330 Clouds 29 1011 49 10000 1.84 78 08:21 07.01.2023
331 Clouds 28 1011 48 10000 1.84 78 07:44 07.01.2023
332 Clouds 27 1013 51 10000 1.54 37 06:49 07.01.2023
333 Clouds 23 1013 59 10000 3.31 76 23:55 06.01.2023
334 Clouds 23 1013 73 10000 3.84 67 22:22 06.01.2023
335 Clouds 23 1013 68 10000 3.84 67 21:58 06.01.2023
336 Clouds 24 1014 68 10000 4.69 68 20:59 06.01.2023
337 Clouds 24 1014 70 10000 5.49 70 19:57 06.01.2023
338 Clouds 24 1014 69 10000 5.49 70 19:39 06.01.2023
339 Clouds 24 1015 69 10000 5.33 70 19:21 06.01.2023
340 Clouds 24 1016 68 10000 5.29 68 18:25 06.01.2023
341 Clouds 25 1016 66 10000 5.06 65 16:55 06.01.2023
342 Clouds 25 1016 64 10000 5.41 64 16:23 06.01.2023
343 Clouds 25 1016 64 10000 5.41 64 15:53 06.01.2023
344 Clouds 26 1016 63 10000 5.41 64 15:34 06.01.2023
345 Clouds 27 1015 62 10000 6.25 62 13:48 06.01.2023
346 Clouds 27 1013 59 10000 7.34 65 12:21 06.01.2023
347 Clouds 29 1012 57 10000 5.85 71 10:57 06.01.2023
348 Clouds 29 1012 56 10000 4.18 52 08:55 06.01.2023
349 Clouds 28 1015 61 10000 3.6 41 05:31 06.01.2023
350 Clouds 25 1014 70 10000 2.58 68 23:48 05.01.2023
351 Clouds 25 1013 69 10000 2.89 59 22:54 05.01.2023
352 Clouds 26 1013 67 10000 3.39 46 21:22 05.01.2023
353 Clouds 27 1013 63 10000 2.59 49 17:57 05.01.2023
354 Clouds 27 1014 63 10000 2.82 47 17:26 05.01.2023
355 Clouds 27 1014 63 10000 2.82 47 17:26 05.01.2023
356 Clouds 28 1014 61 10000 3.21 44 15:59 05.01.2023
357 Clouds 28 1014 60 10000 3.21 44 15:37 05.01.2023
358 Clouds 29 1014 57 10000 3.56 40 14:34 05.01.2023
359 Clouds 30 1012 52 10000 4.26 42 12:42 05.01.2023
360 Clouds 31 1011 51 10000 3.5 53 11:42 05.01.2023
361 Clouds 31 1010 50 10000 2.97 50 09:48 05.01.2023
362 Clouds 30 1011 52 10000 3.8 38 08:23 05.01.2023
363 Clouds 30 1013 53 10000 2.52 29 06:57 05.01.2023
364 Clouds 26 1016 67 10000 2.8 26 03:34 05.01.2023
365 Clouds 25 1014 66 10000 1.18 25 22:33 04.01.2023
366 Clouds 26 1013 66 10000 1.2 37 21:33 04.01.2023
367 Clouds 26 1014 66 10000 1.24 67 20:26 04.01.2023
368 Clouds 26 1014 65 10000 1.24 67 19:48 04.01.2023
369 Clouds 26 1014 66 10000 1.24 67 19:30 04.01.2023
370 Clouds 26 1014 65 10000 1.55 48 18:18 04.01.2023
371 Clouds 27 1014 59 10000 1.91 50 16:31 04.01.2023
372 Clouds 28 1014 58 10000 3.46 32 14:53 04.01.2023
373 Clouds 29 1014 55 10000 4.08 27 13:31 04.01.2023
374 Clouds 30 1011 53 10000 3.94 359 11:26 04.01.2023
375 Clouds 31 1011 52 10000 3.94 359 10:59 04.01.2023
376 Clouds 31 1011 51 10000 3.94 359 10:40 04.01.2023
377 Clouds 31 1011 51 10000 3.4 2 10:21 04.01.2023
378 Clouds 29 1015 55 10000 2.51 15 05:39 04.01.2023
379 Clouds 25 1016 66 10000 3.47 11 01:42 04.01.2023
380 Clouds 25 1014 65 10000 3.35 3 23:45 03.01.2023
381 Clouds 26 1013 66 10000 3.19 6 23:26 03.01.2023
382 Clouds 26 1013 65 10000 2.91 10 21:43 03.01.2023
383 Clouds 26 1014 65 10000 2.81 12 20:50 03.01.2023
384 Clouds 27 1014 65 10000 2.28 29 18:40 03.01.2023
385 Clouds 27 1015 61 10000 3.03 65 16:42 03.01.2023
386 Clouds 28 1015 59 10000 3.03 66 15:40 03.01.2023
387 Clouds 28 1014 61 10000 3.24 51 13:43 03.01.2023
388 Clouds 28 1013 61 10000 1.85 31 13:24 03.01.2023
389 Clouds 28 1013 62 10000 1.85 31 12:57 03.01.2023
390 Clouds 28 1012 61 10000 1.75 33 12:21 03.01.2023
391 Clouds 29 1011 58 10000 2.16 26 09:51 03.01.2023
392 Clouds 28 1017 62 10000 1.07 320 04:29 03.01.2023
393 Clouds 27 1017 65 10000 1.07 320 03:52 03.01.2023
394 Clouds 26 1017 68 10000 1.07 320 03:32 03.01.2023
395 Clouds 24 1014 74 10000 2 317 23:19 02.01.2023
396 Clouds 24 1014 76 10000 2 317 22:40 02.01.2023
397 Clouds 25 1015 72 10000 0.81 25 20:59 02.01.2023
398 Clouds 25 1015 71 10000 0.81 25 20:31 02.01.2023
399 Clouds 26 1016 69 10000 2.34 82 18:52 02.01.2023
400 Clouds 26 1016 66 10000 2.54 71 16:53 02.01.2023
401 Clouds 26 1015 68 10000 2.45 10 14:26 02.01.2023
402 Clouds 27 1014 67 10000 3.33 13 12:56 02.01.2023
403 Clouds 28 1013 61 10000 2.81 2 11:27 02.01.2023
404 Clouds 29 1013 56 10000 2.53 17 08:55 02.01.2023
405 Clouds 27 1017 53 10000 2.52 343 05:43 02.01.2023
406 Clouds 23 1015 68 10000 1.43 298 23:32 01.01.2023
407 Clouds 23 1014 67 10000 1.72 344 21:55 01.01.2023
408 Clouds 23 1014 68 10000 2.16 353 20:50 01.01.2023
409 Clouds 23 1014 67 10000 2.26 1 20:18 01.01.2023
410 Clouds 23 1014 67 10000 2.26 1 20:18 01.01.2023
411 Clouds 24 1014 70 10000 2 5 18:53 01.01.2023
412 Clouds 25 1015 66 10000 2.11 32 17:39 01.01.2023
413 Clouds 25 1015 65 10000 2.88 31 17:19 01.01.2023
414 Clouds 25 1016 59 10000 3.53 32 15:46 01.01.2023
415 Clouds 26 1015 58 10000 3.43 19 13:50 01.01.2023
416 Clouds 27 1014 50 10000 2.58 15 12:59 01.01.2023
417 Clouds 28 1013 49 10000 1.91 32 11:42 01.01.2023
418 Clouds 28 1012 49 10000 1.84 50 11:21 01.01.2023
419 Clouds 29 1012 47 10000 1.84 51 09:38 01.01.2023
420 Clear 29 1013 48 10000 1.98 50 08:42 01.01.2023
421 Clouds 29 1013 46 10000 1.83 9 08:18 01.01.2023
422 Clouds 28 1015 49 10000 1.8 5 06:46 01.01.2023
423 Clouds 21 1015 76 10000 0.59 337 23:47 31.12.2022
424 Clouds 21 1015 75 10000 0.38 25 23:26 31.12.2022
425 Clouds 21 1015 73 10000 0.89 27 22:22 31.12.2022
426 Clouds 22 1015 71 10000 1.75 41 21:24 31.12.2022
427 Clouds 23 1015 69 10000 1.75 41 20:31 31.12.2022
428 Clouds 24 1016 69 10000 2.61 54 18:57 31.12.2022
429 Clouds 24 1016 69 10000 2.61 54 18:38 31.12.2022
430 Clouds 24 1016 67 10000 3.19 60 17:57 31.12.2022
431 Clouds 24 1016 65 10000 3.19 60 17:32 31.12.2022
432 Clouds 25 1016 64 10000 3.39 70 16:32 31.12.2022
433 Clouds 26 1016 62 10000 3.64 79 15:36 31.12.2022
434 Clouds 26 1015 63 10000 3.13 52 13:56 31.12.2022
435 Clouds 26 1014 62 10000 2.03 57 13:27 31.12.2022
436 Clouds 27 1013 60 10000 1.44 51 12:24 31.12.2022
437 Clouds 27 1013 56 10000 1.44 51 11:52 31.12.2022
438 Clear 30 1014 83 10000 1.49 41 11:25 31.12.2022
439 Clear 31 1014 81 10000 1.49 34 09:56 31.12.2022
440 Clear 31 1014 81 10000 1.49 34 09:37 31.12.2022
441 Clear 31 1014 81 10000 2.16 18 08:22 31.12.2022
442 Clouds 22 1017 77 10000 1.4 324 00:59 31.12.2022
443 Clouds 22 1016 76 10000 1.24 351 00:27 31.12.2022
444 Clouds 22 1015 74 10000 1.15 17 22:55 30.12.2022
445 Clouds 23 1015 74 10000 1.91 53 22:18 30.12.2022
446 Clouds 23 1015 73 10000 1.91 53 21:37 30.12.2022
447 Clouds 23 1015 72 10000 2.85 74 20:20 30.12.2022
448 Clouds 25 1016 69 10000 3.65 77 18:28 30.12.2022
449 Clouds 25 1016 67 10000 3.65 77 17:33 30.12.2022
450 Clouds 27 1016 61 10000 3.71 82 15:58 30.12.2022
451 Clouds 27 1016 62 10000 3.41 48 14:54 30.12.2022
452 Clouds 28 1015 61 10000 1.24 71 12:52 30.12.2022
453 Clouds 30 1014 56 10000 2.53 52 08:23 30.12.2022
454 Clouds 24 1018 70 10000 3.86 77 03:47 30.12.2022
455 Clouds 23 1018 73 10000 3.34 73 02:25 30.12.2022
456 Clouds 23 1015 74 10000 2.96 82 23:18 29.12.2022
457 Clouds 24 1014 70 10000 2.27 88 21:32 29.12.2022
458 Clouds 24 1014 71 10000 2.25 89 20:54 29.12.2022
459 Clouds 25 1015 71 10000 1.78 88 20:26 29.12.2022
460 Clouds 26 1015 61 10000 1.72 30 18:37 29.12.2022
461 Clouds 26 1016 59 10000 2.18 31 17:51 29.12.2022
462 Clouds 27 1016 59 10000 2.62 14 17:18 29.12.2022
463 Clouds 27 1016 60 10000 2.62 14 16:44 29.12.2022
464 Clouds 27 1016 59 10000 2.89 351 15:44 29.12.2022
465 Clouds 28 1015 63 10000 3.04 351 13:34 29.12.2022
466 Clouds 29 1013 46 10000 1.97 349 11:48 29.12.2022
467 Clouds 31 1012 43 10000 2.21 19 09:20 29.12.2022
468 Clouds 22 1016 78 10000 1.95 321 00:37 29.12.2022
469 Clouds 23 1015 68 10000 1.7 323 23:28 28.12.2022
470 Clouds 23 1014 67 10000 2.23 319 21:44 28.12.2022
471 Clouds 23 1014 67 10000 2.23 307 21:18 28.12.2022
472 Clouds 24 1015 68 10000 2.38 310 19:47 28.12.2022
473 Clouds 26 1015 57 10000 1.63 264 16:58 28.12.2022
474 Clouds 27 1015 59 10000 1.13 264 15:38 28.12.2022
475 Clouds 28 1013 63 10000 2 223 12:59 28.12.2022
476 Clouds 28 1013 61 10000 1.57 232 12:24 28.12.2022
477 Clouds 29 1012 54 10000 0.87 288 11:29 28.12.2022
478 Clouds 30 1012 44 10000 1.49 358 09:19 28.12.2022
479 Clouds 30 1014 46 10000 2.52 37 07:28 28.12.2022
480 Clouds 29 1014 48 10000 1.84 59 06:43 28.12.2022
481 Clouds 22 1014 75 10000 2.02 3 00:24 28.12.2022
482 Clouds 24 1014 70 10000 1.25 356 20:31 27.12.2022
483 Clouds 25 1014 71 10000 0.18 74 19:40 27.12.2022
484 Clouds 25 1015 62 10000 0.95 174 17:47 27.12.2022
485 Clouds 26 1015 58 10000 1 184 16:43 27.12.2022
486 Clouds 26 1015 53 10000 1.37 183 15:31 27.12.2022
487 Clouds 27 1013 51 10000 1.22 243 12:36 27.12.2022
488 Clouds 28 1012 49 10000 0.52 229 11:30 27.12.2022
489 Clouds 29 1011 49 10000 1.28 327 09:47 27.12.2022
490 Clouds 29 1012 49 10000 0.97 321 09:23 27.12.2022
491 Clouds 28 1014 46 10000 1.23 56 06:51 27.12.2022
492 Clouds 26 1016 57 10000 1.62 84 04:31 27.12.2022
493 Clouds 23 1013 64 10000 1.36 348 22:28 26.12.2022
494 Clouds 23 1014 66 10000 1.49 36 21:24 26.12.2022
495 Clouds 23 1014 65 10000 1.49 36 20:39 26.12.2022
496 Clouds 24 1015 64 10000 2.06 93 18:44 26.12.2022
497 Clouds 24 1016 63 10000 2.45 98 17:46 26.12.2022
498 Clouds 25 1016 60 10000 1.8 87 16:21 26.12.2022
499 Clouds 26 1015 54 10000 0.84 21 14:30 26.12.2022
500 Clouds 27 1014 55 10000 0.65 156 12:47 26.12.2022
501 Clouds 30 1013 44 10000 1.41 68 07:59 26.12.2022
502 Clouds 21 1015 70 10000 1.78 331 23:56 25.12.2022
503 Clouds 22 1015 69 10000 1.78 331 23:38 25.12.2022
504 Clouds 22 1014 69 10000 1.18 28 22:27 25.12.2022
505 Clouds 22 1014 69 10000 1.18 28 22:27 25.12.2022
506 Clouds 22 1014 68 10000 1.18 28 21:48 25.12.2022
507 Clouds 24 1015 65 10000 2.03 84 18:50 25.12.2022
508 Clouds 24 1015 64 10000 2.07 103 17:52 25.12.2022
509 Clouds 24 1015 62 10000 2.07 103 17:34 25.12.2022
510 Clear 25 1015 61 10000 1.99 44 15:21 25.12.2022
511 Clouds 27 1013 57 10000 1.52 44 12:26 25.12.2022
512 Clouds 29 1011 51 10000 3.42 66 08:39 25.12.2022
513 Clouds 22 1013 72 10000 3.44 83 23:30 24.12.2022
514 Clouds 23 1012 69 10000 2.6 76 21:25 24.12.2022
515 Clouds 24 1014 66 10000 2.82 70 17:59 24.12.2022
516 Clouds 25 1014 63 10000 2.89 61 16:32 24.12.2022
517 Clouds 26 1014 62 10000 3.98 67 14:48 24.12.2022
518 Clouds 27 1011 60 10000 3.42 80 12:42 24.12.2022
519 Clouds 29 1010 53 10000 1.79 24 10:39 24.12.2022
520 Clouds 29 1010 54 10000 2.07 21 10:20 24.12.2022
521 Clouds 29 1010 54 10000 2.07 21 09:36 24.12.2022
522 Clouds 28 1013 57 10000 2.83 42 05:46 24.12.2022
523 Clouds 28 1013 57 10000 2.83 42 05:46 24.12.2022
524 Clouds 23 1013 71 10000 2.51 63 00:52 24.12.2022
525 Clouds 23 1012 67 10000 2.52 67 23:35 23.12.2022
526 Clear 23 1011 69 10000 2.62 80 21:58 23.12.2022
527 Clear 24 1011 68 10000 2.74 86 20:31 23.12.2022
528 Clear 25 1011 64 10000 2.7 90 19:39 23.12.2022
529 Clouds 25 1012 63 10000 2.47 97 19:21 23.12.2022
530 Clouds 26 1012 61 10000 2.47 97 18:38 23.12.2022
531 Clear 25 1012 61 10000 2.63 108 18:19 23.12.2022
532 Clouds 27 1012 59 10000 3.03 109 16:32 23.12.2022
533 Clouds 27 1011 61 10000 2.71 90 14:44 23.12.2022
534 Clouds 31 1008 48 10000 2.63 52 10:57 23.12.2022
535 Clouds 31 1007 49 10000 2.47 52 09:36 23.12.2022
536 Clouds 31 1008 51 10000 2.64 49 07:45 23.12.2022
537 Clouds 30 1010 56 10000 2.58 53 06:50 23.12.2022
538 Clouds 29 1012 57 10000 1.9 47 05:20 23.12.2022
539 Clouds 23 1010 77 10000 0.53 344 23:21 22.12.2022
540 Clouds 24 1010 74 10000 0.44 19 21:57 22.12.2022
541 Clouds 25 1010 73 10000 0.65 105 20:25 22.12.2022
542 Clouds 25 1010 69 10000 0.71 73 19:23 22.12.2022
543 Clouds 26 1010 67 10000 0.76 103 18:37 22.12.2022
544 Clouds 26 1011 69 10000 0.48 234 16:58 22.12.2022
545 Clouds 26 1011 69 10000 0.48 234 16:37 22.12.2022
546 Clouds 28 1011 53 10000 1.08 224 15:32 22.12.2022
547 Clouds 28 1010 51 10000 1.6 211 14:45 22.12.2022
548 Clouds 28 1010 47 10000 1.61 191 13:31 22.12.2022
549 Clouds 29 1008 44 10000 1.36 184 12:32 22.12.2022
550 Clouds 31 1007 37 10000 0.09 84 10:32 22.12.2022
551 Clouds 31 1007 37 10000 0.25 128 09:59 22.12.2022
552 Clouds 32 1007 38 10000 0.22 133 09:19 22.12.2022
553 Clouds 32 1007 38 10000 0.22 133 09:19 22.12.2022
554 Clear 30 1008 39 10000 0.19 68 07:54 22.12.2022
555 Clouds 26 1012 52 10000 0.88 7 04:19 22.12.2022
556 Clouds 23 1011 65 10000 1.79 324 00:48 22.12.2022
557 Clouds 23 1009 63 10000 1.81 317 22:41 21.12.2022
558 Clouds 24 1009 61 10000 1.82 330 21:50 21.12.2022
559 Clouds 24 1009 59 10000 1.89 347 21:20 21.12.2022
560 Clouds 24 1009 59 10000 1.89 347 20:40 21.12.2022
561 Clouds 24 1009 56 10000 1.52 10 19:56 21.12.2022
562 Clouds 24 1009 56 10000 1.52 10 19:37 21.12.2022
563 Clouds 24 1010 54 10000 1.38 15 19:18 21.12.2022
564 Clouds 26 1010 54 10000 1.6 3 18:38 21.12.2022
565 Clouds 26 1011 53 10000 1.83 24 16:19 21.12.2022
566 Clouds 28 1010 49 10000 2.83 347 14:24 21.12.2022
567 Clouds 29 1008 43 10000 3.1 358 12:18 21.12.2022
568 Clouds 30 1008 37 10000 3.19 6 11:21 21.12.2022
569 Clouds 31 1008 37 10000 3.19 6 10:30 21.12.2022
570 Clouds 31 1007 34 10000 2.63 5 08:49 21.12.2022
571 Clouds 30 1010 36 10000 2.13 9 06:30 21.12.2022
572 Clouds 21 1010 60 10000 2.46 349 00:27 21.12.2022
573 Clouds 22 1009 59 10000 3.03 338 21:47 20.12.2022
574 Clouds 22 1009 59 10000 3.03 338 21:47 20.12.2022
575 Clouds 22 1009 58 10000 3.21 330 20:58 20.12.2022
576 Clouds 23 1010 57 10000 2.81 328 19:55 20.12.2022
577 Clouds 24 1010 56 10000 2.89 334 18:48 20.12.2022
578 Clouds 24 1011 55 10000 2.7 337 18:23 20.12.2022
579 Clouds 24 1011 55 10000 2.7 337 17:50 20.12.2022
580 Clouds 24 1011 53 10000 2.68 339 17:24 20.12.2022
581 Clouds 25 1011 52 10000 2.93 345 15:55 20.12.2022
582 Clouds 26 1011 52 10000 3.51 354 14:56 20.12.2022
583 Clouds 26 1011 52 10000 3.51 354 14:36 20.12.2022
584 Clouds 26 1010 45 10000 2.91 342 13:26 20.12.2022
585 Clouds 27 1009 45 10000 3.17 352 12:34 20.12.2022
586 Clouds 28 1008 41 10000 2.28 351 11:54 20.12.2022
587 Clouds 29 1008 35 10000 2.34 6 09:57 20.12.2022
588 Clear 28 1010 37 10000 1.9 4 06:58 20.12.2022
589 Clouds 20 1011 61 10000 1.97 329 23:58 19.12.2022
590 Clouds 20 1010 59 10000 1.93 331 22:22 19.12.2022
591 Clouds 20 1010 57 10000 1.86 323 20:48 19.12.2022
592 Clouds 21 1010 56 10000 1.54 330 19:40 19.12.2022
593 Clouds 21 1011 54 10000 1.38 330 18:44 19.12.2022
594 Clouds 22 1011 53 10000 1.7 350 17:38 19.12.2022
595 Clouds 23 1012 51 10000 3.05 355 15:52 19.12.2022
596 Clouds 25 1011 47 10000 4.48 359 12:35 19.12.2022
597 Clouds 26 1010 43 10000 3.55 357 11:36 19.12.2022
598 Clouds 26 1010 37 10000 2.6 353 07:49 19.12.2022
599 Clouds 25 1011 38 10000 2.47 347 06:32 19.12.2022
600 Clouds 19 1013 52 10000 2.72 36 00:20 19.12.2022
601 Clouds 20 1012 51 10000 3.57 10 21:48 18.12.2022
602 Clouds 20 1012 51 10000 3.52 4 21:24 18.12.2022
603 Clouds 20 1012 50 10000 3.59 4 20:53 18.12.2022
604 Clouds 21 1013 49 10000 2.98 9 19:43 18.12.2022
605 Clouds 22 1013 49 10000 2.77 16 18:57 18.12.2022
606 Clouds 22 1014 48 10000 3.25 36 17:52 18.12.2022
607 Clouds 22 1014 46 10000 5.09 61 15:41 18.12.2022
608 Clouds 23 1014 46 10000 5.51 62 15:23 18.12.2022
609 Clouds 24 1014 46 10000 5.56 65 14:29 18.12.2022
610 Clouds 24 1013 46 10000 5.55 65 12:58 18.12.2022
611 Clouds 24 1013 46 10000 5.55 65 12:32 18.12.2022
612 Clouds 25 1012 45 10000 5.84 65 11:48 18.12.2022
613 Clouds 26 1011 40 10000 5.42 54 09:24 18.12.2022
614 Clouds 27 1011 40 10000 5.42 54 08:46 18.12.2022
615 Clear 25 1015 43 10000 4.91 58 06:24 18.12.2022
616 Clear 23 1016 47 10000 4.94 45 04:41 18.12.2022
617 Clear 20 1016 58 10000 5.23 69 01:49 18.12.2022
618 Clouds 22 1014 58 10000 5.99 67 22:30 17.12.2022
619 Clouds 23 1013 57 10000 6.23 72 20:35 17.12.2022
620 Clouds 25 1013 54 10000 5.54 72 17:20 17.12.2022
621 Clouds 26 1013 54 10000 5.43 63 15:18 17.12.2022
622 Clouds 28 1011 57 10000 6.04 60 12:33 17.12.2022
623 Clouds 30 1009 53 10000 7.21 70 11:18 17.12.2022
624 Clouds 30 1009 53 10000 7.21 70 10:38 17.12.2022
625 Clouds 31 1008 45 10000 5.87 69 08:36 17.12.2022
626 Clouds 31 1010 46 10000 4.98 70 06:46 17.12.2022
627 Clouds 23 1010 67 10000 2.9 359 00:18 17.12.2022
628 Clouds 24 1009 67 10000 3.06 352 22:22 16.12.2022
629 Clouds 24 1009 65 10000 3.09 346 20:25 16.12.2022
630 Clouds 25 1010 61 10000 2.46 354 17:47 16.12.2022
631 Clouds 27 1010 56 10000 2.5 345 14:52 16.12.2022
632 Clouds 27 1010 54 10000 2.12 345 14:27 16.12.2022
633 Clouds 29 1008 49 10000 1.92 24 12:22 16.12.2022
634 Clouds 30 1007 45 10000 2.13 34 10:58 16.12.2022
635 Clouds 30 1007 43 10000 2.14 32 09:39 16.12.2022
636 Clouds 30 1008 44 10000 2.34 17 08:27 16.12.2022
637 Clouds 29 1008 44 10000 2.34 17 07:54 16.12.2022
638 Clouds 22 1010 67 10000 2.73 337 00:18 16.12.2022
639 Clouds 22 1009 67 10000 2.62 332 22:33 15.12.2022
640 Clouds 23 1009 65 10000 1.9 333 20:54 15.12.2022
641 Clouds 24 1010 62 10000 1.73 338 19:37 15.12.2022
642 Clouds 24 1010 61 10000 1.81 356 18:30 15.12.2022
643 Clouds 25 1011 58 10000 1.77 6 17:27 15.12.2022
644 Clouds 26 1011 56 10000 1.67 11 15:39 15.12.2022
645 Clouds 25 1011 55 10000 1.57 1 14:37 15.12.2022
646 Clouds 27 1009 48 10000 1.54 353 12:47 15.12.2022
647 Clouds 29 1008 42 10000 1.05 11 10:33 15.12.2022
648 Clouds 29 1008 40 10000 0.59 350 08:54 15.12.2022
649 Clear 28 1009 40 10000 0.74 337 07:57 15.12.2022
650 Clouds 27 1012 43 10000 1.25 287 05:35 15.12.2022
651 Clouds 21 1011 56 10000 1.71 27 21:45 14.12.2022
652 Clouds 21 1011 55 10000 1.99 24 21:18 14.12.2022
653 Clouds 21 1011 55 10000 1.99 24 20:31 14.12.2022
654 Clouds 21 1011 55 10000 1.99 24 20:31 14.12.2022
655 Clear 22 1012 56 10000 2.18 357 18:38 14.12.2022
656 Clear 23 1013 54 10000 1.89 16 16:58 14.12.2022
657 Clear 23 1013 54 10000 2.26 34 15:49 14.12.2022
658 Clear 24 1013 53 10000 2.76 35 14:49 14.12.2022
659 Clear 25 1012 49 10000 4.06 45 12:49 14.12.2022
660 Clear 28 1011 44 10000 4.05 63 10:44 14.12.2022
661 Clear 28 1010 40 10000 3.73 71 09:26 14.12.2022
662 Clouds 22 1015 54 10000 1.93 62 02:47 14.12.2022
663 Clouds 21 1011 62 10000 2.05 347 21:51 13.12.2022
664 Clouds 22 1012 62 10000 1.85 354 21:27 13.12.2022
665 Clouds 21 1012 62 10000 1.85 354 20:46 13.12.2022
666 Clouds 23 1013 55 10000 2.92 61 18:40 13.12.2022
667 Clouds 25 1014 51 10000 3.23 77 16:22 13.12.2022
668 Clouds 25 1013 51 10000 2.94 85 14:53 13.12.2022
669 Clouds 26 1012 50 10000 2.52 51 12:43 13.12.2022
670 Clouds 28 1010 47 10000 1.66 57 10:38 13.12.2022
671 Clouds 29 1009 44 10000 2.12 67 09:45 13.12.2022
672 Clouds 28 1010 42 10000 2.66 67 07:51 13.12.2022
673 Clouds 24 1011 58 10000 5.08 81 22:23 12.12.2022
674 Clouds 24 1011 57 10000 4.98 83 21:28 12.12.2022
675 Clouds 25 1011 57 10000 4.62 77 19:32 12.12.2022
676 Clouds 26 1012 54 10000 4.97 72 17:34 12.12.2022
677 Clouds 27 1012 53 10000 4.11 74 15:23 12.12.2022
678 Clouds 29 1009 49 10000 3.5 30 12:26 12.12.2022
679 Clouds 31 1008 41 10000 4.12 65 09:20 12.12.2022
680 Clouds 30 1011 46 10000 3.31 79 05:42 12.12.2022
681 Clouds 28 1013 53 10000 3.33 80 03:51 12.12.2022
682 Clouds 24 1009 65 10000 0.78 343 22:57 11.12.2022
683 Clouds 26 1009 61 10000 0.3 28 20:54 11.12.2022
684 Clouds 26 1010 59 10000 1.45 121 19:48 11.12.2022
685 Clouds 26 1010 59 10000 1.45 121 19:30 11.12.2022
686 Clouds 27 1011 56 10000 2.01 125 18:22 11.12.2022
687 Clouds 27 1011 56 10000 2.01 125 17:32 11.12.2022
688 Clouds 28 1011 56 10000 1.71 111 16:52 11.12.2022
689 Clouds 28 1011 56 10000 1.48 91 15:47 11.12.2022
690 Clouds 29 1011 56 10000 1.4 70 14:50 11.12.2022
691 Clouds 29 1009 52 10000 0.92 147 12:45 11.12.2022
692 Clouds 30 1008 50 10000 0.41 220 12:18 11.12.2022
693 Clouds 33 1008 100 10000 2.46 63 08:29 11.12.2022
694 Clouds 25 1010 69 10000 2.04 72 00:34 11.12.2022
695 Clouds 25 1009 68 10000 1.25 73 23:20 10.12.2022
696 Clouds 25 1009 68 10000 1.25 73 22:33 10.12.2022
697 Clouds 25 1009 68 10000 1.25 73 22:33 10.12.2022
698 Clouds 25 1009 68 10000 1.25 73 22:33 10.12.2022
699 Clouds 26 1009 66 10000 1.14 81 21:19 10.12.2022
700 Clouds 26 1009 66 10000 1.14 81 20:35 10.12.2022
701 Clouds 28 1010 66 10000 1.16 57 18:58 10.12.2022
702 Clouds 28 1011 65 10000 1.28 88 16:57 10.12.2022
703 Clouds 29 1011 65 10000 1.28 88 16:33 10.12.2022
704 Clouds 29 1011 64 10000 0.99 97 15:38 10.12.2022
705 Clouds 30 1010 62 10000 0.48 103 14:48 10.12.2022
706 Clouds 30 1009 56 10000 0.5 148 12:53 10.12.2022
707 Clouds 32 1007 54 10000 0.45 79 11:37 10.12.2022
708 Clouds 33 1007 100 10000 0.73 47 10:41 10.12.2022
709 Clouds 32 1007 46 10000 1.35 7 08:58 10.12.2022
710 Clouds 33 1008 100 10000 1.51 347 07:19 10.12.2022
711 Clouds 25 1010 73 10000 0.86 358 00:40 10.12.2022
712 Clouds 25 1009 72 10000 1.3 1 23:19 09.12.2022
713 Clouds 26 1009 72 10000 1.3 1 22:38 09.12.2022
714 Clouds 26 1009 71 10000 1.38 5 21:24 09.12.2022
715 Clouds 26 1009 71 10000 1.38 5 20:42 09.12.2022
716 Clouds 27 1010 69 10000 1.35 38 18:52 09.12.2022
717 Clouds 27 1010 69 10000 1.66 23 17:53 09.12.2022
718 Clouds 28 1010 67 10000 1.93 19 16:31 09.12.2022
719 Clouds 28 1011 64 10000 2.04 21 15:42 09.12.2022
720 Clouds 29 1010 62 10000 2.16 12 15:18 09.12.2022
721 Clouds 31 1008 57 10000 1.11 331 11:32 09.12.2022
722 Clouds 32 1007 51 10000 1.06 338 10:34 09.12.2022
723 Clouds 31 1007 49 10000 1.24 325 08:36 09.12.2022
724 Clouds 28 1012 65 10000 2.43 23 03:19 09.12.2022
725 Clouds 26 1009 76 10000 2.69 339 00:18 09.12.2022
726 Clouds 27 1009 74 10000 2.39 315 21:23 08.12.2022
727 Clouds 27 1010 72 10000 1.84 308 20:21 08.12.2022
728 Clouds 28 1010 69 10000 0.88 344 17:32 08.12.2022
729 Clouds 28 1011 65 10000 1.93 25 14:52 08.12.2022
730 Clouds 29 1010 63 10000 2.03 359 14:24 08.12.2022
731 Clouds 31 1008 54 10000 1.24 71 11:18 08.12.2022
732 Clouds 31 1007 51 10000 1.28 57 09:45 08.12.2022
733 Clouds 30 1007 51 10000 0.92 50 09:20 08.12.2022
734 Clouds 25 1009 82 10000 2.63 339 22:56 07.12.2022
735 Clouds 25 1009 83 10000 2.63 338 22:19 07.12.2022
736 Clouds 26 1009 83 10000 2.63 338 21:47 07.12.2022
737 Clouds 26 1009 83 10000 2.55 333 20:36 07.12.2022
738 Clouds 26 1010 83 10000 1.79 28 19:24 07.12.2022
739 Clouds 27 1012 76 10000 2.86 92 16:21 07.12.2022
740 Clouds 28 1011 76 10000 2.75 79 14:40 07.12.2022
741 Clouds 31 1008 61 10000 2.42 52 11:38 07.12.2022
742 Clouds 31 1008 57 10000 2.53 44 10:38 07.12.2022
743 Clouds 31 1007 54 10000 2.58 38 09:41 07.12.2022
744 Clouds 31 1007 52 10000 2.52 44 08:46 07.12.2022
745 Clouds 30 1009 51 10000 2.09 23 06:46 07.12.2022
746 Clouds 29 1012 56 10000 1.54 37 04:35 07.12.2022
747 Clouds 25 1009 80 10000 1.38 340 22:37 06.12.2022
748 Clouds 26 1009 78 10000 1.3 329 20:20 06.12.2022
749 Clouds 27 1010 76 10000 1.76 0 17:39 06.12.2022
750 Clouds 27 1011 76 10000 1.83 10 16:40 06.12.2022
751 Clouds 28 1011 75 10000 1.82 27 15:40 06.12.2022
752 Clouds 28 1011 73 10000 1.8 30 14:55 06.12.2022
753 Clouds 28 1010 71 10000 1.73 13 14:24 06.12.2022
754 Clouds 29 1009 67 10000 2.51 341 12:42 06.12.2022
755 Clouds 29 1008 66 10000 2.81 344 12:20 06.12.2022
756 Clouds 30 1008 57 10000 2.79 38 07:51 06.12.2022
757 Clouds 27 1013 67 10000 2.86 77 03:26 06.12.2022
758 Clouds 24 1011 80 10000 1.61 47 01:24 06.12.2022
759 Clouds 26 1009 80 10000 1.18 66 22:25 05.12.2022
760 Clouds 26 1009 80 10000 0.8 39 20:55 05.12.2022
761 Clouds 27 1010 80 10000 1.08 51 20:23 05.12.2022
762 Clouds 27 1010 80 10000 1.08 51 19:42 05.12.2022
763 Clouds 28 1011 81 10000 2.43 49 16:57 05.12.2022
764 Clouds 28 1011 80 10000 2.21 38 15:49 05.12.2022
765 Clouds 28 1011 79 10000 2.1 27 15:18 05.12.2022
766 Clouds 28 1010 75 10000 2.59 26 12:59 05.12.2022
767 Clouds 30 1010 75 10000 2.59 26 12:38 05.12.2022
768 Clouds 30 1009 69 10000 3.27 36 11:46 05.12.2022
769 Clouds 31 1008 58 10000 4.16 74 09:36 05.12.2022
770 Rain 27 1010 82 10000 1.43 23 00:19 05.12.2022
771 Clouds 26 1010 82 10000 1.89 19 22:44 04.12.2022
772 Clouds 26 1009 82 10000 2.31 13 22:20 04.12.2022
773 Clouds 27 1009 82 10000 2.31 13 21:39 04.12.2022
774 Clouds 27 1010 80 10000 2.12 54 20:26 04.12.2022
775 Clouds 27 1011 79 10000 2.16 55 19:25 04.12.2022
776 Clouds 27 1011 79 10000 2.16 55 18:37 04.12.2022
777 Clouds 28 1011 77 10000 2.51 68 17:23 04.12.2022
778 Clouds 28 1011 77 10000 2.51 68 16:37 04.12.2022
779 Clouds 28 1011 74 10000 2.29 76 16:19 04.12.2022
780 Clouds 28 1011 74 10000 2.29 76 15:54 04.12.2022
781 Clouds 26 1011 77 10000 2.49 88 14:43 04.12.2022
782 Clouds 28 1009 71 10000 2.52 84 13:18 04.12.2022
783 Clouds 29 1009 71 10000 2.52 84 12:42 04.12.2022
784 Clouds 30 1009 67 10000 2.55 78 11:46 04.12.2022
785 Clouds 31 1008 53 10000 3.69 84 09:20 04.12.2022
786 Clouds 30 1009 62 10000 1.92 48 06:34 04.12.2022
787 Clouds 26 1010 86 10000 1.95 21 23:44 03.12.2022
788 Clouds 26 1009 86 10000 1.88 13 22:51 03.12.2022
789 Clouds 26 1009 85 10000 2.14 26 21:55 03.12.2022
790 Clouds 26 1009 86 10000 1.88 33 21:19 03.12.2022
791 Clouds 26 1010 84 10000 1.98 23 19:28 03.12.2022
792 Clouds 27 1010 82 10000 1.86 51 18:39 03.12.2022
793 Clouds 28 1011 79 10000 1.38 9 15:53 03.12.2022
794 Clear 29 1010 76 10000 2.45 4 13:54 03.12.2022
795 Clouds 29 1009 71 10000 3.21 340 12:53 03.12.2022
796 Clouds 29 1008 67 10000 3.24 342 12:22 03.12.2022
797 Clouds 31 1007 57 10000 3 356 09:47 03.12.2022
798 Clouds 30 1009 59 10000 2.02 12 06:53 03.12.2022
799 Clouds 25 1010 87 10000 1.28 346 00:23 03.12.2022
800 Clouds 25 1009 86 10000 1.33 22 22:20 02.12.2022
801 Clouds 26 1009 86 10000 1.34 39 20:53 02.12.2022
802 Clouds 26 1011 84 10000 1.64 12 18:21 02.12.2022
803 Clouds 27 1011 80 10000 1.28 31 15:58 02.12.2022
804 Clouds 27 1011 78 10000 1.59 66 14:38 02.12.2022
805 Clouds 28 1010 78 10000 1.84 65 14:19 02.12.2022
806 Clouds 29 1009 76 10000 2.74 65 12:55 02.12.2022
807 Clouds 31 1008 74 10000 2.72 45 11:31 02.12.2022
808 Clouds 31 1008 74 10000 2.72 45 11:31 02.12.2022
809 Clouds 31 1007 54 10000 2.8 33 08:35 02.12.2022
810 Clear 32 1009 57 10000 2.88 49 07:23 02.12.2022
811 Clouds 26 1008 85 10000 1.89 15 22:54 01.12.2022
812 Clouds 26 1008 85 10000 1.89 15 22:54 01.12.2022
813 Clouds 27 1008 84 10000 2 22 21:44 01.12.2022
814 Clouds 27 1008 83 10000 1.61 34 21:22 01.12.2022
815 Clouds 26 1010 81 10000 2.12 52 19:22 01.12.2022
816 Clouds 28 1010 80 10000 2.09 47 17:46 01.12.2022
817 Clouds 28 1011 78 10000 2.18 49 15:38 01.12.2022
818 Clouds 31 1007 61 10000 3.26 65 11:23 01.12.2022
819 Clouds 32 1007 56 10000 3.45 64 09:55 01.12.2022
820 Rain 31 1007 56 10000 3.45 64 09:37 01.12.2022
821 Clouds 32 1008 55 10000 3.72 74 08:18 01.12.2022
822 Clouds 26 1010 89 10000 1.55 330 23:59 30.11.2022
823 Clouds 26 1009 87 10000 1.51 320 22:28 30.11.2022
824 Clouds 26 1009 86 10000 1.16 344 21:19 30.11.2022
825 Clouds 27 1009 85 10000 1.2 14 20:25 30.11.2022
826 Clouds 27 1009 86 10000 0.93 299 19:35 30.11.2022
827 Clouds 27 1010 84 10000 0.49 291 18:33 30.11.2022
828 Rain 27 1010 83 10000 0.51 290 17:33 30.11.2022
829 Rain 28 1010 76 10000 0.51 232 14:46 30.11.2022
830 Rain 28 1010 74 10000 0.28 324 14:27 30.11.2022
831 Clouds 29 1009 72 10000 0.27 71 12:32 30.11.2022
832 Clouds 30 1007 57 10000 1.6 113 10:24 30.11.2022
833 Clouds 34 1007 56 10000 1.93 108 08:38 30.11.2022
834 Clouds 32 1010 59 10000 1.24 125 06:44 30.11.2022
835 Clouds 26 1010 88 10000 1.13 250 23:32 29.11.2022
836 Clouds 26 1010 89 10000 1.84 265 22:20 29.11.2022
837 Clouds 27 1010 88 10000 1.95 253 20:52 29.11.2022
838 Clouds 27 1010 88 10000 1.95 253 20:33 29.11.2022
839 Clouds 27 1011 84 10000 2.17 196 18:56 29.11.2022
840 Rain 27 1011 82 10000 1.7 185 16:57 29.11.2022
841 Rain 27 1011 82 10000 1.91 192 16:20 29.11.2022
842 Rain 28 1011 81 10000 1.82 199 14:49 29.11.2022
843 Clouds 30 1009 79 9223 1.53 160 12:43 29.11.2022
844 Clouds 30 1008 77 10000 1.6 175 11:32 29.11.2022
845 Clouds 31 1008 72 10000 1.72 198 10:41 29.11.2022
846 Clouds 31 1007 59 10000 0.98 204 09:28 29.11.2022
847 Clouds 33 1008 59 10000 0.39 236 07:46 29.11.2022
848 Clouds 26 1010 86 10000 0.7 328 00:33 29.11.2022
849 Clouds 26 1009 85 10000 1.19 212 23:27 28.11.2022
850 Clouds 27 1009 84 10000 1.39 217 22:28 28.11.2022
851 Clouds 27 1009 84 10000 1.39 217 21:43 28.11.2022
852 Clouds 27 1009 85 10000 1.41 225 20:33 28.11.2022
853 Clouds 28 1010 84 10000 1.72 224 19:37 28.11.2022
854 Clouds 28 1010 83 10000 1.96 203 18:29 28.11.2022
855 Clouds 28 1010 83 10000 1.96 203 17:35 28.11.2022
856 Clouds 28 1010 78 10000 2.14 178 15:19 28.11.2022
857 Clouds 29 1010 76 10000 2.14 178 13:57 28.11.2022
858 Clouds 29 1010 76 10000 2.14 178 13:37 28.11.2022
859 Clouds 30 1008 70 10000 2.38 184 11:49 28.11.2022
860 Clouds 32 1007 62 10000 2.99 183 09:27 28.11.2022
861 Clouds 32 1011 64 10000 1.91 171 04:58 28.11.2022
862 Clouds 32 1011 64 10000 2.19 162 04:40 28.11.2022
863 Clouds 29 1011 77 10000 1.33 150 03:23 28.11.2022
864 Clouds 27 1010 86 10000 0.78 194 00:42 28.11.2022
865 Clouds 27 1008 86 8860 2.47 186 22:24 27.11.2022
866 Clouds 27 1008 83 10000 1.96 168 20:49 27.11.2022
867 Clouds 28 1009 77 10000 2.17 176 18:52 27.11.2022
868 Clouds 28 1010 74 10000 2.55 173 16:39 27.11.2022
869 Clouds 28 1009 77 10000 2.47 166 13:55 27.11.2022
870 Clouds 29 1008 70 10000 3.13 178 12:27 27.11.2022
871 Clouds 31 1007 66 10000 3.67 181 10:36 27.11.2022
872 Clouds 32 1007 66 10000 3.71 179 07:30 27.11.2022
873 Clouds 32 1007 66 10000 3.71 179 07:30 27.11.2022
874 Clouds 26 1009 87 10000 1.07 145 23:39 26.11.2022
875 Clouds 27 1008 80 10000 1.53 172 21:44 26.11.2022
876 Clouds 27 1009 79 10000 1.49 176 20:20 26.11.2022
877 Clouds 27 1009 84 10000 1.69 159 18:42 26.11.2022
878 Clouds 27 1010 82 10000 1.66 163 16:47 26.11.2022
879 Clouds 27 1010 81 10000 1.59 165 15:37 26.11.2022
880 Clouds 29 1008 99 10000 2.62 161 12:51 26.11.2022
881 Clouds 30 1007 99 10000 3.68 166 10:54 26.11.2022
882 Clouds 30 1007 99 10000 3.98 166 09:43 26.11.2022
883 Clouds 32 1009 100 10000 4.1 172 08:21 26.11.2022
884 Clouds 25 1009 97 4326 4.35 108 22:43 25.11.2022
885 Clouds 25 1009 93 10000 4.1 85 21:35 25.11.2022
886 Clouds 25 1010 91 10000 2.53 10 20:21 25.11.2022
887 Rain 25 1011 88 10000 1.49 14 16:51 25.11.2022
888 Rain 26 1011 88 5056 1.51 61 15:31 25.11.2022
889 Clouds 30 1007 99 10000 3.14 166 09:51 25.11.2022
890 Clouds 30 1007 99 10000 2.96 162 08:43 25.11.2022
891 Clouds 30 1009 99 10000 2.53 155 07:27 25.11.2022
892 Clouds 30 1009 99 10000 3.26 158 06:41 25.11.2022
893 Rain 26 1011 96 10000 2.13 41 01:25 25.11.2022
894 Clouds 25 1009 97 10000 2.15 41 23:21 24.11.2022
895 Clouds 25 1009 97 10000 2.32 35 22:22 24.11.2022
896 Clouds 26 1009 97 10000 2.32 35 21:32 24.11.2022
897 Clouds 26 1010 96 10000 2.04 9 19:39 24.11.2022
898 Rain 26 1011 96 10000 1.76 49 17:46 24.11.2022
899 Rain 26 1011 95 7464 2.8 46 17:22 24.11.2022
900 Rain 26 1011 94 5776 3.21 51 16:27 24.11.2022
901 Rain 26 1010 93 10000 1.54 12 14:23 24.11.2022
902 Rain 27 1009 95 10000 2.07 307 12:38 24.11.2022
903 Rain 30 1006 96 6838 2.12 297 10:50 24.11.2022
904 Rain 30 1006 89 10000 2.24 314 08:32 24.11.2022
905 Rain 27 1009 89 10000 1.46 45 04:42 24.11.2022
906 Rain 26 1007 91 10000 1.58 356 23:47 23.11.2022
907 Clouds 26 1007 91 10000 1.85 340 22:45 23.11.2022
908 Clouds 26 1006 90 10000 1.7 344 21:43 23.11.2022
909 Rain 26 1006 91 10000 1.87 338 20:49 23.11.2022
910 Clouds 26 1007 91 10000 2.15 340 19:31 23.11.2022
911 Clouds 26 1008 92 10000 1.17 25 18:42 23.11.2022
912 Clouds 26 1008 90 6017 2.67 69 16:59 23.11.2022
913 Clouds 29 1008 83 9301 2.36 10 13:41 23.11.2022
914 Clouds 29 1007 84 5897 1.84 14 13:21 23.11.2022
915 Clouds 30 1006 81 6108 1.74 18 12:21 23.11.2022
916 Clouds 30 1006 81 6108 1.74 18 12:21 23.11.2022
917 Clouds 30 1006 81 6108 1.74 18 11:42 23.11.2022
918 Clouds 31 1005 75 10000 1.39 18 10:44 23.11.2022
919 Clouds 32 1004 68 10000 1.56 32 09:44 23.11.2022
920 Clouds 31 1005 62 7127 1.64 29 09:26 23.11.2022
921 Clouds 33 1005 55 7127 1.64 29 08:37 23.11.2022
922 Clouds 31 1007 62 9495 1.93 19 06:59 23.11.2022
923 Clouds 31 1009 65 10000 2.12 26 05:18 23.11.2022
924 Clouds 27 1006 86 10000 2.17 328 23:24 22.11.2022
925 Clouds 28 1006 86 10000 2.17 328 22:34 22.11.2022
926 Clouds 28 1006 85 10000 2.22 320 21:34 22.11.2022
927 Clouds 29 1006 83 10000 1.93 329 20:50 22.11.2022
928 Clouds 29 1006 80 10000 2.09 346 20:18 22.11.2022
929 Clouds 30 1007 77 10000 2.29 349 17:56 22.11.2022
930 Clouds 30 1007 76 10000 2.52 346 17:28 22.11.2022
931 Clouds 31 1007 75 10000 2.62 340 15:56 22.11.2022
932 Clouds 31 1007 69 10000 1.9 343 13:47 22.11.2022
933 Clouds 32 1005 61 10000 2.58 356 11:57 22.11.2022
934 Clouds 33 1004 55 10000 3.27 17 09:26 22.11.2022
935 Clouds 33 1005 55 10000 3.44 20 07:55 22.11.2022
936 Clouds 30 1009 70 10000 2.77 27 03:47 22.11.2022
937 Clouds 27 1007 85 10000 1.77 341 23:41 21.11.2022
938 Clouds 28 1006 84 10000 1.97 349 22:49 21.11.2022
939 Clouds 27 1006 82 10000 2.2 350 21:59 21.11.2022
940 Clouds 28 1006 81 10000 2.25 352 20:56 21.11.2022
941 Clouds 27 1006 81 10000 2.16 348 19:42 21.11.2022
942 Clouds 27 1007 80 10000 2.21 337 18:54 21.11.2022
943 Clouds 27 1007 80 10000 2.21 337 18:34 21.11.2022
944 Clouds 27 1008 77 10000 2.35 321 16:56 21.11.2022
945 Clouds 29 1008 77 10000 2.35 321 16:37 21.11.2022
946 Clouds 29 1008 76 10000 2.18 321 15:50 21.11.2022
947 Clouds 30 1008 75 10000 2.11 331 14:55 21.11.2022
948 Clouds 29 1008 75 10000 2.31 328 13:44 21.11.2022
949 Clouds 31 1006 70 10000 1.82 322 11:38 21.11.2022
950 Clouds 31 1005 60 10000 1.53 32 09:18 21.11.2022
951 Clouds 32 1006 60 10000 2.45 39 07:39 21.11.2022
952 Clouds 27 1007 90 10000 1.91 340 22:43 20.11.2022
953 Clouds 27 1006 90 10000 1.8 335 21:36 20.11.2022
954 Clouds 27 1006 90 10000 1.8 335 21:36 20.11.2022
955 Clouds 27 1007 90 10000 1.42 348 20:32 20.11.2022
956 Clouds 27 1008 90 10000 0.81 117 18:39 20.11.2022
957 Clouds 27 1009 89 10000 3.07 113 16:32 20.11.2022
958 Rain 27 1010 85 9827 3.96 95 15:30 20.11.2022
959 Rain 27 1009 83 6792 2.46 114 14:54 20.11.2022
960 Rain 27 1009 82 7297 1.7 113 13:34 20.11.2022
961 Clouds 29 1007 82 7346 1.77 49 12:42 20.11.2022
962 Clouds 30 1006 77 6667 2.78 47 11:26 20.11.2022
963 Clouds 31 1006 65 10000 2.65 39 10:49 20.11.2022
964 Clouds 31 1006 59 10000 3.2 53 09:28 20.11.2022
965 Clouds 31 1006 59 10000 3.2 53 08:35 20.11.2022
966 Clouds 30 1006 61 10000 3.84 66 07:30 20.11.2022
967 Clouds 30 1006 61 10000 3.84 66 07:30 20.11.2022
968 Clouds 30 1006 61 10000 3.84 66 07:30 20.11.2022
969 Clouds 30 1006 61 10000 3.84 66 07:30 20.11.2022
970 Clouds 30 1011 61 10000 3.28 47 04:26 20.11.2022
971 Clouds 26 1009 88 10000 2.78 346 01:21 20.11.2022
972 Clouds 26 1009 88 10000 2.78 346 00:42 20.11.2022
973 Clouds 26 1009 88 10000 2.78 346 00:42 20.11.2022
974 Clouds 26 1008 91 10000 2.73 339 00:23 20.11.2022
975 Clouds 26 1008 91 10000 2.73 339 23:51 19.11.2022
976 Clouds 26 1007 92 10000 2.71 334 23:24 19.11.2022
977 Clouds 26 1007 92 10000 2.71 334 22:39 19.11.2022
978 Clouds 26 1007 91 10000 3.08 331 21:32 19.11.2022
979 Clouds 26 1007 90 10000 2.97 335 20:57 19.11.2022
980 Clouds 27 1007 90 10000 2.97 335 20:33 19.11.2022
981 Clouds 27 1008 89 10000 2.92 333 18:57 19.11.2022
982 Clouds 29 1008 64 10000 2.57 340 17:41 19.11.2022
983 Clouds 28 1009 64 10000 2.34 343 17:19 19.11.2022
984 Clouds 28 1009 82 10000 1.98 345 15:41 19.11.2022
985 Clouds 28 1009 83 10000 1.69 357 14:30 19.11.2022
986 Clouds 29 1007 77 10000 3.26 352 12:18 19.11.2022
987 Clouds 31 1007 71 10000 4.15 357 10:56 19.11.2022
988 Clouds 32 1006 63 10000 4.5 358 08:39 19.11.2022
989 Clouds 31 1010 72 10000 3.81 349 04:55 19.11.2022
990 Clouds 27 1012 81 10000 3.4 3 02:51 19.11.2022
991 Clouds 26 1009 89 10000 2.56 336 23:45 18.11.2022
992 Clouds 26 1009 88 10000 2.32 331 22:38 18.11.2022
993 Clouds 26 1009 88 10000 2.32 323 21:37 18.11.2022
994 Clouds 26 1009 87 10000 1.91 318 20:59 18.11.2022
995 Clouds 26 1009 86 10000 1.64 304 20:26 18.11.2022
996 Clouds 27 1009 82 10000 1.64 304 19:46 18.11.2022
997 Clouds 25 1011 85 10000 0.78 310 18:28 18.11.2022
998 Clouds 26 1011 83 10000 1.07 286 16:44 18.11.2022
999 Rain 26 1010 90 4056 3.28 104 13:40 18.11.2022
1000 Rain 30 1007 70 10000 2.47 135 11:28 18.11.2022
1001 Clouds 32 1007 70 10000 1.8 111 08:29 18.11.2022
1002 Clouds 33 1007 61 10000 1.8 111 07:40 18.11.2022
1003 Clouds 32 1011 60 10000 1.08 64 05:18 18.11.2022
1004 Clouds 26 1010 85 10000 0.5 352 00:42 18.11.2022
1005 Clouds 28 1008 79 10000 1.1 325 21:30 17.11.2022
1006 Clouds 26 1009 83 10000 0.76 278 20:45 17.11.2022
1007 Clouds 26 1009 83 9345 1.03 240 19:50 17.11.2022
1008 Clouds 28 1009 75 10000 1.6 220 18:35 17.11.2022
1009 Clouds 27 1010 81 10000 1.83 222 17:32 17.11.2022
1010 Clouds 29 1010 74 10000 1.97 222 16:48 17.11.2022
1011 Rain 28 1008 72 10000 2.63 193 12:53 17.11.2022
1012 Rain 31 1006 61 9974 2.87 180 11:21 17.11.2022
1013 Clouds 34 1007 55 10000 2.49 131 08:20 17.11.2022
1014 Clouds 30 1010 77 10000 1.09 340 02:54 17.11.2022
1015 Clouds 27 1008 74 10000 0.1 84 00:20 17.11.2022
1016 Clouds 26 1007 87 10000 1.04 239 22:28 16.11.2022
1017 Clouds 28 1007 72 10000 1.2 235 20:35 16.11.2022
1018 Clouds 27 1008 85 10000 0.59 185 19:33 16.11.2022
1019 Clouds 28 1008 74 10000 1.37 173 18:35 16.11.2022
1020 Clouds 29 1009 72 4881 1.73 100 16:37 16.11.2022
1021 Rain 29 1009 69 10000 1.7 85 13:39 16.11.2022
1022 Rain 32 1005 56 10000 2.78 125 09:34 16.11.2022
1023 Clouds 28 1010 71 10000 2.09 52 01:57 16.11.2022
1024 Clouds 27 1010 73 10000 1.76 39 01:25 16.11.2022
1025 Clouds 26 1008 87 10000 1.64 350 21:55 15.11.2022
1026 Clouds 27 1008 72 10000 1.56 338 20:32 15.11.2022
1027 Clouds 26 1010 84 10000 1.51 298 19:18 15.11.2022
1028 Clouds 28 1010 72 10000 1.35 289 17:39 15.11.2022
1029 Clouds 28 1010 73 10000 0.71 296 16:53 15.11.2022
1030 Clouds 29 1011 72 10000 0.47 324 16:18 15.11.2022
1031 Rain 28 1010 73 10000 0.31 66 14:42 15.11.2022
1032 Clouds 31 1009 67 10000 2.23 206 12:59 15.11.2022
1033 Clouds 32 1007 61 10000 1.78 181 11:42 15.11.2022
1034 Clouds 33 1007 54 10000 2.29 136 10:35 15.11.2022
1035 Clouds 33 1009 55 10000 2.31 85 06:33 15.11.2022
1036 Clouds 26 1011 90 10000 2.74 357 00:32 15.11.2022
1037 Clouds 26 1009 92 10000 2.82 351 22:52 14.11.2022
1038 Clouds 26 1009 91 10000 2.9 344 21:18 14.11.2022
1039 Clouds 27 1009 85 10000 2.9 344 20:30 14.11.2022
1040 Clouds 26 1011 82 10000 3.09 307 18:28 14.11.2022
1041 Rain 28 1011 80 10000 1.87 277 15:40 14.11.2022
1042 Rain 28 1008 74 4107 2.87 104 11:49 14.11.2022
1043 Rain 30 1007 68 10000 3.63 112 11:28 14.11.2022
1044 Rain 30 1007 68 10000 3.63 112 11:28 14.11.2022
1045 Rain 30 1007 68 10000 3.63 112 11:28 14.11.2022
1046 Clouds 33 1007 62 6522 3.39 99 08:48 14.11.2022
1047 Clouds 33 1008 61 6646 3.66 97 07:53 14.11.2022
1048 Clouds 32 1010 64 10000 3.71 83 05:59 14.11.2022
1049 Clouds 26 1010 79 10000 2.01 25 23:51 13.11.2022
1050 Clouds 27 1009 77 10000 1.83 355 21:43 13.11.2022
1051 Clouds 28 1009 77 10000 1.72 3 20:55 13.11.2022
1052 Clouds 28 1010 76 10000 1.42 51 19:24 13.11.2022
1053 Clouds 28 1010 76 10000 1.5 58 17:51 13.11.2022
1054 Rain 30 1010 68 10000 1.28 78 16:56 13.11.2022
1055 Rain 29 1010 58 10000 2.22 43 14:54 13.11.2022
1056 Clouds 32 1008 54 10000 2.96 16 13:24 13.11.2022
1057 Clouds 31 1008 55 10000 2.17 357 12:34 13.11.2022
1058 Clouds 31 1008 55 10000 2.17 357 12:34 13.11.2022
1059 Clouds 31 1008 55 10000 2.17 357 12:34 13.11.2022
1060 Clouds 34 1006 50 10000 1.66 12 10:48 13.11.2022
1061 Clouds 33 1008 39 10000 2.61 56 06:31 13.11.2022
1062 Clouds 26 1010 76 10000 2.56 8 00:34 13.11.2022
1063 Clouds 28 1008 75 10000 2.95 354 21:59 12.11.2022
1064 Clouds 28 1009 74 10000 2.73 348 21:23 12.11.2022
1065 Clouds 29 1009 72 10000 2.98 350 19:52 12.11.2022
1066 Clouds 29 1010 68 10000 2.52 5 17:33 12.11.2022
1067 Clouds 30 1011 67 10000 3.75 7 16:19 12.11.2022
1068 Clouds 30 1010 66 10000 4.07 352 14:46 12.11.2022
1069 Clouds 34 1007 51 10000 3.74 11 11:23 12.11.2022
1070 Clouds 34 1008 42 10000 3.29 16 08:25 12.11.2022
1071 Clouds 26 1010 72 10000 3.71 341 00:41 12.11.2022
1072 Clouds 27 1009 70 10000 3.6 352 21:35 11.11.2022
1073 Clouds 27 1009 69 10000 3.74 351 20:44 11.11.2022
1074 Clouds 28 1010 67 10000 3.77 341 19:29 11.11.2022
1075 Clouds 29 1010 67 10000 3.77 341 18:41 11.11.2022
1076 Clouds 29 1011 66 10000 3.61 342 17:41 11.11.2022
1077 Clouds 30 1011 66 10000 3.72 336 15:30 11.11.2022
1078 Clouds 30 1011 60 10000 2.9 339 14:18 11.11.2022
1079 Clouds 32 1010 57 10000 2.11 347 12:46 11.11.2022
1080 Clouds 34 1008 48 10000 3.18 29 09:36 11.11.2022
1081 Clouds 33 1009 47 10000 3.25 29 08:27 11.11.2022
1082 Clouds 31 1013 53 10000 4.32 13 03:48 11.11.2022
1083 Clouds 26 1010 72 10000 4.51 342 22:54 10.11.2022
1084 Clouds 26 1010 71 10000 4.33 345 21:51 10.11.2022
1085 Clouds 26 1010 70 10000 4.14 342 21:29 10.11.2022
1086 Clouds 27 1010 70 10000 4.14 342 20:47 10.11.2022
1087 Clouds 27 1010 69 10000 4.27 344 20:20 10.11.2022
1088 Clouds 28 1011 67 10000 4.79 345 18:59 10.11.2022
1089 Clouds 29 1011 66 10000 4.81 342 17:59 10.11.2022
1090 Clouds 29 1012 65 10000 4.44 342 16:25 10.11.2022
1091 Clouds 30 1011 61 10000 3.53 354 13:40 10.11.2022
1092 Clouds 31 1009 48 10000 1.68 16 11:28 10.11.2022
1093 Clouds 33 1009 43 10000 1.65 25 08:21 10.11.2022
1094 Clouds 25 1012 63 10000 3.36 355 01:25 10.11.2022
1095 Clouds 24 1011 66 10000 2.92 340 23:21 09.11.2022
1096 Clouds 25 1011 67 10000 2.76 340 21:57 09.11.2022
1097 Clouds 26 1011 68 10000 2.53 341 20:47 09.11.2022
1098 Clouds 26 1011 68 10000 2.45 341 20:28 09.11.2022
1099 Clouds 26 1012 67 10000 2.22 346 19:29 09.11.2022
1100 Clouds 26 1012 66 10000 2.12 341 18:30 09.11.2022
1101 Clouds 29 1013 63 10000 1.87 4 15:45 09.11.2022
1102 Clouds 29 1013 62 10000 2.23 359 14:41 09.11.2022
1103 Clouds 29 1012 59 10000 2.84 356 14:22 09.11.2022
1104 Clouds 30 1011 55 10000 3.04 1 12:57 09.11.2022
1105 Clouds 33 1009 40 10000 3.38 7 09:45 09.11.2022
1106 Clouds 32 1010 38 10000 2.66 7 07:47 09.11.2022
1107 Clouds 31 1011 39 10000 1.97 13 06:55 09.11.2022
1108 Clouds 24 1011 62 10000 2.07 358 22:50 08.11.2022
1109 Clear 25 1011 62 10000 1.98 351 21:43 08.11.2022
1110 Clear 25 1011 61 10000 1.67 347 21:21 08.11.2022
1111 Clear 25 1011 61 10000 1.67 347 20:36 08.11.2022
1112 Clear 26 1011 60 10000 1.2 360 19:35 08.11.2022
1113 Clouds 27 1012 58 10000 0.56 33 17:38 08.11.2022
1114 Clouds 27 1013 56 10000 1.78 18 15:50 08.11.2022
1115 Clouds 29 1013 55 10000 2.5 6 14:51 08.11.2022
1116 Clouds 28 1012 53 10000 3.18 4 13:35 08.11.2022
1117 Clouds 31 1010 49 10000 4.02 18 11:55 08.11.2022
1118 Clouds 32 1010 39 10000 1.65 26 08:25 08.11.2022
1119 Clouds 31 1013 43 10000 1.32 45 06:29 08.11.2022
1120 Clear 25 1012 67 10000 2.06 357 23:52 07.11.2022
1121 Clear 26 1011 66 10000 1.91 4 22:23 07.11.2022
1122 Clear 26 1011 65 10000 1.67 9 21:20 07.11.2022
1123 Clear 26 1011 64 10000 1.46 13 19:59 07.11.2022
1124 Clouds 27 1012 61 10000 1.64 32 17:44 07.11.2022
1125 Clouds 27 1013 58 10000 1.79 18 16:26 07.11.2022
1126 Clouds 28 1013 58 10000 1.79 18 15:33 07.11.2022
1127 Clouds 29 1012 55 10000 2.51 8 14:18 07.11.2022
1128 Clouds 30 1011 54 10000 2.22 12 12:33 07.11.2022
1129 Clouds 32 1009 48 10000 1.36 25 10:46 07.11.2022
1130 Clouds 32 1009 46 10000 1.17 28 09:22 07.11.2022
1131 Clouds 33 1011 47 10000 2.43 12 07:21 07.11.2022
1132 Clear 29 1015 59 10000 2.49 358 03:27 07.11.2022
1133 Clouds 26 1013 70 10000 1.63 351 01:18 07.11.2022
1134 Clouds 26 1011 72 10000 1.39 8 21:53 06.11.2022
1135 Clouds 27 1011 71 10000 1.06 12 21:19 06.11.2022
1136 Clouds 27 1012 71 10000 0.85 1 19:59 06.11.2022
1137 Clouds 27 1012 71 10000 0.85 1 19:30 06.11.2022
1138 Clouds 27 1013 67 10000 1.64 78 18:21 06.11.2022
1139 Clouds 28 1013 67 10000 1.64 78 17:46 06.11.2022
1140 Clouds 28 1013 64 10000 2.14 51 17:19 06.11.2022
1141 Rain 27 1013 64 10000 2.14 51 16:30 06.11.2022
1142 Clouds 28 1013 64 10000 2.57 24 15:39 06.11.2022
1143 Clouds 30 1012 66 10000 1.97 2 12:48 06.11.2022
1144 Clouds 30 1011 64 10000 1.43 345 11:42 06.11.2022
1145 Clouds 30 1010 59 10000 1 329 10:34 06.11.2022
1146 Clouds 30 1011 47 10000 2.06 32 07:44 06.11.2022
1147 Clouds 25 1014 70 10000 1.99 12 00:46 06.11.2022
1148 Clouds 25 1013 71 10000 1.5 354 22:35 05.11.2022
1149 Clouds 26 1013 63 10000 2.16 52 19:18 05.11.2022
1150 Clouds 26 1014 59 10000 1.69 79 16:57 05.11.2022
1151 Clouds 28 1015 58 10000 1.63 73 15:20 05.11.2022
1152 Clouds 28 1014 59 10000 1.42 84 13:51 05.11.2022
1153 Clouds 29 1013 58 10000 2.58 111 12:30 05.11.2022
1154 Clouds 30 1011 51 10000 2.79 112 09:33 05.11.2022
1155 Clouds 30 1013 43 10000 2.91 60 07:23 05.11.2022
1156 Clouds 30 1013 43 10000 2.91 60 06:56 05.11.2022
1157 Clear 23 1014 66 10000 2.24 11 00:45 05.11.2022
1158 Clouds 23 1012 64 10000 2.02 6 23:29 04.11.2022
1159 Clouds 23 1012 63 10000 2.26 344 21:37 04.11.2022
1160 Clouds 25 1012 58 10000 1.7 44 19:39 04.11.2022
1161 Clouds 25 1013 55 10000 2.1 69 17:44 04.11.2022
1162 Clear 28 1014 54 10000 2.18 66 14:38 04.11.2022
1163 Clear 29 1011 50 10000 3.41 15 13:19 04.11.2022
1164 Clear 30 1011 44 10000 3.27 14 11:58 04.11.2022
1165 Clear 31 1009 30 10000 3.19 50 09:30 04.11.2022
1166 Clear 32 1010 29 10000 3.19 64 08:20 04.11.2022
1167 Clear 31 1011 32 10000 2.86 71 06:40 04.11.2022
1168 Clouds 23 1013 56 10000 1.82 54 00:56 04.11.2022
1169 Clouds 23 1011 57 10000 1.59 44 21:42 03.11.2022
1170 Clouds 23 1011 55 10000 1.52 64 20:45 03.11.2022
1171 Clouds 24 1011 53 10000 1.79 81 19:41 03.11.2022
1172 Clouds 24 1012 52 10000 2.12 80 18:18 03.11.2022
1173 Clouds 26 1012 52 10000 2.12 80 17:37 03.11.2022
1174 Clouds 27 1012 54 10000 0.86 120 15:20 03.11.2022
1175 Clouds 28 1011 54 10000 1.03 111 13:33 03.11.2022
1176 Clouds 29 1010 52 10000 1.06 88 12:34 03.11.2022
1177 Clouds 32 1009 40 10000 1.51 79 11:31 03.11.2022
1178 Clouds 32 1009 40 10000 1.51 79 11:31 03.11.2022
1179 Clear 31 1009 37 10000 2.27 70 07:47 03.11.2022
1180 Clouds 24 1009 63 10000 1.14 77 22:20 02.11.2022
1181 Clouds 24 1009 62 10000 1.28 90 20:55 02.11.2022
1182 Clouds 25 1009 62 10000 1.47 101 20:23 02.11.2022
1183 Clouds 26 1010 62 10000 1.47 90 18:23 02.11.2022
1184 Clouds 27 1011 59 10000 0.68 90 16:26 02.11.2022
1185 Clouds 27 1010 58 10000 0.06 40 15:27 02.11.2022
1186 Clouds 29 1009 52 10000 1.45 193 12:50 02.11.2022
1187 Clouds 29 1008 49 10000 1.09 164 12:20 02.11.2022
1188 Clouds 31 1007 37 10000 1.28 77 09:32 02.11.2022
1189 Clouds 32 1008 38 10000 1.67 67 08:18 02.11.2022
1190 Clouds 25 1013 72 10000 1.61 33 01:46 02.11.2022
1191 Clouds 24 1010 72 10000 0.74 41 22:21 01.11.2022
1192 Clouds 25 1010 72 10000 0.74 41 21:42 01.11.2022
1193 Clouds 25 1010 71 10000 1.38 32 20:27 01.11.2022
1194 Clouds 25 1010 71 10000 1.38 32 19:58 01.11.2022
1195 Clouds 25 1010 71 10000 1.38 32 19:40 01.11.2022
1196 Clouds 26 1011 69 10000 1.88 30 18:21 01.11.2022
1197 Clouds 26 1012 69 10000 1.84 21 16:23 01.11.2022
1198 Clouds 26 1012 69 10000 1.84 21 16:23 01.11.2022
1199 Clouds 28 1011 67 10000 2.33 15 14:34 01.11.2022
1200 Clouds 30 1010 60 10000 3.44 19 12:33 01.11.2022
1201 Clouds 30 1009 57 10000 3.63 23 11:38 01.11.2022
1202 Clouds 30 1008 52 10000 3.96 23 11:20 01.11.2022
1203 Clouds 30 1008 46 10000 3.16 4 08:51 01.11.2022
1204 Clouds 30 1009 47 10000 2.59 343 07:48 01.11.2022
1205 Clouds 30 1011 49 10000 2.07 347 07:26 01.11.2022
1206 Clouds 30 1011 50 10000 2.33 342 06:45 01.11.2022
1207 Clouds 28 1014 52 10000 4.17 73 03:57 01.11.2022
1208 Clouds 25 1010 71 10000 2.25 34 22:24 31.10.2022
1209 Clouds 26 1010 69 10000 2.01 21 21:26 31.10.2022
1210 Clouds 26 1010 68 10000 1.55 15 19:56 31.10.2022
1211 Clouds 28 1010 53 10000 1.43 59 18:35 31.10.2022
1212 Clouds 29 1011 52 10000 1.06 160 16:44 31.10.2022
1213 Clouds 29 1010 60 10000 3.06 51 14:20 31.10.2022
1214 Clouds 30 1008 54 10000 3.51 27 11:57 31.10.2022
1215 Clouds 31 1007 45 10000 2.96 26 09:28 31.10.2022
1216 Clouds 31 1010 49 10000 3.36 18 05:39 31.10.2022
1217 Clouds 27 1012 61 10000 2.21 45 02:30 31.10.2022
1218 Clouds 26 1009 73 10000 2.63 5 23:19 30.10.2022
1219 Clouds 27 1008 72 10000 2.6 345 21:45 30.10.2022
1220 Clouds 27 1008 70 10000 2.44 339 20:37 30.10.2022
1221 Clouds 28 1010 66 10000 2.11 36 18:56 30.10.2022
1222 Clouds 29 1011 63 10000 2.23 74 16:18 30.10.2022
1223 Clouds 30 1010 61 10000 2.9 27 14:22 30.10.2022
1224 Clouds 30 1009 63 10000 3.57 18 13:21 30.10.2022
1225 Clouds 31 1008 59 10000 3.7 19 11:47 30.10.2022
1226 Clouds 32 1007 49 10000 3.79 25 09:40 30.10.2022
1227 Clouds 32 1007 47 10000 3.78 19 08:39 30.10.2022
1228 Clouds 30 1011 51 10000 4.38 33 04:30 30.10.2022
1229 Clouds 25 1008 78 10000 2.28 8 00:28 30.10.2022
1230 Clouds 25 1008 78 10000 2.28 8 23:45 29.10.2022
1231 Clouds 26 1009 75 10000 1.99 25 21:29 29.10.2022
1232 Clouds 27 1010 74 10000 2.13 28 18:34 29.10.2022
1233 Clouds 28 1011 72 10000 2.22 53 17:21 29.10.2022
1234 Clouds 29 1010 71 10000 2.86 61 15:38 29.10.2022
1235 Clouds 29 1010 69 10000 3.15 70 14:51 29.10.2022
1236 Clouds 30 1008 67 10000 1.65 327 12:36 29.10.2022
1237 Clouds 31 1007 62 10000 2.64 328 11:54 29.10.2022
1238 Clouds 30 1010 55 10000 3.47 68 07:38 29.10.2022
1239 Clouds 30 1011 56 10000 3.2 69 06:45 29.10.2022
1240 Clouds 30 1012 58 10000 2.8 69 05:53 29.10.2022
1241 Clouds 26 1008 86 10000 2.11 3 23:43 28.10.2022
1242 Clouds 27 1009 85 10000 2.16 52 20:56 28.10.2022
1243 Clouds 28 1010 85 10000 1.95 43 19:34 28.10.2022
1244 Clouds 28 1010 85 10000 2.18 51 18:32 28.10.2022
1245 Clouds 29 1010 85 10000 3.84 80 16:20 28.10.2022
1246 Clouds 30 1009 83 10000 3.31 84 14:45 28.10.2022
1247 Clouds 30 1007 79 10000 2.08 55 13:19 28.10.2022
1248 Clouds 31 1006 73 10000 2.81 57 11:53 28.10.2022
1249 Clouds 31 1006 73 10000 2.81 57 11:31 28.10.2022
1250 Clouds 31 1007 67 10000 2.7 55 10:28 28.10.2022
1251 Clouds 31 1007 64 7576 2.41 43 08:40 28.10.2022
1252 Clouds 30 1011 79 10000 3.37 359 05:40 28.10.2022
1253 Clouds 26 1009 91 10000 2.89 20 23:50 27.10.2022
1254 Clouds 26 1008 90 10000 2.82 24 23:22 27.10.2022
1255 Clouds 27 1009 90 10000 3.37 58 21:56 27.10.2022
1256 Clouds 27 1009 90 10000 3.44 85 20:32 27.10.2022
1257 Clouds 28 1011 85 5172 0.88 108 18:23 27.10.2022
1258 Clouds 28 1011 82 10000 1.04 35 15:42 27.10.2022
1259 Clouds 29 1007 79 10000 1.34 87 11:33 27.10.2022
1260 Clouds 31 1009 65 10000 4.09 81 07:31 27.10.2022
1261 Clouds 25 1009 89 10000 2.2 27 00:22 27.10.2022
1262 Rain 26 1009 82 10000 2.2 27 23:49 26.10.2022
1263 Rain 26 1008 87 10000 2.35 14 22:38 26.10.2022
1264 Rain 27 1009 85 10000 2.11 6 20:46 26.10.2022
1265 Clouds 29 1010 80 10000 1.01 64 17:36 26.10.2022
1266 Clouds 30 1010 76 10000 1.49 22 14:53 26.10.2022
1267 Clouds 31 1007 64 10000 0.58 98 12:52 26.10.2022
1268 Clouds 33 1007 55 10000 1.15 79 12:18 26.10.2022
1269 Rain 31 1008 59 10000 2.72 95 09:19 26.10.2022
1270 Rain 31 1008 59 10000 2.72 95 08:51 26.10.2022
1271 Clouds 28 1010 73 10000 2.75 30 00:51 26.10.2022
1272 Clouds 28 1010 73 10000 2.75 30 00:30 26.10.2022
1273 Clouds 28 1009 73 10000 2.49 7 22:23 25.10.2022
1274 Clouds 28 1009 73 10000 2.49 7 21:44 25.10.2022
1275 Clouds 28 1010 69 10000 2.91 353 20:27 25.10.2022
1276 Clouds 29 1011 70 10000 1.92 325 18:40 25.10.2022
1277 Clouds 30 1011 65 10000 1.26 95 15:48 25.10.2022
1278 Clouds 32 1008 56 10000 2.37 340 11:41 25.10.2022
1279 Clouds 32 1007 51 10000 2.34 327 10:46 25.10.2022
1280 Clouds 32 1007 51 10000 2.34 327 10:46 25.10.2022
1281 Clouds 33 1008 49 10000 1.77 330 10:28 25.10.2022
1282 Clouds 33 1009 49 10000 1.52 350 08:36 25.10.2022
1283 Clouds 33 1010 51 10000 1.94 41 08:18 25.10.2022
1284 Clouds 33 1010 51 10000 1.94 41 07:44 25.10.2022
1285 Clouds 32 1011 53 10000 1.86 41 06:41 25.10.2022
1286 Clouds 28 1012 70 10000 2.45 359 03:25 25.10.2022
1287 Clouds 27 1011 75 10000 1.98 350 00:32 25.10.2022
1288 Clouds 28 1010 76 10000 2.01 323 22:26 24.10.2022
1289 Clouds 28 1010 76 10000 2.01 323 21:34 24.10.2022
1290 Rain 28 1010 75 10000 1.92 320 20:44 24.10.2022
1291 Clouds 29 1011 73 10000 1.68 315 20:19 24.10.2022
1292 Clouds 29 1012 73 10000 0.97 55 17:53 24.10.2022
1293 Clouds 29 1012 72 10000 0.88 27 16:54 24.10.2022
1294 Clouds 30 1011 70 10000 1.22 326 14:50 24.10.2022
1295 Clouds 30 1009 69 10000 1.13 256 13:53 24.10.2022
1296 Clouds 32 1008 62 10000 1.52 97 12:18 24.10.2022
1297 Clouds 34 1009 58 10000 2.44 44 08:51 24.10.2022
1298 Clouds 26 1011 94 10000 2.08 317 00:55 24.10.2022
1299 Clouds 28 1010 90 10000 2.47 311 21:43 23.10.2022
1300 Clouds 28 1011 88 10000 2.04 326 20:21 23.10.2022
1301 Clouds 29 1012 84 10000 1.8 310 18:26 23.10.2022
1302 Clouds 29 1013 83 10000 1.62 290 17:27 23.10.2022
1303 Clouds 29 1012 83 10000 1.79 276 15:22 23.10.2022
1304 Clouds 30 1009 81 10000 1.51 281 13:22 23.10.2022
1305 Clouds 32 1009 71 10000 1.44 285 11:18 23.10.2022
1306 Clouds 32 1010 69 10000 1.12 38 08:19 23.10.2022
1307 Clouds 26 1012 91 10000 0.92 32 00:33 23.10.2022
1308 Clouds 26 1011 91 10000 1.63 352 22:32 22.10.2022
1309 Clouds 26 1011 91 7527 1.64 328 21:42 22.10.2022
1310 Rain 26 1011 90 10000 1.76 319 20:55 22.10.2022
1311 Rain 25 1012 88 10000 1.07 37 19:45 22.10.2022
1312 Clouds 25 1013 87 10000 0.86 99 19:24 22.10.2022
1313 Clouds 26 1013 85 10000 1.28 123 17:37 22.10.2022
1314 Rain 29 1013 82 10000 1.12 146 15:37 22.10.2022
1315 Clouds 30 1012 81 7330 1.17 130 14:39 22.10.2022
1316 Clouds 31 1011 82 8226 2.19 146 13:39 22.10.2022
1317 Clouds 31 1009 69 9208 3.31 97 09:51 22.10.2022
1318 Clouds 31 1010 67 10000 3.38 91 09:24 22.10.2022
1319 Clouds 32 1013 100 10000 3.79 93 07:45 22.10.2022
1320 Clouds 27 1013 86 10000 1.92 18 02:55 22.10.2022
1321 Clouds 27 1011 89 10000 2.07 357 23:46 21.10.2022
1322 Clouds 26 1011 86 10000 1.79 337 21:35 21.10.2022
1323 Clouds 27 1011 84 10000 1.69 319 20:56 21.10.2022
1324 Clouds 27 1012 83 8413 0.11 126 19:19 21.10.2022
1325 Clouds 28 1013 66 10000 1.15 24 16:51 21.10.2022
1326 Clouds 28 1011 82 10000 1.27 26 13:57 21.10.2022
1327 Clouds 28 1010 82 5835 1.05 62 12:56 21.10.2022
1328 Clouds 29 1009 72 5087 1.81 88 10:40 21.10.2022
1329 Clouds 30 1009 58 7623 2.16 106 09:42 21.10.2022
1330 Clouds 31 1010 59 10000 2.17 107 08:37 21.10.2022
1331 Clouds 30 1013 58 10000 3.83 71 06:21 21.10.2022
1332 Clouds 26 1010 76 10000 2.23 88 00:24 21.10.2022
1333 Clouds 26 1010 76 10000 1.9 83 21:50 20.10.2022
1334 Clouds 26 1011 76 10000 1.4 55 20:25 20.10.2022
1335 Clouds 27 1011 72 10000 1.56 53 19:32 20.10.2022
1336 Clouds 28 1012 71 10000 2.14 64 17:52 20.10.2022
1337 Clouds 29 1012 70 10000 2.2 73 16:30 20.10.2022
1338 Clouds 30 1009 59 10000 1.84 28 12:36 20.10.2022
1339 Clouds 30 1008 56 10000 2.61 51 12:18 20.10.2022
1340 Clouds 31 1007 53 10000 3.32 57 10:57 20.10.2022
1341 Clouds 31 1008 50 10000 3.53 58 10:24 20.10.2022
1342 Clouds 29 1009 50 10000 2.75 32 07:45 20.10.2022
1343 Clouds 29 1013 55 10000 2.92 62 04:58 20.10.2022
1344 Clouds 24 1010 74 10000 2.17 61 00:57 20.10.2022
1345 Clouds 24 1009 71 10000 2.01 48 22:45 19.10.2022
1346 Clouds 25 1009 69 10000 1.84 30 21:55 19.10.2022
1347 Clouds 25 1009 68 10000 2.05 25 20:50 19.10.2022
1348 Clouds 26 1011 63 10000 3.12 61 18:21 19.10.2022
1349 Clouds 27 1011 62 10000 2.76 58 17:24 19.10.2022
1350 Clouds 28 1010 59 10000 2.55 62 15:22 19.10.2022
1351 Clouds 30 1008 51 10000 3.12 70 12:45 19.10.2022
1352 Clear 31 1008 43 10000 4.47 71 09:26 19.10.2022
1353 Clouds 30 1009 44 10000 3.99 75 07:51 19.10.2022
1354 Clouds 28 1011 55 10000 4.31 60 03:44 19.10.2022
1355 Clouds 24 1008 75 10000 2.34 27 00:21 19.10.2022
1356 Clouds 26 1008 60 10000 2.45 21 22:41 18.10.2022
1357 Clouds 25 1008 74 10000 2.12 10 21:36 18.10.2022
1358 Clouds 25 1009 72 10000 2.09 11 20:35 18.10.2022
1359 Clouds 25 1010 68 10000 2.59 39 19:22 18.10.2022
1360 Clouds 26 1010 65 10000 3.79 66 17:20 18.10.2022
1361 Clouds 28 1010 62 10000 3.91 66 16:19 18.10.2022
1362 Clouds 30 1009 57 10000 4.07 61 13:49 18.10.2022
1363 Clouds 31 1008 48 10000 4.26 69 11:48 18.10.2022
1364 Clouds 32 1007 44 10000 4.87 66 11:19 18.10.2022
1365 Clouds 32 1008 45 10000 2.66 49 09:26 18.10.2022
1366 Clouds 30 1010 48 10000 2.41 19 07:20 18.10.2022
1367 Clouds 24 1011 75 10000 1.99 11 00:34 18.10.2022
1368 Clouds 25 1010 72 10000 2.08 23 21:45 17.10.2022
1369 Clouds 25 1010 72 10000 1.56 17 20:50 17.10.2022
1370 Clouds 25 1010 72 10000 1.56 17 20:30 17.10.2022
1371 Clouds 25 1011 70 10000 1.59 40 19:49 17.10.2022
1372 Clouds 26 1012 68 10000 2.1 71 17:58 17.10.2022
1373 Clouds 27 1011 66 10000 1.97 75 16:34 17.10.2022
1374 Clouds 28 1011 63 10000 2.47 13 15:28 17.10.2022
1375 Clouds 29 1009 60 10000 2.23 15 13:36 17.10.2022
1376 Clouds 30 1008 43 10000 3.23 13 09:46 17.10.2022
1377 Clouds 25 1013 74 10000 2.67 351 03:21 17.10.2022
1378 Clouds 24 1011 84 10000 2.27 325 22:59 16.10.2022
1379 Clouds 24 1011 85 10000 2.03 317 21:46 16.10.2022
1380 Clouds 24 1012 85 10000 1.52 318 19:56 16.10.2022
1381 Clouds 24 1012 85 10000 1.52 318 19:38 16.10.2022
1382 Clouds 24 1013 84 10000 2.28 329 17:47 16.10.2022
1383 Clouds 24 1013 84 10000 2.56 334 16:32 16.10.2022
1384 Clouds 25 1013 83 10000 2.54 335 15:56 16.10.2022
1385 Clouds 24 1010 83 10000 2.1 298 12:49 16.10.2022
1386 Clouds 24 1010 79 10000 2.29 314 11:41 16.10.2022
1387 Clouds 25 1010 65 10000 2.65 342 10:26 16.10.2022
1388 Clouds 23 1011 87 10000 3.03 350 07:38 16.10.2022
1389 Clouds 22 1010 85 10000 3.98 360 23:43 15.10.2022
1390 Clouds 23 1010 82 10000 4.53 359 21:58 15.10.2022
1391 Clouds 22 1010 77 10000 4 3 21:20 15.10.2022
1392 Clouds 22 1011 71 10000 3.65 14 19:55 15.10.2022
1393 Rain 22 1012 74 10000 3.56 22 17:24 15.10.2022
1394 Clouds 23 1011 76 10000 4.36 32 15:45 15.10.2022
1395 Clouds 24 1009 77 10000 4.63 31 13:37 15.10.2022
1396 Rain 24 1008 79 10000 4.31 31 11:50 15.10.2022
1397 Rain 27 1008 77 10000 4 53 09:43 15.10.2022
1398 Clouds 28 1009 80 10000 4.11 46 07:55 15.10.2022
1399 Clouds 25 1008 73 10000 2.03 93 00:41 15.10.2022
1400 Clouds 26 1007 72 10000 2.23 90 22:58 14.10.2022
1401 Clouds 26 1007 72 10000 2.14 88 22:22 14.10.2022
1402 Clouds 27 1007 73 10000 1.73 106 20:53 14.10.2022
1403 Clouds 27 1010 67 10000 2.82 100 19:21 14.10.2022
1404 Clouds 28 1009 63 10000 3.33 103 16:19 14.10.2022
1405 Clouds 29 1007 59 10000 1.72 36 13:20 14.10.2022
1406 Clouds 31 1005 52 10000 2.26 23 11:36 14.10.2022
1407 Clouds 32 1006 49 10000 2.47 37 08:32 14.10.2022
1408 Clouds 31 1009 55 10000 2.05 42 06:51 14.10.2022
1409 Clouds 31 1010 59 10000 2.04 44 06:18 14.10.2022
1410 Clouds 30 1010 59 10000 2.04 44 05:42 14.10.2022
1411 Clouds 28 1011 72 10000 2.18 5 03:19 14.10.2022
1412 Clouds 26 1009 79 10000 2.11 358 23:42 13.10.2022
1413 Clouds 26 1008 77 10000 2.37 317 21:45 13.10.2022
1414 Clouds 27 1009 76 10000 1.91 303 20:49 13.10.2022
1415 Clouds 27 1009 75 10000 1.99 302 19:43 13.10.2022
1416 Clouds 27 1010 73 10000 1.56 289 18:52 13.10.2022
1417 Clouds 28 1010 71 10000 0.88 293 18:21 13.10.2022
1418 Clouds 28 1010 68 10000 1.42 346 15:51 13.10.2022
1419 Clouds 28 1010 68 10000 1.42 346 15:33 13.10.2022
1420 Clouds 29 1009 64 10000 2.69 40 13:54 13.10.2022
1421 Clouds 31 1007 64 10000 2.76 20 12:42 13.10.2022
1422 Clouds 32 1006 56 10000 3.12 331 10:58 13.10.2022
1423 Clouds 32 1008 52 10000 2.1 334 08:34 13.10.2022
1424 Clouds 31 1009 53 10000 0.39 309 07:37 13.10.2022
1425 Clouds 29 1013 77 10000 0.75 55 03:46 13.10.2022
1426 Clouds 26 1011 86 10000 1.49 15 01:40 13.10.2022
1427 Clouds 26 1010 88 10000 1.52 348 00:34 13.10.2022
1428 Clear 27 1010 87 10000 1.39 323 22:45 12.10.2022
1429 Clear 27 1010 87 10000 1.25 317 21:40 12.10.2022
1430 Clouds 27 1010 86 10000 1.32 331 21:18 12.10.2022
1431 Clear 26 1011 85 10000 1.43 345 20:28 12.10.2022
1432 Clear 27 1012 81 10000 1.12 5 19:22 12.10.2022
1433 Clear 28 1012 80 10000 1.65 347 17:55 12.10.2022
1434 Clear 28 1012 81 10000 2.08 349 16:54 12.10.2022
1435 Clouds 29 1010 78 10000 1.75 8 14:26 12.10.2022
1436 Clouds 29 1010 78 10000 1.75 8 13:50 12.10.2022
1437 Clouds 31 1008 59 10000 2.44 58 11:26 12.10.2022
1438 Clouds 31 1009 57 10000 2.95 71 09:23 12.10.2022
1439 Clouds 31 1010 59 10000 2.43 87 07:41 12.10.2022
1440 Clouds 30 1011 62 10000 2.12 77 06:43 12.10.2022
1441 Clouds 27 1013 81 10000 1.05 105 03:59 12.10.2022
1442 Clouds 26 1011 92 10000 1.55 344 23:37 11.10.2022
1443 Clouds 26 1011 91 10000 1.98 308 20:59 11.10.2022
1444 Clouds 26 1012 89 10000 2.46 307 20:26 11.10.2022
1445 Clouds 26 1013 89 10000 2.25 310 17:56 11.10.2022
1446 Clouds 28 1013 88 10000 2.24 308 15:37 11.10.2022
1447 Clouds 29 1011 89 10000 2.15 293 13:30 11.10.2022
1448 Clouds 29 1011 79 10000 1.61 292 10:44 11.10.2022
1449 Clouds 30 1011 81 10000 1.64 298 10:24 11.10.2022
1450 Clouds 30 1013 87 10000 2.26 300 08:28 11.10.2022
1451 Clouds 25 1014 94 10000 1.48 84 02:52 11.10.2022
1452 Clouds 25 1012 94 10000 2.37 91 00:36 11.10.2022
1453 Rain 25 1011 86 10000 3.88 91 22:51 10.10.2022
1454 Rain 25 1011 95 4177 3.16 69 20:43 10.10.2022
1455 Clouds 26 1013 89 6919 1.46 312 19:22 10.10.2022
1456 Clouds 26 1013 85 8753 0.62 281 17:27 10.10.2022
1457 Clouds 26 1013 85 8753 0.62 281 16:36 10.10.2022
1458 Rain 27 1011 88 10000 1.38 37 13:53 10.10.2022
1459 Clouds 31 1010 86 9425 1.28 40 12:22 10.10.2022
1460 Clouds 30 1010 82 10000 2.21 359 09:32 10.10.2022
1461 Rain 27 1014 90 10000 3.16 34 06:22 10.10.2022
1462 Rain 28 1014 90 10000 3.16 34 05:34 10.10.2022
1463 Rain 25 1013 95 10000 2.13 100 01:30 10.10.2022
1464 Rain 25 1011 96 8170 1.69 121 23:37 09.10.2022
1465 Rain 25 1011 93 10000 2.09 154 22:26 09.10.2022
1466 Rain 25 1011 93 10000 2.09 154 21:30 09.10.2022
1467 Rain 25 1011 92 10000 1.52 181 20:43 09.10.2022
1468 Rain 26 1012 90 8523 0.76 203 19:49 09.10.2022
1469 Rain 26 1012 81 10000 1.37 254 18:50 09.10.2022
1470 Clouds 26 1013 77 10000 1.42 233 17:44 09.10.2022
1471 Clouds 25 1013 88 10000 1.72 215 16:55 09.10.2022
1472 Clouds 26 1013 78 10000 1.38 261 16:20 09.10.2022
1473 Rain 25 1012 88 10000 2.11 311 14:56 09.10.2022
1474 Rain 27 1011 76 10000 1.97 303 14:26 09.10.2022
1475 Rain 28 1010 84 10000 1.67 299 12:49 09.10.2022
1476 Clouds 30 1008 76 9684 0.27 330 11:27 09.10.2022
1477 Clouds 30 1009 74 7441 1.78 142 08:33 09.10.2022
1478 Clouds 31 1013 82 10000 1.24 66 05:59 09.10.2022
1479 Clouds 28 1013 86 10000 1.9 18 03:26 09.10.2022
1480 Clouds 26 1012 88 10000 1.64 7 01:54 09.10.2022
1481 Clouds 27 1010 80 10000 1.11 23 23:33 08.10.2022
1482 Clouds 27 1010 79 10000 0.92 53 22:51 08.10.2022
1483 Clouds 27 1010 83 10000 0.76 101 20:43 08.10.2022
1484 Clouds 26 1011 88 10000 0.9 105 19:38 08.10.2022
1485 Clouds 27 1012 89 5541 3.59 75 17:44 08.10.2022
1486 Clouds 29 1012 81 10000 0.97 168 15:36 08.10.2022
1487 Clouds 30 1010 75 10000 1.09 187 13:53 08.10.2022
1488 Clouds 32 1008 59 10000 0.99 204 12:30 08.10.2022
1489 Clouds 32 1007 62 10000 0.41 153 10:35 08.10.2022
1490 Clouds 31 1007 64 10000 1.65 88 09:42 08.10.2022
1491 Clouds 31 1011 60 10000 1.58 39 07:29 08.10.2022
1492 Clouds 26 1012 86 10000 2.21 14 02:41 08.10.2022
1493 Clouds 26 1010 86 10000 1.19 337 23:52 07.10.2022
1494 Clouds 26 1010 86 10000 1.45 335 23:20 07.10.2022
1495 Clouds 26 1010 90 10000 1.33 333 22:19 07.10.2022
1496 Clouds 26 1010 81 10000 1.29 323 20:35 07.10.2022
1497 Clouds 26 1012 81 10000 1.16 264 18:29 07.10.2022
1498 Rain 25 1012 89 10000 1.34 248 16:58 07.10.2022
1499 Rain 25 1011 89 10000 1.9 229 15:47 07.10.2022
1500 Rain 26 1009 78 10000 4.95 163 14:23 07.10.2022
1501 Rain 28 1007 73 10000 2 104 11:42 07.10.2022
1502 Clouds 32 1008 66 10000 3.23 82 09:25 07.10.2022
1503 Clouds 32 1009 62 10000 3.25 83 08:29 07.10.2022
1504 Clouds 29 1012 75 10000 1.96 63 05:27 07.10.2022
1505 Clouds 26 1009 85 10000 1.73 348 00:28 07.10.2022
1506 Clouds 26 1009 85 10000 1.87 336 22:50 06.10.2022
1507 Clouds 27 1009 84 10000 1.55 329 21:42 06.10.2022
1508 Clouds 26 1010 88 10000 1.09 322 20:54 06.10.2022
1509 Clouds 26 1010 83 10000 1.18 285 19:46 06.10.2022
1510 Rain 27 1011 84 10000 0.97 243 18:37 06.10.2022
1511 Rain 27 1012 79 10000 0.96 208 16:58 06.10.2022
1512 Clouds 26 1010 84 10000 1.62 217 13:51 06.10.2022
1513 Rain 29 1008 77 10000 1.45 167 11:24 06.10.2022
1514 Clouds 30 1012 77 5335 3.94 101 05:47 06.10.2022
1515 Clouds 27 1011 90 10000 3 51 03:24 06.10.2022
1516 Clouds 26 1009 94 10000 2.47 17 22:34 05.10.2022
1517 Clouds 26 1010 89 10000 1.97 1 19:54 05.10.2022
1518 Clouds 27 1011 80 10000 1.6 31 17:50 05.10.2022
1519 Clouds 27 1011 81 10000 1.53 25 17:29 05.10.2022
1520 Clouds 27 1011 84 10000 1.59 44 15:46 05.10.2022
1521 Clouds 28 1010 75 10000 1.79 55 14:38 05.10.2022
1522 Clouds 29 1008 74 10000 2.15 67 13:52 05.10.2022
1523 Clouds 30 1007 70 10000 3.28 83 12:19 05.10.2022
1524 Clouds 31 1008 76 10000 3.72 90 08:45 05.10.2022
1525 Clouds 30 1010 81 10000 2.2 53 07:23 05.10.2022
1526 Rain 29 1011 78 10000 1.71 33 05:35 05.10.2022
1527 Clouds 27 1011 89 10000 2.32 340 02:40 05.10.2022
1528 Clouds 26 1010 94 10000 1.88 351 00:41 05.10.2022
1529 Clouds 26 1009 94 10000 1.62 347 00:23 05.10.2022
1530 Clouds 27 1009 94 10000 1.84 352 21:38 04.10.2022
1531 Clouds 27 1010 92 10000 1.74 4 20:22 04.10.2022
1532 Clouds 26 1011 91 10000 1.65 11 18:56 04.10.2022
1533 Clouds 26 1011 91 10000 1.65 11 18:34 04.10.2022
1534 Clouds 26 1011 90 10000 1.7 72 16:58 04.10.2022
1535 Clouds 27 1011 90 10000 2.07 68 16:20 04.10.2022
1536 Rain 27 1008 84 10000 1 134 11:25 04.10.2022
1537 Clouds 31 1010 88 10000 2 115 08:28 04.10.2022
1538 Clouds 30 1012 93 10000 3.73 94 06:22 04.10.2022
1539 Clouds 25 1010 93 9387 3.63 65 01:24 04.10.2022
1540 Clouds 26 1009 90 10000 2.72 61 23:36 03.10.2022
1541 Clouds 25 1009 93 9235 1.67 49 21:46 03.10.2022
1542 Clouds 25 1009 94 10000 1.66 8 20:43 03.10.2022
1543 Clouds 26 1010 92 10000 1.22 2 18:57 03.10.2022
1544 Clouds 25 1010 92 10000 0.39 322 17:39 03.10.2022
1545 Clouds 25 1010 93 10000 0.72 253 16:40 03.10.2022
1546 Rain 25 1009 94 9099 1.18 204 15:26 03.10.2022
1547 Rain 25 1008 94 8765 0.49 1 13:39 03.10.2022
1548 Rain 25 1007 91 7681 0.16 349 11:45 03.10.2022
1549 Rain 26 1006 89 7509 0.94 264 10:25 03.10.2022
1550 Rain 27 1007 89 7100 0.91 271 08:59 03.10.2022
1551 Clouds 28 1010 89 6411 1.9 236 04:49 03.10.2022
1552 Clouds 26 1008 92 10000 1.49 146 01:52 03.10.2022
1553 Clouds 26 1007 92 8589 1.9 175 22:24 02.10.2022
1554 Clouds 27 1008 90 10000 2.13 134 20:22 02.10.2022
1555 Rain 27 1009 87 5980 1.96 133 17:59 02.10.2022
1556 Rain 27 1009 86 5843 1.96 145 17:29 02.10.2022
1557 Rain 28 1009 86 5843 1.96 145 16:33 02.10.2022
1558 Rain 28 1008 84 6338 2.1 164 15:39 02.10.2022
1559 Rain 29 1006 79 10000 2.1 143 13:48 02.10.2022
1560 Rain 30 1005 78 10000 2.79 123 12:43 02.10.2022
1561 Rain 31 1005 71 6359 2.92 109 12:23 02.10.2022
1562 Rain 31 1005 71 6359 2.92 109 11:34 02.10.2022
1563 Rain 32 1004 57 10000 1.13 74 10:36 02.10.2022
1564 Rain 32 1005 53 10000 1.21 291 08:31 02.10.2022
1565 Rain 32 1005 53 10000 1.21 291 08:31 02.10.2022
1566 Clouds 29 1009 64 10000 0.91 322 05:32 02.10.2022
1567 Clouds 27 1009 79 10000 0.16 280 02:49 02.10.2022
1568 Clouds 25 1007 84 10000 0.29 329 00:45 02.10.2022
1569 Clouds 27 1006 82 10000 0.7 295 23:36 01.10.2022
1570 Clouds 25 1006 82 10000 1.41 241 22:25 01.10.2022
1571 Rain 26 1007 81 10000 2.17 221 19:31 01.10.2022
1572 Clouds 27 1008 80 10000 2.75 204 17:46 01.10.2022
1573 Clouds 29 1008 79 10000 3.16 189 16:24 01.10.2022
1574 Clouds 29 1006 74 10000 2.79 199 14:18 01.10.2022
1575 Rain 31 1006 72 10000 3.24 207 12:35 01.10.2022
1576 Clouds 31 1005 65 10000 3.94 215 11:23 01.10.2022
1577 Clouds 32 1005 65 10000 3.94 215 10:53 01.10.2022
1578 Clouds 31 1005 65 10000 3.94 215 10:30 01.10.2022
1579 Clouds 31 1005 65 10000 3.94 215 10:30 01.10.2022
1580 Clouds 31 1005 65 10000 3.94 215 10:30 01.10.2022
1581 Clouds 31 1006 64 10000 4.39 210 09:26 01.10.2022
1582 Clouds 32 1006 64 10000 4.39 210 08:39 01.10.2022
1583 Rain 29 1008 77 10000 2.74 195 03:52 01.10.2022
1584 Clouds 28 1008 79 10000 2.13 198 03:24 01.10.2022
1585 Clouds 28 1006 78 10000 2.2 214 23:22 30.09.2022
1586 Clouds 28 1006 79 10000 2.46 219 22:19 30.09.2022
1587 Clouds 28 1006 77 10000 2.54 217 21:22 30.09.2022
1588 Clouds 27 1006 80 10000 2.28 221 20:30 30.09.2022
1589 Clouds 27 1007 80 10000 2.54 204 18:45 30.09.2022
1590 Clouds 28 1007 79 10000 2.82 209 16:58 30.09.2022
1591 Clouds 28 1006 77 10000 2.66 221 14:49 30.09.2022
1592 Clouds 29 1004 76 10000 3.49 225 13:24 30.09.2022
1593 Rain 30 1004 75 10000 3.85 220 11:56 30.09.2022
1594 Clouds 30 1004 70 10000 4.73 217 09:45 30.09.2022
1595 Clouds 30 1005 64 10000 4.87 216 08:19 30.09.2022
1596 Clouds 29 1007 79 10000 3.23 179 04:21 30.09.2022
1597 Clouds 27 1006 83 10000 2.51 190 02:21 30.09.2022
1598 Clouds 27 1004 83 10000 2.52 228 21:53 29.09.2022
1599 Clouds 26 1004 88 10000 2.62 226 21:24 29.09.2022
1600 Clouds 26 1004 88 10000 3.44 225 19:58 29.09.2022
1601 Clouds 26 1005 89 10000 3.85 232 18:30 29.09.2022
1602 Clouds 26 1005 89 10000 3.85 232 18:30 29.09.2022
1603 Clouds 26 1005 89 10000 2.75 242 16:29 29.09.2022
1604 Clouds 26 1005 89 10000 2.75 242 15:37 29.09.2022
1605 Clouds 26 1004 89 10000 2.44 248 14:59 29.09.2022
1606 Clouds 26 1003 92 10000 2.1 290 12:45 29.09.2022
1607 Rain 26 1002 89 8625 2.57 268 08:47 29.09.2022
1608 Rain 27 1005 91 10000 2.39 292 05:35 29.09.2022
1609 Rain 24 1005 95 10000 2.11 284 02:37 29.09.2022
1610 Rain 24 1003 94 10000 2.71 292 23:29 28.09.2022
1611 Rain 24 1003 93 10000 2.58 298 22:22 28.09.2022
1612 Rain 25 1003 93 10000 2.73 298 21:25 28.09.2022
1613 Rain 25 1004 95 10000 3.55 302 19:57 28.09.2022
1614 Rain 25 1006 95 6467 3.78 283 16:52 28.09.2022
1615 Rain 29 1003 78 10000 4.01 276 14:35 28.09.2022
1616 Rain 31 1001 75 10000 3.2 272 11:49 28.09.2022
1617 Rain 31 1001 69 10000 3.5 292 09:49 28.09.2022
1618 Clouds 30 1003 70 10000 4.02 288 07:52 28.09.2022
1619 Clouds 29 1005 73 10000 4.08 286 05:48 28.09.2022
1620 Clouds 27 1004 81 10000 2.37 268 01:45 28.09.2022
1621 Clouds 26 1004 91 10000 2.56 264 01:25 28.09.2022
1622 Rain 26 1003 91 10000 2.16 258 22:49 27.09.2022
1623 Rain 26 1004 90 10000 2.43 249 21:20 27.09.2022
1624 Rain 27 1004 90 10000 2.32 240 20:34 27.09.2022
1625 Rain 27 1005 90 10000 3.05 248 19:40 27.09.2022
1626 Rain 27 1006 89 10000 2.85 258 17:47 27.09.2022
1627 Rain 26 1007 89 10000 2.4 258 16:56 27.09.2022
1628 Rain 27 1006 74 10000 2.89 251 15:18 27.09.2022
1629 Rain 26 1005 84 10000 2.46 227 14:21 27.09.2022
1630 Rain 27 1004 84 10000 2.47 217 12:39 27.09.2022
1631 Rain 27 1004 84 10000 2.47 217 12:39 27.09.2022
1632 Clouds 29 1004 81 10000 2.68 218 10:35 27.09.2022
1633 Clouds 30 1005 73 10000 2.23 266 08:36 27.09.2022
1634 Clouds 28 1008 81 10000 2.73 274 05:22 27.09.2022
1635 Clouds 26 1008 86 9829 0.64 298 01:40 27.09.2022
1636 Clouds 26 1007 86 10000 0.93 10 00:23 27.09.2022
1637 Clouds 26 1006 86 4668 1.28 348 23:24 26.09.2022
1638 Clouds 26 1006 87 10000 1.08 302 21:35 26.09.2022
1639 Clouds 26 1007 86 10000 1.49 247 19:49 26.09.2022
1640 Clouds 26 1008 86 10000 1.58 219 18:55 26.09.2022
1641 Clouds 26 1009 86 10000 0.6 149 17:26 26.09.2022
1642 Clouds 26 1009 90 10000 0.71 254 15:25 26.09.2022
1643 Clouds 27 1007 86 10000 1.37 219 12:31 26.09.2022
1644 Rain 27 1006 85 10000 1.39 173 10:44 26.09.2022
1645 Rain 27 1006 85 9617 0.48 138 10:23 26.09.2022
1646 Rain 27 1006 87 9617 0.48 138 09:59 26.09.2022
1647 Rain 27 1006 86 9617 0.48 138 09:40 26.09.2022
1648 Rain 26 1007 88 10000 0.54 98 09:20 26.09.2022
1649 Rain 26 1010 85 10000 1.2 58 05:30 26.09.2022
1650 Rain 25 1009 96 10000 2.58 81 02:29 26.09.2022
1651 Rain 25 1007 95 10000 2.07 76 23:24 25.09.2022
1652 Rain 25 1007 95 10000 2.34 80 21:44 25.09.2022
1653 Rain 25 1008 95 10000 2.73 79 21:25 25.09.2022
1654 Rain 26 1008 95 10000 2.09 85 20:35 25.09.2022
1655 Rain 27 1009 94 10000 2.09 74 18:55 25.09.2022
1656 Rain 27 1010 94 10000 2.36 87 18:24 25.09.2022
1657 Clouds 27 1010 95 10000 2.95 95 17:23 25.09.2022
1658 Clouds 27 1009 95 10000 3.57 91 16:00 25.09.2022
1659 Clouds 27 1008 95 10000 3.15 74 14:37 25.09.2022
1660 Clouds 27 1007 91 10000 1.14 32 14:18 25.09.2022
1661 Rain 29 1005 79 7469 2.03 152 10:40 25.09.2022
1662 Clouds 29 1005 77 10000 2.13 155 09:37 25.09.2022
1663 Rain 28 1007 81 7642 1.63 84 07:41 25.09.2022
1664 Clouds 28 1010 85 10000 1.74 46 05:19 25.09.2022
1665 Rain 25 1006 95 10000 2.26 52 23:36 24.09.2022
1666 Rain 25 1006 92 5723 2.32 346 21:19 24.09.2022
1667 Rain 26 1007 92 10000 3.1 29 19:34 24.09.2022
1668 Rain 26 1007 90 9615 2.23 12 18:57 24.09.2022
1669 Clouds 27 1008 85 10000 0.22 17 16:50 24.09.2022
1670 Clouds 28 1006 83 10000 2.58 192 15:23 24.09.2022
1671 Clouds 28 1006 83 10000 2.58 192 15:23 24.09.2022
1672 Clouds 29 1006 83 10000 2.58 192 14:36 24.09.2022
1673 Clouds 29 1004 74 10000 1.49 197 13:18 24.09.2022
1674 Clouds 30 1004 67 10000 1.03 222 12:22 24.09.2022
1675 Clouds 30 1004 63 10000 1.93 275 09:58 24.09.2022
1676 Clouds 29 1005 64 10000 2.07 272 08:56 24.09.2022
1677 Clouds 29 1006 69 10000 1.67 280 07:41 24.09.2022
1678 Clouds 27 1009 81 10000 1.32 300 04:52 24.09.2022
1679 Clouds 26 1009 84 10000 1.41 308 04:19 24.09.2022
1680 Rain 25 1006 95 10000 1.94 98 22:54 23.09.2022
1681 Rain 25 1006 96 10000 2.57 111 21:33 23.09.2022
1682 Rain 25 1006 94 10000 2.32 106 20:57 23.09.2022
1683 Rain 25 1006 94 10000 2.32 106 20:37 23.09.2022
1684 Rain 25 1008 91 10000 1.64 55 19:19 23.09.2022
1685 Rain 27 1008 84 10000 2.05 345 15:31 23.09.2022
1686 Clouds 30 1005 80 7512 2.3 335 12:39 23.09.2022
1687 Clouds 30 1005 69 10000 1.9 341 09:36 23.09.2022
1688 Clouds 29 1008 82 10000 1.87 11 06:51 23.09.2022
1689 Rain 25 1008 90 7484 2.57 343 00:42 23.09.2022
1690 Rain 25 1007 88 10000 2.22 292 23:23 22.09.2022
1691 Rain 25 1007 88 8757 1.98 275 22:27 22.09.2022
1692 Rain 25 1007 87 10000 1.75 251 21:19 22.09.2022
1693 Rain 25 1007 85 10000 1.78 209 19:58 22.09.2022
1694 Rain 26 1008 85 10000 1.81 193 17:38 22.09.2022
1695 Clouds 30 1006 83 8759 2.01 196 13:38 22.09.2022
1696 Clouds 31 1004 72 10000 1.87 239 10:37 22.09.2022
1697 Clouds 31 1005 69 10000 1.66 262 08:58 22.09.2022
1698 Clouds 30 1007 65 10000 2.77 318 07:27 22.09.2022
1699 Clouds 26 1009 78 10000 2.67 292 04:36 22.09.2022
1700 Rain 24 1006 92 6872 2.14 296 23:32 21.09.2022
1701 Rain 25 1006 91 10000 2.03 296 21:52 21.09.2022
1702 Clouds 25 1006 90 10000 2.33 292 20:53 21.09.2022
1703 Rain 26 1008 90 10000 2 261 17:51 21.09.2022
1704 Rain 26 1009 87 10000 2.3 282 16:55 21.09.2022
1705 Rain 27 1007 84 10000 1.17 76 14:52 21.09.2022
1706 Rain 27 1006 83 10000 1.11 59 13:24 21.09.2022
1707 Clouds 33 1005 82 10000 1.01 46 11:30 21.09.2022
1708 Clouds 33 1005 81 10000 0.84 28 10:34 21.09.2022
1709 Clouds 34 1006 82 10000 0.91 29 09:36 21.09.2022
1710 Clouds 31 1007 56 10000 3.06 326 07:58 21.09.2022
1711 Clouds 27 1009 78 10000 2.75 287 02:51 21.09.2022
1712 Clouds 26 1008 80 10000 2.58 272 02:29 21.09.2022
1713 Clouds 26 1008 80 10000 2.58 272 01:49 21.09.2022
1714 Clouds 27 1006 81 10000 2.76 255 23:19 20.09.2022
1715 Clouds 27 1007 81 10000 2.84 258 21:33 20.09.2022
1716 Clouds 27 1008 87 10000 1.89 221 19:57 20.09.2022
1717 Rain 28 1009 87 10000 2.13 188 17:38 20.09.2022
1718 Clouds 30 1008 84 10000 1.98 202 14:53 20.09.2022
1719 Clouds 30 1008 86 10000 2.67 176 13:52 20.09.2022
1720 Clouds 31 1007 81 6006 2.28 231 10:41 20.09.2022
1721 Clouds 31 1007 61 10000 4.74 265 08:29 20.09.2022
1722 Rain 31 1009 59 10000 3.21 260 07:27 20.09.2022
1723 Clouds 29 1011 79 10000 1.5 267 04:29 20.09.2022
1724 Clouds 27 1008 81 10000 2.23 247 23:49 19.09.2022
1725 Clouds 27 1008 81 10000 1.61 267 22:28 19.09.2022
1726 Clouds 27 1008 82 10000 1.94 259 20:58 19.09.2022
1727 Clouds 27 1008 82 10000 1.72 277 20:39 19.09.2022
1728 Clouds 27 1009 82 10000 1.87 257 18:41 19.09.2022
1729 Clouds 29 1010 82 10000 2.51 273 15:56 19.09.2022
1730 Clouds 30 1009 76 10000 2.77 274 13:39 19.09.2022
1731 Clouds 32 1008 75 10000 4.02 276 11:30 19.09.2022
1732 Clouds 32 1009 73 10000 4.77 275 09:20 19.09.2022
1733 Clouds 32 1010 79 10000 3.62 284 08:19 19.09.2022
1734 Clouds 26 1011 81 10000 2.21 269 02:31 19.09.2022
1735 Clouds 25 1008 82 10000 2.47 264 23:24 18.09.2022
1736 Clouds 25 1008 82 10000 2.38 262 21:47 18.09.2022
1737 Rain 26 1008 78 10000 2.45 254 20:34 18.09.2022
1738 Rain 26 1009 75 10000 3.03 243 18:41 18.09.2022
1739 Rain 25 1010 74 10000 3.36 246 17:43 18.09.2022
1740 Rain 25 1009 74 10000 3.49 250 15:56 18.09.2022
1741 Clouds 29 1009 79 10000 4.47 243 14:35 18.09.2022
1742 Clouds 30 1007 81 8531 3.49 221 12:55 18.09.2022
1743 Rain 30 1006 75 6496 4.36 200 11:46 18.09.2022
1744 Clouds 31 1009 57 10000 4.35 233 06:30 18.09.2022
1745 Clouds 26 1008 75 10000 2.03 230 01:30 18.09.2022
1746 Clouds 26 1007 76 10000 1.83 240 00:42 18.09.2022
1747 Rain 26 1006 76 10000 2.37 243 21:54 17.09.2022
1748 Clouds 26 1006 75 10000 2.67 247 20:48 17.09.2022
1749 Clouds 27 1008 71 10000 3.24 239 19:19 17.09.2022
1750 Rain 29 1009 60 10000 3.72 247 17:19 17.09.2022
1751 Clouds 30 1006 59 10000 2.93 200 13:59 17.09.2022
1752 Clouds 32 1005 57 10000 3.31 199 12:29 17.09.2022
1753 Rain 31 1005 57 10000 3.44 201 10:28 17.09.2022
1754 Clouds 31 1008 58 10000 3.46 233 06:28 17.09.2022
1755 Clouds 27 1008 74 10000 2.61 230 02:43 17.09.2022
1756 Clouds 26 1005 80 10000 2.41 246 22:58 16.09.2022
1757 Rain 27 1005 79 10000 2.68 236 21:33 16.09.2022
1758 Rain 27 1006 79 10000 2.52 241 20:41 16.09.2022
1759 Rain 28 1007 81 10000 2.62 236 18:18 16.09.2022
1760 Clouds 29 1007 78 10000 2.76 212 15:57 16.09.2022
1761 Clouds 30 1006 76 10000 2.6 184 14:32 16.09.2022
1762 Clouds 31 1004 59 10000 3.47 182 11:56 16.09.2022
1763 Clouds 31 1005 58 10000 3.21 266 09:21 16.09.2022
1764 Clouds 31 1007 58 10000 3.61 249 07:21 16.09.2022
1765 Clouds 31 1008 59 10000 3.61 249 06:47 16.09.2022
1766 Clouds 30 1009 57 10000 3.44 255 04:42 16.09.2022
1767 Clouds 27 1006 82 10000 2.58 259 23:50 15.09.2022
1768 Clouds 27 1007 81 10000 2.94 253 21:24 15.09.2022
1769 Clouds 28 1008 78 10000 3.04 249 20:23 15.09.2022
1770 Clouds 28 1008 77 10000 3.2 243 18:53 15.09.2022
1771 Clouds 28 1009 76 10000 3.43 238 17:33 15.09.2022
1772 Clouds 28 1009 76 10000 3.36 247 16:54 15.09.2022
1773 Clouds 30 1007 64 10000 3.11 206 14:42 15.09.2022
1774 Clouds 31 1006 63 10000 3.98 193 12:48 15.09.2022
1775 Clouds 30 1006 65 10000 4.3 210 10:21 15.09.2022
1776 Clouds 32 1008 55 10000 3.72 254 07:51 15.09.2022
1777 Clouds 30 1011 64 10000 1.89 266 04:24 15.09.2022
1778 Clouds 26 1009 85 10000 1.8 277 01:57 15.09.2022
1779 Clouds 26 1008 87 10000 2.86 271 22:26 14.09.2022
1780 Clouds 26 1009 86 10000 2.5 304 19:59 14.09.2022
1781 Clouds 26 1010 86 10000 2.49 296 19:26 14.09.2022
1782 Clouds 26 1011 84 10000 2.36 224 17:25 14.09.2022
1783 Rain 28 1010 69 5716 3.42 198 15:56 14.09.2022
1784 Rain 29 1010 68 10000 4.05 198 14:34 14.09.2022
1785 Rain 30 1007 69 10000 4.87 192 11:40 14.09.2022
1786 Rain 31 1008 68 10000 2.85 224 09:48 14.09.2022
1787 Clouds 31 1010 65 10000 2.33 249 07:39 14.09.2022
1788 Clouds 31 1011 63 10000 2.1 262 06:47 14.09.2022
1789 Clouds 30 1011 65 10000 2.43 276 04:33 14.09.2022
1790 Clouds 25 1010 85 10000 1.78 309 01:48 14.09.2022
1791 Clouds 26 1009 90 10000 2.18 297 01:27 14.09.2022
1792 Clouds 26 1009 90 10000 2.18 297 00:50 14.09.2022
1793 Clouds 26 1008 89 10000 2.43 290 23:54 13.09.2022
1794 Clouds 26 1008 89 10000 2.43 290 23:36 13.09.2022
1795 Clouds 26 1008 86 10000 1.97 277 23:18 13.09.2022
1796 Clouds 26 1008 84 10000 1.79 234 21:50 13.09.2022
1797 Clouds 27 1009 83 10000 2.38 201 19:45 13.09.2022
1798 Rain 26 1010 82 10000 3.05 193 18:18 13.09.2022
1799 Clouds 28 1009 80 10000 3.21 192 15:55 13.09.2022
1800 Clouds 30 1009 66 10000 3.06 183 14:36 13.09.2022
1801 Clouds 30 1009 66 10000 3.06 183 14:36 13.09.2022
1802 Rain 29 1007 67 10000 2.28 197 12:40 13.09.2022
1803 Clouds 31 1008 59 10000 1.03 312 08:50 13.09.2022
1804 Clouds 30 1011 63 10000 1.71 321 05:45 13.09.2022
1805 Clouds 26 1008 90 10000 2.17 343 00:19 13.09.2022
1806 Clouds 26 1008 91 10000 2.3 339 22:50 12.09.2022
1807 Clouds 26 1008 90 10000 2.29 329 21:37 12.09.2022
1808 Clouds 26 1009 86 10000 2.21 313 20:25 12.09.2022
1809 Clouds 27 1010 84 9812 1.64 275 18:44 12.09.2022
1810 Clouds 28 1009 85 10000 1.23 175 16:32 12.09.2022
1811 Clouds 28 1010 80 10000 2.76 198 16:32 12.09.2022
1812 Clouds 28 1010 80 10000 2.76 198 16:32 12.09.2022
1813 Clouds 28 1008 80 10000 3.22 179 14:36 12.09.2022
1814 Rain 30 1006 65 10000 1.01 220 11:29 12.09.2022
1815 Clouds 31 1007 60 10000 1.1 246 09:45 12.09.2022
1816 Clouds 29 1010 63 10000 1.69 278 04:50 12.09.2022
1817 Rain 27 1010 83 10000 1.37 319 04:20 12.09.2022
1818 Clouds 25 1008 94 10000 2.75 279 23:34 11.09.2022
1819 Rain 25 1008 94 10000 2.56 285 22:18 11.09.2022
1820 Clouds 25 1008 94 10000 2.61 276 20:48 11.09.2022
1821 Rain 25 1009 91 10000 0.39 277 19:56 11.09.2022
1822 Rain 25 1009 90 10000 1.24 105 19:23 11.09.2022
1823 Rain 26 1010 87 7817 1.93 150 18:21 11.09.2022
1824 Clouds 30 1010 85 7606 2.35 207 16:36 11.09.2022
1825 Clouds 31 1008 61 9470 3.24 216 14:33 11.09.2022
1826 Clouds 31 1006 57 10000 1.17 335 12:40 11.09.2022
1827 Rain 31 1008 60 10000 2.47 312 08:59 11.09.2022
1828 Clouds 31 1010 59 10000 3.39 319 07:18 11.09.2022
1829 Clouds 25 1009 90 10000 2.12 273 00:50 11.09.2022
1830 Clouds 25 1009 89 10000 3.08 271 22:55 10.09.2022
1831 Clouds 25 1009 86 8535 2.65 264 21:25 10.09.2022
1832 Rain 25 1010 85 6499 2.48 264 19:47 10.09.2022
1833 Rain 25 1010 85 7251 2.01 239 19:28 10.09.2022
1834 Rain 25 1010 85 7251 2.01 239 18:51 10.09.2022
1835 Rain 25 1011 83 10000 2.28 202 16:39 10.09.2022
1836 Rain 28 1010 66 10000 2.42 213 14:42 10.09.2022
1837 Rain 31 1008 65 10000 2.64 192 12:52 10.09.2022
1838 Clouds 31 1007 59 10000 2.93 214 10:58 10.09.2022
1839 Clouds 31 1008 60 10000 2.55 254 09:37 10.09.2022
1840 Clouds 31 1009 60 10000 2.89 303 08:36 10.09.2022
1841 Clouds 31 1011 62 10000 3.07 296 06:43 10.09.2022
1842 Rain 25 1009 86 10000 1.8 283 00:40 10.09.2022
1843 Rain 25 1009 85 10000 1.84 268 23:32 09.09.2022
1844 Rain 25 1009 86 10000 1.96 256 22:18 09.09.2022
1845 Rain 26 1009 79 10000 2.03 264 20:46 09.09.2022
1846 Clouds 28 1010 80 10000 2.33 247 19:24 09.09.2022
1847 Clouds 28 1010 80 10000 2.33 247 18:46 09.09.2022
1848 Clouds 28 1010 82 10000 2.61 193 16:23 09.09.2022
1849 Clouds 30 1008 59 10000 1.65 224 13:48 09.09.2022
1850 Clouds 31 1006 58 10000 2.85 244 11:58 09.09.2022
1851 Clouds 31 1008 59 10000 4.1 254 09:53 09.09.2022
1852 Clouds 29 1012 76 10000 1.98 286 04:57 09.09.2022
1853 Clouds 27 1012 86 10000 1.69 319 02:54 09.09.2022
1854 Rain 25 1009 90 10000 2.37 272 21:52 08.09.2022
1855 Clouds 25 1010 89 10000 2.15 277 20:51 08.09.2022
1856 Clouds 25 1010 89 10000 2.15 277 20:31 08.09.2022
1857 Clouds 25 1010 88 10000 2.02 278 19:44 08.09.2022
1858 Rain 25 1011 89 10000 2.1 257 17:44 08.09.2022
1859 Rain 25 1011 90 10000 1.6 253 16:19 08.09.2022
1860 Rain 25 1010 89 10000 1.6 269 14:40 08.09.2022
1861 Clouds 24 1008 88 10000 2.94 243 13:23 08.09.2022
1862 Rain 25 1007 89 10000 3.09 235 11:37 08.09.2022
1863 Rain 26 1007 87 9378 3.66 243 10:23 08.09.2022
1864 Clouds 28 1009 84 10000 4.8 273 07:49 08.09.2022
1865 Clouds 29 1010 92 10000 4.08 275 06:41 08.09.2022
1866 Rain 25 1010 95 10000 2.23 284 02:36 08.09.2022
1867 Clouds 25 1009 95 10000 2.22 304 02:18 08.09.2022
1868 Rain 25 1007 95 4495 1.82 34 00:27 08.09.2022
1869 Rain 25 1007 90 6742 2.01 50 22:36 07.09.2022
1870 Rain 25 1007 86 10000 1.09 38 21:41 07.09.2022
1871 Rain 25 1007 85 10000 0.83 220 20:31 07.09.2022
1872 Rain 25 1008 85 10000 1.65 248 19:30 07.09.2022
1873 Rain 26 1010 84 10000 1.66 233 17:22 07.09.2022
1874 Clouds 31 1007 85 10000 2.93 220 12:41 07.09.2022
1875 Rain 31 1007 86 10000 3.66 219 10:45 07.09.2022
1876 Clouds 30 1008 93 10000 3.09 201 08:33 07.09.2022
1877 Clouds 30 1010 90 10000 1.18 215 06:51 07.09.2022
1878 Rain 25 1008 92 10000 3.33 289 00:53 07.09.2022
1879 Rain 25 1008 93 10000 3.75 307 22:35 06.09.2022
1880 Rain 25 1008 92 10000 2.4 301 21:38 06.09.2022
1881 Rain 25 1009 92 10000 3.43 286 19:57 06.09.2022
1882 Rain 25 1010 93 10000 3.63 299 18:42 06.09.2022
1883 Rain 26 1010 92 10000 3.7 295 17:51 06.09.2022
1884 Rain 26 1010 88 9652 3.38 274 16:53 06.09.2022
1885 Rain 26 1009 84 10000 3.07 244 16:26 06.09.2022
1886 Rain 29 1008 80 7819 2.83 208 14:54 06.09.2022
1887 Rain 29 1007 80 10000 2.09 174 13:44 06.09.2022
1888 Rain 29 1007 80 10000 2.09 174 13:44 06.09.2022
1889 Rain 31 1007 65 7850 2.36 174 13:20 06.09.2022
1890 Clouds 31 1005 63 10000 4.12 199 10:57 06.09.2022
1891 Clouds 31 1006 62 6870 3.76 211 09:56 06.09.2022
1892 Clouds 31 1007 57 10000 2.91 237 08:27 06.09.2022
1893 Clouds 31 1009 58 10000 2.38 249 06:22 06.09.2022
1894 Clouds 26 1007 85 10000 1.1 255 01:22 06.09.2022
1895 Clouds 27 1007 86 10000 1.89 265 22:57 05.09.2022
1896 Clouds 27 1007 86 10000 2.17 270 21:39 05.09.2022
1897 Clouds 27 1007 85 10000 2.15 255 20:32 05.09.2022
1898 Clouds 27 1009 83 10000 2.79 251 18:53 05.09.2022
1899 Clouds 28 1009 83 10000 2.74 236 18:26 05.09.2022
1900 Clouds 28 1009 83 10000 2.74 236 17:57 05.09.2022
1901 Clouds 28 1008 81 10000 3.29 208 15:54 05.09.2022
1902 Clouds 28 1007 79 10000 4.42 170 14:48 05.09.2022
1903 Clouds 31 1006 61 10000 4.2 138 12:53 05.09.2022
1904 Clouds 31 1006 63 10000 4.04 170 11:21 05.09.2022
1905 Clouds 31 1008 67 10000 3.56 167 08:52 05.09.2022
1906 Clouds 26 1009 80 10000 1.52 164 03:57 05.09.2022
1907 Clouds 26 1008 85 10000 0.56 158 00:30 05.09.2022
1908 Clouds 25 1007 85 10000 1.57 288 22:29 04.09.2022
1909 Clouds 25 1007 85 10000 1.57 288 21:56 04.09.2022
1910 Rain 25 1008 84 10000 1.34 262 20:21 04.09.2022
1911 Rain 24 1008 84 10000 2.1 263 18:34 04.09.2022
1912 Rain 24 1009 84 10000 2.59 277 17:31 04.09.2022
1913 Rain 25 1008 81 10000 5.72 285 15:43 04.09.2022
1914 Clouds 30 1007 63 10000 5.25 173 14:25 04.09.2022
1915 Clouds 32 1005 60 10000 5.41 174 12:34 04.09.2022
1916 Clouds 32 1005 61 10000 3.62 200 10:59 04.09.2022
1917 Clouds 32 1005 63 10000 3.19 220 09:34 04.09.2022
1918 Clouds 32 1009 64 10000 2.15 215 06:34 04.09.2022
1919 Rain 27 1008 84 10000 1.56 233 02:51 04.09.2022
1920 Rain 30 1008 61 10000 2.33 188 22:34 03.09.2022
1921 Clouds 28 1006 79 10000 2.63 175 21:26 03.09.2022
1922 Clouds 28 1006 79 10000 2.63 175 20:55 03.09.2022
1923 Clouds 29 1007 77 10000 3.27 170 18:31 03.09.2022
1924 Rain 31 1008 65 10000 3.39 167 17:19 03.09.2022
1925 Rain 31 1007 65 10000 2.99 169 15:35 03.09.2022
1926 Rain 31 1006 64 10000 3.11 169 14:41 03.09.2022
1927 Rain 31 1006 62 10000 3.53 180 13:44 03.09.2022
1928 Clouds 32 1005 60 10000 4.57 176 11:32 03.09.2022
1929 Clouds 33 1005 78 10000 3.73 179 09:22 03.09.2022
1930 Clouds 33 1007 80 10000 2.89 196 07:48 03.09.2022
1931 Clouds 30 1009 69 10000 1.21 162 04:50 03.09.2022
1932 Clouds 30 1008 65 10000 0.54 163 02:35 03.09.2022
1933 Clouds 28 1006 82 10000 1.98 175 23:42 02.09.2022
1934 Clouds 29 1006 81 10000 2.24 175 21:57 02.09.2022
1935 Clouds 31 1007 65 10000 2.16 190 20:42 02.09.2022
1936 Clouds 31 1008 64 10000 2.51 183 19:47 02.09.2022
1937 Clouds 31 1008 65 10000 2.77 181 18:50 02.09.2022
1938 Clouds 31 1009 66 10000 2.83 181 18:24 02.09.2022
1939 Clouds 31 1009 65 10000 2.9 179 17:23 02.09.2022
1940 Rain 31 1009 65 10000 2.9 179 16:31 02.09.2022
1941 Rain 30 1007 65 10000 3.27 167 13:25 02.09.2022
1942 Clouds 32 1005 61 10000 3.02 167 10:39 02.09.2022
1943 Clouds 34 1006 59 10000 2.09 188 09:42 02.09.2022
1944 Rain 34 1006 58 10000 1.61 205 08:43 02.09.2022
1945 Clouds 34 1008 55 10000 2.48 244 06:44 02.09.2022
1946 Clouds 30 1010 65 10000 2.09 240 05:32 02.09.2022
1947 Clouds 27 1007 79 10000 1.42 225 22:58 01.09.2022
1948 Clouds 27 1006 79 10000 1.88 216 21:46 01.09.2022
1949 Clouds 30 1008 66 10000 2.26 199 21:26 01.09.2022
1950 Clouds 30 1008 66 10000 2.33 210 20:49 01.09.2022
1951 Clouds 30 1009 67 10000 2.07 197 19:24 01.09.2022
1952 Clouds 30 1009 68 10000 2.37 188 18:18 01.09.2022
1953 Clouds 31 1009 67 10000 2.54 177 16:47 01.09.2022
1954 Clouds 30 1008 67 10000 2.88 156 14:41 01.09.2022
1955 Clouds 31 1006 66 10000 3.26 162 13:20 01.09.2022
1956 Clouds 31 1006 65 10000 3.14 189 11:57 01.09.2022
1957 Clouds 30 1006 66 10000 3.14 189 11:38 01.09.2022
1958 Clouds 31 1004 50 10000 2.91 200 11:18 01.09.2022
1959 Rain 33 1006 50 10000 2.34 205 08:53 01.09.2022
1960 Clouds 31 1010 65 10000 2.51 195 06:26 01.09.2022
1961 Clouds 29 1009 66 10000 1.7 132 01:45 01.09.2022
1962 Rain 25 1008 81 10000 1.58 126 00:33 01.09.2022
1963 Clouds 26 1007 80 10000 1.92 146 22:21 31.08.2022
1964 Clouds 26 1007 78 10000 3.47 177 20:22 31.08.2022
1965 Rain 26 1008 75 10000 3.06 180 18:19 31.08.2022
1966 Clouds 26 1008 74 10000 2.92 170 16:31 31.08.2022
1967 Rain 29 1007 64 10000 3.22 170 14:58 31.08.2022
1968 Rain 29 1005 66 10000 4 175 12:25 31.08.2022
1969 Rain 30 1006 63 10000 4 175 11:37 31.08.2022
1970 Rain 31 1007 64 10000 4.35 196 09:25 31.08.2022
1971 Clouds 31 1009 62 10000 2.04 190 06:19 31.08.2022
1972 Clouds 28 1007 78 10000 1.91 187 23:25 30.08.2022
1973 Clouds 28 1007 77 10000 1.99 186 21:49 30.08.2022
1974 Clouds 28 1008 77 10000 2.45 187 20:58 30.08.2022
1975 Clouds 30 1009 62 10000 2.37 182 18:52 30.08.2022
1976 Rain 31 1008 64 10000 2.66 176 15:29 30.08.2022
1977 Clouds 31 1007 64 10000 2.71 185 13:25 30.08.2022
1978 Clouds 31 1007 61 10000 2.92 195 11:22 30.08.2022
1979 Clouds 31 1007 62 10000 2.92 195 10:57 30.08.2022
1980 Clouds 31 1010 62 10000 1.43 211 07:46 30.08.2022
1981 Clouds 26 1010 79 10000 0.76 340 02:55 30.08.2022
1982 Clouds 26 1008 86 10000 0.76 339 23:22 29.08.2022
1983 Clouds 26 1008 85 10000 0.84 313 22:28 29.08.2022
1984 Clouds 26 1008 85 10000 0.72 312 21:26 29.08.2022
1985 Clouds 26 1009 86 10000 0.32 31 19:54 29.08.2022
1986 Clouds 26 1010 84 10000 0.42 153 17:54 29.08.2022
1987 Clouds 26 1010 84 10000 0.8 128 17:25 29.08.2022
1988 Clouds 26 1010 84 10000 0.8 128 16:40 29.08.2022
1989 Clouds 26 1010 84 10000 0.8 128 16:40 29.08.2022
1990 Rain 27 1008 86 10000 0.24 58 14:47 29.08.2022
1991 Clouds 29 1007 85 10000 0.98 325 13:21 29.08.2022
1992 Clouds 30 1006 83 7146 2.54 139 11:20 29.08.2022
1993 Clouds 30 1006 83 7146 2.54 139 11:20 29.08.2022
1994 Clouds 31 1008 62 10000 2.62 144 10:19 29.08.2022
1995 Clouds 31 1010 63 4910 2.44 127 08:37 29.08.2022
1996 Clouds 30 1010 63 10000 1.07 123 05:35 29.08.2022
1997 Rain 28 1006 84 10000 1.19 179 00:22 29.08.2022
1998 Clouds 28 1006 84 10000 1.74 184 22:41 28.08.2022
1999 Clouds 28 1006 83 10000 2.03 188 21:44 28.08.2022
2000 Clouds 28 1006 82 10000 2.77 195 20:55 28.08.2022
2001 Clouds 28 1007 78 10000 2.76 179 19:26 28.08.2022
2002 Clouds 30 1008 64 10000 2.54 172 18:20 28.08.2022
2003 Clouds 31 1008 64 10000 2.41 175 16:58 28.08.2022
2004 Clouds 31 1007 64 10000 2.56 181 16:22 28.08.2022
2005 Clouds 31 1006 64 10000 2.86 181 14:41 28.08.2022
2006 Clouds 31 1005 64 10000 3.77 173 12:32 28.08.2022
2007 Clouds 31 1005 65 10000 3.22 160 10:43 28.08.2022
2008 Clouds 31 1007 66 10000 3.15 164 09:42 28.08.2022
2009 Clouds 34 1005 52 10000 3.33 175 08:37 28.08.2022
2010 Clouds 33 1006 52 10000 3.07 171 07:43 28.08.2022
2011 Clouds 28 1009 77 10000 1.43 178 02:39 28.08.2022
2012 Clouds 27 1007 84 10000 1.76 157 00:26 28.08.2022
2013 Clouds 27 1007 84 10000 2.01 158 22:34 27.08.2022
2014 Clouds 27 1008 81 10000 2.74 175 21:28 27.08.2022
2015 Clouds 28 1008 83 10000 3 184 19:40 27.08.2022
2016 Clouds 30 1010 63 10000 3.5 170 17:29 27.08.2022
2017 Clouds 30 1009 66 10000 3.74 184 15:53 27.08.2022
2018 Clouds 30 1008 66 10000 3.93 184 15:24 27.08.2022
2019 Clouds 30 1006 62 10000 4.11 175 12:23 27.08.2022
2020 Rain 31 1006 61 10000 4.24 174 11:25 27.08.2022
2021 Rain 32 1007 75 10000 4.74 179 09:42 27.08.2022
2022 Clouds 31 1008 62 10000 4.34 183 07:37 27.08.2022
2023 Clouds 25 1009 79 10000 2.42 185 02:34 27.08.2022
2024 Clouds 25 1008 89 10000 2.27 130 23:56 26.08.2022
2025 Rain 25 1007 89 10000 2 115 22:37 26.08.2022
2026 Clouds 25 1008 89 10000 2.01 126 20:42 26.08.2022
2027 Rain 25 1009 89 10000 1.35 136 19:23 26.08.2022
2028 Rain 25 1010 86 8546 3.39 180 16:46 26.08.2022
2029 Rain 25 1008 84 7866 3.96 200 15:27 26.08.2022
2030 Rain 25 1006 84 10000 4.08 164 14:29 26.08.2022
2031 Rain 25 1005 85 7090 4.56 159 12:47 26.08.2022
2032 Rain 31 1006 63 10000 7.16 185 11:27 26.08.2022
2033 Rain 31 1005 64 10000 5.09 175 10:25 26.08.2022
2034 Clouds 31 1006 61 10000 4.11 194 07:28 26.08.2022
2035 Clouds 26 1004 89 10000 2.99 220 01:28 26.08.2022
2036 Clouds 26 1003 89 10000 3.25 215 23:30 25.08.2022
2037 Rain 26 1003 89 10000 2.66 174 21:26 25.08.2022
2038 Rain 26 1004 88 10000 3.38 170 20:26 25.08.2022
2039 Clouds 26 1004 86 10000 3.58 180 18:49 25.08.2022
2040 Clouds 26 1005 84 10000 3.7 173 17:32 25.08.2022
2041 Rain 26 1006 83 10000 3.65 175 16:50 25.08.2022
2042 Rain 26 1006 83 10000 3.65 175 16:50 25.08.2022
2043 Rain 27 1005 83 10000 2.95 200 15:39 25.08.2022
2044 Clouds 30 1004 86 10000 3.8 196 14:31 25.08.2022
2045 Clouds 31 1003 57 10000 2.27 129 11:52 25.08.2022
2046 Clouds 31 1003 58 10000 2.74 129 10:46 25.08.2022
2047 Clouds 31 1005 57 10000 1.62 191 08:52 25.08.2022
2048 Rain 30 1007 61 10000 1.82 256 05:19 25.08.2022
2049 Rain 28 1004 80 10000 1.74 255 00:30 25.08.2022
2050 Clouds 28 1003 80 10000 2.23 256 23:25 24.08.2022
2051 Clouds 28 1003 79 10000 2.49 239 22:21 24.08.2022
2052 Clouds 29 1003 79 10000 2.49 239 21:33 24.08.2022
2053 Rain 31 1005 61 10000 3.27 189 20:24 24.08.2022
2054 Rain 31 1006 58 10000 3.96 184 18:39 24.08.2022
2055 Rain 31 1006 58 10000 4.32 192 16:23 24.08.2022
2056 Rain 32 1005 58 10000 4.32 192 15:48 24.08.2022
2057 Rain 32 1002 62 10000 4.2 178 12:53 24.08.2022
2058 Rain 32 1002 61 10000 2.09 208 11:22 24.08.2022
2059 Clouds 35 1004 47 10000 1.83 287 09:19 24.08.2022
2060 Clouds 32 1006 57 10000 2.47 280 07:33 24.08.2022
2061 Clouds 29 1007 83 10000 1.97 282 01:43 24.08.2022
2062 Clouds 29 1006 83 10000 1.53 231 22:53 23.08.2022
2063 Clouds 29 1006 81 10000 1.87 197 22:24 23.08.2022
2064 Rain 29 1007 80 10000 2.63 183 21:22 23.08.2022
2065 Clouds 29 1007 78 10000 3.34 183 19:43 23.08.2022
2066 Clouds 31 1009 65 10000 3.59 185 18:30 23.08.2022
2067 Clouds 31 1009 64 10000 3.57 190 17:43 23.08.2022
2068 Clouds 31 1009 63 10000 3.74 193 16:33 23.08.2022
2069 Clouds 31 1007 60 10000 4.2 195 14:55 23.08.2022
2070 Clouds 31 1005 60 10000 3.7 160 13:25 23.08.2022
2071 Clouds 32 1005 57 10000 3.15 186 11:21 23.08.2022
2072 Clouds 32 1005 58 10000 3.15 186 10:35 23.08.2022
2073 Clouds 31 1006 59 10000 2.36 204 09:46 23.08.2022
2074 Clouds 34 1005 51 10000 2.18 226 08:48 23.08.2022
2075 Clouds 31 1007 59 10000 2.39 249 08:20 23.08.2022
2076 Clouds 34 1006 52 10000 2.39 249 07:33 23.08.2022
2077 Clouds 31 1008 57 10000 2.5 268 06:26 23.08.2022
2078 Clouds 26 1008 83 10000 1.75 292 01:52 23.08.2022
2079 Clouds 26 1007 83 10000 1.67 284 00:27 23.08.2022
2080 Clouds 26 1007 83 10000 1.67 284 23:32 22.08.2022
2081 Clouds 27 1007 83 10000 1.54 287 22:29 22.08.2022
2082 Clouds 27 1007 84 10000 1.84 275 20:58 22.08.2022
2083 Clouds 28 1008 82 10000 2.21 271 19:47 22.08.2022
2084 Clouds 28 1008 82 10000 2.43 267 18:38 22.08.2022
2085 Clouds 29 1008 80 10000 2.3 239 16:26 22.08.2022
2086 Clouds 29 1008 80 10000 2.3 239 15:36 22.08.2022
2087 Clouds 31 1005 63 10000 3.17 181 12:56 22.08.2022
2088 Clouds 31 1005 62 10000 2.88 179 09:57 22.08.2022
2089 Clouds 30 1006 60 10000 2.86 239 07:21 22.08.2022
2090 Rain 28 1007 79 10000 1.61 212 02:50 22.08.2022
2091 Clouds 26 1006 84 10000 2.34 234 00:37 22.08.2022
2092 Clouds 26 1005 84 10000 2.4 242 23:43 21.08.2022
2093 Clouds 27 1004 83 10000 2.32 257 21:57 21.08.2022
2094 Clouds 27 1005 84 10000 2.59 247 21:21 21.08.2022
2095 Clouds 26 1005 86 10000 2.09 239 20:21 21.08.2022
2096 Rain 27 1006 87 10000 2.18 224 18:59 21.08.2022
2097 Clouds 26 1006 86 10000 1.68 231 16:52 21.08.2022
2098 Rain 26 1005 88 10000 1.12 269 15:52 21.08.2022
2099 Rain 26 1005 90 10000 1.26 266 14:57 21.08.2022
2100 Rain 29 1005 63 10000 2.33 242 13:51 21.08.2022
2101 Rain 29 1004 64 10000 3.26 231 12:56 21.08.2022
2102 Rain 31 1003 61 10000 3.28 210 10:41 21.08.2022
2103 Clouds 31 1004 62 10000 2.58 225 09:21 21.08.2022
2104 Rain 31 1004 62 10000 2.58 225 08:46 21.08.2022
2105 Rain 31 1005 62 10000 3.2 232 08:28 21.08.2022
2106 Rain 30 1006 61 10000 3.58 234 06:37 21.08.2022
2107 Clouds 27 1005 80 10000 2.91 239 01:50 21.08.2022
2108 Rain 27 1004 79 10000 3.04 241 23:34 20.08.2022
2109 Clouds 27 1004 79 10000 2.89 246 21:55 20.08.2022
2110 Clouds 27 1004 79 10000 3.01 244 20:56 20.08.2022
2111 Rain 27 1005 81 10000 2.62 244 19:44 20.08.2022
2112 Rain 27 1005 81 10000 2.83 247 18:50 20.08.2022
2113 Rain 27 1006 82 10000 2.62 247 18:26 20.08.2022
2114 Clouds 27 1006 82 10000 2.31 233 17:21 20.08.2022
2115 Rain 27 1005 82 10000 2.47 220 16:20 20.08.2022
2116 Clouds 28 1004 81 10000 2.75 192 14:26 20.08.2022
2117 Clouds 31 1003 59 8833 1.62 192 11:58 20.08.2022
2118 Clouds 31 1003 59 8833 1.62 192 11:58 20.08.2022
2119 Clouds 31 1003 59 8833 1.62 192 11:37 20.08.2022
2120 Clouds 31 1005 59 10000 1.84 258 09:20 20.08.2022
2121 Clouds 31 1006 59 10000 4.46 261 07:31 20.08.2022
2122 Rain 30 1008 64 10000 3.79 249 05:22 20.08.2022
2123 Clouds 27 1006 75 10000 3.36 253 00:58 20.08.2022
2124 Clouds 27 1005 74 10000 3.53 260 23:45 19.08.2022
2125 Clouds 27 1005 73 10000 3.56 262 22:45 19.08.2022
2126 Rain 27 1006 71 10000 3.91 258 21:20 19.08.2022
2127 Rain 28 1007 69 10000 4.04 257 18:59 19.08.2022
2128 Rain 28 1007 69 10000 4.04 257 18:59 19.08.2022
2129 Rain 28 1007 69 10000 4.04 257 18:59 19.08.2022
2130 Rain 28 1007 69 10000 4.04 257 18:59 19.08.2022
2131 Clouds 30 1007 64 10000 3.89 240 15:58 19.08.2022
2132 Rain 30 1006 64 10000 3.76 201 13:44 19.08.2022
2133 Clouds 32 1004 57 10000 3.15 195 11:50 19.08.2022
2134 Clouds 31 1004 60 10000 3.42 210 10:31 19.08.2022
2135 Clouds 32 1006 59 10000 3.34 249 08:31 19.08.2022
2136 Clouds 30 1008 63 10000 3.53 252 03:39 19.08.2022
2137 Clouds 26 1006 79 10000 2.68 258 00:40 19.08.2022
2138 Clouds 26 1006 79 10000 2.66 262 00:19 19.08.2022
2139 Clouds 26 1006 78 10000 2.63 259 22:56 18.08.2022
2140 Clouds 26 1006 77 10000 2.72 259 22:23 18.08.2022
2141 Clouds 26 1006 77 10000 2.72 259 21:47 18.08.2022
2142 Clouds 27 1007 76 10000 3.09 256 20:45 18.08.2022
2143 Clouds 26 1007 73 10000 3.51 249 19:34 18.08.2022
2144 Rain 29 1008 66 10000 3.62 252 18:34 18.08.2022
2145 Clouds 29 1009 66 10000 2.64 240 17:32 18.08.2022
2146 Rain 29 1008 64 10000 2.6 187 15:50 18.08.2022
2147 Clouds 29 1007 63 10000 3.2 171 14:21 18.08.2022
2148 Clouds 29 1006 63 10000 3.2 171 13:42 18.08.2022
2149 Rain 31 1005 63 10000 2.88 174 12:27 18.08.2022
2150 Clouds 32 1005 57 10000 3.08 170 10:52 18.08.2022
2151 Clouds 31 1006 57 10000 2.5 173 09:42 18.08.2022
2152 Clouds 31 1008 58 10000 3.27 238 07:26 18.08.2022
2153 Clouds 30 1009 61 10000 3.1 238 05:30 18.08.2022
2154 Clouds 27 1006 80 10000 2.23 223 00:23 18.08.2022
2155 Clouds 27 1006 80 10000 2.36 240 22:28 17.08.2022
2156 Rain 27 1007 81 10000 2.67 239 20:21 17.08.2022
2157 Rain 27 1007 81 10000 2.67 239 20:21 17.08.2022
2158 Rain 27 1007 77 10000 2.49 239 19:33 17.08.2022
2159 Rain 27 1007 77 10000 2.49 239 19:33 17.08.2022
2160 Rain 27 1008 77 10000 2.55 227 18:21 17.08.2022
2161 Rain 29 1008 78 10000 2.08 218 16:50 17.08.2022
2162 Clouds 29 1007 78 10000 2.01 219 15:31 17.08.2022
2163 Rain 28 1006 73 10000 2 244 14:18 17.08.2022
2164 Clouds 31 1005 72 10000 2.84 238 11:45 17.08.2022
2165 Clouds 29 1006 73 10000 3.6 239 10:25 17.08.2022
2166 Clouds 29 1006 73 10000 3.6 239 10:25 17.08.2022
2167 Clouds 31 1007 81 10000 4.1 245 08:25 17.08.2022
2168 Clouds 30 1008 62 10000 4.27 211 04:20 17.08.2022
2169 Clouds 25 1006 82 10000 2.38 242 00:40 17.08.2022
2170 Clouds 25 1006 83 10000 2.6 253 22:53 16.08.2022
2171 Rain 25 1006 81 10000 3.97 237 20:59 16.08.2022
2172 Rain 25 1006 81 10000 4.56 234 19:55 16.08.2022
2173 Rain 26 1007 81 10000 4.5 229 19:22 16.08.2022
2174 Rain 26 1008 84 10000 3.37 225 17:54 16.08.2022
2175 Rain 27 1008 84 10000 3.1 228 16:35 16.08.2022
2176 Rain 26 1007 83 10000 3.18 236 15:39 16.08.2022
2177 Rain 27 1006 83 10000 2.85 233 14:43 16.08.2022
2178 Rain 27 1005 82 10000 2.47 233 14:25 16.08.2022
2179 Clouds 26 1004 84 10000 2.55 227 11:39 16.08.2022
2180 Clouds 32 1004 82 10000 3.02 225 09:58 16.08.2022
2181 Clouds 31 1005 61 9382 3.82 228 08:48 16.08.2022
2182 Clouds 32 1007 85 10000 2.78 227 08:19 16.08.2022
2183 Clouds 30 1008 88 10000 2.06 214 05:28 16.08.2022
2184 Rain 26 1006 90 10000 2.32 181 23:18 15.08.2022
2185 Rain 26 1006 89 10000 1.94 183 22:18 15.08.2022
2186 Rain 26 1006 89 10000 1.94 183 21:41 15.08.2022
2187 Rain 25 1007 88 10000 1.95 195 20:30 15.08.2022
2188 Rain 26 1008 86 10000 2.64 215 18:56 15.08.2022
2189 Rain 25 1008 88 10000 4.3 214 17:56 15.08.2022
2190 Rain 25 1008 92 10000 6.18 211 16:23 15.08.2022
2191 Rain 27 1008 80 6374 5.02 226 14:40 15.08.2022
2192 Rain 31 1006 65 10000 1.38 322 13:18 15.08.2022
2193 Clouds 32 1004 55 10000 4.89 295 10:36 15.08.2022
2194 Clouds 32 1005 55 10000 5.26 311 08:53 15.08.2022
2195 Clouds 32 1008 56 10000 5.29 293 06:39 15.08.2022
2196 Rain 30 1009 63 10000 3.31 283 03:34 15.08.2022
2197 Clouds 28 1007 80 10000 2.3 266 23:27 14.08.2022
2198 Clouds 29 1007 80 10000 2.32 251 21:43 14.08.2022
2199 Rain 29 1007 80 10000 2.46 236 20:41 14.08.2022
2200 Clouds 29 1008 78 10000 2.24 214 19:36 14.08.2022
2201 Clouds 30 1009 77 10000 2.89 184 18:21 14.08.2022
2202 Clouds 31 1009 61 10000 3.41 183 17:27 14.08.2022
2203 Clouds 31 1009 61 10000 3.66 181 16:22 14.08.2022
2204 Clouds 31 1007 61 10000 4.27 174 14:39 14.08.2022
2205 Clouds 31 1007 59 10000 4.3 175 13:50 14.08.2022
2206 Clouds 32 1007 59 10000 4.3 175 13:31 14.08.2022
2207 Clouds 32 1006 58 10000 3.87 164 12:35 14.08.2022
2208 Clouds 32 1006 57 10000 3.25 185 11:22 14.08.2022
2209 Clouds 32 1008 56 10000 2.12 217 08:56 14.08.2022
2210 Clouds 31 1010 60 10000 1.92 239 06:27 14.08.2022
2211 Clouds 31 1010 61 10000 1.95 239 04:47 14.08.2022
2212 Clouds 27 1009 78 10000 1.59 238 01:35 14.08.2022
2213 Clouds 27 1007 82 10000 1.92 249 22:56 13.08.2022
2214 Clouds 27 1007 82 10000 2.11 259 21:59 13.08.2022
2215 Clouds 28 1008 80 10000 1.97 250 20:49 13.08.2022
2216 Clouds 28 1008 78 10000 1.54 218 19:47 13.08.2022
2217 Clouds 28 1009 79 10000 2.06 184 19:18 13.08.2022
2218 Clouds 30 1009 63 10000 3.31 170 17:21 13.08.2022
2219 Clouds 31 1008 64 10000 4.05 172 14:42 13.08.2022
2220 Clouds 31 1007 63 10000 4.01 178 13:49 13.08.2022
2221 Clouds 31 1006 63 10000 4.83 175 13:25 13.08.2022
2222 Clouds 31 1006 58 10000 4 176 11:27 13.08.2022
2223 Clouds 31 1007 60 10000 3.97 186 09:23 13.08.2022
2224 Clouds 30 1009 61 10000 3.57 196 06:44 13.08.2022
2225 Rain 26 1009 84 10000 1.32 246 01:36 13.08.2022
2226 Clouds 26 1007 85 10000 2.28 243 23:25 12.08.2022
2227 Clouds 26 1007 84 10000 1.54 224 21:35 12.08.2022
2228 Clouds 26 1008 75 10000 1.44 212 19:47 12.08.2022
2229 Clouds 26 1008 74 10000 1.56 222 19:22 12.08.2022
2230 Rain 27 1009 73 10000 1.71 237 17:59 12.08.2022
2231 Rain 27 1008 71 10000 2.35 241 16:26 12.08.2022
2232 Clouds 28 1008 70 10000 2.83 248 14:50 12.08.2022
2233 Rain 31 1007 60 10000 3.8 244 13:30 12.08.2022
2234 Rain 31 1006 59 10000 4.28 243 12:25 12.08.2022
2235 Rain 31 1007 61 10000 4.38 205 08:50 12.08.2022
2236 Rain 31 1008 60 10000 4.51 210 07:45 12.08.2022
2237 Clouds 31 1008 63 10000 3.05 199 04:55 12.08.2022
2238 Clouds 26 1006 76 10000 1.38 230 00:31 12.08.2022
2239 Clouds 26 1006 76 10000 1.62 221 23:52 11.08.2022
2240 Clouds 26 1006 76 10000 1.7 210 22:42 11.08.2022
2241 Clouds 27 1006 76 10000 1.72 202 21:52 11.08.2022
2242 Rain 27 1006 76 10000 1.64 222 21:26 11.08.2022
2243 Rain 27 1006 76 10000 1.64 222 20:30 11.08.2022
2244 Clouds 28 1007 81 10000 2.68 248 19:33 11.08.2022
2245 Clouds 28 1007 80 10000 2.92 245 18:41 11.08.2022
2246 Rain 28 1008 79 10000 4.38 240 16:46 11.08.2022
2247 Rain 28 1007 79 10000 4.84 235 15:42 11.08.2022
2248 Rain 28 1007 79 10000 4.84 235 15:42 11.08.2022
2249 Clouds 28 1006 80 10000 4.57 242 14:20 11.08.2022
2250 Rain 31 1004 63 10000 2.7 241 11:51 11.08.2022
2251 Clouds 31 1005 57 10000 2.24 225 08:34 11.08.2022
2252 Clouds 31 1007 75 10000 3.01 238 05:44 11.08.2022
2253 Clouds 27 1006 81 10000 3.72 219 02:26 11.08.2022
2254 Clouds 28 1004 79 10000 2.97 233 22:55 10.08.2022
2255 Clouds 28 1004 79 10000 3.05 235 21:45 10.08.2022
2256 Clouds 28 1004 78 10000 3.12 241 20:56 10.08.2022
2257 Clouds 29 1005 78 10000 3.6 245 20:24 10.08.2022
2258 Rain 29 1006 79 10000 4.25 236 18:45 10.08.2022
2259 Rain 30 1007 78 10000 4.09 238 17:20 10.08.2022
2260 Clouds 31 1004 77 10000 4.58 232 14:25 10.08.2022
2261 Clouds 33 1004 74 10000 3.92 230 12:54 10.08.2022
2262 Clouds 31 1004 58 10000 3.51 224 10:31 10.08.2022
2263 Clouds 33 1005 75 10000 3.65 232 08:37 10.08.2022
2264 Clouds 32 1007 77 10000 3.04 237 07:22 10.08.2022
2265 Clouds 30 1007 83 10000 2.52 226 04:50 10.08.2022
2266 Clouds 28 1006 92 10000 3.38 265 00:50 10.08.2022
2267 Clouds 28 1005 86 10000 2.96 264 23:27 09.08.2022
2268 Clouds 27 1005 86 10000 2.96 276 21:38 09.08.2022
2269 Clouds 28 1006 85 10000 3.2 270 20:56 09.08.2022
2270 Clouds 29 1007 80 10000 3.26 259 18:56 09.08.2022
2271 Clouds 28 1007 79 10000 3.51 248 17:31 09.08.2022
2272 Clouds 28 1007 79 10000 3.51 248 17:31 09.08.2022
2273 Clouds 28 1007 79 10000 2.66 246 16:46 09.08.2022
2274 Clouds 28 1007 79 10000 1.71 261 15:59 09.08.2022
2275 Clouds 28 1006 79 10000 2.01 289 14:43 09.08.2022
2276 Clouds 31 1005 75 10000 2.04 276 11:29 09.08.2022
2277 Clouds 29 1006 72 10000 2.67 275 08:52 09.08.2022
2278 Clouds 30 1006 61 10000 2.56 272 07:57 09.08.2022
2279 Clouds 27 1008 90 10000 1.69 221 04:49 09.08.2022
2280 Rain 25 1007 95 10000 3.08 256 23:58 08.08.2022
2281 Rain 25 1006 95 10000 3.51 236 23:24 08.08.2022
2282 Rain 25 1006 95 10000 3.51 236 22:38 08.08.2022
2283 Clouds 25 1007 95 10000 3.44 228 21:40 08.08.2022
2284 Clouds 25 1008 96 10000 2.82 230 19:58 08.08.2022
2285 Clouds 25 1008 96 10000 2.82 230 19:31 08.08.2022
2286 Rain 25 1009 95 7516 3.03 221 17:47 08.08.2022
2287 Rain 25 1009 90 10000 2.74 260 15:47 08.08.2022
2288 Rain 26 1008 86 10000 2.99 259 14:46 08.08.2022
2289 Rain 29 1006 84 10000 3.12 244 12:30 08.08.2022
2290 Clouds 30 1006 89 10000 3.82 205 10:25 08.08.2022
2291 Rain 29 1007 87 10000 2.22 164 07:49 08.08.2022
2292 Rain 26 1008 84 10000 2.87 209 03:39 08.08.2022
2293 Clouds 27 1005 85 10000 5.21 249 22:52 07.08.2022
2294 Rain 28 1005 83 10000 5.19 248 21:41 07.08.2022
2295 Rain 28 1006 87 10000 3.29 220 20:55 07.08.2022
2296 Clouds 28 1007 87 10000 3.32 214 20:18 07.08.2022
2297 Rain 28 1007 87 10000 3.32 214 19:50 07.08.2022
2298 Rain 28 1007 87 8545 2.98 208 18:40 07.08.2022
2299 Rain 29 1008 87 10000 2.48 209 17:18 07.08.2022
2300 Rain 30 1008 87 10000 2.48 209 16:38 07.08.2022
2301 Rain 30 1007 85 10000 1.37 202 15:25 07.08.2022
2302 Rain 31 1005 88 10000 3.23 211 13:44 07.08.2022
2303 Rain 31 1004 88 7063 2.39 230 12:19 07.08.2022
2304 Clouds 31 1004 85 5703 2.33 238 10:37 07.08.2022
2305 Clouds 31 1005 58 9115 4.85 234 08:26 07.08.2022
2306 Clouds 29 1006 75 10000 3.42 243 04:33 07.08.2022
2307 Clouds 27 1005 88 10000 1.61 260 01:58 07.08.2022
2308 Rain 28 1004 86 10000 3.03 223 22:30 06.08.2022
2309 Clouds 28 1004 84 10000 2.79 225 21:43 06.08.2022
2310 Rain 28 1006 83 10000 2.9 224 19:42 06.08.2022
2311 Rain 28 1006 83 10000 3.18 206 18:33 06.08.2022
2312 Rain 28 1007 83 10000 3.15 216 17:39 06.08.2022
2313 Clouds 29 1005 82 10000 2.79 225 15:21 06.08.2022
2314 Clouds 29 1005 82 10000 2.69 203 13:50 06.08.2022
2315 Clouds 31 1003 63 10000 3.83 229 12:21 06.08.2022
2316 Clouds 31 1003 60 10000 3.07 221 10:37 06.08.2022
2317 Clouds 31 1004 61 10000 2.5 215 09:21 06.08.2022
2318 Clouds 30 1007 85 10000 1.25 176 03:55 06.08.2022
2319 Rain 26 1006 93 8129 2.6 235 23:56 05.08.2022
2320 Rain 26 1006 94 10000 2.58 235 22:33 05.08.2022
2321 Rain 26 1007 87 8861 2.62 296 20:20 05.08.2022
2322 Rain 27 1008 81 10000 2.62 269 18:48 05.08.2022
2323 Rain 27 1008 79 10000 2.92 243 18:27 05.08.2022
2324 Rain 28 1008 78 10000 3.18 240 16:50 05.08.2022
2325 Clouds 27 1006 77 10000 3.93 248 15:23 05.08.2022
2326 Rain 27 1006 77 10000 3.93 248 14:33 05.08.2022
2327 Rain 30 1006 61 10000 3.48 233 13:25 05.08.2022
2328 Rain 30 1005 58 10000 3.48 233 12:44 05.08.2022
2329 Rain 31 1006 61 10000 2.53 176 10:55 05.08.2022
2330 Clouds 32 1007 55 10000 3.16 199 08:36 05.08.2022
2331 Clouds 31 1007 55 10000 4.42 240 07:28 05.08.2022
2332 Clouds 26 1008 78 10000 2.78 231 01:46 05.08.2022
2333 Clouds 26 1007 77 10000 2.72 232 22:33 04.08.2022
2334 Clouds 26 1008 76 10000 3.03 234 21:27 04.08.2022
2335 Clouds 26 1008 76 10000 3.03 234 20:45 04.08.2022
2336 Rain 26 1008 77 10000 3.29 236 19:49 04.08.2022
2337 Rain 27 1009 76 10000 3.59 229 18:51 04.08.2022
2338 Rain 27 1009 76 10000 3.59 229 18:32 04.08.2022
2339 Clouds 30 1007 58 10000 3.49 235 14:45 04.08.2022
2340 Clouds 31 1006 59 10000 2.58 186 13:22 04.08.2022
2341 Clouds 32 1005 57 8747 2.06 213 11:37 04.08.2022
2342 Clouds 31 1008 57 10000 3.43 238 07:56 04.08.2022
2343 Clouds 28 1009 77 10000 2.87 227 07:27 04.08.2022
2344 Clouds 28 1009 80 10000 2.3 232 02:38 04.08.2022
2345 Clouds 27 1007 83 10000 2.5 244 23:49 03.08.2022
2346 Clouds 27 1007 83 10000 2.42 247 23:27 03.08.2022
2347 Clouds 27 1008 84 10000 2.42 239 21:26 03.08.2022
2348 Clouds 28 1008 85 10000 2.36 234 19:56 03.08.2022
2349 Clouds 27 1009 85 10000 2.26 221 18:40 03.08.2022
2350 Clouds 27 1008 85 10000 2.67 223 16:27 03.08.2022
2351 Clouds 27 1008 85 10000 2.67 223 15:47 03.08.2022
2352 Clouds 30 1006 85 10000 3.06 194 13:32 03.08.2022
2353 Clouds 32 1006 81 10000 3.92 167 09:55 03.08.2022
2354 Clouds 31 1009 85 10000 3.03 183 06:46 03.08.2022
2355 Clouds 29 1009 90 10000 4.12 158 04:22 03.08.2022
2356 Clouds 26 1008 91 10000 3.85 156 02:35 03.08.2022
2357 Clouds 26 1006 88 10000 3.19 166 23:54 02.08.2022
2358 Clouds 26 1006 84 10000 3.75 195 21:59 02.08.2022
2359 Clouds 26 1006 84 10000 3.75 195 21:41 02.08.2022
2360 Clouds 26 1007 80 10000 3.67 198 20:25 02.08.2022
2361 Rain 29 1008 69 10000 4.83 194 16:51 02.08.2022
2362 Clouds 28 1005 75 10000 4.76 178 13:54 02.08.2022
2363 Rain 29 1004 69 10000 5.77 167 10:34 02.08.2022
2364 Rain 29 1005 67 10000 5.82 172 08:36 02.08.2022
2365 Rain 29 1006 69 10000 6.22 173 07:51 02.08.2022
2366 Clouds 29 1007 74 8024 4.11 169 04:56 02.08.2022
2367 Clouds 26 1006 86 10000 1.86 165 02:30 02.08.2022
2368 Clouds 26 1004 88 10000 2.76 184 23:25 01.08.2022
2369 Clouds 25 1004 89 10000 2.28 173 21:42 01.08.2022
2370 Clouds 26 1006 88 10000 3.62 177 20:19 01.08.2022
2371 Rain 26 1006 86 10000 1.75 186 18:55 01.08.2022
2372 Rain 27 1007 84 10000 2.45 189 16:58 01.08.2022
2373 Clouds 28 1007 84 10000 2.45 189 16:39 01.08.2022
2374 Clouds 28 1006 84 10000 3.59 182 15:44 01.08.2022
2375 Clouds 28 1005 82 4745 4.54 181 14:45 01.08.2022
2376 Clouds 29 1004 78 10000 4.62 171 13:32 01.08.2022
2377 Rain 30 1003 61 10000 4.09 161 11:18 01.08.2022
2378 Rain 27 1004 65 10000 2.18 139 08:55 01.08.2022
2379 Rain 27 1006 80 10000 1.32 112 07:23 01.08.2022
2380 Clouds 28 1008 86 10000 0.7 47 04:32 01.08.2022
2381 Clouds 26 1006 83 10000 1.48 203 01:33 01.08.2022
2382 Rain 26 1004 87 10000 1.44 187 22:47 31.07.2022
2383 Clouds 26 1004 88 10000 1.68 186 22:29 31.07.2022
2384 Rain 25 1004 86 10000 1.43 141 20:39 31.07.2022
2385 Rain 25 1006 86 10000 2.81 51 18:40 31.07.2022
2386 Rain 25 1006 82 10000 2.18 347 16:55 31.07.2022
2387 Rain 27 1005 82 10000 4.03 291 14:37 31.07.2022
2388 Rain 30 1003 66 10000 4.95 181 12:58 31.07.2022
2389 Rain 33 1002 63 10000 4.51 174 11:38 31.07.2022
2390 Clouds 33 1003 51 10000 2.97 216 08:47 31.07.2022
2391 Clouds 31 1006 57 10000 2.47 238 05:38 31.07.2022
2392 Clouds 27 1004 86 10000 2.04 284 01:21 31.07.2022
2393 Rain 28 1003 85 10000 1.52 235 22:46 30.07.2022
2394 Clouds 29 1004 85 10000 1.84 200 21:50 30.07.2022
2395 Clouds 29 1004 85 10000 1.84 200 21:32 30.07.2022
2396 Clouds 29 1004 83 10000 2.4 181 20:33 30.07.2022
2397 Clouds 29 1005 84 10000 2.38 175 19:50 30.07.2022
2398 Clouds 30 1006 83 10000 2.48 182 17:53 30.07.2022
2399 Clouds 30 1006 82 10000 2.74 172 16:38 30.07.2022
2400 Clouds 30 1005 82 10000 3 168 15:30 30.07.2022
2401 Clouds 31 1003 72 10000 3.24 167 13:23 30.07.2022
2402 Clouds 32 1003 68 10000 3.82 165 12:22 30.07.2022
2403 Rain 31 1003 64 10000 3.42 175 10:45 30.07.2022
2404 Rain 32 1003 59 10000 2 167 10:19 30.07.2022
2405 Clouds 33 1004 55 10000 0.42 150 08:54 30.07.2022
2406 Clouds 34 1006 57 10000 1.86 227 06:55 30.07.2022
2407 Clouds 29 1007 81 10000 1.68 120 02:33 30.07.2022
2408 Clouds 28 1005 85 10000 1.5 211 23:57 29.07.2022
2409 Clouds 29 1005 85 10000 2.65 195 21:37 29.07.2022
2410 Clouds 29 1005 84 10000 3.05 189 20:50 29.07.2022
2411 Clouds 29 1006 77 10000 4.3 176 19:45 29.07.2022
2412 Clouds 29 1008 72 10000 4.35 177 16:59 29.07.2022
2413 Clouds 30 1006 69 10000 4.3 178 14:38 29.07.2022
2414 Clouds 31 1004 63 10000 5.43 181 12:42 29.07.2022
2415 Clouds 33 1005 54 10000 5.25 180 08:52 29.07.2022
2416 Clouds 33 1006 55 10000 5.01 183 08:23 29.07.2022
2417 Clouds 31 1008 61 10000 3.66 181 05:19 29.07.2022
2418 Clouds 28 1006 77 10000 2.24 182 23:59 28.07.2022
2419 Clouds 28 1006 76 10000 2.65 182 21:39 28.07.2022
2420 Clouds 28 1006 76 10000 2.62 185 20:52 28.07.2022
2421 Clouds 28 1007 75 10000 2.77 186 20:18 28.07.2022
2422 Clouds 28 1007 75 10000 2.77 186 19:40 28.07.2022
2423 Clouds 29 1008 73 10000 2.87 179 18:19 28.07.2022
2424 Clouds 29 1008 73 10000 2.87 179 17:36 28.07.2022
2425 Clouds 29 1008 71 10000 2.67 171 16:41 28.07.2022
2426 Clouds 30 1005 64 10000 3.25 169 13:57 28.07.2022
2427 Clouds 32 1004 60 10000 3.47 174 12:40 28.07.2022
2428 Rain 32 1006 49 10000 3.13 193 08:49 28.07.2022
2429 Rain 31 1008 56 10000 3.13 193 05:41 28.07.2022
2430 Rain 31 1008 62 10000 3.33 195 05:21 28.07.2022
2431 Clouds 26 1006 85 10000 2.7 188 23:41 27.07.2022
2432 Clouds 28 1006 83 10000 3.31 185 21:31 27.07.2022
2433 Clouds 28 1006 83 10000 3.31 185 21:31 27.07.2022
2434 Clouds 28 1007 78 10000 3.41 200 19:53 27.07.2022
2435 Clouds 28 1007 77 10000 3.32 191 19:20 27.07.2022
2436 Rain 29 1008 74 10000 3.29 188 16:31 27.07.2022
2437 Rain 29 1007 73 10000 3.3 178 15:51 27.07.2022
2438 Rain 31 1007 71 10000 3.3 175 14:41 27.07.2022
2439 Rain 31 1006 68 10000 3.48 172 13:34 27.07.2022
2440 Clouds 33 1006 55 10000 3 205 09:29 27.07.2022
2441 Clouds 33 1007 56 10000 3.51 204 07:47 27.07.2022
2442 Clouds 31 1008 67 10000 2.63 195 04:53 27.07.2022
2443 Clouds 28 1006 78 10000 2.24 191 23:25 26.07.2022
2444 Clouds 28 1006 78 10000 2.79 192 21:52 26.07.2022
2445 Clouds 29 1006 77 10000 3.01 194 20:49 26.07.2022
2446 Clouds 29 1007 75 10000 3.74 187 19:22 26.07.2022
2447 Clouds 30 1007 75 10000 3.74 187 18:40 26.07.2022
2448 Clouds 30 1008 74 10000 3.6 186 17:47 26.07.2022
2449 Clouds 30 1007 71 10000 3.34 182 15:43 26.07.2022
2450 Clouds 30 1006 69 10000 3.29 181 14:38 26.07.2022
2451 Clouds 32 1004 61 10000 3.57 179 12:32 26.07.2022
2452 Clouds 33 1005 51 10000 3.98 188 09:59 26.07.2022
2453 Rain 33 1007 51 10000 2.91 194 08:23 26.07.2022
2454 Clouds 28 1008 78 10000 1.35 240 01:52 26.07.2022
2455 Clouds 28 1008 78 10000 1.35 240 01:52 26.07.2022
2456 Clouds 27 1007 80 10000 2.2 205 00:19 26.07.2022
2457 Clouds 28 1007 79 10000 2.3 200 22:40 25.07.2022
2458 Clouds 28 1007 80 10000 2.39 197 21:43 25.07.2022
2459 Clouds 29 1008 80 10000 2.28 198 20:43 25.07.2022
2460 Clouds 28 1008 80 10000 2.37 197 20:23 25.07.2022
2461 Clouds 29 1008 80 10000 2.73 188 19:24 25.07.2022
2462 Clouds 30 1009 79 10000 2.67 189 17:37 25.07.2022
2463 Rain 30 1009 78 10000 2.67 185 16:44 25.07.2022
2464 Clouds 33 1005 65 10000 3.23 180 13:22 25.07.2022
2465 Rain 34 1005 58 10000 3.23 163 10:48 25.07.2022
2466 Clouds 33 1008 62 10000 2.07 152 07:32 25.07.2022
2467 Clouds 25 1007 88 10000 1.83 130 00:38 25.07.2022
2468 Clouds 26 1007 87 10000 1.92 139 23:45 24.07.2022
2469 Clouds 26 1006 87 10000 2.2 157 22:43 24.07.2022
2470 Rain 25 1006 86 10000 2.44 157 21:33 24.07.2022
2471 Clouds 26 1007 86 5793 2.02 141 20:58 24.07.2022
2472 Rain 26 1007 86 5793 2.02 141 20:37 24.07.2022
2473 Rain 26 1008 79 10000 2.1 184 19:18 24.07.2022
2474 Rain 27 1008 78 10000 2.27 182 17:56 24.07.2022
2475 Rain 27 1007 75 10000 2.85 183 15:54 24.07.2022
2476 Rain 29 1006 73 10000 2.51 189 14:41 24.07.2022
2477 Clouds 31 1006 70 10000 2.74 188 13:47 24.07.2022
2478 Clouds 31 1004 60 10000 3.83 185 12:27 24.07.2022
2479 Rain 31 1004 60 10000 3.83 185 11:30 24.07.2022
2480 Clouds 31 1005 56 10000 4.58 178 09:44 24.07.2022
2481 Clouds 32 1006 60 10000 3.47 177 07:53 24.07.2022
2482 Clouds 32 1008 69 10000 2.13 163 07:26 24.07.2022
2483 Clouds 26 1008 86 10000 2.62 125 02:52 24.07.2022
2484 Clouds 26 1007 88 10000 1.87 150 22:45 23.07.2022
2485 Clouds 27 1007 86 10000 2.6 155 20:47 23.07.2022
2486 Clouds 27 1009 81 10000 2.03 159 18:59 23.07.2022
2487 Clouds 27 1009 78 10000 2.22 169 17:58 23.07.2022
2488 Clouds 28 1009 77 10000 2.44 167 17:25 23.07.2022
2489 Clouds 28 1008 76 10000 2.43 166 16:21 23.07.2022
2490 Rain 28 1008 74 10000 2.74 169 15:21 23.07.2022
2491 Rain 29 1008 74 10000 2.74 169 14:50 23.07.2022
2492 Clouds 29 1007 74 10000 3.38 178 13:58 23.07.2022
2493 Rain 30 1006 64 10000 4.64 173 11:48 23.07.2022
2494 Rain 30 1006 60 10000 4.6 171 10:36 23.07.2022
2495 Rain 30 1007 60 10000 4.48 176 09:28 23.07.2022
2496 Clouds 30 1009 64 10000 3.89 185 06:40 23.07.2022
2497 Clouds 28 1010 78 6103 1.64 191 03:37 23.07.2022
2498 Clouds 26 1008 86 10000 1.64 182 00:27 23.07.2022
2499 Rain 25 1009 83 10000 2.51 190 21:28 22.07.2022
2500 Rain 25 1009 82 10000 2.33 186 20:29 22.07.2022
2501 Rain 26 1010 82 10000 2.37 184 18:41 22.07.2022
2502 Rain 27 1010 82 10000 2.2 194 17:38 22.07.2022
2503 Clouds 28 1009 81 10000 3.19 195 15:35 22.07.2022
2504 Clouds 30 1007 74 10000 4.36 187 12:41 22.07.2022
2505 Clouds 32 1008 72 10000 3.24 177 09:52 22.07.2022
2506 Clouds 31 1008 71 10000 3.9 194 09:20 22.07.2022
2507 Clouds 30 1009 79 10000 2.51 190 07:30 22.07.2022
2508 Clouds 28 1010 86 10000 2.48 200 04:19 22.07.2022
2509 Clouds 26 1008 87 10000 4.76 202 23:27 21.07.2022
2510 Clouds 27 1008 86 10000 4.41 203 21:37 21.07.2022
2511 Rain 27 1009 93 10000 4.43 203 19:35 21.07.2022
2512 Rain 28 1010 88 10000 5.39 202 18:29 21.07.2022
2513 Rain 28 1009 82 10000 5.17 198 17:20 21.07.2022
2514 Clouds 28 1009 80 10000 4.42 192 15:39 21.07.2022
2515 Clouds 28 1008 81 10000 3.17 181 14:44 21.07.2022
2516 Clouds 28 1006 85 10000 3.41 172 13:22 21.07.2022
2517 Rain 29 1006 86 10000 3.77 181 11:42 21.07.2022
2518 Clouds 27 1006 84 10000 4.26 206 09:44 21.07.2022
2519 Clouds 26 1007 86 10000 4.59 216 08:53 21.07.2022
2520 Rain 26 1007 88 10000 4.04 210 07:50 21.07.2022
2521 Rain 26 1008 89 10000 2.69 233 06:25 21.07.2022
2522 Rain 25 1006 92 10000 2.83 218 01:54 21.07.2022
2523 Rain 25 1004 91 10000 2.63 220 22:24 20.07.2022
2524 Rain 25 1004 91 10000 2.63 220 21:42 20.07.2022
2525 Rain 25 1005 89 6795 2.04 231 20:39 20.07.2022
2526 Rain 25 1005 91 5893 2.07 154 19:43 20.07.2022
2527 Rain 25 1006 91 8116 2.49 172 18:52 20.07.2022
2528 Rain 25 1007 89 10000 3.17 162 18:29 20.07.2022
2529 Rain 26 1006 86 4724 3.3 169 16:49 20.07.2022
2530 Rain 27 1005 83 5959 3.81 187 15:32 20.07.2022
2531 Rain 28 1004 82 4474 3.47 184 14:32 20.07.2022
2532 Clouds 31 1002 61 5619 3.96 198 12:34 20.07.2022
2533 Rain 33 1003 59 10000 3.21 194 10:24 20.07.2022
2534 Clouds 31 1006 59 10000 3.89 268 04:50 20.07.2022
2535 Clouds 27 1004 83 10000 2.27 246 00:54 20.07.2022
2536 Clouds 27 1004 83 10000 2.27 246 00:36 20.07.2022
2537 Rain 27 1004 82 10000 2.21 234 22:34 19.07.2022
2538 Rain 27 1004 82 10000 2.34 241 21:53 19.07.2022
2539 Rain 27 1004 85 10000 2.54 255 20:49 19.07.2022
2540 Rain 27 1005 88 7169 1.77 197 19:22 19.07.2022
2541 Rain 28 1005 88 7169 1.77 197 18:35 19.07.2022
2542 Rain 29 1005 84 10000 2.26 223 17:51 19.07.2022
2543 Clouds 30 1004 60 8153 5.69 209 15:21 19.07.2022
2544 Clouds 33 1001 64 10000 5.64 188 12:27 19.07.2022
2545 Clouds 34 1001 64 10000 5.64 188 11:32 19.07.2022
2546 Rain 35 1002 43 10000 3.14 264 09:51 19.07.2022
2547 Clouds 35 1002 43 10000 4.11 287 08:42 19.07.2022
2548 Clouds 34 1005 46 10000 4.86 284 07:19 19.07.2022
2549 Clouds 33 1006 49 10000 4.8 279 05:50 19.07.2022
2550 Clouds 32 1006 53 10000 4.61 274 05:18 19.07.2022
2551 Clouds 29 1006 67 10000 3.62 271 02:33 19.07.2022
2552 Clouds 29 1005 76 10000 2.54 279 23:50 18.07.2022
2553 Clouds 29 1005 75 10000 2.55 281 23:19 18.07.2022
2554 Clouds 29 1005 72 10000 3.26 275 22:23 18.07.2022
2555 Clouds 30 1005 70 10000 3.09 267 20:57 18.07.2022
2556 Clouds 30 1005 72 10000 2.74 250 19:52 18.07.2022
2557 Rain 31 1006 70 10000 3.26 199 17:53 18.07.2022
2558 Rain 31 1005 66 10000 3.75 188 16:28 18.07.2022
2559 Rain 31 1004 65 10000 4.1 185 15:19 18.07.2022
2560 Clouds 33 1003 67 10000 4.64 186 13:31 18.07.2022
2561 Clouds 35 1002 52 10000 4.77 189 11:31 18.07.2022
2562 Clouds 35 1003 44 10000 3.21 240 09:53 18.07.2022
2563 Clouds 34 1005 46 10000 3.07 257 07:49 18.07.2022
2564 Clouds 30 1008 68 10000 2.69 251 02:51 18.07.2022
2565 Clouds 29 1007 68 10000 1.97 257 22:55 17.07.2022
2566 Clouds 30 1007 68 10000 1.29 225 22:28 17.07.2022
2567 Clouds 30 1007 68 10000 1.54 206 21:26 17.07.2022
2568 Clouds 30 1007 68 10000 1.54 206 20:44 17.07.2022
2569 Clouds 30 1008 66 10000 2.24 208 19:49 17.07.2022
2570 Clouds 30 1008 66 10000 2.51 204 19:20 17.07.2022
2571 Rain 30 1009 65 10000 2.68 202 17:42 17.07.2022
2572 Rain 30 1009 63 10000 2.96 188 17:22 17.07.2022
2573 Clouds 30 1009 63 10000 3.55 181 16:28 17.07.2022
2574 Clouds 30 1008 61 10000 3.55 181 15:37 17.07.2022
2575 Clouds 31 1007 62 10000 3.99 188 13:51 17.07.2022
2576 Clouds 32 1006 62 10000 4.71 179 12:40 17.07.2022
2577 Clouds 34 1005 51 10000 3.64 199 10:18 17.07.2022
2578 Clouds 32 1008 56 10000 3.79 209 06:58 17.07.2022
2579 Clouds 28 1008 74 10000 2.71 240 02:34 17.07.2022
2580 Clouds 27 1007 81 10000 2.04 256 23:23 16.07.2022
2581 Clouds 26 1007 81 10000 2.56 257 21:59 16.07.2022
2582 Clouds 26 1008 80 10000 2.91 251 20:28 16.07.2022
2583 Rain 27 1008 78 10000 3.38 247 18:43 16.07.2022
2584 Rain 27 1008 78 10000 2.58 214 17:25 16.07.2022
2585 Rain 29 1007 77 10000 2.42 189 15:50 16.07.2022
2586 Rain 31 1003 61 10000 4.62 175 12:26 16.07.2022
2587 Clouds 30 1004 56 10000 4.84 178 10:18 16.07.2022
2588 Clouds 32 1004 54 10000 4.62 184 09:25 16.07.2022
2589 Rain 33 1004 54 10000 4.62 184 08:40 16.07.2022
2590 Clouds 32 1006 56 10000 2.99 207 06:57 16.07.2022
2591 Clouds 29 1007 72 10000 1.22 229 03:32 16.07.2022
2592 Clouds 27 1005 86 10000 1.8 248 23:54 15.07.2022
2593 Clouds 28 1004 87 10000 1.59 238 22:46 15.07.2022
2594 Clouds 28 1004 87 10000 1.82 237 21:52 15.07.2022
2595 Clouds 28 1005 87 10000 1.81 223 20:35 15.07.2022
2596 Clouds 28 1006 82 10000 2.29 206 18:46 15.07.2022
2597 Clouds 29 1007 80 10000 2.23 196 17:51 15.07.2022
2598 Clouds 29 1006 77 10000 2.4 188 16:23 15.07.2022
2599 Clouds 30 1004 68 10000 2.28 217 13:48 15.07.2022
2600 Clouds 31 1003 63 10000 4.22 244 12:22 15.07.2022
2601 Rain 31 1003 61 10000 4.35 243 10:51 15.07.2022
2602 Clouds 32 1005 63 10000 4.66 235 07:47 15.07.2022
2603 Clouds 28 1004 77 10000 2.19 225 02:47 15.07.2022
2604 Clouds 27 1003 77 10000 2.18 219 00:39 15.07.2022
2605 Clouds 27 1002 76 10000 2.41 221 22:54 14.07.2022
2606 Clouds 27 1002 76 10000 2.52 228 21:57 14.07.2022
2607 Clouds 26 1004 79 10000 2.52 228 21:33 14.07.2022
2608 Clouds 27 1003 76 10000 2.98 235 20:57 14.07.2022
2609 Clouds 27 1003 76 10000 2.98 235 20:37 14.07.2022
2610 Clouds 27 1003 75 10000 3.5 238 20:18 14.07.2022
2611 Rain 25 1006 77 10000 3.44 228 16:42 14.07.2022
2612 Rain 26 1005 76 10000 3.42 231 16:18 14.07.2022
2613 Rain 28 1004 76 10000 3.63 233 14:44 14.07.2022
2614 Clouds 28 1003 72 10000 4.5 226 13:33 14.07.2022
2615 Clouds 32 1002 64 10000 6.4 237 12:19 14.07.2022
2616 Clouds 34 1002 65 10000 5.76 233 11:25 14.07.2022
2617 Clouds 33 1002 65 10000 5.76 233 10:39 14.07.2022
2618 Clouds 33 1004 61 10000 5.15 232 08:22 14.07.2022
2619 Clouds 28 1006 83 10000 2.21 210 03:36 14.07.2022
2620 Rain 26 1004 85 10000 2.75 211 00:55 14.07.2022
2621 Clouds 26 1003 85 10000 2.74 218 23:41 13.07.2022
2622 Clouds 25 1003 85 10000 2.4 238 22:27 13.07.2022
2623 Clouds 25 1003 85 10000 2.4 238 21:32 13.07.2022
2624 Clouds 26 1003 86 10000 2.66 237 20:38 13.07.2022
2625 Clouds 26 1006 88 10000 2.43 239 17:59 13.07.2022
2626 Clouds 26 1006 89 10000 2.16 244 17:20 13.07.2022
2627 Clouds 26 1005 89 10000 1.99 247 15:59 13.07.2022
2628 Clouds 26 1004 91 10000 1.45 246 13:50 13.07.2022
2629 Rain 25 1002 92 10000 0.95 204 11:24 13.07.2022
2630 Clouds 29 1002 92 10000 0.95 204 10:40 13.07.2022
2631 Clouds 28 1003 93 10000 1.17 300 09:28 13.07.2022
2632 Clouds 26 1004 93 8078 1.75 334 08:21 13.07.2022
2633 Rain 25 1005 89 10000 4.64 250 04:36 13.07.2022
2634 Rain 25 1003 84 10000 3.33 253 00:25 13.07.2022
2635 Rain 25 1003 84 10000 2.89 252 22:46 12.07.2022
2636 Rain 25 1003 84 10000 2.79 250 21:46 12.07.2022
2637 Clouds 25 1004 84 10000 3.35 255 20:53 12.07.2022
2638 Clouds 26 1004 82 10000 3.84 256 19:48 12.07.2022
2639 Clouds 26 1005 83 10000 3.83 258 18:35 12.07.2022
2640 Clouds 27 1005 83 10000 4.53 249 16:24 12.07.2022
2641 Rain 26 1004 86 10000 4.14 245 14:32 12.07.2022
2642 Rain 25 1004 89 10000 3.88 257 13:35 12.07.2022
2643 Rain 26 1003 93 10000 3.87 236 11:54 12.07.2022
2644 Clouds 32 1003 92 10000 4.38 250 10:26 12.07.2022
2645 Clouds 32 1004 90 9545 4.76 256 08:46 12.07.2022
2646 Clouds 31 1005 84 10000 4.28 281 07:48 12.07.2022
2647 Clouds 28 1006 70 10000 5.28 283 05:45 12.07.2022
2648 Clouds 29 1006 73 10000 5.04 276 04:46 12.07.2022
2649 Clouds 28 1004 88 10000 4.13 273 00:20 12.07.2022
2650 Clouds 27 1004 90 10000 3.67 261 22:42 11.07.2022
2651 Rain 27 1005 92 10000 3.84 243 20:56 11.07.2022
2652 Rain 27 1005 92 10000 3.84 243 20:32 11.07.2022
2653 Clouds 28 1007 92 10000 4.1 235 18:50 11.07.2022
2654 Clouds 28 1007 93 10000 3.84 234 18:28 11.07.2022
2655 Clouds 27 1007 94 10000 4 225 16:26 11.07.2022
2656 Clouds 29 1006 94 10000 4.72 233 15:23 11.07.2022
2657 Clouds 30 1005 92 10000 5.17 227 12:42 11.07.2022
2658 Clouds 28 1005 92 10000 4.52 226 11:23 11.07.2022
2659 Clouds 32 1005 92 10000 3.21 223 09:55 11.07.2022
2660 Clouds 31 1005 92 10000 2.64 237 09:25 11.07.2022
2661 Clouds 31 1005 92 10000 2.64 237 08:31 11.07.2022
2662 Rain 28 1006 86 10000 1.93 231 00:59 11.07.2022
2663 Clouds 28 1005 85 10000 2.39 241 23:54 10.07.2022
2664 Rain 27 1005 82 10000 2.69 261 22:45 10.07.2022
2665 Clouds 29 1006 81 10000 2.99 261 20:55 10.07.2022
2666 Clouds 29 1006 81 10000 2.99 261 20:34 10.07.2022
2667 Clouds 29 1007 80 10000 3.4 248 19:29 10.07.2022
2668 Clouds 29 1007 80 10000 3.1 251 18:23 10.07.2022
2669 Clouds 30 1007 80 10000 3.1 251 17:33 10.07.2022
2670 Clouds 30 1007 80 10000 3.75 248 16:21 10.07.2022
2671 Clouds 30 1006 81 10000 3.83 248 14:44 10.07.2022
2672 Clouds 32 1005 83 10000 2.99 242 13:29 10.07.2022
2673 Clouds 32 1005 83 10000 3.2 245 11:44 10.07.2022
2674 Clouds 32 1005 83 10000 3.14 241 09:45 10.07.2022
2675 Clouds 32 1005 83 10000 2.8 240 08:43 10.07.2022
2676 Clouds 29 1006 79 10000 2.4 259 07:19 10.07.2022
2677 Clouds 26 1005 84 10000 3.91 240 23:50 09.07.2022
2678 Rain 27 1005 85 10000 4.42 240 22:26 09.07.2022
2679 Rain 27 1005 85 10000 4.42 240 22:26 09.07.2022
2680 Rain 27 1005 85 10000 4.42 240 21:41 09.07.2022
2681 Rain 26 1005 87 10000 5.1 248 19:44 09.07.2022
2682 Rain 27 1006 86 7500 5.24 230 18:28 09.07.2022
2683 Clouds 27 1006 86 7500 5.24 230 17:32 09.07.2022
2684 Rain 27 1006 90 7619 4.82 217 16:34 09.07.2022
2685 Rain 27 1005 88 6425 5.15 209 15:39 09.07.2022
2686 Rain 27 1004 76 10000 3.68 213 14:24 09.07.2022
2687 Rain 27 1004 71 10000 2.8 200 13:48 09.07.2022
2688 Clouds 28 1004 65 10000 2.63 208 12:22 09.07.2022
2689 Rain 32 1004 68 10000 2.05 210 10:27 09.07.2022
2690 Clouds 30 1004 68 10000 2.05 210 09:57 09.07.2022
2691 Clouds 32 1006 69 10000 2 210 07:44 09.07.2022
2692 Clouds 29 1007 65 10000 1.7 230 04:45 09.07.2022
2693 Rain 26 1005 72 10000 2.01 302 23:43 08.07.2022
2694 Rain 27 1005 72 10000 2.52 286 22:34 08.07.2022
2695 Clouds 27 1005 70 10000 4.23 262 21:27 08.07.2022
2696 Rain 27 1005 70 10000 4.23 262 20:38 08.07.2022
2697 Rain 27 1006 73 10000 5.09 253 19:38 08.07.2022
2698 Rain 27 1007 75 10000 4.9 243 17:56 08.07.2022
2699 Rain 27 1007 76 10000 5.39 233 16:33 08.07.2022
2700 Rain 28 1006 76 10000 6.33 212 14:50 08.07.2022
2701 Rain 31 1004 76 10000 6.7 205 12:42 08.07.2022
2702 Clouds 33 1003 49 10000 4.54 216 10:52 08.07.2022
2703 Clouds 33 1003 45 10000 4.28 223 09:58 08.07.2022
2704 Clouds 33 1005 44 10000 3.96 229 07:55 08.07.2022
2705 Clouds 32 1007 51 10000 3.61 238 06:23 08.07.2022
2706 Rain 28 1006 73 10000 2.49 234 00:41 08.07.2022
2707 Rain 28 1006 72 10000 2.7 234 22:52 07.07.2022
2708 Clouds 28 1006 71 10000 2.72 246 21:48 07.07.2022
2709 Clouds 28 1006 69 10000 2.91 283 19:35 07.07.2022
2710 Clouds 28 1007 68 10000 2.96 262 17:50 07.07.2022
2711 Clouds 29 1006 67 10000 3.61 247 16:23 07.07.2022
2712 Clouds 30 1004 62 10000 3.48 194 14:21 07.07.2022
2713 Clouds 31 1004 58 10000 3.46 201 12:43 07.07.2022
2714 Clouds 31 1004 55 10000 3.94 205 12:23 07.07.2022
2715 Rain 32 1004 55 10000 3.94 205 11:33 07.07.2022
2716 Rain 32 1004 54 10000 3.51 207 10:45 07.07.2022
2717 Rain 33 1004 52 10000 3.36 203 10:27 07.07.2022
2718 Rain 32 1005 51 10000 3.65 194 09:22 07.07.2022
2719 Clouds 32 1007 52 10000 3.13 239 05:57 07.07.2022
2720 Rain 28 1006 73 10000 2.49 265 00:28 07.07.2022
2721 Clouds 29 1006 73 10000 2.49 265 23:36 06.07.2022
2722 Clouds 29 1006 74 10000 2.32 262 23:18 06.07.2022
2723 Clouds 28 1006 74 10000 2.32 262 22:47 06.07.2022
2724 Clouds 28 1006 74 10000 2.32 262 22:47 06.07.2022
2725 Clouds 29 1006 78 10000 2.46 251 22:28 06.07.2022
2726 Clouds 29 1007 78 10000 2.1 206 20:19 06.07.2022
2727 Clouds 29 1008 74 10000 1.79 237 18:48 06.07.2022
2728 Rain 29 1008 76 10000 2.5 194 16:58 06.07.2022
2729 Rain 28 1007 72 10000 2.93 199 15:44 06.07.2022
2730 Clouds 33 1005 67 10000 4.14 180 12:44 06.07.2022
2731 Clouds 33 1004 62 10000 3.76 174 11:50 06.07.2022
2732 Clouds 33 1004 57 10000 3.58 181 10:33 06.07.2022
2733 Clouds 33 1005 51 10000 2.87 213 08:43 06.07.2022
2734 Clouds 33 1006 50 10000 3.24 229 07:41 06.07.2022
2735 Clouds 32 1007 53 10000 2.88 240 06:40 06.07.2022
2736 Clouds 27 1006 83 10000 2.25 264 22:49 05.07.2022
2737 Clouds 28 1005 82 10000 2.51 268 22:28 05.07.2022
2738 Clouds 28 1006 82 10000 2.25 268 20:42 05.07.2022
2739 Clouds 28 1006 82 10000 2.16 255 19:44 05.07.2022
2740 Rain 28 1006 82 10000 2.24 223 19:26 05.07.2022
2741 Rain 29 1007 82 10000 2.2 201 17:48 05.07.2022
2742 Clouds 29 1007 80 10000 2.59 186 16:57 05.07.2022
2743 Clouds 29 1006 80 10000 2.58 186 15:38 05.07.2022
2744 Clouds 29 1005 82 10000 2.51 185 14:33 05.07.2022
2745 Clouds 31 1004 75 10000 4.04 213 12:48 05.07.2022
2746 Clouds 32 1004 69 10000 4.89 229 11:52 05.07.2022
2747 Clouds 33 1003 67 10000 5.08 234 10:42 05.07.2022
2748 Clouds 32 1004 66 9674 5.08 222 09:28 05.07.2022
2749 Clouds 32 1005 65 10000 4.54 214 08:18 05.07.2022
2750 Clouds 32 1006 70 10000 3.32 206 05:45 05.07.2022
2751 Clouds 30 1006 77 10000 2.69 221 04:25 05.07.2022
2752 Clouds 28 1005 78 10000 2.49 231 00:37 05.07.2022
2753 Clouds 28 1004 79 10000 2.79 236 23:34 04.07.2022
2754 Clouds 28 1004 80 10000 2.45 243 22:47 04.07.2022
2755 Clouds 28 1004 80 10000 2.54 236 21:46 04.07.2022
2756 Clouds 28 1004 80 10000 2.4 224 20:53 04.07.2022
2757 Clouds 28 1004 80 10000 2.4 224 20:34 04.07.2022
2758 Clouds 28 1004 78 10000 2.35 228 19:55 04.07.2022
2759 Clouds 29 1004 78 10000 2.35 228 19:35 04.07.2022
2760 Clouds 30 1005 77 10000 3.73 205 17:58 04.07.2022
2761 Clouds 29 1005 75 10000 4.95 186 15:58 04.07.2022
2762 Clouds 28 1005 75 10000 4.95 186 15:33 04.07.2022
2763 Clouds 31 1003 65 10000 4.43 182 13:29 04.07.2022
2764 Clouds 31 1003 62 10000 4.18 187 12:21 04.07.2022
2765 Clouds 32 1003 60 10000 3.76 184 10:34 04.07.2022
2766 Clouds 32 1003 60 10000 3.87 177 09:52 04.07.2022
2767 Clouds 33 1005 75 10000 2.95 201 07:37 04.07.2022
2768 Clouds 30 1007 66 10000 2.88 237 04:48 04.07.2022
2769 Clouds 28 1005 72 10000 3.06 233 00:36 04.07.2022
2770 Clouds 28 1004 71 10000 3.73 244 22:59 03.07.2022
2771 Clouds 28 1004 69 10000 4.38 250 20:58 03.07.2022
2772 Clouds 29 1004 69 10000 4.39 251 20:31 03.07.2022
2773 Clouds 29 1006 68 10000 3.84 239 19:27 03.07.2022
2774 Clouds 29 1006 68 10000 3.84 239 18:43 03.07.2022
2775 Clouds 29 1007 68 10000 3.61 233 17:43 03.07.2022
2776 Clouds 30 1005 67 10000 4.06 224 15:51 03.07.2022
2777 Clouds 30 1005 66 10000 4.66 226 14:59 03.07.2022
2778 Rain 30 1004 64 10000 4.04 234 14:18 03.07.2022
2779 Rain 30 1004 64 10000 4.98 225 13:48 03.07.2022
2780 Rain 31 1003 62 10000 3.88 233 12:33 03.07.2022
2781 Clouds 31 1003 58 10000 4.62 227 11:28 03.07.2022
2782 Clouds 31 1003 58 10000 4.62 227 10:38 03.07.2022
2783 Clouds 32 1003 57 10000 4.01 231 09:31 03.07.2022
2784 Clouds 32 1005 65 10000 4.28 240 07:35 03.07.2022
2785 Clouds 28 1006 67 10000 4.13 243 02:49 03.07.2022
2786 Clouds 27 1004 73 10000 2.6 225 00:20 03.07.2022
2787 Clouds 27 1004 71 10000 2.95 223 22:33 02.07.2022
2788 Clouds 27 1004 70 10000 3.7 231 20:50 02.07.2022
2789 Rain 27 1004 69 10000 3.83 225 19:52 02.07.2022
2790 Rain 27 1005 68 10000 4.43 226 19:20 02.07.2022
2791 Rain 27 1006 66 10000 4.78 229 17:41 02.07.2022
2792 Rain 28 1005 63 10000 4.44 237 16:49 02.07.2022
2793 Clouds 30 1004 62 10000 3.1 232 14:31 02.07.2022
2794 Clouds 32 1001 52 10000 4.3 224 12:21 02.07.2022
2795 Clouds 32 1001 48 10000 5.4 239 11:26 02.07.2022
2796 Clouds 32 1001 48 10000 5.4 239 10:37 02.07.2022
2797 Rain 33 1002 49 10000 3.57 247 08:55 02.07.2022
2798 Rain 32 1003 50 10000 4.33 239 08:20 02.07.2022
2799 Clouds 32 1003 50 10000 4.97 248 06:59 02.07.2022
2800 Clouds 27 1003 76 10000 3.09 237 01:44 02.07.2022
2801 Clouds 28 1002 78 10000 2.91 240 23:37 01.07.2022
2802 Clouds 27 1002 78 10000 2.98 237 22:40 01.07.2022
2803 Clouds 27 1002 78 10000 3.34 241 21:40 01.07.2022
2804 Clouds 27 1003 78 10000 3.31 237 20:59 01.07.2022
2805 Clouds 27 1003 78 10000 3.31 237 20:38 01.07.2022
2806 Rain 28 1003 79 10000 3.69 234 19:42 01.07.2022
2807 Rain 27 1005 77 10000 2.82 242 17:53 01.07.2022
2808 Rain 27 1004 75 10000 1.44 241 15:50 01.07.2022
2809 Rain 30 1003 73 10000 1.54 214 13:54 01.07.2022
2810 Clouds 33 1001 59 10000 2.84 229 11:50 01.07.2022
2811 Clouds 33 1001 62 10000 5.09 214 10:20 01.07.2022
2812 Clouds 33 1002 53 10000 4.58 229 08:50 01.07.2022
2813 Clouds 29 1004 72 10000 3.15 248 03:18 01.07.2022
2814 Rain 28 1003 77 10000 2.47 242 00:26 01.07.2022
2815 Rain 28 1003 77 10000 2.85 256 22:56 30.06.2022
2816 Rain 28 1003 77 10000 2.85 256 22:33 30.06.2022
2817 Clouds 28 1003 76 10000 3.4 252 21:59 30.06.2022
2818 Clouds 28 1003 76 10000 3.4 252 21:41 30.06.2022
2819 Clouds 28 1004 78 10000 2.86 226 20:29 30.06.2022
2820 Clouds 28 1004 78 10000 2.86 226 19:54 30.06.2022
2821 Clouds 29 1005 75 10000 2.92 234 19:19 30.06.2022
2822 Clouds 28 1005 75 10000 2.92 234 18:42 30.06.2022
2823 Rain 27 1005 76 10000 1.84 230 17:38 30.06.2022
2824 Rain 28 1005 78 10000 2.72 234 16:48 30.06.2022
2825 Clouds 28 1004 86 10000 6.44 202 15:27 30.06.2022
2826 Rain 31 1003 88 5447 6.69 193 13:30 30.06.2022
2827 Clouds 31 1001 81 3182 6.21 218 12:35 30.06.2022
2828 Clouds 33 1000 56 10000 4.36 203 11:28 30.06.2022
2829 Clouds 34 1000 48 10000 4.2 217 09:53 30.06.2022
2830 Clouds 34 1000 48 10000 4.2 217 09:32 30.06.2022
2831 Clouds 34 1002 45 10000 4.05 252 07:51 30.06.2022
2832 Clouds 32 1004 49 10000 4.06 256 05:57 30.06.2022
2833 Clouds 27 1003 72 10000 2.33 248 00:32 30.06.2022
2834 Rain 28 1003 71 10000 2.97 257 23:21 29.06.2022
2835 Clouds 28 1003 71 10000 2.97 257 22:39 29.06.2022
2836 Clouds 28 1003 70 10000 3.13 253 21:34 29.06.2022
2837 Clouds 28 1003 73 10000 2.93 253 20:33 29.06.2022
2838 Clouds 29 1003 70 10000 3.4 245 19:37 29.06.2022
2839 Clouds 28 1005 71 10000 2.75 202 17:43 29.06.2022
2840 Clouds 28 1004 70 10000 3.39 195 16:37 29.06.2022
2841 Clouds 28 1003 63 10000 4.81 195 14:56 29.06.2022
2842 Rain 33 1001 60 10000 5.27 187 12:40 29.06.2022
2843 Clouds 34 1001 45 10000 4.06 192 10:56 29.06.2022
2844 Clouds 34 1001 43 10000 3.5 212 09:32 29.06.2022
2845 Clouds 33 1003 43 10000 3.88 243 07:39 29.06.2022
2846 Clouds 31 1006 53 10000 2.87 243 04:54 29.06.2022
2847 Clouds 26 1004 71 10000 2.75 255 00:58 29.06.2022
2848 Clouds 27 1004 71 10000 2.75 255 00:36 29.06.2022
2849 Clouds 26 1004 72 10000 2.37 239 22:54 28.06.2022
2850 Clouds 27 1004 72 10000 2.37 239 22:30 28.06.2022
2851 Clouds 26 1004 75 10000 2.59 232 21:54 28.06.2022
2852 Clouds 27 1004 75 10000 2.59 232 21:32 28.06.2022
2853 Clouds 27 1004 75 10000 2.42 226 20:35 28.06.2022
2854 Clouds 29 1004 76 10000 3.19 200 19:34 28.06.2022
2855 Clouds 28 1005 74 10000 3.38 195 18:46 28.06.2022
2856 Clouds 29 1006 71 10000 3.39 190 17:40 28.06.2022
2857 Clouds 29 1005 66 10000 3.65 189 15:57 28.06.2022
2858 Clouds 28 1005 66 10000 3.65 189 15:36 28.06.2022
2859 Rain 28 1004 60 10000 4.26 190 14:20 28.06.2022
2860 Rain 29 1004 66 10000 3.55 206 13:51 28.06.2022
2861 Rain 31 1004 59 10000 4.66 180 12:55 28.06.2022
2862 Clouds 34 1004 49 10000 3.37 189 11:18 28.06.2022
2863 Clouds 34 1005 49 10000 3.81 209 09:29 28.06.2022
2864 Clouds 33 1005 49 10000 3.81 209 08:43 28.06.2022
2865 Clouds 33 1006 48 10000 3.22 214 07:42 28.06.2022
2866 Clouds 32 1008 55 10000 2.83 233 06:20 28.06.2022
2867 Clouds 27 1007 84 10000 2.36 220 00:56 28.06.2022
2868 Clouds 27 1007 81 10000 2.49 212 23:37 27.06.2022
2869 Clouds 26 1006 80 10000 3.56 203 22:52 27.06.2022
2870 Clouds 26 1006 78 10000 4.04 195 21:37 27.06.2022
2871 Clouds 27 1006 77 10000 3.83 182 20:52 27.06.2022
2872 Clouds 27 1006 76 10000 3.99 177 19:31 27.06.2022
2873 Clouds 27 1008 75 10000 3.75 166 18:24 27.06.2022
2874 Clouds 28 1007 71 10000 3.93 178 16:19 27.06.2022
2875 Clouds 29 1006 69 10000 4.29 181 14:45 27.06.2022
2876 Clouds 30 1006 67 10000 4.72 188 13:35 27.06.2022
2877 Rain 30 1006 63 10000 5.22 184 12:52 27.06.2022
2878 Rain 31 1006 52 10000 4.68 183 10:23 27.06.2022
2879 Clouds 30 1007 52 10000 4.6 186 08:48 27.06.2022
2880 Clouds 30 1007 51 10000 4 187 08:19 27.06.2022
2881 Clouds 31 1008 54 10000 3.14 198 06:38 27.06.2022
2882 Clouds 27 1009 76 10000 2.11 201 02:28 27.06.2022
2883 Rain 27 1008 79 10000 2.18 210 23:55 26.06.2022
2884 Clouds 27 1007 78 10000 3.44 180 21:58 26.06.2022
2885 Clouds 27 1007 77 10000 3.59 185 20:44 26.06.2022
2886 Clouds 28 1008 77 10000 4.45 181 19:27 26.06.2022
2887 Clouds 28 1009 76 10000 4.37 176 18:28 26.06.2022
2888 Clouds 28 1008 75 10000 4.4 178 16:21 26.06.2022
2889 Clouds 29 1008 74 10000 4.44 183 14:34 26.06.2022
2890 Clouds 30 1007 71 10000 5.1 179 13:30 26.06.2022
2891 Clouds 30 1007 71 10000 5.1 179 13:30 26.06.2022
2892 Rain 30 1006 67 10000 5.68 177 12:52 26.06.2022
2893 Rain 30 1006 63 10000 5.19 169 11:26 26.06.2022
2894 Rain 32 1006 64 10000 5.28 174 10:23 26.06.2022
2895 Clouds 33 1007 64 10000 4.55 180 08:46 26.06.2022
2896 Clouds 31 1007 68 10000 3.83 179 07:30 26.06.2022
2897 Clouds 27 1006 78 10000 3.24 175 00:49 26.06.2022
2898 Clouds 28 1006 76 10000 3.32 169 00:20 26.06.2022
2899 Clouds 27 1006 76 10000 3.32 169 23:33 25.06.2022
2900 Clouds 27 1005 75 10000 3.66 174 22:51 25.06.2022
2901 Clouds 27 1005 75 10000 3.97 173 22:26 25.06.2022
2902 Clouds 28 1006 75 10000 4.56 170 21:23 25.06.2022
2903 Clouds 28 1006 75 10000 4.56 170 20:59 25.06.2022
2904 Clouds 28 1006 75 10000 4.64 164 20:25 25.06.2022
2905 Clouds 28 1006 76 10000 4.49 169 18:45 25.06.2022
2906 Clouds 28 1007 73 10000 4.8 168 17:28 25.06.2022
2907 Clouds 29 1007 73 10000 4.8 168 16:31 25.06.2022
2908 Clouds 30 1005 68 10000 4.88 182 14:50 25.06.2022
2909 Clouds 31 1003 58 10000 4.69 170 12:56 25.06.2022
2910 Clouds 31 1003 58 10000 4.69 170 12:37 25.06.2022
2911 Clouds 32 1002 54 10000 4.06 171 10:30 25.06.2022
2912 Clouds 32 1004 54 10000 3.6 182 08:56 25.06.2022
2913 Clouds 32 1005 54 10000 2.69 169 08:28 25.06.2022
2914 Clouds 31 1006 57 10000 1.96 186 06:46 25.06.2022
2915 Clouds 26 1006 81 10000 1.26 154 01:53 25.06.2022
2916 Clouds 25 1005 80 10000 0.54 84 00:20 25.06.2022
2917 Clouds 25 1005 78 10000 1.52 19 22:29 24.06.2022
2918 Rain 26 1006 78 10000 1.58 5 21:29 24.06.2022
2919 Rain 25 1006 78 10000 1.5 341 20:24 24.06.2022
2920 Rain 25 1006 67 10000 2.04 314 19:43 24.06.2022
2921 Rain 26 1007 68 10000 2.26 308 19:18 24.06.2022
2922 Rain 26 1007 68 10000 2.26 308 18:46 24.06.2022
2923 Rain 25 1008 72 10000 3.59 300 18:28 24.06.2022
2924 Rain 26 1007 75 10000 3.57 287 16:48 24.06.2022
2925 Rain 28 1006 67 10000 2.8 218 14:58 24.06.2022
2926 Rain 29 1005 64 10000 2.84 188 14:24 24.06.2022
2927 Clouds 29 1005 62 10000 3.55 191 13:46 24.06.2022
2928 Clouds 33 1003 57 10000 4.79 181 11:42 24.06.2022
2929 Clouds 34 1003 50 10000 4.28 191 10:42 24.06.2022
2930 Clouds 34 1004 46 10000 2.42 194 09:42 24.06.2022
2931 Clouds 33 1005 46 10000 1.34 225 08:54 24.06.2022
2932 Clouds 33 1005 46 10000 1.34 225 08:32 24.06.2022
2933 Clouds 32 1007 52 10000 0.19 215 06:44 24.06.2022
2934 Rain 32 1008 55 10000 0.14 190 06:25 24.06.2022
2935 Clouds 30 1008 60 10000 0.25 118 04:50 24.06.2022
2936 Clouds 27 1006 81 10000 0.74 216 23:43 23.06.2022
2937 Clouds 27 1006 80 10000 1.41 192 22:43 23.06.2022
2938 Clouds 27 1007 77 10000 2.29 186 21:22 23.06.2022
2939 Clouds 27 1007 77 10000 2.29 186 20:37 23.06.2022
2940 Rain 28 1007 73 10000 3.46 164 19:53 23.06.2022
2941 Clouds 30 1008 68 10000 4.45 175 18:27 23.06.2022
2942 Clouds 30 1008 73 10000 4.55 177 17:34 23.06.2022
2943 Clouds 31 1007 62 10000 4.16 176 16:29 23.06.2022
2944 Clouds 31 1006 60 10000 3.75 162 15:26 23.06.2022
2945 Clouds 31 1006 60 10000 3.75 162 14:34 23.06.2022
2946 Clouds 34 1005 53 10000 4.27 170 11:41 23.06.2022
2947 Clouds 33 1004 48 10000 3.69 183 10:40 23.06.2022
2948 Rain 33 1006 44 10000 2.63 215 09:19 23.06.2022
2949 Clouds 30 1009 56 10000 1.99 278 04:43 23.06.2022
2950 Clouds 27 1008 72 10000 1.73 266 00:27 23.06.2022
2951 Clouds 28 1008 72 10000 1.73 266 23:49 22.06.2022
2952 Clouds 28 1008 72 10000 1.84 250 22:53 22.06.2022
2953 Clouds 28 1007 72 10000 1.85 215 21:28 22.06.2022
2954 Rain 28 1007 72 10000 1.85 215 20:48 22.06.2022
2955 Clouds 28 1008 67 10000 2.02 202 20:18 22.06.2022
2956 Rain 28 1009 69 10000 2.33 201 18:57 22.06.2022
2957 Clouds 28 1009 72 10000 2.38 196 17:31 22.06.2022
2958 Clouds 29 1009 73 10000 2.45 209 16:40 22.06.2022
2959 Clouds 29 1008 68 10000 4.86 219 15:28 22.06.2022
2960 Clouds 30 1008 68 10000 4.86 219 14:40 22.06.2022
2961 Clouds 31 1006 59 10000 3.93 222 13:45 22.06.2022
2962 Clouds 32 1006 53 10000 3.93 190 13:23 22.06.2022
2963 Clouds 34 1006 48 10000 4.73 201 11:50 22.06.2022
2964 Clouds 35 1005 46 10000 4.11 189 10:58 22.06.2022
2965 Clouds 35 1006 48 10000 3.73 212 10:26 22.06.2022
2966 Clouds 33 1007 51 10000 3.52 225 08:48 22.06.2022
2967 Rain 32 1009 58 10000 2.65 244 06:21 22.06.2022
2968 Clouds 26 1007 74 10000 1.72 255 01:52 22.06.2022
2969 Clouds 26 1006 77 10000 1.79 246 00:56 22.06.2022
2970 Clouds 27 1006 75 10000 1.87 212 22:40 21.06.2022
2971 Clouds 27 1006 75 10000 1.66 174 20:40 21.06.2022
2972 Clouds 27 1006 71 10000 1.1 212 19:18 21.06.2022
2973 Clouds 28 1007 72 10000 1.99 246 17:44 21.06.2022
2974 Rain 27 1006 74 10000 2.88 246 16:34 21.06.2022
2975 Clouds 34 1002 48 10000 4.74 200 11:56 21.06.2022
2976 Clouds 34 1002 44 10000 4.92 188 10:27 21.06.2022
2977 Clouds 34 1003 43 10000 4.22 191 08:51 21.06.2022
2978 Clouds 34 1004 42 10000 2.4 214 07:35 21.06.2022
2979 Clouds 31 1006 52 10000 1.76 237 04:40 21.06.2022
2980 Clouds 27 1004 73 10000 1.98 254 23:27 20.06.2022
2981 Clouds 26 1004 73 10000 1.89 245 21:59 20.06.2022
2982 Clouds 26 1004 73 10000 1.89 245 21:32 20.06.2022
2983 Rain 26 1005 72 10000 2.1 222 20:25 20.06.2022
2984 Rain 28 1005 69 10000 1.77 218 18:56 20.06.2022
2985 Rain 28 1006 69 10000 1.47 257 18:24 20.06.2022
2986 Rain 28 1006 69 10000 1.47 257 17:41 20.06.2022
2987 Clouds 30 1005 66 10000 3.4 247 16:24 20.06.2022
2988 Clouds 32 1004 60 10000 5.62 215 14:36 20.06.2022
2989 Clouds 35 1001 47 10000 5.54 176 11:47 20.06.2022
2990 Clouds 36 1002 39 10000 3.79 224 09:55 20.06.2022
2991 Clouds 35 1003 38 10000 3.72 249 08:45 20.06.2022
2992 Clouds 34 1004 38 10000 3.76 259 07:36 20.06.2022
2993 Clouds 31 1006 48 10000 3.79 281 04:30 20.06.2022
2994 Clouds 27 1006 71 10000 2.41 276 01:32 20.06.2022
2995 Clouds 27 1005 72 10000 1.88 263 23:48 19.06.2022
2996 Clouds 27 1005 69 10000 1.78 234 22:19 19.06.2022
2997 Clouds 27 1005 69 10000 1.78 234 21:42 19.06.2022
2998 Clouds 28 1005 67 10000 2.26 224 20:49 19.06.2022
2999 Clouds 29 1006 59 10000 2.71 274 19:49 19.06.2022
3000 Clouds 29 1007 58 10000 3.19 278 19:24 19.06.2022
3001 Clouds 30 1007 58 10000 3.19 278 18:32 19.06.2022
3002 Rain 29 1007 57 10000 4.19 280 17:42 19.06.2022
3003 Rain 28 1007 56 10000 4.1 273 16:47 19.06.2022
3004 Rain 28 1006 55 10000 4.18 258 16:23 19.06.2022
3005 Rain 29 1006 54 10000 4.84 235 15:29 19.06.2022
3006 Rain 30 1006 60 10000 6.35 238 14:41 19.06.2022
3007 Clouds 33 1005 56 10000 6.06 231 13:52 19.06.2022
3008 Clouds 36 1003 39 10000 3.21 219 12:19 19.06.2022
3009 Clouds 36 1004 38 10000 3.32 247 10:52 19.06.2022
3010 Clouds 35 1006 40 10000 3.24 261 08:55 19.06.2022
3011 Clouds 35 1006 40 10000 3.24 261 08:31 19.06.2022
3012 Clouds 33 1007 43 10000 2.86 273 06:54 19.06.2022
3013 Clouds 30 1009 59 10000 2.1 250 03:38 19.06.2022
3014 Clouds 29 1007 74 10000 1.68 276 00:28 19.06.2022
3015 Clouds 29 1007 74 10000 1.68 276 23:59 18.06.2022
3016 Clouds 29 1007 74 10000 1.68 276 23:34 18.06.2022
3017 Clouds 29 1007 75 10000 2.36 249 22:23 18.06.2022
3018 Clouds 30 1007 74 10000 2.77 231 20:51 18.06.2022
3019 Clouds 30 1008 73 10000 3.11 221 20:18 18.06.2022
3020 Clouds 31 1008 73 10000 3.39 207 18:57 18.06.2022
3021 Clouds 31 1008 73 10000 3.39 207 18:38 18.06.2022
3022 Clouds 31 1008 73 10000 3.39 207 18:38 18.06.2022
3023 Clouds 31 1008 66 10000 3.98 200 17:29 18.06.2022
3024 Clouds 31 1008 64 10000 4.38 189 15:57 18.06.2022
3025 Clouds 32 1006 60 10000 4.44 192 14:58 18.06.2022
3026 Clouds 32 1006 60 10000 4.44 192 14:37 18.06.2022
3027 Clouds 35 1005 45 10000 2.35 186 12:31 18.06.2022
3028 Clouds 35 1005 40 10000 2.39 228 11:25 18.06.2022
3029 Clouds 35 1005 41 10000 2.75 222 09:46 18.06.2022
3030 Clouds 35 1006 42 10000 3.09 222 08:59 18.06.2022
3031 Clouds 33 1007 46 10000 3.3 214 07:34 18.06.2022
3032 Clouds 33 1007 46 10000 3.3 214 07:34 18.06.2022
3033 Clouds 32 1009 53 10000 3.08 218 05:58 18.06.2022
3034 Clouds 27 1009 74 10000 2.59 212 02:51 18.06.2022
3035 Rain 26 1008 81 10000 2.13 220 01:21 18.06.2022
3036 Rain 27 1008 81 10000 2.13 220 00:32 18.06.2022
3037 Rain 27 1007 81 10000 2.28 213 23:40 17.06.2022
3038 Rain 28 1007 80 10000 2.41 208 22:33 17.06.2022
3039 Clouds 27 1008 75 10000 2.53 190 20:29 17.06.2022
3040 Clouds 27 1009 72 10000 1.21 186 19:24 17.06.2022
3041 Rain 30 1009 70 10000 1.58 200 18:19 17.06.2022
3042 Clouds 29 1009 71 10000 2.89 244 16:51 17.06.2022
3043 Rain 29 1009 75 10000 4.46 257 16:25 17.06.2022
3044 Clouds 30 1009 75 10000 4.46 257 15:41 17.06.2022
3045 Clouds 30 1006 66 10000 5.79 187 14:24 17.06.2022
3046 Clouds 31 1006 66 10000 5.79 187 13:59 17.06.2022
3047 Clouds 31 1006 67 10000 5.57 183 13:39 17.06.2022
3048 Clouds 33 1006 55 10000 4.63 170 12:29 17.06.2022
3049 Clouds 34 1006 55 10000 4.63 170 11:55 17.06.2022
3050 Clouds 35 1006 55 10000 4.63 170 11:34 17.06.2022
3051 Clouds 35 1006 49 10000 4.17 178 09:46 17.06.2022
3052 Clouds 35 1008 51 10000 3.91 188 08:26 17.06.2022
3053 Clouds 34 1009 53 10000 4.43 189 06:51 17.06.2022
3054 Clouds 34 1009 53 10000 4.43 189 06:51 17.06.2022
3055 Clouds 31 1010 61 10000 5.05 187 04:49 17.06.2022
3056 Clouds 29 1009 81 10000 3.02 182 01:57 17.06.2022
3057 Clouds 28 1008 82 10000 3 184 00:24 17.06.2022
3058 Clouds 29 1008 82 10000 3.18 183 22:42 16.06.2022
3059 Clouds 29 1008 78 10000 3.3 178 21:23 16.06.2022
3060 Clouds 29 1008 78 10000 3.3 178 20:56 16.06.2022
3061 Clouds 29 1008 78 10000 3.3 178 20:36 16.06.2022
3062 Clouds 29 1008 78 10000 3.3 178 20:36 16.06.2022
3063 Clouds 29 1009 76 10000 3.69 177 19:45 16.06.2022
3064 Clouds 29 1010 72 10000 3.94 171 18:26 16.06.2022
3065 Clouds 30 1010 72 10000 3.94 171 17:43 16.06.2022
3066 Clouds 29 1009 70 10000 4.17 176 16:39 16.06.2022
3067 Clouds 29 1008 66 10000 4.33 174 15:22 16.06.2022
3068 Clouds 30 1008 66 10000 4.33 174 14:37 16.06.2022
3069 Clouds 33 1006 58 10000 5.01 173 13:22 16.06.2022
3070 Clouds 33 1006 58 10000 5.01 173 12:36 16.06.2022
3071 Clouds 33 1006 53 10000 4.81 173 11:51 16.06.2022
3072 Clouds 33 1006 53 10000 4.81 173 11:51 16.06.2022
3073 Clouds 33 1006 51 10000 4.87 176 10:55 16.06.2022
3074 Clouds 33 1007 51 10000 5.11 182 10:20 16.06.2022
3075 Clouds 32 1007 51 10000 5.3 185 09:21 16.06.2022
3076 Clouds 32 1007 51 10000 5.3 185 08:30 16.06.2022
3077 Rain 31 1009 55 10000 5.11 184 07:26 16.06.2022
3078 Rain 30 1010 61 10000 4.69 183 04:50 16.06.2022
3079 Rain 28 1009 74 10000 3.72 179 02:20 16.06.2022
3080 Rain 27 1009 74 10000 3.72 179 01:35 16.06.2022
3081 Rain 27 1008 76 10000 3.37 177 00:39 16.06.2022
3082 Rain 27 1008 75 10000 3.65 179 23:33 15.06.2022
3083 Clouds 28 1008 75 10000 3.81 174 22:35 15.06.2022
3084 Clouds 28 1008 73 10000 3.93 174 21:21 15.06.2022
3085 Clouds 28 1008 73 10000 3.93 174 20:38 15.06.2022
3086 Clouds 28 1009 72 10000 4.36 180 20:19 15.06.2022
3087 Clouds 28 1009 71 10000 4.42 184 19:20 15.06.2022
3088 Clouds 29 1009 70 10000 4.48 175 17:56 15.06.2022
3089 Clouds 29 1009 69 10000 4.51 174 16:55 15.06.2022
3090 Clouds 29 1008 67 10000 4.71 180 15:36 15.06.2022
3091 Clouds 31 1007 65 10000 4.82 172 13:44 15.06.2022
3092 Rain 30 1006 60 10000 4.92 171 12:54 15.06.2022
3093 Rain 30 1006 57 10000 4.71 170 11:52 15.06.2022
3094 Rain 32 1006 54 10000 5.17 173 10:24 15.06.2022
3095 Clouds 32 1006 54 10000 5.17 173 09:39 15.06.2022
3096 Clouds 31 1007 52 10000 5.18 177 08:37 15.06.2022
3097 Clouds 31 1008 57 10000 4.82 181 06:34 15.06.2022
3098 Rain 30 1009 70 10000 4.19 179 03:59 15.06.2022
3099 Clouds 28 1007 79 10000 3.9 186 01:54 15.06.2022
3100 Clouds 27 1007 80 6858 3.96 180 00:50 15.06.2022
3101 Clouds 28 1006 77 10000 4.3 174 23:39 14.06.2022
3102 Clouds 28 1006 74 10000 4.43 176 23:18 14.06.2022
3103 Clouds 28 1006 72 10000 4.44 176 22:18 14.06.2022
3104 Clouds 28 1006 72 10000 4.44 176 21:33 14.06.2022
3105 Clouds 28 1006 71 10000 4.34 178 20:48 14.06.2022
3106 Clouds 29 1007 72 10000 4.56 179 20:28 14.06.2022
3107 Clouds 29 1007 70 10000 4.68 171 18:56 14.06.2022
3108 Clouds 29 1008 69 10000 4.86 170 17:40 14.06.2022
3109 Clouds 29 1007 68 10000 5.04 169 16:43 14.06.2022
3110 Clouds 30 1007 68 10000 5.17 168 15:50 14.06.2022
3111 Clouds 30 1006 66 10000 5.1 171 15:22 14.06.2022
3112 Clouds 30 1006 66 10000 5.1 171 14:32 14.06.2022
3113 Clouds 31 1005 62 10000 5.28 171 13:41 14.06.2022
3114 Clouds 31 1005 56 10000 5.29 168 12:42 14.06.2022
3115 Rain 32 1005 52 10000 5.31 168 11:31 14.06.2022
3116 Clouds 33 1005 50 10000 5.38 173 10:44 14.06.2022
3117 Clouds 31 1005 50 10000 5.43 170 09:48 14.06.2022
3118 Clouds 30 1006 52 10000 5.65 176 08:46 14.06.2022
3119 Rain 32 1007 53 10000 5.29 177 07:31 14.06.2022
3120 Rain 30 1008 61 10000 4.32 184 05:19 14.06.2022
3121 Clouds 29 1008 70 10000 4.04 185 02:49 14.06.2022
3122 Clouds 28 1006 77 10000 3.09 170 00:28 14.06.2022
3123 Clouds 28 1005 77 10000 3.46 174 23:22 13.06.2022
3124 Clouds 28 1006 76 10000 3.52 175 22:25 13.06.2022
3125 Clouds 28 1006 76 10000 3.52 175 21:48 13.06.2022
3126 Clouds 29 1007 69 10000 4.02 180 20:23 13.06.2022
3127 Clouds 29 1006 73 10000 4.24 176 19:34 13.06.2022
3128 Clouds 29 1007 67 10000 4.8 188 17:57 13.06.2022
3129 Clouds 30 1007 67 10000 4.8 188 17:38 13.06.2022
3130 Clouds 30 1007 65 10000 4.83 190 16:40 13.06.2022
3131 Clouds 30 1007 64 10000 5.01 189 15:37 13.06.2022
3132 Clouds 30 1005 63 10000 4.95 199 14:42 13.06.2022
3133 Clouds 30 1005 59 10000 4.85 186 13:46 13.06.2022
3134 Clouds 31 1004 51 10000 4.37 175 12:47 13.06.2022
3135 Clouds 33 1004 42 10000 3.42 196 11:26 13.06.2022
3136 Clouds 33 1004 40 10000 2.74 207 10:26 13.06.2022
3137 Clouds 34 1004 40 10000 2.74 207 09:31 13.06.2022
3138 Clouds 33 1007 43 10000 2.91 216 07:38 13.06.2022
3139 Clouds 32 1008 50 10000 2.32 254 05:42 13.06.2022
3140 Clouds 28 1009 69 10000 1.36 278 02:50 13.06.2022
3141 Clouds 27 1008 73 10000 2.12 271 01:37 13.06.2022
3142 Rain 27 1007 76 10000 1.32 215 00:18 13.06.2022
3143 Rain 27 1007 74 10000 1.29 191 23:25 12.06.2022
3144 Rain 27 1007 73 10000 0.86 172 22:22 12.06.2022
3145 Clouds 27 1007 66 10000 1.34 265 21:22 12.06.2022
3146 Clouds 29 1008 67 10000 1.64 275 20:29 12.06.2022
3147 Clouds 29 1008 67 10000 1.64 275 19:30 12.06.2022
3148 Clouds 29 1009 71 10000 2.79 259 17:53 12.06.2022
3149 Clouds 30 1008 68 10000 3.81 238 16:24 12.06.2022
3150 Clouds 31 1007 64 10000 4.74 188 14:58 12.06.2022
3151 Clouds 32 1005 59 10000 5.37 185 14:23 12.06.2022
3152 Clouds 32 1005 59 10000 5.37 185 13:55 12.06.2022
3153 Clouds 33 1005 52 10000 4.35 169 12:40 12.06.2022
3154 Clouds 34 1005 48 10000 4.68 173 11:39 12.06.2022
3155 Clouds 34 1005 42 10000 4.15 191 10:22 12.06.2022
3156 Clouds 34 1006 41 10000 3.05 205 08:55 12.06.2022
3157 Clouds 34 1006 41 10000 3.05 205 08:36 12.06.2022
3158 Clouds 35 1007 42 10000 1.95 223 07:32 12.06.2022
3159 Clouds 31 1009 51 10000 2 265 04:45 12.06.2022
3160 Rain 29 1009 62 10000 2.18 273 02:53 12.06.2022
3161 Clouds 28 1008 70 10000 2.27 273 01:39 12.06.2022
3162 Clouds 29 1007 74 10000 2.24 271 00:58 12.06.2022
3163 Clouds 28 1007 75 10000 2.05 244 00:20 12.06.2022
3164 Clouds 28 1007 75 10000 2.05 244 00:20 12.06.2022
3165 Clouds 29 1007 75 10000 2.05 244 23:44 11.06.2022
3166 Clouds 28 1006 75 10000 2.47 217 22:38 11.06.2022
3167 Clouds 29 1006 74 10000 2.72 210 21:52 11.06.2022
3168 Clouds 29 1007 73 10000 2.9 201 20:36 11.06.2022
3169 Clouds 29 1007 73 10000 3.25 196 19:46 11.06.2022
3170 Clouds 29 1008 72 10000 3.77 195 19:25 11.06.2022
3171 Clouds 29 1008 72 10000 3.77 195 18:33 11.06.2022
3172 Clouds 29 1008 69 10000 3.72 194 17:51 11.06.2022
3173 Clouds 29 1008 64 10000 4.13 194 17:26 11.06.2022
3174 Clouds 29 1008 64 10000 4.13 194 16:55 11.06.2022
3175 Clouds 29 1008 61 10000 3.97 192 16:27 11.06.2022
3176 Clouds 30 1008 61 10000 3.97 192 15:30 11.06.2022
3177 Clouds 30 1006 58 10000 4.43 203 13:53 11.06.2022
3178 Clouds 33 1005 54 10000 4.47 204 12:51 11.06.2022
3179 Clouds 34 1004 47 10000 4.4 183 10:46 11.06.2022
3180 Clouds 34 1005 44 10000 4.73 182 09:48 11.06.2022
3181 Clouds 34 1005 42 10000 3.67 190 08:51 11.06.2022
3182 Clouds 33 1006 42 10000 2.71 206 07:40 11.06.2022
3183 Clouds 32 1008 46 10000 2.4 224 06:25 11.06.2022
3184 Clouds 31 1009 56 10000 1.83 258 04:23 11.06.2022
3185 Clouds 27 1008 70 10000 2.01 263 01:52 11.06.2022
3186 Clouds 27 1007 74 10000 1.85 260 01:27 11.06.2022
3187 Clouds 27 1006 73 10000 2.18 260 23:34 10.06.2022
3188 Clouds 27 1006 73 10000 2.49 254 22:31 10.06.2022
3189 Rain 28 1007 73 10000 2.21 247 21:50 10.06.2022
3190 Clouds 28 1007 73 10000 1.38 244 20:40 10.06.2022
3191 Clouds 28 1008 74 10000 0.58 233 20:21 10.06.2022
3192 Clouds 28 1008 70 10000 2.15 256 20:21 10.06.2022
3193 Rain 28 1008 69 10000 2.51 261 19:19 10.06.2022
3194 Clouds 28 1008 69 10000 2.51 261 18:55 10.06.2022
3195 Clouds 28 1009 69 10000 1.76 263 17:55 10.06.2022
3196 Clouds 28 1009 69 10000 1.76 263 17:32 10.06.2022
3197 Rain 28 1008 69 10000 0.88 250 16:47 10.06.2022
3198 Clouds 27 1008 69 10000 1.85 279 15:40 10.06.2022
3199 Clouds 29 1006 63 10000 2.8 241 14:34 10.06.2022
3200 Clouds 31 1005 65 10000 4.6 186 13:23 10.06.2022
3201 Clouds 34 1005 59 10000 5.51 185 11:59 10.06.2022
3202 Clouds 35 1004 51 10000 4.23 184 10:59 10.06.2022
3203 Clouds 35 1005 49 10000 4.28 177 10:24 10.06.2022
3204 Clouds 34 1006 47 10000 4.86 181 08:58 10.06.2022
3205 Clouds 34 1006 45 10000 4.18 196 07:50 10.06.2022
3206 Clouds 33 1007 47 10000 3.67 212 06:47 10.06.2022
3207 Clouds 34 1008 49 10000 3.43 223 06:28 10.06.2022
3208 Clouds 32 1008 53 10000 3.55 225 04:55 10.06.2022
3209 Clouds 28 1008 63 10000 2.83 235 02:31 10.06.2022
3210 Clouds 27 1008 70 10000 2.65 244 01:37 10.06.2022
3211 Clouds 26 1006 73 10000 2.61 246 23:58 09.06.2022
3212 Clouds 27 1006 72 10000 2.95 246 22:30 09.06.2022
3213 Clouds 28 1006 71 10000 3.24 245 21:43 09.06.2022
3214 Clouds 28 1006 70 10000 3.29 244 21:24 09.06.2022
3215 Clouds 29 1006 70 10000 3.29 244 20:36 09.06.2022
3216 Clouds 28 1007 65 10000 3.75 250 19:43 09.06.2022
3217 Clouds 28 1007 69 10000 3.31 236 18:36 09.06.2022
3218 Clouds 28 1008 69 10000 4.6 201 17:28 09.06.2022
3219 Clouds 29 1007 67 10000 4.81 197 16:28 09.06.2022
3220 Clouds 30 1006 65 10000 4.98 196 14:45 09.06.2022
3221 Clouds 30 1005 62 10000 5.04 190 14:24 09.06.2022
3222 Clouds 31 1005 66 10000 5.05 188 13:30 09.06.2022
3223 Clouds 32 1005 60 10000 5.06 178 12:51 09.06.2022
3224 Clouds 33 1004 48 10000 3.67 169 11:20 09.06.2022
3225 Clouds 33 1005 47 10000 3.58 172 09:55 09.06.2022
3226 Clouds 33 1005 47 10000 3.58 172 09:55 09.06.2022
3227 Clouds 34 1005 47 10000 3.58 172 09:36 09.06.2022
3228 Clouds 33 1007 47 10000 4.19 194 08:27 09.06.2022
3229 Clouds 33 1007 48 10000 3.5 199 07:24 09.06.2022
3230 Clouds 30 1008 64 10000 2.07 230 03:29 09.06.2022
3231 Clouds 27 1007 73 10000 2.23 247 00:32 09.06.2022
3232 Clouds 27 1006 73 10000 1.85 229 22:59 08.06.2022
3233 Clouds 27 1006 73 10000 1.85 229 22:30 08.06.2022
3234 Clouds 27 1006 73 10000 1.83 222 21:59 08.06.2022
3235 Clouds 27 1006 73 10000 1.83 222 21:31 08.06.2022
3236 Clouds 27 1007 72 10000 1.98 207 20:24 08.06.2022
3237 Clouds 28 1007 73 10000 2.7 217 19:39 08.06.2022
3238 Clouds 28 1008 73 10000 2.89 209 18:48 08.06.2022
3239 Clouds 28 1008 71 10000 3.11 201 17:35 08.06.2022
3240 Clouds 28 1008 66 10000 3.68 186 15:52 08.06.2022
3241 Rain 30 1006 59 10000 3.52 180 14:18 08.06.2022
3242 Clouds 30 1005 54 10000 4.43 195 12:46 08.06.2022
3243 Rain 30 1004 50 10000 3.9 182 11:35 08.06.2022
3244 Rain 34 1004 48 10000 4.5 177 10:37 08.06.2022
3245 Clouds 33 1006 45 10000 2.89 196 09:28 08.06.2022
3246 Clouds 33 1006 45 10000 2.89 196 08:49 08.06.2022
3247 Clouds 32 1008 49 10000 3.53 217 06:43 08.06.2022
3248 Clouds 31 1009 54 10000 2.78 226 04:35 08.06.2022
3249 Rain 27 1007 69 10000 1.98 246 00:56 08.06.2022
3250 Clouds 27 1007 68 10000 1.66 234 23:31 07.06.2022
3251 Clouds 27 1007 68 10000 1.81 240 22:50 07.06.2022
3252 Clouds 27 1007 68 10000 1.81 240 22:31 07.06.2022
3253 Clouds 27 1007 67 10000 2.52 247 21:35 07.06.2022
3254 Clouds 28 1007 66 10000 2.55 247 20:59 07.06.2022
3255 Clouds 28 1007 66 10000 2.55 247 20:33 07.06.2022
3256 Rain 28 1008 66 10000 2.63 242 19:48 07.06.2022
3257 Clouds 28 1009 65 10000 3.28 243 18:24 07.06.2022
3258 Clouds 29 1009 65 10000 3.28 243 17:31 07.06.2022
3259 Clouds 29 1009 63 10000 3.98 247 16:43 07.06.2022
3260 Clouds 30 1009 62 10000 4.47 253 15:57 07.06.2022
3261 Clouds 30 1008 60 10000 4.67 259 15:27 07.06.2022
3262 Clouds 30 1008 60 10000 4.67 259 14:52 07.06.2022
3263 Clouds 30 1008 60 10000 4.67 259 14:34 07.06.2022
3264 Clouds 31 1006 58 10000 5.12 281 13:32 07.06.2022
3265 Clouds 32 1006 55 10000 5.03 283 12:52 07.06.2022
3266 Clouds 32 1005 52 10000 5.09 276 11:48 07.06.2022
3267 Clouds 33 1005 51 10000 4.47 254 10:27 07.06.2022
3268 Clouds 33 1006 51 10000 4.43 237 08:51 07.06.2022
3269 Clouds 33 1006 47 10000 4.23 249 07:34 07.06.2022
3270 Clouds 32 1008 51 10000 4.16 255 06:22 07.06.2022
3271 Clouds 29 1008 58 10000 3.57 241 03:32 07.06.2022
3272 Clouds 27 1007 69 10000 2.09 249 01:26 07.06.2022
3273 Clouds 27 1006 68 10000 2.36 244 23:46 06.06.2022
3274 Clouds 26 1006 67 10000 2.6 246 22:54 06.06.2022
3275 Clouds 26 1006 66 10000 2.69 250 22:28 06.06.2022
3276 Clouds 27 1006 65 10000 2.64 255 20:42 06.06.2022
3277 Clouds 27 1007 64 10000 2.64 267 19:24 06.06.2022
3278 Clouds 28 1007 64 10000 2.64 267 18:48 06.06.2022
3279 Clouds 28 1007 65 10000 2.71 256 17:57 06.06.2022
3280 Clouds 28 1007 65 10000 2.7 234 16:57 06.06.2022
3281 Rain 29 1007 64 10000 3.04 206 15:52 06.06.2022
3282 Rain 27 1006 68 10000 3.06 215 14:59 06.06.2022
3283 Rain 27 1006 68 10000 3.06 215 14:59 06.06.2022
3284 Rain 27 1005 70 10000 2.75 219 14:18 06.06.2022
3285 Clouds 28 1004 71 10000 4.1 193 13:20 06.06.2022
3286 Clouds 32 1004 71 10000 4.1 193 12:34 06.06.2022
3287 Clouds 33 1004 57 10000 5.03 221 11:47 06.06.2022
3288 Clouds 33 1004 51 10000 3.2 187 09:53 06.06.2022
3289 Clouds 34 1005 47 10000 3.64 188 09:18 06.06.2022
3290 Clouds 32 1005 47 10000 3.64 188 08:31 06.06.2022
3291 Clouds 32 1007 50 10000 3.22 212 07:20 06.06.2022
3292 Clouds 30 1008 55 10000 2.88 225 04:39 06.06.2022
3293 Clouds 27 1007 69 10000 2.09 238 01:57 06.06.2022
3294 Clouds 27 1006 73 10000 2.22 263 00:57 06.06.2022
3295 Clouds 27 1006 73 10000 2.22 263 00:34 06.06.2022
3296 Clouds 27 1006 71 10000 2.72 262 23:20 05.06.2022
3297 Clouds 26 1006 70 10000 2.77 261 22:21 05.06.2022
3298 Rain 26 1007 70 10000 3.06 258 20:24 05.06.2022
3299 Clouds 26 1007 70 10000 3.05 264 19:26 05.06.2022
3300 Clouds 27 1008 70 10000 2.95 250 18:19 05.06.2022
3301 Clouds 28 1008 70 10000 2.95 250 17:39 05.06.2022
3302 Clouds 29 1008 70 10000 2.59 227 17:20 05.06.2022
3303 Clouds 29 1008 70 10000 2.59 227 16:47 05.06.2022
3304 Clouds 30 1006 66 10000 2.61 187 15:28 05.06.2022
3305 Rain 30 1006 62 10000 2.55 177 14:21 05.06.2022
3306 Clouds 32 1004 59 10000 3.96 185 11:59 05.06.2022
3307 Clouds 33 1005 55 10000 4.71 191 10:45 05.06.2022
3308 Clouds 33 1005 51 10000 4.13 193 10:24 05.06.2022
3309 Clouds 34 1005 51 10000 4.13 193 09:42 05.06.2022
3310 Clouds 33 1007 53 10000 3.52 210 08:25 05.06.2022
3311 Clouds 32 1008 56 10000 2.96 233 06:25 05.06.2022
3312 Clouds 31 1009 59 10000 3.16 236 05:19 05.06.2022
3313 Clouds 28 1008 71 10000 2.75 223 02:47 05.06.2022
3314 Rain 28 1007 81 10000 2.24 225 01:24 05.06.2022
3315 Clouds 28 1006 80 10000 2.22 238 22:51 04.06.2022
3316 Clouds 28 1006 80 10000 2.47 246 21:30 04.06.2022
3317 Clouds 28 1007 79 10000 2.47 242 19:36 04.06.2022
3318 Clouds 29 1009 80 10000 2.25 215 17:21 04.06.2022
3319 Rain 29 1008 80 10000 2.33 179 16:20 04.06.2022
3320 Rain 30 1008 80 10000 2.33 179 15:39 04.06.2022
3321 Rain 30 1007 79 9111 4.53 180 13:59 04.06.2022
3322 Clouds 31 1005 70 5760 5.52 181 11:41 04.06.2022
3323 Clouds 31 1005 64 10000 5.22 179 10:54 04.06.2022
3324 Clouds 32 1005 63 10000 5.03 180 09:56 04.06.2022
3325 Clouds 32 1005 63 10000 5.03 180 09:38 04.06.2022
3326 Clouds 32 1006 63 10000 4.98 183 08:38 04.06.2022
3327 Clouds 30 1008 67 10000 3.84 182 06:32 04.06.2022
3328 Clouds 29 1009 76 10000 2.98 194 03:57 04.06.2022
3329 Rain 27 1007 83 10000 2.26 244 00:22 04.06.2022
3330 Rain 27 1007 82 10000 2.52 240 22:57 03.06.2022
3331 Rain 26 1006 82 10000 2.38 230 21:53 03.06.2022
3332 Rain 27 1007 81 10000 2.31 226 20:40 03.06.2022
3333 Clouds 27 1007 80 10000 2.59 240 19:37 03.06.2022
3334 Rain 27 1008 75 10000 4.06 174 16:59 03.06.2022
3335 Rain 29 1007 74 10000 4.19 174 15:57 03.06.2022
3336 Clouds 30 1006 73 10000 4.34 170 14:42 03.06.2022
3337 Clouds 31 1004 63 10000 5.5 174 12:21 03.06.2022
3338 Rain 32 1005 59 10000 4.36 175 09:57 03.06.2022
3339 Rain 32 1005 62 10000 4.7 180 09:29 03.06.2022
3340 Clouds 32 1006 67 10000 4.63 182 07:47 03.06.2022
3341 Clouds 32 1007 67 10000 4.15 178 07:19 03.06.2022
3342 Clouds 31 1007 67 10000 3.35 191 06:29 03.06.2022
3343 Rain 29 1008 74 10000 2.47 202 03:52 03.06.2022
3344 Clouds 28 1005 82 10000 2.6 210 23:53 02.06.2022
3345 Clouds 29 1005 82 10000 3.16 199 22:33 02.06.2022
3346 Clouds 29 1006 79 10000 3.57 171 20:57 02.06.2022
3347 Clouds 29 1006 76 10000 3.57 174 19:58 02.06.2022
3348 Clouds 29 1006 76 10000 3.57 174 19:39 02.06.2022
3349 Clouds 29 1007 75 10000 4.62 176 18:51 02.06.2022
3350 Clouds 29 1007 72 10000 4.93 171 16:30 02.06.2022
3351 Rain 29 1006 71 10000 5.2 172 15:47 02.06.2022
3352 Clouds 31 1004 69 10000 6.4 173 13:32 02.06.2022
3353 Rain 31 1004 64 10000 6.51 175 12:51 02.06.2022
3354 Clouds 32 1003 54 10000 6.1 171 10:48 02.06.2022
3355 Clouds 33 1003 50 10000 5.77 175 09:45 02.06.2022
3356 Clouds 33 1004 46 10000 4.18 179 09:26 02.06.2022
3357 Clouds 32 1005 48 10000 2.99 182 08:23 02.06.2022
3358 Clouds 33 1007 59 10000 2.08 168 06:21 02.06.2022
3359 Clouds 31 1007 66 10000 1.81 163 03:51 02.06.2022
3360 Clouds 28 1006 76 10000 1.49 274 01:33 02.06.2022
3361 Clouds 28 1005 80 10000 2.38 205 23:22 01.06.2022
3362 Clouds 28 1005 78 10000 3.3 197 22:18 01.06.2022
3363 Clouds 28 1005 75 10000 3.61 183 21:24 01.06.2022
3364 Clouds 29 1005 75 10000 3.61 183 20:39 01.06.2022
3365 Clouds 29 1005 73 10000 4.1 184 19:52 01.06.2022
3366 Rain 29 1006 72 10000 4.38 184 18:41 01.06.2022
3367 Clouds 30 1006 69 10000 5.37 177 16:58 01.06.2022
3368 Rain 30 1006 67 10000 5.33 173 15:45 01.06.2022
3369 Clouds 30 1005 64 10000 4.98 171 14:50 01.06.2022
3370 Clouds 32 1003 55 10000 4.5 175 13:26 01.06.2022
3371 Rain 35 1003 45 10000 4.18 187 11:23 01.06.2022
3372 Clouds 34 1003 44 10000 4.27 197 09:30 01.06.2022
3373 Clouds 33 1005 44 10000 2.74 225 08:19 01.06.2022
3374 Clouds 33 1006 45 10000 2.15 243 07:20 01.06.2022
3375 Clouds 31 1008 53 10000 1.46 251 04:41 01.06.2022
3376 Clouds 27 1005 78 10000 1.67 269 23:50 31.05.2022
3377 Clouds 27 1005 79 10000 1.83 271 22:41 31.05.2022
3378 Clouds 27 1005 79 10000 1.49 252 22:22 31.05.2022
3379 Clouds 27 1005 79 10000 1.49 252 21:39 31.05.2022
3380 Clouds 28 1005 79 10000 1.58 229 20:44 31.05.2022
3381 Clouds 28 1005 79 10000 1.87 204 19:31 31.05.2022
3382 Clouds 29 1006 75 10000 3.2 197 18:26 31.05.2022
3383 Clouds 28 1006 75 10000 3.2 197 17:37 31.05.2022
3384 Clouds 28 1005 67 10000 3.59 201 15:55 31.05.2022
3385 Clouds 29 1005 67 10000 3.59 201 15:34 31.05.2022
3386 Clouds 28 1003 68 10000 4.34 191 12:56 31.05.2022
3387 Rain 27 1002 64 10000 4.91 183 12:18 31.05.2022
3388 Clouds 32 1002 54 10000 4.14 191 10:25 31.05.2022
3389 Clouds 34 1004 47 10000 2.31 260 07:46 31.05.2022
3390 Clouds 33 1006 55 10000 2.49 267 06:19 31.05.2022
3391 Clouds 31 1006 67 10000 2.42 266 03:49 31.05.2022
3392 Clouds 28 1004 80 10000 1.18 269 23:45 30.05.2022
3393 Clouds 28 1004 80 10000 1.7 260 23:24 30.05.2022
3394 Clouds 29 1004 80 10000 1.7 260 22:37 30.05.2022
3395 Clouds 29 1004 80 10000 1.8 264 21:40 30.05.2022
3396 Clouds 29 1004 80 10000 2.91 267 20:51 30.05.2022
3397 Clouds 29 1005 79 10000 2.93 271 19:43 30.05.2022
3398 Clouds 29 1006 76 10000 3.48 224 17:53 30.05.2022
3399 Clouds 29 1006 74 6101 3.91 191 17:21 30.05.2022
3400 Clouds 30 1006 70 10000 3.8 183 15:54 30.05.2022
3401 Clouds 31 1003 61 10000 4.25 200 13:26 30.05.2022
3402 Clouds 33 1003 56 10000 4.64 211 11:40 30.05.2022
3403 Clouds 33 1003 56 10000 5.33 194 09:45 30.05.2022
3404 Clouds 33 1004 43 10000 3.44 230 07:34 30.05.2022
3405 Clouds 32 1006 48 10000 3.09 267 06:22 30.05.2022
3406 Clouds 31 1006 53 10000 3.07 264 04:46 30.05.2022
3407 Clouds 28 1005 73 10000 1.89 239 00:18 30.05.2022
3408 Clouds 28 1004 72 10000 2.02 248 22:40 29.05.2022
3409 Clouds 28 1004 73 10000 2.33 246 21:44 29.05.2022
3410 Clouds 29 1005 71 10000 2.98 260 20:21 29.05.2022
3411 Clouds 29 1006 71 10000 3.15 260 19:28 29.05.2022
3412 Clouds 29 1006 71 10000 3.22 253 17:56 29.05.2022
3413 Clouds 30 1006 72 10000 1.71 278 16:22 29.05.2022
3414 Clouds 30 1006 72 10000 1.71 278 15:43 29.05.2022
3415 Clouds 30 1005 70 10000 1.02 308 14:54 29.05.2022
3416 Clouds 33 1004 60 10000 2.42 180 12:33 29.05.2022
3417 Clouds 34 1003 60 10000 5.74 185 11:19 29.05.2022
3418 Clouds 34 1002 44 10000 4.63 213 09:54 29.05.2022
3419 Clouds 34 1004 41 10000 4.42 266 07:55 29.05.2022
3420 Clouds 32 1007 52 10000 5.05 261 04:58 29.05.2022
3421 Clouds 31 1007 52 10000 5.05 261 04:33 29.05.2022
3422 Clouds 27 1005 73 10000 2.61 236 01:23 29.05.2022
3423 Clouds 27 1005 72 10000 2.96 239 23:47 28.05.2022
3424 Clouds 27 1005 72 10000 3.08 240 23:19 28.05.2022
3425 Clouds 28 1005 72 10000 3.43 240 21:53 28.05.2022
3426 Rain 27 1005 71 10000 3.93 240 20:53 28.05.2022
3427 Rain 27 1006 69 10000 4.64 237 19:20 28.05.2022
3428 Rain 28 1006 67 10000 4.4 235 18:23 28.05.2022
3429 Rain 29 1006 68 10000 4.21 225 17:32 28.05.2022
3430 Clouds 28 1005 70 10000 4.25 212 15:49 28.05.2022
3431 Clouds 28 1004 71 10000 4.15 194 15:20 28.05.2022
3432 Rain 30 1003 67 10000 3.23 188 13:36 28.05.2022
3433 Rain 29 1002 63 10000 6.59 191 12:42 28.05.2022
3434 Clouds 33 1001 55 10000 5.86 176 11:37 28.05.2022
3435 Rain 33 1001 48 10000 4.39 186 10:38 28.05.2022
3436 Clouds 35 1002 46 10000 3.68 217 09:54 28.05.2022
3437 Clouds 34 1004 48 10000 2.98 239 08:21 28.05.2022
3438 Clouds 33 1005 51 10000 2.89 239 06:33 28.05.2022
3439 Clouds 32 1006 57 10000 3.3 246 04:43 28.05.2022
3440 Clouds 28 1005 70 10000 3.28 241 02:18 28.05.2022
3441 Clouds 28 1004 72 10000 3.13 238 23:55 27.05.2022
3442 Clouds 28 1004 71 10000 3.4 238 22:38 27.05.2022
3443 Clouds 28 1004 71 10000 3.4 238 22:38 27.05.2022
3444 Clouds 29 1004 69 10000 3.56 238 21:22 27.05.2022
3445 Clouds 29 1004 69 10000 3.56 238 20:43 27.05.2022
3446 Clouds 29 1005 68 10000 3.67 237 20:18 27.05.2022
3447 Clouds 29 1004 69 10000 4.05 238 19:36 27.05.2022
3448 Clouds 29 1005 68 10000 4.27 234 19:18 27.05.2022
3449 Clouds 30 1005 66 10000 3.99 247 16:43 27.05.2022
3450 Clouds 30 1005 64 10000 4.04 265 15:47 27.05.2022
3451 Clouds 30 1004 63 10000 3.86 278 14:46 27.05.2022
3452 Clouds 30 1004 63 10000 3.63 259 13:36 27.05.2022
3453 Rain 31 1003 58 10000 5.03 276 11:48 27.05.2022
3454 Clouds 31 1003 55 10000 5.62 280 11:26 27.05.2022
3455 Rain 33 1003 55 10000 5.62 280 10:35 27.05.2022
3456 Clouds 34 1003 52 10000 6.53 285 09:42 27.05.2022
3457 Clouds 33 1004 48 10000 6.9 287 08:48 27.05.2022
3458 Clouds 32 1006 58 10000 5.78 277 06:58 27.05.2022
3459 Clouds 30 1007 64 10000 4.32 254 02:57 27.05.2022
3460 Clouds 28 1005 75 10000 3.5 250 00:54 27.05.2022
3461 Clouds 28 1005 73 10000 3.58 248 22:53 26.05.2022
3462 Clouds 29 1005 71 10000 3.4 245 21:45 26.05.2022
3463 Clouds 29 1005 70 10000 3.3 244 20:59 26.05.2022
3464 Clouds 29 1005 68 10000 3.46 251 19:30 26.05.2022
3465 Clouds 30 1007 67 10000 3.82 254 18:24 26.05.2022
3466 Rain 31 1006 65 10000 3.85 254 16:59 26.05.2022
3467 Rain 31 1006 64 10000 4.15 261 15:52 26.05.2022
3468 Clouds 31 1005 63 10000 4.6 252 15:18 26.05.2022
3469 Rain 32 1004 62 10000 4.38 249 13:45 26.05.2022
3470 Clouds 34 1004 52 10000 5.15 266 11:38 26.05.2022
3471 Clouds 34 1004 49 10000 5.28 277 10:37 26.05.2022
3472 Clouds 34 1004 46 10000 5.12 271 09:37 26.05.2022
3473 Clouds 34 1005 47 10000 4.91 269 08:38 26.05.2022
3474 Clouds 31 1008 60 10000 4.3 241 05:24 26.05.2022
3475 Clouds 27 1007 78 10000 2.48 234 01:24 26.05.2022
3476 Clouds 26 1007 78 10000 2.4 234 23:40 25.05.2022
3477 Clouds 27 1006 77 10000 2.61 247 22:48 25.05.2022
3478 Clouds 26 1007 76 10000 2.87 246 21:37 25.05.2022
3479 Rain 26 1007 74 10000 3.59 249 20:39 25.05.2022
3480 Rain 26 1007 73 10000 3.71 248 19:31 25.05.2022
3481 Rain 27 1009 71 10000 4.14 250 18:20 25.05.2022
3482 Clouds 27 1009 70 10000 4.02 244 16:41 25.05.2022
3483 Clouds 29 1008 68 10000 4.84 239 15:58 25.05.2022
3484 Clouds 30 1007 68 10000 3.92 216 14:56 25.05.2022
3485 Clouds 31 1007 68 10000 3.92 216 14:33 25.05.2022
3486 Clouds 32 1006 70 10000 3.74 183 13:58 25.05.2022
3487 Clouds 32 1006 68 10000 4.02 170 12:48 25.05.2022
3488 Clouds 32 1006 63 10000 3.87 184 10:58 25.05.2022
3489 Clouds 33 1006 58 10000 3.13 206 10:20 25.05.2022
3490 Clouds 33 1007 55 10000 3.54 224 08:41 25.05.2022
3491 Clouds 33 1009 55 10000 3.79 237 07:23 25.05.2022
3492 Rain 32 1010 61 10000 4.01 227 05:18 25.05.2022
3493 Clouds 28 1009 77 10000 1.83 236 00:28 25.05.2022
3494 Clouds 28 1009 77 10000 1.83 236 23:47 24.05.2022
3495 Clouds 28 1009 76 10000 1.62 246 22:39 24.05.2022
3496 Clouds 28 1009 77 10000 2.03 265 21:43 24.05.2022
3497 Clouds 28 1009 74 10000 2.1 275 21:21 24.05.2022
3498 Clouds 29 1009 74 10000 2.1 275 20:30 24.05.2022
3499 Clouds 28 1010 74 10000 1.95 251 18:56 24.05.2022
3500 Clouds 29 1010 73 10000 2 245 16:58 24.05.2022
3501 Clouds 29 1009 72 10000 2.28 253 16:28 24.05.2022
3502 Clouds 29 1009 72 10000 2.68 241 15:18 24.05.2022
3503 Clouds 30 1008 75 10000 2.74 238 14:25 24.05.2022
3504 Clouds 30 1007 64 10000 6.34 236 13:18 24.05.2022
3505 Clouds 31 1006 64 10000 4.75 226 11:49 24.05.2022
3506 Clouds 32 1006 59 10000 4.68 211 09:47 24.05.2022
3507 Clouds 31 1006 63 10000 4.4 215 08:51 24.05.2022
3508 Clouds 31 1008 68 10000 4.81 213 06:58 24.05.2022
3509 Clouds 31 1008 60 10000 4.51 213 04:59 24.05.2022
3510 Clouds 30 1007 65 10000 4.04 204 02:42 24.05.2022
3511 Clouds 29 1007 75 10000 2.11 222 01:43 24.05.2022
3512 Clouds 28 1005 76 10000 2.15 208 23:43 23.05.2022
3513 Clouds 29 1005 76 10000 2.54 209 22:22 23.05.2022
3514 Clouds 29 1005 76 10000 2.54 209 21:41 23.05.2022
3515 Clouds 30 1005 76 10000 2.89 215 20:45 23.05.2022
3516 Clouds 30 1006 74 10000 2.8 196 19:41 23.05.2022
3517 Clouds 30 1006 72 10000 2.83 194 19:00 23.05.2022
3518 Clouds 30 1006 72 10000 2.83 194 18:37 23.05.2022
3519 Clouds 30 1007 70 10000 2.61 204 17:55 23.05.2022
3520 Clouds 30 1006 66 10000 3.82 224 15:47 23.05.2022
3521 Clouds 30 1004 58 10000 3.93 223 13:44 23.05.2022
3522 Clouds 33 1002 51 10000 4.87 255 11:36 23.05.2022
3523 Clouds 33 1002 50 10000 6.09 255 10:43 23.05.2022
3524 Clouds 33 1003 52 10000 7.61 252 09:40 23.05.2022
3525 Clouds 33 1004 55 10000 7.79 249 08:38 23.05.2022
3526 Clouds 32 1005 55 10000 6.29 242 06:47 23.05.2022
3527 Clouds 32 1005 59 10000 6.27 240 06:23 23.05.2022
3528 Clouds 28 1005 76 10000 4.4 230 02:36 23.05.2022
3529 Clouds 27 1004 83 10000 4.05 209 01:48 23.05.2022
3530 Clouds 26 1003 86 10000 3.12 211 01:19 23.05.2022
3531 Clouds 27 1002 85 10000 2.53 213 22:47 22.05.2022
3532 Clouds 27 1002 86 10000 2.03 237 22:18 22.05.2022
3533 Clouds 27 1002 86 10000 2.03 237 21:49 22.05.2022
3534 Clouds 28 1003 88 10000 2.05 236 20:42 22.05.2022
3535 Clouds 28 1003 89 10000 2.9 241 20:20 22.05.2022
3536 Clouds 27 1004 86 10000 2.74 216 18:58 22.05.2022
3537 Clouds 27 1004 86 10000 2.74 216 18:31 22.05.2022
3538 Clouds 27 1004 86 10000 3.27 212 17:55 22.05.2022
3539 Clouds 27 1004 87 10000 2.96 218 16:51 22.05.2022
3540 Clouds 27 1003 86 10000 3.55 211 15:24 22.05.2022
3541 Clouds 27 1003 86 10000 3.55 211 14:36 22.05.2022
3542 Rain 28 1002 85 10000 3.82 213 12:54 22.05.2022
3543 Clouds 28 1002 87 10000 5.59 220 12:24 22.05.2022
3544 Rain 31 1002 88 10000 6.37 225 10:38 22.05.2022
3545 Rain 29 1003 85 10000 6.5 224 09:27 22.05.2022
3546 Rain 28 1003 83 10000 5.37 221 07:44 22.05.2022
3547 Rain 27 1004 83 10000 3.55 236 06:41 22.05.2022
3548 Rain 29 1004 85 10000 1.49 264 03:53 22.05.2022
3549 Rain 27 1003 87 10000 2.91 233 00:49 22.05.2022
3550 Clouds 27 1003 87 10000 3.38 230 23:56 21.05.2022
3551 Clouds 27 1003 87 10000 3.38 226 23:27 21.05.2022
3552 Clouds 27 1003 86 10000 2.53 235 21:59 21.05.2022
3553 Clouds 27 1003 86 10000 2.53 235 21:34 21.05.2022
3554 Clouds 27 1003 87 10000 2.3 231 20:34 21.05.2022
3555 Rain 27 1004 87 10000 2.91 253 19:53 21.05.2022
3556 Clouds 27 1005 90 10000 4.27 230 18:54 21.05.2022
3557 Rain 27 1006 89 10000 5.23 239 16:57 21.05.2022
3558 Rain 27 1005 89 10000 4.28 223 14:49 21.05.2022
3559 Rain 28 1004 87 10000 2.94 241 13:55 21.05.2022
3560 Rain 28 1004 88 10000 4.84 247 13:25 21.05.2022
3561 Rain 30 1004 88 10000 4.84 247 12:39 21.05.2022
3562 Clouds 30 1003 77 10000 6.14 242 11:25 21.05.2022
3563 Clouds 30 1003 76 10000 4.18 230 10:21 21.05.2022
3564 Clouds 31 1004 75 10000 4.74 234 08:59 21.05.2022
3565 Clouds 31 1004 75 10000 4.74 234 08:38 21.05.2022
3566 Rain 27 1006 83 10000 5.85 227 06:20 21.05.2022
3567 Rain 28 1005 75 10000 3.61 216 01:41 21.05.2022
3568 Rain 28 1004 77 10000 3.05 211 23:32 20.05.2022
3569 Clouds 28 1004 78 10000 3.25 218 22:30 20.05.2022
3570 Clouds 28 1004 78 10000 3.39 215 21:56 20.05.2022
3571 Rain 28 1005 76 10000 3.1 217 21:19 20.05.2022
3572 Rain 29 1005 76 10000 3.1 217 20:45 20.05.2022
3573 Rain 29 1006 77 10000 2.66 216 19:45 20.05.2022
3574 Rain 29 1007 77 10000 2.79 225 18:49 20.05.2022
3575 Clouds 29 1008 76 10000 3.44 233 17:48 20.05.2022
3576 Clouds 29 1007 77 10000 3.79 235 16:22 20.05.2022
3577 Clouds 29 1007 77 10000 3.79 235 15:53 20.05.2022
3578 Clouds 29 1006 77 10000 3.98 224 14:32 20.05.2022
3579 Clouds 30 1006 77 10000 4.66 228 13:59 20.05.2022
3580 Clouds 31 1005 75 10000 4.18 247 11:51 20.05.2022
3581 Clouds 31 1005 70 10000 4.36 239 10:34 20.05.2022
3582 Clouds 32 1006 67 9291 5.36 216 08:59 20.05.2022
3583 Clouds 32 1006 69 9635 4.91 213 07:43 20.05.2022
3584 Clouds 31 1007 70 7807 4.86 204 06:40 20.05.2022
3585 Clouds 31 1008 69 7485 4.6 199 05:39 20.05.2022
3586 Clouds 28 1007 86 10000 1.91 167 01:29 20.05.2022
3587 Clouds 29 1006 86 10000 1.8 164 23:31 19.05.2022
3588 Rain 29 1006 86 10000 1.61 184 22:34 19.05.2022
3589 Rain 29 1007 86 10000 1.43 240 21:49 19.05.2022
3590 Rain 29 1007 85 10000 2.19 244 21:23 19.05.2022
3591 Rain 29 1007 85 10000 2.19 244 20:43 19.05.2022
3592 Rain 29 1008 83 10000 3.09 230 19:54 19.05.2022
3593 Rain 29 1009 80 10000 4.17 213 18:59 19.05.2022
3594 Clouds 30 1009 80 10000 2.91 190 17:35 19.05.2022
3595 Clouds 30 1009 82 10000 3.19 206 15:34 19.05.2022
3596 Clouds 30 1008 82 10000 3.3 199 14:35 19.05.2022
3597 Clouds 30 1008 83 10000 3.49 187 13:59 19.05.2022
3598 Clouds 32 1007 82 10000 3.07 171 11:52 19.05.2022
3599 Clouds 32 1008 81 10000 3.08 178 10:25 19.05.2022
3600 Clouds 33 1008 83 8229 2.89 183 08:33 19.05.2022
3601 Clouds 32 1010 89 10000 2.76 183 06:57 19.05.2022
3602 Clouds 27 1011 91 7040 2.41 204 02:59 19.05.2022
3603 Clouds 26 1009 92 10000 2.6 186 00:56 19.05.2022
3604 Rain 26 1009 93 10000 2.96 190 23:21 18.05.2022
3605 Clouds 26 1009 93 10000 2.96 190 22:41 18.05.2022
3606 Rain 26 1009 91 8532 2.97 195 21:33 18.05.2022
3607 Rain 26 1009 92 9546 3.55 207 20:55 18.05.2022
3608 Rain 26 1010 92 8644 3.58 213 20:19 18.05.2022
3609 Rain 27 1010 89 10000 2.27 260 18:46 18.05.2022
3610 Rain 27 1011 89 10000 2.14 256 17:41 18.05.2022
3611 Rain 27 1011 91 10000 3.1 267 17:23 18.05.2022
3612 Rain 28 1011 91 10000 3.1 267 16:36 18.05.2022
3613 Rain 27 1010 92 10000 4.29 286 15:42 18.05.2022
3614 Rain 28 1010 93 10000 5.54 283 15:19 18.05.2022
3615 Rain 29 1008 77 7371 2.01 195 13:53 18.05.2022
3616 Clouds 30 1008 69 10000 1.76 194 12:53 18.05.2022
3617 Rain 29 1007 62 10000 0.56 188 11:47 18.05.2022
3618 Rain 28 1007 62 10000 0.34 287 11:29 18.05.2022
3619 Clouds 28 1007 65 10000 0.35 220 09:59 18.05.2022
3620 Rain 30 1009 76 10000 0.67 218 07:56 18.05.2022
3621 Clouds 30 1010 82 10000 0.65 139 06:50 18.05.2022
3622 Clouds 26 1010 85 10000 1.78 51 02:44 18.05.2022
3623 Clouds 26 1009 84 10000 0.95 61 00:31 18.05.2022
3624 Rain 26 1007 82 10000 0.69 324 22:57 17.05.2022
3625 Clouds 26 1008 80 10000 1.01 250 21:21 17.05.2022
3626 Rain 26 1008 80 10000 1.01 250 20:30 17.05.2022
3627 Rain 26 1009 77 10000 1.67 114 19:29 17.05.2022
3628 Rain 26 1009 75 10000 1.63 127 17:53 17.05.2022
3629 Rain 26 1009 73 10000 1.38 137 17:22 17.05.2022
3630 Rain 26 1009 73 10000 1.38 137 16:34 17.05.2022
3631 Rain 27 1008 71 10000 1.59 153 15:33 17.05.2022
3632 Rain 28 1007 69 10000 1.62 182 14:31 17.05.2022
3633 Rain 28 1006 68 10000 1.33 160 13:54 17.05.2022
3634 Rain 26 1005 66 10000 1.91 169 12:23 17.05.2022
3635 Clouds 33 1006 66 10000 1.61 113 09:53 17.05.2022
3636 Clouds 33 1007 69 10000 1.08 107 08:44 17.05.2022
3637 Clouds 32 1009 74 10000 1.8 118 07:18 17.05.2022
3638 Clouds 28 1010 86 10000 2.73 97 04:28 17.05.2022
3639 Rain 26 1008 81 10000 2.57 100 00:47 17.05.2022
3640 Rain 26 1007 77 8409 2.37 123 22:44 16.05.2022
3641 Rain 27 1007 71 10000 2.89 127 22:18 16.05.2022
3642 Clouds 27 1007 70 10000 3.21 118 20:50 16.05.2022
3643 Rain 27 1008 76 10000 3.6 118 19:59 16.05.2022
3644 Rain 28 1008 76 10000 3.95 121 18:32 16.05.2022
3645 Rain 29 1008 67 10000 3.87 164 16:37 16.05.2022
3646 Rain 30 1006 67 10000 3.65 174 14:46 16.05.2022
3647 Rain 27 1005 77 10000 7.05 205 13:26 16.05.2022
3648 Rain 33 1005 63 10000 5.91 221 11:34 16.05.2022
3649 Rain 34 1005 54 10000 5 222 10:24 16.05.2022
3650 Clouds 34 1006 45 10000 3.28 244 07:34 16.05.2022
3651 Clouds 33 1008 48 10000 3.02 260 05:40 16.05.2022
3652 Clouds 28 1007 67 10000 2.42 269 23:59 15.05.2022
3653 Rain 28 1006 66 10000 2.74 271 22:36 15.05.2022
3654 Rain 29 1006 67 10000 2.52 261 21:48 15.05.2022
3655 Clouds 29 1007 69 10000 1.86 225 21:21 15.05.2022
3656 Rain 30 1006 71 10000 1.67 200 20:34 15.05.2022
3657 Rain 29 1008 69 10000 3.64 177 17:56 15.05.2022
3658 Rain 29 1008 67 10000 3.78 176 16:36 15.05.2022
3659 Rain 30 1006 62 10000 4.94 177 14:18 15.05.2022
3660 Rain 31 1006 65 10000 5.79 179 13:35 15.05.2022
3661 Rain 32 1005 51 10000 4.4 162 11:55 15.05.2022
3662 Clouds 35 1005 50 10000 4.81 172 10:35 15.05.2022
3663 Clouds 35 1006 46 10000 5.3 191 08:52 15.05.2022
3664 Clouds 34 1008 50 10000 4.24 188 06:59 15.05.2022
3665 Rain 33 1008 50 10000 4.24 188 06:39 15.05.2022
3666 Rain 28 1008 77 10000 1.83 158 02:24 15.05.2022
3667 Rain 29 1007 81 10000 2.02 171 23:56 14.05.2022
3668 Clouds 29 1007 81 10000 2.02 171 23:34 14.05.2022
3669 Clouds 30 1006 80 10000 2.74 175 21:45 14.05.2022
3670 Clouds 30 1007 80 10000 3.05 178 21:19 14.05.2022
3671 Rain 30 1008 78 10000 3.73 174 19:54 14.05.2022
3672 Rain 30 1008 76 10000 3.88 176 19:20 14.05.2022
3673 Rain 30 1008 76 10000 3.88 176 18:47 14.05.2022
3674 Rain 30 1009 73 10000 3.85 180 17:36 14.05.2022
3675 Clouds 31 1008 67 10000 4.07 180 15:55 14.05.2022
3676 Clouds 32 1007 63 10000 4.23 179 14:37 14.05.2022
3677 Clouds 34 1005 57 10000 4.18 172 12:51 14.05.2022
3678 Clouds 34 1005 52 10000 3.95 178 11:37 14.05.2022
3679 Clouds 34 1005 47 10000 2.82 202 10:24 14.05.2022
3680 Clouds 37 1007 100 10000 2.82 202 09:56 14.05.2022
3681 Clouds 36 1008 100 10000 2.67 225 08:59 14.05.2022
3682 Clouds 34 1008 54 10000 3.28 252 07:21 14.05.2022
3683 Clouds 31 1009 61 10000 2.65 249 03:45 14.05.2022
3684 Clouds 29 1006 79 10000 1.88 288 00:21 14.05.2022
3685 Clouds 29 1005 80 10000 2.37 272 23:23 13.05.2022
3686 Clouds 29 1005 80 10000 2.37 272 22:52 13.05.2022
3687 Clouds 30 1005 80 10000 2 276 22:20 13.05.2022
3688 Clouds 30 1005 78 10000 1.84 265 20:56 13.05.2022
3689 Rain 30 1006 77 10000 1.07 256 20:28 13.05.2022
3690 Rain 30 1006 77 10000 1.07 256 19:43 13.05.2022
3691 Rain 30 1007 76 10000 0.26 242 18:44 13.05.2022
3692 Rain 30 1007 75 10000 1.03 341 17:29 13.05.2022
3693 Rain 30 1007 75 10000 1.47 343 16:23 13.05.2022
3694 Clouds 31 1007 75 10000 1.47 343 15:43 13.05.2022
3695 Clouds 32 1005 75 10000 2.84 279 14:24 13.05.2022
3696 Clouds 33 1005 71 10000 5.47 238 12:46 13.05.2022
3697 Clouds 33 1004 62 10000 5.48 221 11:36 13.05.2022
3698 Clouds 35 1003 49 10000 3.87 178 09:43 13.05.2022
3699 Clouds 35 1004 48 10000 3.16 191 08:51 13.05.2022
3700 Clouds 34 1005 50 10000 2.94 213 07:49 13.05.2022
3701 Clouds 34 1007 53 10000 2.71 215 06:44 13.05.2022
3702 Clouds 32 1008 62 10000 2.22 226 04:48 13.05.2022
3703 Clouds 28 1006 82 10000 2.15 254 00:42 13.05.2022
3704 Clouds 29 1005 82 10000 1.45 240 22:47 12.05.2022
3705 Rain 29 1005 82 10000 1.42 200 22:29 12.05.2022
3706 Rain 29 1006 82 10000 1.65 175 20:41 12.05.2022
3707 Rain 29 1007 82 10000 0.46 162 19:24 12.05.2022
3708 Clouds 29 1008 84 10000 1.32 76 18:19 12.05.2022
3709 Rain 28 1008 90 10000 3.45 61 16:34 12.05.2022
3710 Rain 29 1005 89 3539 1.76 287 14:51 12.05.2022
3711 Rain 31 1005 75 5328 4.67 218 13:47 12.05.2022
3712 Clouds 34 1004 58 10000 3.31 188 11:25 12.05.2022
3713 Clouds 34 1005 59 10000 3.44 194 10:22 12.05.2022
3714 Clouds 33 1006 58 10000 3.97 214 08:52 12.05.2022
3715 Clouds 33 1006 54 10000 4.21 225 07:58 12.05.2022
3716 Clouds 33 1008 61 10000 2.86 260 06:55 12.05.2022
3717 Clouds 30 1009 70 10000 1.93 268 03:46 12.05.2022
3718 Clouds 28 1006 84 10000 1.46 251 00:50 12.05.2022
3719 Clouds 28 1006 83 10000 1.65 201 22:53 11.05.2022
3720 Rain 28 1006 82 10000 2.07 182 21:59 11.05.2022
3721 Rain 28 1007 81 10000 2.25 189 21:24 11.05.2022
3722 Rain 28 1007 80 8715 2.72 183 19:42 11.05.2022
3723 Rain 29 1008 75 10000 4.12 172 17:24 11.05.2022
3724 Rain 29 1007 74 10000 3.97 171 16:19 11.05.2022
3725 Rain 30 1009 100 10000 3.89 167 14:45 11.05.2022
3726 Rain 30 1006 70 10000 4.28 175 14:24 11.05.2022
3727 Clouds 30 1005 61 10000 4.41 181 12:23 11.05.2022
3728 Clouds 31 1005 61 10000 4.41 181 11:47 11.05.2022
3729 Clouds 32 1006 58 10000 3.59 183 09:29 11.05.2022
3730 Rain 30 1009 62 10000 3.43 183 06:24 11.05.2022
3731 Clouds 27 1007 83 10000 2.05 165 01:29 11.05.2022
3732 Rain 27 1006 81 10000 2.08 166 22:53 10.05.2022
3733 Rain 28 1006 80 10000 2.15 172 22:19 10.05.2022
3734 Rain 29 1007 79 10000 2.46 173 20:59 10.05.2022
3735 Rain 28 1008 78 10000 2.6 166 20:21 10.05.2022
3736 Rain 28 1008 76 10000 3.26 183 18:36 10.05.2022
3737 Rain 28 1009 76 10000 3.12 185 17:37 10.05.2022
3738 Rain 28 1008 75 10000 2.63 184 15:49 10.05.2022
3739 Clouds 29 1006 70 10000 4.58 189 12:48 10.05.2022
3740 Clouds 30 1006 65 10000 4.84 195 11:53 10.05.2022
3741 Rain 30 1006 64 10000 4.79 198 11:28 10.05.2022
3742 Clouds 29 1006 64 10000 4.79 198 10:55 10.05.2022
3743 Clouds 31 1007 67 10000 4.77 193 09:27 10.05.2022
3744 Clouds 30 1008 79 10000 3.97 200 07:47 10.05.2022
3745 Clouds 29 1010 77 10000 4.8 170 05:43 10.05.2022
3746 Rain 26 1008 84 6996 3.11 139 01:37 10.05.2022
3747 Rain 26 1007 86 10000 2.32 143 23:42 09.05.2022
3748 Rain 26 1007 86 10000 2.32 143 23:42 09.05.2022
3749 Rain 26 1007 86 10000 2.62 153 22:30 09.05.2022
3750 Rain 27 1007 86 10000 2.77 157 21:25 09.05.2022
3751 Clouds 26 1008 82 10000 2.87 165 19:52 09.05.2022
3752 Rain 29 1008 80 10000 2.75 169 18:22 09.05.2022
3753 Rain 29 1009 79 10000 2.76 177 16:55 09.05.2022
3754 Rain 29 1009 79 10000 2.76 177 16:55 09.05.2022
3755 Clouds 29 1008 78 10000 3.78 179 15:54 09.05.2022
3756 Clouds 29 1008 78 10000 3.78 179 15:34 09.05.2022
3757 Rain 29 1007 77 10000 4.42 180 14:33 09.05.2022
3758 Rain 28 1007 75 10000 4.09 175 13:51 09.05.2022
3759 Rain 28 1006 74 10000 4.16 173 12:32 09.05.2022
3760 Rain 27 1006 67 8794 4.71 176 11:43 09.05.2022
3761 Clouds 28 1005 64 10000 4.54 184 10:45 09.05.2022
3762 Rain 33 1006 60 10000 4.15 185 09:59 09.05.2022
3763 Clouds 33 1007 61 10000 2.11 170 07:56 09.05.2022
3764 Clouds 30 1009 72 7988 0.67 91 04:33 09.05.2022
3765 Clouds 30 1009 72 7988 0.67 91 04:33 09.05.2022
3766 Clouds 27 1007 83 10000 1.69 215 00:22 09.05.2022
3767 Clouds 27 1007 84 10000 2.08 222 22:58 08.05.2022
3768 Clouds 27 1007 84 7088 1.98 236 22:27 08.05.2022
3769 Clouds 28 1007 82 9364 1.69 239 20:41 08.05.2022
3770 Clouds 28 1007 80 10000 1.66 222 19:53 08.05.2022
3771 Clouds 28 1008 80 10000 1.72 199 18:59 08.05.2022
3772 Clouds 28 1008 78 10000 0.78 196 18:25 08.05.2022
3773 Clouds 27 1008 77 10000 0.28 96 17:21 08.05.2022
3774 Rain 27 1008 76 10000 0.15 53 15:43 08.05.2022
3775 Rain 27 1007 76 10000 0.45 341 15:20 08.05.2022
3776 Rain 28 1005 75 10000 1.39 344 12:41 08.05.2022
3777 Rain 30 1005 68 10000 2.24 6 10:34 08.05.2022
3778 Clouds 31 1005 62 10000 1.4 359 09:59 08.05.2022
3779 Clouds 32 1005 62 10000 1.4 359 09:33 08.05.2022
3780 Clouds 33 1007 60 7795 3.31 111 07:33 08.05.2022
3781 Clouds 29 1009 74 10000 1.72 32 04:24 08.05.2022
3782 Clouds 27 1009 79 10000 2.21 19 03:19 08.05.2022
3783 Rain 26 1006 83 10000 0.26 64 00:29 08.05.2022
3784 Clouds 26 1006 83 10000 0.26 64 23:53 07.05.2022
3785 Rain 26 1006 82 10000 0.36 160 22:57 07.05.2022
3786 Rain 26 1006 82 10000 0.36 160 22:33 07.05.2022
3787 Rain 26 1006 81 10000 0.76 212 21:43 07.05.2022
3788 Clouds 26 1007 80 10000 1.02 207 20:55 07.05.2022
3789 Clouds 26 1007 81 10000 1.05 192 19:58 07.05.2022
3790 Clouds 26 1008 79 10000 1.08 106 17:51 07.05.2022
3791 Rain 26 1008 80 10000 2.72 83 15:53 07.05.2022
3792 Rain 30 1008 100 10000 1.57 138 14:20 07.05.2022
3793 Rain 31 1007 100 10000 1.93 141 10:57 07.05.2022
3794 Rain 34 1008 100 10000 2.39 127 09:22 07.05.2022
3795 Rain 34 1008 100 6285 2.86 106 07:52 07.05.2022
3796 Rain 34 1009 100 7745 3.13 107 06:43 07.05.2022
3797 Clouds 31 1008 62 10000 3.49 67 05:22 07.05.2022
3798 Clouds 27 1007 79 10000 1.84 41 02:21 07.05.2022
3799 Clouds 27 1006 83 8238 0.67 333 23:38 06.05.2022
3800 Clouds 27 1006 81 10000 0.59 319 22:31 06.05.2022
3801 Clouds 27 1006 80 10000 0.52 252 21:43 06.05.2022
3802 Rain 27 1007 79 10000 0.99 215 20:35 06.05.2022
3803 Rain 28 1007 75 10000 1.55 199 19:31 06.05.2022
3804 Rain 28 1008 74 10000 1.7 198 19:00 06.05.2022
3805 Rain 28 1008 74 10000 1.46 200 18:19 06.05.2022
3806 Rain 29 1008 75 10000 1.98 185 16:53 06.05.2022
3807 Rain 29 1007 76 10000 2.41 179 15:42 06.05.2022
3808 Rain 29 1007 77 10000 2.67 185 14:53 06.05.2022
3809 Rain 28 1005 76 10000 4.63 178 12:56 06.05.2022
3810 Rain 29 1005 76 10000 4.63 178 12:37 06.05.2022
3811 Clouds 31 1005 72 10000 5.6 174 11:42 06.05.2022
3812 Clouds 34 1005 64 10000 5.73 162 10:30 06.05.2022
3813 Clouds 32 1005 63 10000 5 140 09:45 06.05.2022
3814 Clouds 32 1006 61 10000 4.57 112 08:27 06.05.2022
3815 Clouds 31 1007 64 10000 2.45 103 06:48 06.05.2022
3816 Clouds 32 1008 67 7800 1.87 125 05:23 06.05.2022
3817 Clouds 28 1007 65 10000 1.51 133 02:47 06.05.2022
3818 Clouds 28 1006 66 10000 0.84 171 00:19 06.05.2022
3819 Clouds 29 1006 63 10000 0.97 127 21:56 05.05.2022
3820 Clouds 29 1006 61 10000 0.81 136 21:19 05.05.2022
3821 Clouds 29 1007 60 10000 1.13 147 19:53 05.05.2022
3822 Rain 29 1007 67 10000 3.4 191 18:31 05.05.2022
3823 Clouds 29 1007 63 10000 4.27 173 16:20 05.05.2022
3824 Clouds 31 1006 58 10000 4.1 167 14:49 05.05.2022
3825 Clouds 32 1004 47 10000 4.19 146 13:22 05.05.2022
3826 Clouds 33 1004 42 10000 3.64 126 12:25 05.05.2022
3827 Clouds 34 1004 41 10000 3.99 110 10:37 05.05.2022
3828 Clouds 34 1004 41 10000 4.46 102 09:39 05.05.2022
3829 Clouds 31 1007 41 10000 3.64 80 07:34 05.05.2022
3830 Clouds 28 1010 55 10000 3.06 63 04:28 05.05.2022
3831 Clouds 25 1009 64 10000 2.95 77 01:50 05.05.2022
3832 Clouds 26 1008 66 10000 2.8 79 01:22 05.05.2022
3833 Clouds 26 1008 65 10000 2.89 72 23:47 04.05.2022
3834 Clouds 26 1008 65 10000 2.36 76 22:27 04.05.2022
3835 Clouds 26 1008 65 10000 2.36 76 21:49 04.05.2022
3836 Clouds 27 1008 65 10000 2.57 86 21:26 04.05.2022
3837 Clouds 27 1009 64 10000 3.04 83 20:22 04.05.2022
3838 Clouds 27 1008 62 10000 3.06 108 19:51 04.05.2022
3839 Rain 27 1009 60 10000 2.99 112 18:51 04.05.2022
3840 Clouds 27 1010 59 10000 2.83 111 18:22 04.05.2022
3841 Clouds 28 1010 59 10000 2.83 111 17:30 04.05.2022
3842 Clouds 29 1010 57 10000 2.75 121 15:38 04.05.2022
3843 Clouds 30 1011 100 10000 3.58 134 15:20 04.05.2022
3844 Clouds 30 1011 100 10000 3.24 133 14:20 04.05.2022
3845 Clouds 30 1010 100 10000 0.93 152 13:20 04.05.2022
3846 Clouds 29 1007 56 10000 0.41 359 12:29 04.05.2022
3847 Clouds 29 1007 56 10000 0.41 359 12:29 04.05.2022
3848 Clouds 28 1008 56 10000 0.91 358 10:40 04.05.2022
3849 Clouds 28 1008 57 10000 1.45 351 09:38 04.05.2022
3850 Clouds 28 1009 60 10000 1.52 357 08:34 04.05.2022
3851 Clouds 27 1011 52 10000 2.02 40 05:53 04.05.2022
3852 Clouds 24 1012 63 10000 2.15 326 02:49 04.05.2022
3853 Clouds 24 1010 65 10000 1.92 321 23:41 03.05.2022
3854 Clouds 24 1009 64 10000 1.33 29 22:20 03.05.2022
3855 Clouds 24 1009 64 10000 1.33 29 21:36 03.05.2022
3856 Clouds 24 1010 64 10000 1.81 46 20:52 03.05.2022
3857 Clouds 25 1011 64 10000 2.74 77 19:44 03.05.2022
3858 Clouds 25 1011 63 10000 3.63 83 18:50 03.05.2022
3859 Clouds 26 1011 63 10000 4.23 79 17:38 03.05.2022
3860 Clouds 26 1011 62 10000 4.67 83 16:35 03.05.2022
3861 Clouds 26 1010 61 10000 4.67 83 14:51 03.05.2022
3862 Clouds 27 1009 57 10000 4.64 71 12:47 03.05.2022
3863 Clouds 28 1008 54 10000 4.24 85 12:25 03.05.2022
3864 Clouds 28 1008 54 10000 4.24 85 12:25 03.05.2022
3865 Clouds 28 1008 52 10000 3.83 92 10:52 03.05.2022
3866 Clouds 28 1009 54 10000 2.37 73 08:58 03.05.2022
3867 Clouds 27 1011 57 10000 2.54 31 06:46 03.05.2022
3868 Clouds 25 1012 65 10000 2.93 39 04:58 03.05.2022
3869 Clouds 23 1009 64 10000 2.22 53 23:44 02.05.2022
3870 Clouds 24 1008 66 10000 2.43 33 22:34 02.05.2022
3871 Clouds 24 1008 67 10000 3.03 45 21:49 02.05.2022
3872 Clouds 24 1008 66 10000 3.66 57 20:50 02.05.2022
3873 Clouds 25 1009 64 10000 5.12 76 18:35 02.05.2022
3874 Clouds 25 1010 63 10000 5.4 81 17:53 02.05.2022
3875 Clouds 25 1010 63 10000 5.4 81 17:33 02.05.2022
3876 Clouds 26 1009 65 10000 6.06 88 16:20 02.05.2022
3877 Clouds 27 1008 66 10000 5.86 84 15:19 02.05.2022
3878 Clouds 27 1007 68 10000 6.02 84 13:48 02.05.2022
3879 Clouds 27 1005 66 10000 4.72 76 12:18 02.05.2022
3880 Clouds 28 1005 65 10000 4.49 82 10:25 02.05.2022
3881 Rain 29 1006 64 5747 3.36 83 08:46 02.05.2022
3882 Clouds 29 1007 58 8872 2.09 53 07:39 02.05.2022
3883 Rain 26 1008 75 10000 4.08 87 01:58 02.05.2022
3884 Rain 26 1006 76 6640 1.52 351 00:23 02.05.2022
3885 Clouds 27 1006 76 6640 1.52 351 23:46 01.05.2022
3886 Clouds 27 1005 71 10000 1.44 262 22:20 01.05.2022
3887 Clouds 29 1005 67 10000 1.76 218 20:58 01.05.2022
3888 Rain 30 1006 72 10000 1.71 193 19:49 01.05.2022
3889 Rain 30 1006 72 10000 2.64 193 18:55 01.05.2022
3890 Rain 31 1007 66 10000 3.26 197 18:18 01.05.2022
3891 Clouds 31 1006 64 10000 4.27 186 16:55 01.05.2022
3892 Clouds 31 1006 61 10000 4.23 191 16:23 01.05.2022
3893 Rain 30 1005 60 10000 4.23 184 15:22 01.05.2022
3894 Clouds 33 1005 100 10000 4.28 176 13:23 01.05.2022
3895 Clouds 35 1004 100 10000 4.74 178 10:46 01.05.2022
3896 Clouds 35 1006 100 10000 1.95 144 08:51 01.05.2022
3897 Rain 33 1008 100 10000 2.68 159 06:53 01.05.2022
3898 Rain 30 1009 100 10000 2.39 142 02:51 01.05.2022
3899 Clouds 30 1004 66 10000 2.7 173 22:52 30.04.2022
3900 Clouds 30 1004 66 10000 2.67 173 21:35 30.04.2022
3901 Clouds 31 1005 63 10000 3.42 183 20:24 30.04.2022
3902 Rain 31 1006 66 10000 3.28 184 19:33 30.04.2022
3903 Clouds 32 1007 65 10000 5.35 182 17:38 30.04.2022
3904 Clouds 32 1007 63 10000 4.71 170 16:30 30.04.2022
3905 Clouds 32 1006 59 10000 5.61 133 15:19 30.04.2022
3906 Rain 34 1006 100 10000 5.61 133 14:31 30.04.2022
3907 Clouds 34 1004 100 10000 6.13 178 12:28 30.04.2022
3908 Clouds 34 1004 100 10000 6.13 178 11:32 30.04.2022
3909 Rain 35 1006 100 10000 5.39 180 10:31 30.04.2022
3910 Clouds 35 1007 100 10000 3.45 153 08:34 30.04.2022
3911 Rain 34 1010 100 10000 2.88 161 05:19 30.04.2022
3912 Clouds 30 1007 64 10000 3.29 157 00:35 30.04.2022
3913 Clouds 30 1006 63 10000 3.63 176 23:29 29.04.2022
3914 Clouds 30 1005 62 10000 3.97 173 22:29 29.04.2022
3915 Clouds 30 1006 59 10000 3.79 166 21:26 29.04.2022
3916 Rain 31 1006 59 10000 3.79 166 20:36 29.04.2022
3917 Rain 31 1006 64 10000 4.35 166 19:33 29.04.2022
3918 Rain 31 1007 62 10000 4.7 178 17:38 29.04.2022
3919 Rain 32 1007 60 10000 4.63 189 16:43 29.04.2022
3920 Clouds 33 1005 52 10000 4.42 161 14:38 29.04.2022
3921 Clouds 33 1005 52 10000 4.42 161 14:38 29.04.2022
3922 Clouds 33 1005 52 10000 4.42 161 14:38 29.04.2022
3923 Clouds 33 1005 52 10000 4.42 161 14:38 29.04.2022
3924 Rain 33 1004 49 10000 4.43 168 13:59 29.04.2022
3925 Clouds 36 1005 100 10000 4.43 165 12:41 29.04.2022
3926 Clouds 36 1005 100 10000 2.24 148 10:56 29.04.2022
3927 Clouds 35 1009 100 10000 1.84 170 07:58 29.04.2022
3928 Clouds 34 1009 100 10000 1.71 160 07:27 29.04.2022
3929 Clouds 34 1010 100 10000 1.71 160 06:34 29.04.2022
3930 Clouds 28 1009 71 10000 1.34 222 03:23 29.04.2022
3931 Rain 26 1008 75 10000 1.07 264 00:18 29.04.2022
3932 Rain 27 1006 75 10000 2.05 217 23:26 28.04.2022
3933 Rain 26 1006 75 10000 2.05 217 22:37 28.04.2022
3934 Rain 26 1007 76 10000 1.17 199 21:44 28.04.2022
3935 Rain 27 1008 78 10000 1.19 116 20:49 28.04.2022
3936 Rain 27 1008 76 10000 2.97 127 19:57 28.04.2022
3937 Rain 27 1008 76 10000 2.97 127 19:38 28.04.2022
3938 Rain 27 1009 75 10000 4.41 117 19:19 28.04.2022
3939 Rain 26 1009 75 10000 2.85 148 17:55 28.04.2022
3940 Rain 27 1009 68 10000 3.23 169 16:58 28.04.2022
3941 Rain 27 1009 63 10000 2.09 132 16:21 28.04.2022
3942 Rain 30 1009 63 10000 2.09 132 15:49 28.04.2022
3943 Rain 30 1006 63 10000 3.66 131 15:18 28.04.2022
3944 Rain 34 1006 58 10000 4.42 117 13:42 28.04.2022
3945 Rain 35 1006 67 10000 7.32 86 12:30 28.04.2022
3946 Rain 35 1006 67 10000 7.32 86 12:30 28.04.2022
3947 Rain 36 1004 51 10000 5.18 153 11:38 28.04.2022
3948 Rain 36 1004 42 10000 6.01 186 10:27 28.04.2022
3949 Rain 36 1004 42 10000 6.01 186 09:50 28.04.2022
3950 Clouds 36 1005 42 10000 5.1 178 07:42 28.04.2022
3951 Clouds 35 1007 43 10000 4.73 179 06:51 28.04.2022
3952 Clouds 35 1007 45 10000 4.26 180 05:53 28.04.2022
3953 Clouds 34 1008 49 10000 3.96 178 04:43 28.04.2022
3954 Clouds 32 1008 60 10000 3.62 182 02:41 28.04.2022
3955 Rain 31 1005 70 10000 3.84 187 23:36 27.04.2022
3956 Rain 31 1005 69 10000 5.09 188 22:22 27.04.2022
3957 Clouds 31 1005 69 10000 5.09 188 21:46 27.04.2022
3958 Clouds 31 1005 69 10000 5.42 186 20:46 27.04.2022
3959 Rain 32 1005 69 10000 5.63 185 19:57 27.04.2022
3960 Clouds 32 1005 70 10000 5.69 185 19:36 27.04.2022
3961 Rain 33 1006 70 10000 6.18 183 18:41 27.04.2022
3962 Rain 33 1006 69 10000 6.22 182 18:20 27.04.2022
3963 Clouds 34 1005 60 10000 5.47 170 16:18 27.04.2022
3964 Clouds 38 1003 43 10000 5.24 158 13:18 27.04.2022
3965 Clouds 38 1002 35 10000 3.2 144 11:25 27.04.2022
3966 Clouds 38 1002 35 10000 3.2 144 10:45 27.04.2022
3967 Clouds 36 1006 38 10000 0.64 143 08:22 27.04.2022
3968 Clouds 35 1007 45 10000 0.76 193 06:41 27.04.2022
3969 Clouds 29 1008 67 10000 2.89 188 02:31 27.04.2022
3970 Clouds 30 1006 71 10000 4.07 188 01:21 27.04.2022
3971 Clouds 30 1006 71 10000 4.49 191 00:27 27.04.2022
3972 Clouds 30 1006 72 10000 4.85 190 23:24 26.04.2022
3973 Clouds 31 1006 72 10000 4.85 190 22:45 26.04.2022
3974 Clouds 31 1005 71 10000 5.26 185 22:19 26.04.2022
3975 Rain 31 1006 71 10000 5.86 177 21:19 26.04.2022
3976 Clouds 31 1006 71 10000 5.86 177 20:37 26.04.2022
3977 Rain 31 1006 71 10000 6.45 174 19:45 26.04.2022
3978 Rain 31 1007 70 10000 6.71 176 19:26 26.04.2022
3979 Rain 31 1007 70 10000 6.71 176 18:31 26.04.2022
3980 Clouds 31 1007 69 10000 6.54 175 17:38 26.04.2022
3981 Clouds 32 1007 67 10000 6.68 185 15:32 26.04.2022
3982 Clouds 33 1005 65 10000 7.31 190 13:40 26.04.2022
3983 Clouds 34 1004 54 10000 6.85 177 12:47 26.04.2022
3984 Clouds 35 1003 46 10000 6.15 161 11:20 26.04.2022
3985 Rain 34 1003 46 10000 6.15 161 10:30 26.04.2022
3986 Rain 30 1005 43 10000 5.72 174 08:32 26.04.2022
3987 Clouds 33 1008 53 10000 5.12 188 04:39 26.04.2022
3988 Clouds 32 1008 58 10000 5.17 188 03:59 26.04.2022
3989 Clouds 30 1006 71 10000 4.14 184 00:46 26.04.2022
3990 Rain 30 1006 70 10000 4.26 184 23:48 25.04.2022
3991 Rain 31 1005 70 10000 4.87 187 21:49 25.04.2022
3992 Rain 31 1006 70 10000 5.29 189 21:23 25.04.2022
3993 Rain 31 1006 72 10000 6.11 185 19:39 25.04.2022
3994 Rain 31 1007 70 10000 6.92 185 18:25 25.04.2022
3995 Rain 31 1007 70 10000 6.92 185 17:39 25.04.2022
3996 Clouds 32 1006 66 10000 7.35 189 15:51 25.04.2022
3997 Rain 32 1005 62 10000 7.1 191 15:18 25.04.2022
3998 Clouds 33 1004 57 10000 6.63 174 13:59 25.04.2022
3999 Clouds 36 1003 48 10000 6.2 160 12:40 25.04.2022
4000 Rain 37 1004 42 10000 5.01 173 10:29 25.04.2022
4001 Clear 36 1004 42 10000 5.01 173 09:36 25.04.2022
4002 Clouds 35 1006 44 10000 5.69 181 07:34 25.04.2022
4003 Clouds 34 1008 49 10000 5.18 185 05:53 25.04.2022
4004 Clear 29 1006 72 10000 4.09 184 01:24 25.04.2022
4005 Clear 30 1006 71 10000 4.16 185 23:54 24.04.2022
4006 Clear 29 1005 71 10000 4.43 186 22:53 24.04.2022
4007 Clear 29 1005 71 10000 4.43 186 22:32 24.04.2022
4008 Clear 29 1005 71 10000 4.43 186 22:32 24.04.2022
4009 Clear 30 1005 71 10000 4.67 189 21:54 24.04.2022
4010 Clear 30 1005 70 10000 5.23 188 21:20 24.04.2022
4011 Clear 29 1005 71 10000 5.18 185 20:38 24.04.2022
4012 Clear 30 1006 71 10000 5.7 186 19:50 24.04.2022
4013 Clear 31 1007 69 10000 6.11 182 18:28 24.04.2022
4014 Clear 31 1007 69 10000 6.11 182 17:40 24.04.2022
4015 Clear 31 1007 67 10000 6.08 179 17:19 24.04.2022
4016 Clear 32 1007 67 10000 6.08 179 16:48 24.04.2022
4017 Rain 31 1006 65 10000 5.97 179 16:20 24.04.2022
4018 Rain 32 1006 65 10000 5.97 179 15:31 24.04.2022
4019 Rain 32 1006 65 10000 5.97 179 15:31 24.04.2022
4020 Rain 33 1005 58 10000 6.12 179 14:19 24.04.2022
4021 Clouds 34 1004 50 10000 6.38 174 13:26 24.04.2022
4022 Clouds 34 1004 50 10000 6.38 174 13:26 24.04.2022
4023 Clouds 35 1004 50 10000 6.38 174 12:35 24.04.2022
4024 Clouds 36 1004 43 10000 5.8 168 11:34 24.04.2022
4025 Clouds 35 1004 41 10000 5.68 171 10:30 24.04.2022
4026 Clouds 37 1007 100 10000 5.49 180 09:29 24.04.2022
4027 Clear 37 1009 100 10000 4.76 183 06:46 24.04.2022
4028 Clear 33 1010 100 10000 4.14 191 03:57 24.04.2022
4029 Clouds 29 1008 70 10000 3.76 192 01:38 24.04.2022
4030 Clouds 29 1008 70 10000 3.76 192 01:38 24.04.2022
4031 Clouds 30 1006 72 10000 3.57 186 00:29 24.04.2022
4032 Clouds 30 1006 72 10000 3.57 186 23:44 23.04.2022
4033 Clear 30 1006 71 10000 3.87 182 23:21 23.04.2022
4034 Clear 30 1006 71 10000 4.18 188 21:51 23.04.2022
4035 Clear 30 1006 71 10000 4.18 188 21:33 23.04.2022
4036 Clear 31 1006 71 10000 4.68 187 20:45 23.04.2022
4037 Clear 30 1007 71 10000 5.29 188 19:47 23.04.2022
4038 Clear 30 1008 70 10000 5.63 187 19:19 23.04.2022
4039 Clear 31 1008 70 10000 5.63 187 18:52 23.04.2022
4040 Clear 30 1008 69 10000 5.71 189 17:51 23.04.2022
4041 Clear 30 1008 68 10000 5.62 188 17:20 23.04.2022
4042 Rain 31 1008 68 10000 5.62 188 16:40 23.04.2022
4043 Clear 32 1007 63 10000 5.92 178 15:20 23.04.2022
4044 Clear 35 1006 51 10000 6.15 175 12:44 23.04.2022
4045 Clear 37 1005 41 10000 5.39 175 10:43 23.04.2022
4046 Clear 34 1006 40 10000 5.29 179 09:30 23.04.2022
4047 Clear 35 1011 100 10000 4.61 190 06:29 23.04.2022
4048 Clear 31 1010 57 10000 3.82 186 03:54 23.04.2022
4049 Clear 28 1008 72 10000 3.22 183 00:53 23.04.2022
4050 Clear 29 1007 71 10000 3.56 181 23:29 22.04.2022
4051 Clear 29 1007 70 10000 3.56 184 22:19 22.04.2022
4052 Clear 29 1007 70 10000 3.56 184 21:41 22.04.2022
4053 Clear 30 1008 69 10000 3.74 186 20:45 22.04.2022
4054 Clouds 30 1009 68 10000 3.87 186 20:25 22.04.2022
4055 Clouds 31 1009 70 10000 4.48 191 19:18 22.04.2022
4056 Clouds 30 1009 70 10000 4.48 191 18:36 22.04.2022
4057 Clouds 31 1010 70 10000 4.67 192 17:39 22.04.2022
4058 Clouds 31 1010 68 10000 4.63 204 16:32 22.04.2022
4059 Clouds 31 1009 66 10000 4.81 207 15:32 22.04.2022
4060 Clouds 31 1009 65 10000 6.54 203 14:44 22.04.2022
4061 Clouds 34 1008 60 10000 6.25 192 13:43 22.04.2022
4062 Clouds 34 1007 49 10000 5.82 184 12:57 22.04.2022
4063 Clouds 37 1008 100 10000 5.03 173 11:43 22.04.2022
4064 Clouds 37 1008 100 10000 5.11 173 11:20 22.04.2022
4065 Clouds 37 1008 100 10000 5.11 173 10:47 22.04.2022
4066 Clouds 37 1008 100 10000 5.2 180 10:27 22.04.2022
4067 Clouds 37 1008 100 10000 5.2 180 09:42 22.04.2022
4068 Clouds 36 1009 100 10000 5.41 185 08:49 22.04.2022
4069 Clouds 35 1011 100 10000 5.15 185 06:56 22.04.2022
4070 Clouds 28 1010 69 10000 2.68 175 01:53 22.04.2022
4071 Clouds 28 1008 71 10000 2.7 180 23:53 21.04.2022
4072 Clouds 27 1008 71 10000 3.37 182 22:59 21.04.2022
4073 Clouds 27 1008 71 10000 3.67 183 21:59 21.04.2022
4074 Clouds 29 1008 71 10000 3.73 180 20:34 21.04.2022
4075 Rain 29 1008 70 10000 4.74 188 19:53 21.04.2022
4076 Rain 29 1009 69 10000 5.05 187 18:35 21.04.2022
4077 Rain 29 1009 67 10000 5.09 187 17:49 21.04.2022
4078 Clouds 29 1009 62 10000 5.28 187 16:28 21.04.2022
4079 Clear 31 1008 60 10000 5.04 182 15:20 21.04.2022
4080 Clear 32 1008 60 10000 5.04 182 14:38 21.04.2022
4081 Clouds 33 1006 53 10000 5.07 171 13:23 21.04.2022
4082 Clouds 33 1006 53 10000 5.07 171 12:41 21.04.2022
4083 Clouds 33 1006 46 10000 5.06 187 10:45 21.04.2022
4084 Clouds 33 1007 44 10000 5.62 186 08:54 21.04.2022
4085 Clouds 27 1009 45 10000 4.36 176 06:55 21.04.2022
4086 Clouds 27 1009 45 10000 4.36 176 06:55 21.04.2022
4087 Clouds 30 1010 52 10000 2.6 173 04:36 21.04.2022
4088 Clouds 30 1010 64 10000 1.84 194 03:26 21.04.2022
4089 Clouds 29 1010 64 10000 1.84 194 02:46 21.04.2022
4090 Rain 28 1008 72 10000 1.69 204 00:43 21.04.2022
4091 Clouds 28 1008 71 10000 2.05 197 23:48 20.04.2022
4092 Rain 29 1008 71 10000 2.51 197 23:21 20.04.2022
4093 Clouds 29 1008 71 10000 2.51 197 22:45 20.04.2022
4094 Clouds 29 1007 70 10000 3.28 196 22:18 20.04.2022
4095 Clouds 29 1008 70 10000 3.57 199 21:23 20.04.2022
4096 Clouds 29 1008 69 10000 3.24 205 20:22 20.04.2022
4097 Clouds 29 1008 69 10000 3.26 195 19:51 20.04.2022
4098 Clouds 29 1008 69 10000 3.26 195 19:51 20.04.2022
4099 Clouds 31 1009 68 10000 3.39 192 18:55 20.04.2022
4100 Rain 31 1010 66 10000 3.35 189 17:53 20.04.2022
4101 Clouds 32 1010 64 10000 3.17 187 16:40 20.04.2022
4102 Clouds 32 1009 62 10000 3.16 194 15:50 20.04.2022
4103 Clouds 33 1008 55 10000 4.65 190 13:41 20.04.2022
4104 Clouds 34 1006 47 10000 2.87 199 11:43 20.04.2022
4105 Clouds 35 1006 47 10000 4.55 200 10:53 20.04.2022
4106 Rain 36 1007 45 10000 5.27 200 09:45 20.04.2022
4107 Clouds 35 1007 40 10000 3.3 198 08:54 20.04.2022
4108 Clouds 34 1009 40 10000 1.22 184 08:20 20.04.2022
4109 Clouds 34 1009 42 10000 1.82 173 08:20 20.04.2022
4110 Clouds 33 1010 44 10000 1.47 132 06:49 20.04.2022
4111 Clouds 29 1012 60 10000 0.78 10 03:33 20.04.2022
4112 Clouds 27 1009 77 10000 0.8 282 00:22 20.04.2022
4113 Clouds 27 1009 77 10000 0.8 282 23:31 19.04.2022
4114 Clouds 29 1009 74 10000 1.09 247 22:24 19.04.2022
4115 Clouds 29 1009 74 10000 1.09 247 21:55 19.04.2022
4116 Clouds 29 1009 73 10000 1.05 235 21:19 19.04.2022
4117 Clouds 29 1009 73 10000 1.05 235 20:37 19.04.2022
4118 Clouds 29 1010 72 10000 1.35 238 19:43 19.04.2022
4119 Clouds 29 1011 72 10000 1.98 225 18:46 19.04.2022
4120 Clouds 29 1011 72 10000 1.98 225 18:46 19.04.2022
4121 Clouds 29 1011 71 10000 2.39 223 17:27 19.04.2022
4122 Clouds 29 1011 71 10000 2.39 223 16:43 19.04.2022
4123 Clouds 29 1010 70 10000 2.34 224 16:21 19.04.2022
4124 Clouds 30 1009 69 10000 2.92 221 14:48 19.04.2022
4125 Clouds 31 1009 70 10000 2.37 237 13:34 19.04.2022
4126 Clouds 31 1009 68 10000 2.15 239 12:50 19.04.2022
4127 Clouds 32 1009 65 10000 1.98 237 11:39 19.04.2022
4128 Rain 32 1009 66 10000 0.92 111 09:57 19.04.2022
4129 Clouds 31 1010 69 10000 0.71 120 08:54 19.04.2022
4130 Clouds 29 1013 64 10000 1.64 58 04:41 19.04.2022
4131 Clouds 27 1012 72 10000 1.95 55 03:25 19.04.2022
4132 Clouds 26 1010 80 10000 1.52 300 00:27 19.04.2022
4133 Clouds 26 1009 79 10000 1.42 311 23:25 18.04.2022
4134 Clouds 26 1010 79 10000 0.43 108 21:29 18.04.2022
4135 Clouds 26 1010 79 10000 0.43 108 20:53 18.04.2022
4136 Rain 26 1011 79 10000 0.15 331 20:27 18.04.2022
4137 Clouds 27 1010 71 10000 2.66 185 19:42 18.04.2022
4138 Clouds 26 1010 71 10000 2.74 184 18:54 18.04.2022
4139 Clouds 27 1011 70 10000 2.77 180 17:54 18.04.2022
4140 Clouds 26 1011 70 10000 2.77 180 17:33 18.04.2022
4141 Rain 26 1010 70 10000 3.18 177 16:44 18.04.2022
4142 Rain 26 1010 69 10000 3.3 178 16:21 18.04.2022
4143 Rain 26 1009 68 10000 3.33 176 14:43 18.04.2022
4144 Rain 29 1008 63 10000 3.73 160 13:35 18.04.2022
4145 Rain 29 1008 63 10000 3.73 160 13:35 18.04.2022
4146 Clouds 29 1006 53 10000 4.69 163 12:29 18.04.2022
4147 Clouds 34 1006 50 10000 5.04 160 11:27 18.04.2022
4148 Clouds 35 1006 50 10000 5.04 160 10:31 18.04.2022
4149 Rain 34 1007 47 10000 4.37 158 09:30 18.04.2022
4150 Rain 33 1009 55 10000 3.83 148 07:42 18.04.2022
4151 Rain 31 1011 61 10000 2.63 113 05:35 18.04.2022
4152 Clouds 28 1008 73 10000 1.58 156 23:51 17.04.2022
4153 Clouds 28 1007 71 10000 2.37 157 22:40 17.04.2022
4154 Clouds 28 1008 69 10000 2.6 157 21:42 17.04.2022
4155 Clouds 28 1008 67 10000 2.76 164 21:21 17.04.2022
4156 Clouds 28 1008 67 10000 2.76 164 20:33 17.04.2022
4157 Rain 28 1009 63 10000 3.91 137 19:23 17.04.2022
4158 Clouds 28 1009 60 10000 4.02 109 17:43 17.04.2022
4159 Clouds 28 1009 60 10000 7.6 95 15:39 17.04.2022
4160 Clouds 30 1008 65 10000 8.3 96 14:54 17.04.2022
4161 Clouds 31 1006 54 10000 6.08 143 13:47 17.04.2022
4162 Clouds 32 1005 47 10000 5.8 163 12:58 17.04.2022
4163 Clouds 33 1003 40 10000 5.64 169 12:18 17.04.2022
4164 Clouds 34 1003 39 10000 5.09 188 10:46 17.04.2022
4165 Clouds 34 1004 39 10000 5.01 176 10:27 17.04.2022
4166 Clouds 34 1004 39 10000 5.01 176 10:27 17.04.2022
4167 Clouds 36 1005 40 10000 5.37 175 09:28 17.04.2022
4168 Clouds 36 1005 40 10000 5.37 175 08:42 17.04.2022
4169 Clouds 36 1008 45 10000 5.08 174 07:26 17.04.2022
4170 Clear 33 1009 55 10000 4.18 167 03:53 17.04.2022
4171 Clouds 29 1007 70 10000 4.38 172 00:55 17.04.2022
4172 Clouds 30 1006 70 10000 4.54 172 23:50 16.04.2022
4173 Rain 31 1006 69 10000 4.95 160 22:27 16.04.2022
4174 Clouds 31 1006 69 10000 4.83 161 21:29 16.04.2022
4175 Rain 31 1006 68 10000 5.28 176 19:57 16.04.2022
4176 Clouds 32 1006 69 10000 6.21 174 18:55 16.04.2022
4177 Rain 32 1007 68 10000 6.79 181 17:40 16.04.2022
4178 Rain 33 1007 65 10000 6.95 179 16:34 16.04.2022
4179 Clouds 33 1005 62 10000 6.61 176 15:43 16.04.2022
4180 Clouds 32 1005 61 10000 6.73 183 14:55 16.04.2022
4181 Clear 35 1004 51 10000 6.82 182 13:57 16.04.2022
4182 Clear 36 1003 38 10000 5.39 176 13:28 16.04.2022
4183 Clear 38 1002 34 10000 5.34 190 12:20 16.04.2022
4184 Clear 39 1003 33 10000 5.58 184 10:49 16.04.2022
4185 Rain 39 1003 33 10000 6.12 172 09:44 16.04.2022
4186 Clear 39 1004 34 10000 6.15 166 08:57 16.04.2022
4187 Clear 37 1005 36 10000 5.49 165 07:32 16.04.2022
4188 Clear 36 1007 39 10000 4.69 159 06:46 16.04.2022
4189 Clear 30 1008 61 10000 2.75 156 02:33 16.04.2022
4190 Clear 29 1005 67 10000 2.14 181 00:23 16.04.2022
4191 Clear 30 1005 67 10000 2.65 190 22:57 15.04.2022
4192 Clear 30 1005 67 10000 2.65 190 22:31 15.04.2022
4193 Clear 31 1005 67 10000 3.58 196 21:47 15.04.2022
4194 Clear 30 1005 67 10000 4.39 197 20:56 15.04.2022
4195 Rain 31 1006 67 10000 5.06 200 19:59 15.04.2022
4196 Clear 31 1006 68 10000 5.07 194 19:39 15.04.2022
4197 Clear 32 1006 67 10000 5.35 197 18:46 15.04.2022
4198 Clear 32 1006 62 10000 5.66 195 18:24 15.04.2022
4199 Rain 33 1006 62 10000 5.66 195 17:32 15.04.2022
4200 Rain 33 1005 59 10000 6.62 183 16:26 15.04.2022
4201 Rain 33 1005 59 10000 6.62 183 15:59 15.04.2022
4202 Rain 34 1004 54 10000 5.87 178 14:44 15.04.2022
4203 Clear 37 1003 45 10000 6.1 171 13:34 15.04.2022
4204 Clear 38 1003 36 10000 5.3 165 12:40 15.04.2022
4205 Clear 39 1003 32 10000 5.64 171 11:55 15.04.2022
4206 Rain 39 1003 30 10000 6.16 173 10:58 15.04.2022
4207 Clear 39 1003 30 10000 6.16 173 10:40 15.04.2022
4208 Rain 39 1003 29 10000 6 171 09:41 15.04.2022
4209 Clear 39 1004 30 10000 4.85 172 09:19 15.04.2022
4210 Clouds 36 1007 39 10000 3.21 174 07:24 15.04.2022
4211 Clouds 35 1008 43 10000 2.46 179 05:58 15.04.2022
4212 Clouds 30 1008 58 10000 1.45 215 02:34 15.04.2022
4213 Clouds 30 1006 68 10000 3.06 179 23:30 14.04.2022
4214 Clouds 29 1005 68 10000 3.38 181 22:47 14.04.2022
4215 Clouds 29 1005 68 10000 3.88 179 22:29 14.04.2022
4216 Clouds 30 1005 68 10000 3.88 179 21:57 14.04.2022
4217 Rain 30 1005 68 10000 4.27 175 20:35 14.04.2022
4218 Rain 32 1006 63 10000 5.06 182 19:23 14.04.2022
4219 Rain 32 1006 60 10000 5.64 189 18:18 14.04.2022
4220 Clouds 31 1006 57 10000 5.81 193 17:28 14.04.2022
4221 Clouds 33 1006 57 10000 5.81 193 16:33 14.04.2022
4222 Rain 36 1004 33 10000 3.46 170 14:28 14.04.2022
4223 Clear 36 1003 40 10000 4.94 164 13:39 14.04.2022
4224 Clear 37 1003 34 10000 4.93 161 12:51 14.04.2022
4225 Rain 37 1003 34 10000 4.93 161 12:30 14.04.2022
4226 Clear 39 1002 26 10000 5.1 177 11:24 14.04.2022
4227 Rain 38 1002 26 10000 5.1 177 10:41 14.04.2022
4228 Clear 38 1003 24 10000 3.83 179 09:57 14.04.2022
4229 Rain 37 1004 25 10000 2.58 190 08:44 14.04.2022
4230 Clouds 36 1007 38 10000 2.52 193 06:51 14.04.2022
4231 Clouds 31 1008 64 10000 2.61 195 03:28 14.04.2022
4232 Clouds 29 1004 69 10000 3.81 181 23:25 13.04.2022
4233 Clouds 29 1004 68 10000 3.91 180 22:19 13.04.2022
4234 Clouds 31 1004 68 10000 3.91 180 21:34 13.04.2022
4235 Rain 30 1005 66 10000 4.04 185 20:22 13.04.2022
4236 Rain 31 1005 68 10000 4.39 181 19:32 13.04.2022
4237 Clouds 31 1006 65 10000 5.56 187 18:20 13.04.2022
4238 Rain 32 1006 61 10000 5.97 183 17:24 13.04.2022
4239 Clouds 33 1006 61 10000 5.97 183 16:34 13.04.2022
4240 Rain 33 1005 57 10000 6.36 186 15:38 13.04.2022
4241 Clouds 35 1004 53 10000 6.56 187 14:50 13.04.2022
4242 Clouds 34 1004 46 10000 5.65 160 14:19 13.04.2022
4243 Clouds 36 1003 44 10000 5.87 168 13:28 13.04.2022
4244 Clouds 37 1002 38 10000 5.22 176 12:25 13.04.2022
4245 Clouds 37 1002 38 10000 5.22 176 12:25 13.04.2022
4246 Clouds 38 1003 38 10000 5.61 175 10:49 13.04.2022
4247 Clouds 38 1003 38 10000 6.43 170 09:41 13.04.2022
4248 Clouds 38 1004 37 10000 6.04 167 08:42 13.04.2022
4249 Rain 35 1007 42 10000 3.58 171 06:51 13.04.2022
4250 Rain 35 1008 46 10000 3.03 181 06:25 13.04.2022
4251 Clouds 34 1008 46 10000 3.03 181 05:36 13.04.2022
4252 Clouds 29 1005 74 10000 3.53 170 00:22 13.04.2022
4253 Rain 29 1005 74 10000 3.53 170 23:45 12.04.2022
4254 Clouds 30 1005 72 10000 4.12 176 22:18 12.04.2022
4255 Clouds 30 1005 72 10000 4.9 181 21:18 12.04.2022
4256 Clouds 30 1005 72 10000 4.9 181 20:41 12.04.2022
4257 Rain 30 1006 70 10000 5.03 181 19:48 12.04.2022
4258 Rain 30 1006 70 10000 5.03 181 19:30 12.04.2022
4259 Rain 30 1007 67 10000 5.32 185 18:26 12.04.2022
4260 Rain 31 1007 67 10000 6.19 181 17:23 12.04.2022
4261 Clouds 31 1006 65 10000 6.49 176 16:22 12.04.2022
4262 Clouds 32 1006 65 10000 6.49 176 15:33 12.04.2022
4263 Clouds 32 1005 60 10000 6.31 179 14:26 12.04.2022
4264 Clouds 35 1005 59 10000 6.47 183 13:36 12.04.2022
4265 Clouds 35 1004 48 10000 6.11 182 12:52 12.04.2022
4266 Clouds 35 1003 42 10000 4.26 167 11:46 12.04.2022
4267 Clouds 34 1003 41 10000 3.85 161 10:35 12.04.2022
4268 Clouds 34 1005 43 10000 4.1 180 09:18 12.04.2022
4269 Clouds 34 1006 41 10000 4.73 172 07:55 12.04.2022
4270 Clouds 33 1009 46 10000 4.08 177 05:50 12.04.2022
4271 Clouds 33 1009 52 10000 4.05 178 04:55 12.04.2022
4272 Rain 29 1007 69 10000 4.12 179 23:59 11.04.2022
4273 Rain 29 1006 68 10000 4.14 179 22:44 11.04.2022
4274 Rain 30 1006 66 10000 3.9 185 21:37 11.04.2022
4275 Rain 30 1007 63 10000 3.87 187 20:56 11.04.2022
4276 Clouds 30 1007 63 10000 4.14 191 20:29 11.04.2022
4277 Clouds 30 1007 65 10000 4.73 191 19:42 11.04.2022
4278 Rain 30 1007 65 10000 5.14 187 19:18 11.04.2022
4279 Rain 30 1007 65 10000 5.14 187 18:47 11.04.2022
4280 Rain 30 1008 68 10000 5.95 184 17:56 11.04.2022
4281 Clear 31 1008 67 10000 5.85 182 16:54 11.04.2022
4282 Clear 31 1008 63 10000 5.85 188 15:54 11.04.2022
4283 Clouds 32 1006 63 10000 6.64 196 13:59 11.04.2022
4284 Clouds 34 1005 48 10000 5.7 179 12:47 11.04.2022
4285 Clouds 34 1004 41 10000 5.51 174 12:29 11.04.2022
4286 Rain 34 1004 41 10000 5.51 174 11:30 11.04.2022
4287 Clouds 35 1004 38 10000 6.17 173 10:24 11.04.2022
4288 Clouds 35 1005 38 10000 5.84 172 08:56 11.04.2022
4289 Clouds 34 1009 46 10000 4.46 181 06:21 11.04.2022
4290 Clouds 29 1008 70 10000 3.19 156 01:23 11.04.2022
4291 Clouds 30 1007 70 10000 3.43 172 22:33 10.04.2022
4292 Clouds 30 1007 68 10000 3.91 178 21:55 10.04.2022
4293 Clouds 30 1007 66 10000 4.33 183 21:26 10.04.2022
4294 Clouds 30 1007 66 10000 4.33 183 20:30 10.04.2022
4295 Clouds 30 1007 66 10000 4.6 189 19:41 10.04.2022
4296 Clouds 30 1008 64 10000 5.04 193 19:18 10.04.2022
4297 Clouds 30 1008 64 10000 5.04 193 18:38 10.04.2022
4298 Clouds 30 1009 63 10000 5.41 197 17:51 10.04.2022
4299 Clouds 30 1009 63 10000 5.41 197 17:31 10.04.2022
4300 Clouds 31 1008 62 10000 6.34 195 15:53 10.04.2022
4301 Clouds 33 1007 60 10000 6.42 194 14:49 10.04.2022
4302 Clouds 34 1006 52 10000 5.8 180 13:49 10.04.2022
4303 Clouds 36 1005 42 10000 5.1 173 12:33 10.04.2022
4304 Clouds 36 1005 37 10000 5.22 181 11:45 10.04.2022
4305 Clouds 36 1005 36 10000 6.02 182 11:24 10.04.2022
4306 Clouds 36 1005 36 10000 6.02 182 10:38 10.04.2022
4307 Clouds 36 1005 35 10000 6.43 179 09:46 10.04.2022
4308 Clouds 36 1006 35 10000 6.03 177 08:40 10.04.2022
4309 Clouds 37 1008 37 10000 5.04 176 08:18 10.04.2022
4310 Clouds 35 1009 38 10000 4.49 176 06:59 10.04.2022
4311 Clouds 31 1010 47 10000 3.38 171 03:40 10.04.2022
4312 Clouds 29 1009 60 10000 3.09 172 02:19 10.04.2022
4313 Clouds 29 1008 61 10000 4.26 167 23:54 09.04.2022
4314 Clouds 30 1007 60 10000 4.24 170 22:56 09.04.2022
4315 Clouds 29 1007 60 10000 4.24 170 22:38 09.04.2022
4316 Clouds 30 1008 56 10000 4.04 176 21:23 09.04.2022
4317 Clouds 30 1008 56 10000 4.04 176 20:30 09.04.2022
4318 Clouds 31 1008 57 10000 4.53 184 19:57 09.04.2022
4319 Clouds 31 1008 57 10000 4.53 184 19:39 09.04.2022
4320 Clouds 31 1009 52 10000 5.41 189 18:23 09.04.2022
4321 Clouds 31 1009 52 10000 5.41 189 17:49 09.04.2022
4322 Clouds 31 1008 43 10000 4.33 169 16:57 09.04.2022
4323 Clouds 31 1008 43 10000 4.33 169 16:38 09.04.2022
4324 Clouds 31 1008 43 10000 4.33 169 16:38 09.04.2022
4325 Clouds 31 1008 43 10000 4.33 169 16:38 09.04.2022
4326 Clouds 31 1008 43 10000 4.33 169 16:38 09.04.2022
4327 Clouds 31 1008 43 10000 4.33 169 16:38 09.04.2022
4328 Clouds 33 1008 36 10000 3.06 175 15:50 09.04.2022
4329 Clouds 34 1007 33 10000 2.47 195 15:25 09.04.2022
4330 Clouds 34 1006 31 10000 2.1 202 14:25 09.04.2022
4331 Clouds 35 1005 28 10000 2.27 204 13:26 09.04.2022
4332 Clouds 36 1005 28 10000 2.27 204 12:54 09.04.2022
4333 Clouds 37 1005 26 10000 1.73 201 11:45 09.04.2022
4334 Clouds 36 1005 25 10000 1.38 197 10:51 09.04.2022
4335 Clouds 36 1006 25 10000 1.05 191 10:18 09.04.2022
4336 Clouds 35 1007 26 10000 0.55 175 09:22 09.04.2022
4337 Clouds 34 1008 26 10000 0.59 157 07:49 09.04.2022
4338 Clouds 31 1011 34 10000 1.25 42 03:57 09.04.2022
4339 Clouds 28 1009 40 10000 1.16 89 00:34 09.04.2022
4340 Clouds 28 1009 38 10000 2.5 100 23:22 08.04.2022
4341 Clouds 29 1008 37 10000 2.47 92 21:43 08.04.2022
4342 Clouds 29 1009 36 10000 2.75 93 20:43 08.04.2022
4343 Clouds 30 1010 35 10000 3.23 91 19:46 08.04.2022
4344 Clouds 31 1010 36 10000 3.38 120 18:42 08.04.2022
4345 Clouds 31 1010 33 10000 3.39 106 18:18 08.04.2022
4346 Clouds 32 1010 31 10000 3.2 84 17:27 08.04.2022
4347 Clouds 32 1010 31 10000 3.2 84 16:52 08.04.2022
4348 Clouds 32 1009 29 10000 2.75 67 16:26 08.04.2022
4349 Clouds 32 1009 29 10000 2.75 67 15:33 08.04.2022
4350 Clouds 32 1008 29 10000 1.28 71 14:45 08.04.2022
4351 Clouds 34 1008 27 10000 1.05 179 13:59 08.04.2022
4352 Clouds 34 1007 27 10000 3.01 194 13:30 08.04.2022
4353 Clouds 35 1006 25 10000 2.08 208 12:45 08.04.2022
4354 Clouds 36 1006 22 10000 0.41 117 10:56 08.04.2022
4355 Clouds 36 1007 22 10000 1.25 98 09:41 08.04.2022
4356 Clouds 36 1008 23 10000 1.95 100 08:59 08.04.2022
4357 Clouds 35 1009 24 10000 1.72 95 07:43 08.04.2022
4358 Clouds 34 1011 26 10000 1.53 68 06:44 08.04.2022
4359 Clouds 27 1013 36 10000 2.95 49 02:37 08.04.2022
4360 Clouds 27 1010 39 10000 4.14 79 00:29 08.04.2022
4361 Clouds 28 1010 39 10000 4.14 79 23:42 07.04.2022
4362 Clouds 28 1009 38 10000 3.84 83 22:41 07.04.2022
4363 Clouds 28 1009 37 10000 4.06 82 22:23 07.04.2022
4364 Clouds 28 1009 37 10000 4.06 82 21:58 07.04.2022
4365 Clouds 28 1010 35 10000 4.21 79 21:28 07.04.2022
4366 Clouds 29 1010 35 10000 4.21 79 20:42 07.04.2022
4367 Clouds 29 1011 33 10000 4.71 88 19:25 07.04.2022
4368 Clouds 32 1011 31 10000 5.18 75 17:28 07.04.2022
4369 Rain 32 1011 31 10000 5.18 75 16:51 07.04.2022
4370 Clouds 32 1011 31 10000 5.18 75 16:33 07.04.2022
4371 Clouds 32 1010 30 10000 5.42 68 15:40 07.04.2022
4372 Clouds 33 1008 29 10000 3.05 58 13:52 07.04.2022
4373 Clouds 34 1007 32 10000 0.34 31 13:23 07.04.2022
4374 Clouds 34 1007 32 10000 0.45 108 11:49 07.04.2022
4375 Clouds 35 1006 29 10000 0.81 95 10:46 07.04.2022
4376 Clouds 35 1008 29 10000 2.09 72 08:43 07.04.2022
4377 Clouds 34 1011 31 10000 3.81 74 06:59 07.04.2022
4378 Clouds 32 1013 37 10000 4.35 73 04:36 07.04.2022
4379 Clouds 28 1012 45 10000 3.77 88 02:34 07.04.2022
4380 Clouds 30 1010 48 10000 2.66 86 00:43 07.04.2022
4381 Clouds 30 1009 47 10000 2.39 91 23:28 06.04.2022
4382 Rain 30 1009 47 10000 2.39 91 22:44 06.04.2022
4383 Clouds 31 1010 47 10000 2.73 107 22:19 06.04.2022
4384 Clouds 31 1010 46 10000 3.03 105 20:47 06.04.2022
4385 Rain 31 1011 46 10000 3.22 110 19:59 06.04.2022
4386 Rain 31 1011 46 10000 3.35 123 19:20 06.04.2022
4387 Rain 33 1011 46 10000 3.35 123 18:48 06.04.2022
4388 Clouds 33 1012 44 10000 3.78 109 17:36 06.04.2022
4389 Clouds 34 1012 42 10000 4.17 96 16:39 06.04.2022
4390 Clouds 34 1011 40 10000 4.41 95 16:19 06.04.2022
4391 Clouds 35 1011 40 10000 4.41 95 15:40 06.04.2022
4392 Rain 36 1009 40 10000 4.49 148 13:34 06.04.2022
4393 Rain 37 1007 29 10000 1.58 194 12:29 06.04.2022
4394 Rain 37 1007 29 10000 0.55 178 10:57 06.04.2022
4395 Rain 37 1007 29 10000 0.55 178 10:33 06.04.2022
4396 Clouds 37 1008 28 10000 0.99 56 09:46 06.04.2022
4397 Clouds 37 1009 28 10000 2.03 54 08:51 06.04.2022
4398 Clouds 36 1010 30 10000 2.25 52 07:57 06.04.2022
4399 Clouds 34 1013 37 10000 3.18 52 05:23 06.04.2022
4400 Clouds 28 1011 49 10000 1.96 82 00:20 06.04.2022
4401 Rain 29 1011 49 10000 1.96 82 23:47 05.04.2022
4402 Clouds 30 1011 47 10000 2.35 87 21:48 05.04.2022
4403 Clouds 30 1011 47 10000 2.35 87 21:48 05.04.2022
4404 Clouds 30 1011 47 10000 2.35 87 21:48 05.04.2022
4405 Rain 30 1012 47 10000 2.42 84 20:58 05.04.2022
4406 Rain 30 1012 47 10000 2.69 90 20:23 05.04.2022
4407 Clouds 30 1013 44 10000 3.5 88 18:28 05.04.2022
4408 Rain 32 1013 42 10000 3.63 84 17:20 05.04.2022
4409 Clouds 32 1013 42 10000 3.63 84 16:42 05.04.2022
4410 Clouds 33 1012 39 10000 3.51 86 15:50 05.04.2022
4411 Clouds 33 1012 39 10000 3.51 86 15:30 05.04.2022
4412 Rain 34 1010 36 10000 3.16 98 13:46 05.04.2022
4413 Clouds 35 1008 32 10000 3.25 95 12:29 05.04.2022
4414 Clouds 35 1008 32 10000 3.25 95 11:43 05.04.2022
4415 Clouds 35 1009 32 10000 2.94 101 11:24 05.04.2022
4416 Clouds 36 1009 32 10000 2.98 104 09:31 05.04.2022
4417 Clouds 35 1012 33 10000 3.24 81 08:27 05.04.2022
4418 Clouds 29 1016 45 10000 1.54 56 03:37 05.04.2022
4419 Clouds 26 1013 54 10000 1.78 50 23:38 04.04.2022
4420 Clouds 26 1012 54 10000 2.47 54 22:37 04.04.2022
4421 Clouds 26 1012 52 10000 2.84 61 21:46 04.04.2022
4422 Clouds 27 1013 51 10000 3.02 67 21:18 04.04.2022
4423 Clouds 27 1013 51 10000 3.02 67 20:47 04.04.2022
4424 Clouds 29 1014 49 10000 3.55 74 19:28 04.04.2022
4425 Clouds 29 1014 49 10000 3.55 74 18:40 04.04.2022
4426 Clouds 31 1014 49 10000 3.7 94 17:19 04.04.2022
4427 Clouds 31 1014 49 10000 4.08 108 16:28 04.04.2022
4428 Clouds 31 1014 49 10000 4.08 108 15:33 04.04.2022
4429 Clouds 32 1014 48 10000 4.81 117 14:46 04.04.2022
4430 Clouds 32 1012 40 10000 2.91 71 13:59 04.04.2022
4431 Clouds 32 1011 39 10000 2.96 62 12:58 04.04.2022
4432 Clouds 33 1010 37 10000 3.43 70 11:29 04.04.2022
4433 Clouds 33 1010 36 10000 3.2 57 09:53 04.04.2022
4434 Clouds 28 1015 41 10000 2.22 38 05:34 04.04.2022
4435 Clouds 24 1015 51 10000 2.08 11 02:59 04.04.2022
4436 Clouds 22 1012 56 10000 2.35 343 23:19 03.04.2022
4437 Clouds 24 1012 56 10000 2.15 354 22:00 03.04.2022
4438 Clouds 24 1013 55 10000 2.29 16 21:27 03.04.2022
4439 Clouds 24 1013 55 10000 2.29 16 20:30 03.04.2022
4440 Clouds 24 1014 52 10000 3.91 68 18:46 03.04.2022
4441 Clouds 25 1015 52 10000 4.45 72 17:55 03.04.2022
4442 Clouds 25 1015 52 10000 4.45 72 17:35 03.04.2022
4443 Clouds 25 1015 52 10000 5.33 78 16:49 03.04.2022
4444 Clouds 25 1014 52 10000 5.59 84 15:56 03.04.2022
4445 Clouds 26 1013 51 10000 5.41 83 14:25 03.04.2022
4446 Clouds 26 1012 48 10000 4.72 85 13:28 03.04.2022
4447 Clouds 27 1011 45 10000 3.49 54 11:50 03.04.2022
4448 Clouds 29 1012 45 10000 3.05 44 09:57 03.04.2022
4449 Clouds 27 1013 45 10000 2.9 60 08:57 03.04.2022
4450 Clouds 26 1016 47 10000 3.58 35 05:45 03.04.2022
4451 Clouds 23 1015 58 10000 3.72 60 02:55 03.04.2022
4452 Clouds 23 1013 63 10000 2.55 48 23:48 02.04.2022
4453 Clouds 23 1013 63 10000 2 16 22:45 02.04.2022
4454 Clouds 23 1013 62 10000 2.2 351 21:56 02.04.2022
4455 Clouds 23 1013 62 10000 2.12 11 21:20 02.04.2022
4456 Clouds 24 1013 62 10000 2.12 11 20:36 02.04.2022
4457 Clouds 24 1013 62 10000 2.12 11 20:36 02.04.2022
4458 Clouds 24 1015 61 10000 4.34 74 18:47 02.04.2022
4459 Clouds 24 1015 61 10000 5.16 73 18:19 02.04.2022
4460 Clouds 25 1015 60 10000 5.48 72 17:23 02.04.2022
4461 Clouds 24 1015 61 10000 5.53 73 15:55 02.04.2022
4462 Clouds 24 1014 60 10000 5.53 72 15:20 02.04.2022
4463 Clouds 24 1014 60 10000 5.53 72 14:31 02.04.2022
4464 Clouds 25 1013 58 10000 6.09 84 13:34 02.04.2022
4465 Clouds 26 1011 54 10000 7.05 86 12:21 02.04.2022
4466 Clouds 28 1011 51 10000 6.96 85 10:31 02.04.2022
4467 Clouds 29 1012 51 10000 7.24 86 08:33 02.04.2022
4468 Clouds 28 1015 57 10000 3.91 74 05:24 02.04.2022
4469 Clouds 25 1014 60 10000 3.6 48 02:56 02.04.2022
4470 Clouds 27 1011 63 10000 5.02 53 23:54 01.04.2022
4471 Clouds 27 1010 63 10000 5.53 61 22:51 01.04.2022
4472 Clouds 27 1011 63 10000 6.41 67 21:24 01.04.2022
4473 Clouds 27 1011 63 10000 6.41 67 20:48 01.04.2022
4474 Clouds 28 1011 63 10000 6.32 72 19:50 01.04.2022
4475 Clouds 28 1012 62 10000 6.88 75 19:26 01.04.2022
4476 Clouds 29 1012 62 10000 6.88 75 18:42 01.04.2022
4477 Clouds 29 1012 60 10000 6.99 72 17:43 01.04.2022
4478 Clouds 30 1012 58 10000 7.31 69 16:33 01.04.2022
4479 Clouds 30 1010 55 10000 7.63 68 15:18 01.04.2022
4480 Clouds 32 1009 52 10000 7.38 71 14:18 01.04.2022
4481 Clouds 34 1009 53 10000 5.63 71 13:32 01.04.2022
4482 Clouds 34 1007 51 10000 6.13 88 12:30 01.04.2022
4483 Clouds 34 1006 40 10000 4.27 33 10:54 01.04.2022
4484 Clouds 35 1006 40 10000 3.63 15 09:49 01.04.2022
4485 Clouds 34 1009 41 10000 1.99 353 07:50 01.04.2022
4486 Clouds 32 1011 47 10000 2.61 74 05:45 01.04.2022
4487 Clouds 31 1012 52 10000 3.49 84 04:43 01.04.2022
4488 Clouds 30 1011 64 10000 3.5 75 03:21 01.04.2022
4489 Clouds 29 1010 68 10000 2.19 57 01:52 01.04.2022
4490 Clouds 30 1008 67 10000 1.26 316 22:37 31.03.2022
4491 Clouds 29 1007 67 10000 1 268 21:44 31.03.2022
4492 Clouds 30 1007 67 10000 2.2 256 20:51 31.03.2022
4493 Clouds 30 1007 67 10000 2.2 256 20:51 31.03.2022
4494 Clouds 30 1008 67 10000 2.45 242 20:28 31.03.2022
4495 Clouds 31 1008 70 10000 2.62 236 19:43 31.03.2022
4496 Clouds 30 1009 70 10000 3.23 204 18:35 31.03.2022
4497 Rain 33 1009 57 10000 3.58 163 16:53 31.03.2022
4498 Rain 33 1008 47 10000 1.81 115 15:58 31.03.2022
4499 Rain 34 1007 46 10000 0.99 123 15:29 31.03.2022
4500 Rain 34 1007 46 10000 0.99 123 14:49 31.03.2022
4501 Clouds 34 1006 45 10000 0.6 134 13:53 31.03.2022
4502 Clouds 35 1005 43 10000 3 321 11:31 31.03.2022
4503 Clouds 36 1005 38 10000 1.1 157 10:27 31.03.2022
4504 Clouds 37 1005 38 10000 1.1 157 09:40 31.03.2022
4505 Clouds 34 1008 37 10000 1.47 41 07:49 31.03.2022
4506 Clouds 30 1011 55 10000 0.44 304 03:48 31.03.2022
4507 Clouds 28 1007 67 10000 1.59 237 23:25 30.03.2022
4508 Clouds 28 1007 67 10000 2.1 233 22:19 30.03.2022
4509 Clouds 29 1007 67 10000 2.1 233 21:31 30.03.2022
4510 Clouds 29 1008 67 10000 2.42 233 20:44 30.03.2022
4511 Clouds 29 1008 66 10000 2.67 222 19:48 30.03.2022
4512 Clouds 30 1008 65 10000 3.62 205 18:44 30.03.2022
4513 Clouds 30 1009 64 10000 3.99 200 17:52 30.03.2022
4514 Clouds 31 1009 62 10000 4.12 202 17:23 30.03.2022
4515 Clouds 31 1009 62 10000 4.12 202 16:41 30.03.2022
4516 Clouds 32 1008 58 10000 4.34 192 15:59 30.03.2022
4517 Clouds 32 1008 53 10000 3.72 170 14:36 30.03.2022
4518 Clouds 33 1007 54 10000 3.35 195 13:22 30.03.2022
4519 Clouds 33 1007 54 10000 3.35 195 12:32 30.03.2022
4520 Clouds 34 1006 45 10000 3.98 179 10:48 30.03.2022
4521 Clouds 34 1006 42 10000 2.92 165 09:55 30.03.2022
4522 Clouds 32 1008 44 10000 1.86 148 08:21 30.03.2022
4523 Clouds 32 1010 46 10000 1.62 132 06:50 30.03.2022
4524 Rain 31 1011 49 10000 1.06 130 05:40 30.03.2022
4525 Clouds 28 1010 73 10000 0.91 119 01:48 30.03.2022
4526 Clouds 27 1008 77 10000 2.16 182 22:42 29.03.2022
4527 Clouds 29 1008 76 10000 2.55 182 21:49 29.03.2022
4528 Clouds 29 1009 74 10000 3.37 176 21:28 29.03.2022
4529 Rain 29 1009 73 10000 3.76 176 20:25 29.03.2022
4530 Clouds 29 1009 73 10000 2.3 183 19:31 29.03.2022
4531 Rain 29 1010 68 10000 3.75 181 18:53 29.03.2022
4532 Clouds 29 1010 66 10000 4.56 185 17:48 29.03.2022
4533 Clouds 29 1010 64 10000 4.6 179 17:18 29.03.2022
4534 Clouds 29 1010 64 10000 4.6 179 16:52 29.03.2022
4535 Clouds 30 1009 61 10000 4.81 183 15:20 29.03.2022
4536 Clouds 30 1009 61 10000 4.81 183 14:43 29.03.2022
4537 Clouds 31 1008 59 10000 3.7 168 13:33 29.03.2022
4538 Clouds 33 1005 53 10000 5.76 158 11:58 29.03.2022
4539 Clouds 33 1006 50 10000 4.75 148 10:59 29.03.2022
4540 Clouds 33 1006 48 10000 4.08 148 09:50 29.03.2022
4541 Clouds 33 1007 45 10000 4.38 175 08:32 29.03.2022
4542 Clouds 31 1011 49 10000 3 154 05:44 29.03.2022
4543 Rain 27 1010 73 10000 0.66 220 01:32 29.03.2022
4544 Rain 27 1008 72 10000 0.97 297 23:26 28.03.2022
4545 Rain 27 1008 72 10000 0.97 297 22:55 28.03.2022
4546 Rain 27 1008 72 10000 0.97 297 22:30 28.03.2022
4547 Rain 28 1009 70 10000 1.11 271 21:18 28.03.2022
4548 Clouds 28 1009 65 10000 1.28 141 20:32 28.03.2022
4549 Clouds 29 1010 65 10000 0.6 183 19:46 28.03.2022
4550 Clouds 30 1010 63 10000 2.25 215 19:28 28.03.2022
4551 Clouds 29 1010 63 10000 2.25 215 18:40 28.03.2022
4552 Clouds 30 1010 63 10000 3.03 202 17:39 28.03.2022
4553 Clouds 30 1010 66 10000 2.56 223 16:38 28.03.2022
4554 Clouds 31 1009 60 10000 5.35 184 14:50 28.03.2022
4555 Clouds 32 1008 58 10000 4.73 170 14:22 28.03.2022
4556 Clouds 34 1006 51 10000 4.66 167 12:41 28.03.2022
4557 Clouds 34 1005 44 10000 5.25 170 11:38 28.03.2022
4558 Clouds 34 1006 42 10000 4.08 185 09:43 28.03.2022
4559 Clouds 34 1007 46 10000 3.91 185 09:19 28.03.2022
4560 Clouds 35 1008 39 10000 5.34 174 08:23 28.03.2022
4561 Clouds 35 1008 39 10000 5.34 174 07:40 28.03.2022
4562 Clouds 31 1011 61 10000 3.16 170 04:18 28.03.2022
4563 Clouds 30 1008 74 10000 2.77 170 23:43 27.03.2022
4564 Clouds 28 1008 72 10000 3.31 181 22:25 27.03.2022
4565 Clouds 28 1008 72 10000 3.31 181 21:42 27.03.2022
4566 Clouds 29 1009 71 10000 3.64 181 20:58 27.03.2022
4567 Clouds 30 1009 66 10000 3.73 177 19:49 27.03.2022
4568 Clouds 30 1010 62 10000 3.88 163 19:26 27.03.2022
4569 Rain 31 1010 60 10000 4.22 162 18:28 27.03.2022
4570 Clouds 31 1010 60 10000 4.22 162 17:40 27.03.2022
4571 Clouds 31 1011 61 10000 2.84 182 17:20 27.03.2022
4572 Clear 32 1008 63 10000 5.82 195 15:25 27.03.2022
4573 Clear 33 1006 54 10000 5.47 178 13:56 27.03.2022
4574 Clear 34 1006 47 10000 5.11 171 12:38 27.03.2022
4575 Clouds 34 1006 40 10000 5.34 171 11:20 27.03.2022
4576 Clear 36 1008 40 10000 4.91 176 08:53 27.03.2022
4577 Clear 34 1011 49 10000 4.29 184 05:54 27.03.2022
4578 Clouds 29 1010 73 10000 3.49 181 00:57 27.03.2022
4579 Clouds 28 1009 74 10000 3.27 185 23:46 26.03.2022
4580 Clouds 29 1009 74 10000 3.77 183 22:38 26.03.2022
4581 Rain 29 1008 74 10000 4.09 187 21:38 26.03.2022
4582 Rain 29 1008 74 10000 4.09 187 21:38 26.03.2022
4583 Clouds 28 1008 73 10000 4.66 191 20:57 26.03.2022
4584 Clear 30 1009 72 10000 5.86 188 19:21 26.03.2022
4585 Clear 30 1010 72 10000 5.96 187 17:54 26.03.2022
4586 Clear 30 1010 72 10000 5.96 187 17:54 26.03.2022
4587 Clear 31 1010 72 10000 5.96 187 17:33 26.03.2022
4588 Clear 31 1010 68 10000 6.13 181 16:27 26.03.2022
4589 Clear 32 1010 66 10000 6.23 183 14:57 26.03.2022
4590 Clear 33 1009 63 10000 6.52 186 13:53 26.03.2022
4591 Clouds 34 1010 100 10000 5.61 178 12:51 26.03.2022
4592 Clouds 35 1007 47 10000 5.18 169 11:41 26.03.2022
4593 Clouds 37 1009 100 10000 5.16 174 10:22 26.03.2022
4594 Clouds 35 1010 100 10000 4.75 176 08:34 26.03.2022
4595 Clear 35 1013 100 10000 4.33 187 05:54 26.03.2022
4596 Clear 34 1014 100 10000 4.39 190 04:21 26.03.2022
4597 Clear 29 1010 74 10000 3.68 181 23:51 25.03.2022
4598 Clear 29 1009 72 10000 4.27 185 21:35 25.03.2022
4599 Clear 29 1009 71 10000 4.63 185 20:46 25.03.2022
4600 Rain 30 1009 72 10000 5.37 185 19:28 25.03.2022
4601 Rain 31 1009 72 10000 5.37 185 18:47 25.03.2022
4602 Rain 30 1010 71 10000 5.6 184 17:37 25.03.2022
4603 Clouds 30 1010 70 10000 5.59 184 16:50 25.03.2022
4604 Clouds 30 1010 69 10000 5.91 177 15:57 25.03.2022
4605 Clouds 32 1009 66 10000 6.29 184 13:58 25.03.2022
4606 Clouds 32 1008 64 10000 6.77 183 12:32 25.03.2022
4607 Rain 33 1006 45 10000 6 178 09:55 25.03.2022
4608 Clouds 33 1007 44 10000 6 181 09:26 25.03.2022
4609 Clouds 33 1008 45 10000 5.98 183 07:51 25.03.2022
4610 Rain 34 1009 46 10000 5.34 183 07:23 25.03.2022
4611 Clouds 33 1010 51 10000 4.6 184 05:23 25.03.2022
4612 Clouds 28 1009 76 10000 3.23 169 00:33 25.03.2022
4613 Clouds 28 1007 73 10000 3.1 184 22:30 24.03.2022
4614 Clouds 29 1007 72 10000 3.43 187 21:34 24.03.2022
4615 Clouds 29 1007 69 10000 4.2 186 19:50 24.03.2022
4616 Rain 29 1008 70 10000 5.13 180 18:54 24.03.2022
4617 Rain 30 1009 69 10000 5.4 179 17:39 24.03.2022
4618 Clouds 30 1009 67 10000 5.51 180 16:54 24.03.2022
4619 Clouds 30 1009 64 10000 5.28 183 15:19 24.03.2022
4620 Clouds 30 1009 64 10000 5.28 183 14:41 24.03.2022
4621 Clouds 30 1008 63 10000 5.36 184 13:54 24.03.2022
4622 Clouds 31 1007 60 10000 5.61 187 12:39 24.03.2022
4623 Clouds 31 1006 51 10000 5.17 182 11:31 24.03.2022
4624 Rain 31 1005 46 10000 5.61 173 09:36 24.03.2022
4625 Clouds 31 1006 45 10000 5.76 178 08:40 24.03.2022
4626 Clouds 31 1006 45 10000 5.76 178 08:40 24.03.2022
4627 Clouds 33 1009 49 10000 4.51 187 06:19 24.03.2022
4628 Clouds 27 1009 72 10000 2.86 187 01:28 24.03.2022
4629 Clouds 26 1007 73 10000 3.68 189 22:29 23.03.2022
4630 Clouds 28 1007 73 10000 3.68 186 21:25 23.03.2022
4631 Clouds 28 1007 73 10000 3.68 186 20:47 23.03.2022
4632 Clouds 29 1008 72 10000 4.06 188 19:43 23.03.2022
4633 Clouds 29 1008 72 10000 4.06 188 19:43 23.03.2022
4634 Clouds 29 1009 67 10000 4.71 187 18:22 23.03.2022
4635 Clouds 29 1009 67 10000 4.71 187 17:36 23.03.2022
4636 Rain 30 1009 64 10000 4.49 179 16:18 23.03.2022
4637 Clouds 30 1008 62 10000 4.32 179 14:50 23.03.2022
4638 Clouds 28 1008 60 10000 3.98 179 13:51 23.03.2022
4639 Clouds 31 1006 56 10000 5.07 178 11:51 23.03.2022
4640 Rain 34 1006 47 10000 6.17 176 09:21 23.03.2022
4641 Clouds 32 1010 50 10000 3.45 176 06:29 23.03.2022
4642 Clouds 31 1012 61 10000 2.66 175 03:57 23.03.2022
4643 Clouds 27 1009 72 9480 2.64 191 00:29 23.03.2022
4644 Clouds 27 1008 71 10000 3.69 184 22:25 22.03.2022
4645 Clouds 28 1008 71 10000 3.81 183 21:29 22.03.2022
4646 Clouds 28 1008 71 10000 3.81 183 20:39 22.03.2022
4647 Clouds 29 1009 71 10000 3.78 178 19:31 22.03.2022
4648 Clouds 28 1010 70 10000 4.25 177 18:57 22.03.2022
4649 Clouds 29 1010 70 10000 4.9 173 17:47 22.03.2022
4650 Clouds 29 1010 69 10000 5.18 174 17:23 22.03.2022
4651 Clouds 30 1010 67 10000 5.28 177 15:52 22.03.2022
4652 Clouds 30 1009 66 10000 5.35 173 15:21 22.03.2022
4653 Clouds 31 1009 66 10000 5.35 173 14:46 22.03.2022
4654 Clouds 30 1009 64 10000 4.94 176 14:24 22.03.2022
4655 Clouds 31 1007 61 10000 5.51 175 12:41 22.03.2022
4656 Rain 32 1006 51 10000 6.13 176 11:26 22.03.2022
4657 Rain 32 1006 47 10000 5.93 183 09:55 22.03.2022
4658 Rain 32 1007 45 10000 5.75 184 07:48 22.03.2022
4659 Clouds 32 1010 49 10000 4.71 174 04:36 22.03.2022
4660 Clouds 31 1010 59 10000 3.94 168 02:54 22.03.2022
4661 Clouds 28 1008 74 10000 3.55 178 23:21 21.03.2022
4662 Clouds 28 1008 74 10000 4.11 171 21:51 21.03.2022
4663 Clouds 28 1008 71 10000 4.35 168 20:45 21.03.2022
4664 Rain 28 1009 71 10000 4.33 160 20:26 21.03.2022
4665 Clouds 28 1009 71 10000 4.33 160 19:53 21.03.2022
4666 Clouds 28 1009 69 10000 4.67 170 19:23 21.03.2022
4667 Clouds 29 1010 70 10000 4.93 161 17:43 21.03.2022
4668 Clouds 30 1010 69 10000 5.19 169 17:00 21.03.2022
4669 Clouds 30 1010 69 10000 5.19 169 16:36 21.03.2022
4670 Clouds 30 1010 67 10000 5.14 175 15:46 21.03.2022
4671 Rain 30 1009 65 10000 5.78 176 14:48 21.03.2022
4672 Clouds 31 1009 64 10000 5.92 168 13:35 21.03.2022
4673 Rain 31 1007 62 10000 6.53 171 12:31 21.03.2022
4674 Rain 31 1006 58 10000 6.71 171 11:39 21.03.2022
4675 Rain 33 1006 51 10000 7.21 171 09:54 21.03.2022
4676 Clouds 33 1007 47 10000 6.97 171 07:54 21.03.2022
4677 Rain 33 1008 47 10000 6.74 171 06:31 21.03.2022
4678 Clouds 29 1010 57 10000 5.64 162 02:33 21.03.2022
4679 Rain 26 1007 70 10000 4.96 176 23:32 20.03.2022
4680 Rain 26 1007 72 10000 5.46 174 22:42 20.03.2022
4681 Rain 27 1006 74 7799 5.75 175 21:44 20.03.2022
4682 Rain 28 1006 71 10000 5.2 177 20:59 20.03.2022
4683 Rain 28 1006 71 10000 5.2 177 20:59 20.03.2022
4684 Clouds 28 1006 71 10000 5.2 177 20:39 20.03.2022
4685 Clouds 28 1007 71 10000 5.06 184 19:56 20.03.2022
4686 Clouds 28 1008 71 10000 5.23 189 19:25 20.03.2022
4687 Clouds 30 1008 70 10000 5.52 188 17:50 20.03.2022
4688 Clouds 30 1008 69 10000 5.42 183 17:28 20.03.2022
4689 Clouds 30 1008 69 10000 5.42 183 16:40 20.03.2022
4690 Clouds 29 1007 67 10000 5.81 182 14:53 20.03.2022
4691 Clouds 29 1006 65 10000 5.75 184 13:39 20.03.2022
4692 Clouds 29 1004 60 10000 6.4 181 12:20 20.03.2022
4693 Rain 30 1003 48 10000 6.18 184 10:28 20.03.2022
4694 Clouds 35 1004 42 10000 6.09 181 08:26 20.03.2022
4695 Clouds 33 1006 43 10000 5.64 173 06:40 20.03.2022
4696 Rain 31 1009 58 10000 2.82 153 03:27 20.03.2022
4697 Rain 27 1007 71 10000 2.16 145 00:54 20.03.2022
4698 Rain 27 1007 71 10000 2.16 145 00:54 20.03.2022
4699 Clouds 27 1007 66 10000 3.3 169 00:34 20.03.2022
4700 Clouds 27 1005 65 10000 3.5 174 22:39 19.03.2022
4701 Clouds 27 1005 68 10000 4.79 194 21:27 19.03.2022
4702 Clouds 28 1006 69 10000 5.18 193 19:39 19.03.2022
4703 Clouds 27 1006 69 10000 5.4 192 18:44 19.03.2022
4704 Clouds 29 1006 70 10000 6.34 189 17:55 19.03.2022
4705 Clouds 31 1006 70 10000 6.34 189 17:33 19.03.2022
4706 Clouds 31 1007 66 10000 6.39 193 15:40 19.03.2022
4707 Clouds 33 1005 60 10000 6.3 193 14:21 19.03.2022
4708 Clouds 33 1004 54 10000 5.64 184 12:56 19.03.2022
4709 Clouds 33 1004 54 10000 5.64 184 12:37 19.03.2022
4710 Clouds 34 1003 52 10000 5.12 186 11:46 19.03.2022
4711 Clouds 35 1002 41 10000 5.75 184 09:55 19.03.2022
4712 Clouds 33 1007 38 10000 1.38 141 05:48 19.03.2022
4713 Clouds 28 1009 51 10000 1.69 107 02:37 19.03.2022
4714 Clouds 27 1007 64 10000 2.21 75 00:54 19.03.2022
4715 Clouds 28 1006 67 10000 2.12 85 23:19 18.03.2022
4716 Clouds 27 1006 67 10000 2.5 92 22:22 18.03.2022
4717 Clouds 28 1006 65 10000 2.77 101 20:40 18.03.2022
4718 Clouds 28 1006 63 10000 2.35 98 19:45 18.03.2022
4719 Clouds 28 1007 61 10000 2.31 103 19:18 18.03.2022
4720 Clouds 30 1007 61 10000 2.64 167 17:27 18.03.2022
4721 Clouds 30 1007 61 10000 2.64 167 16:42 18.03.2022
4722 Clouds 30 1006 57 10000 4 205 14:29 18.03.2022
4723 Clouds 31 1006 57 10000 4 205 13:41 18.03.2022
4724 Clouds 32 1004 49 10000 5.34 172 11:43 18.03.2022
4725 Clouds 34 1002 40 10000 5.66 171 10:27 18.03.2022
4726 Clouds 34 1002 40 10000 5.66 171 10:27 18.03.2022
4727 Clouds 35 1004 38 10000 5.31 178 09:20 18.03.2022
4728 Clouds 35 1005 38 10000 4.97 177 07:43 18.03.2022
4729 Clouds 34 1009 43 10000 4.04 177 05:20 18.03.2022
4730 Clouds 30 1008 66 10000 3.1 182 01:55 18.03.2022
4731 Clouds 29 1006 74 10000 3.02 174 00:20 18.03.2022
4732 Clouds 29 1006 73 10000 3.39 178 22:54 17.03.2022
4733 Clouds 29 1006 73 10000 3.93 182 22:20 17.03.2022
4734 Clouds 29 1006 73 10000 3.93 182 21:46 17.03.2022
4735 Clouds 29 1006 73 10000 4.15 189 20:58 17.03.2022
4736 Rain 29 1006 72 10000 4.57 191 20:28 17.03.2022
4737 Clouds 29 1006 72 10000 4.57 191 19:39 17.03.2022
4738 Clouds 29 1007 72 10000 4.36 196 18:55 17.03.2022
4739 Clouds 29 1007 71 10000 5.5 190 17:47 17.03.2022
4740 Clouds 30 1007 68 10000 5.56 189 16:29 17.03.2022
4741 Clouds 30 1007 68 10000 5.56 189 15:43 17.03.2022
4742 Clouds 30 1006 66 10000 5.37 184 15:18 17.03.2022
4743 Clouds 31 1005 64 10000 5.42 178 13:47 17.03.2022
4744 Clouds 32 1004 62 10000 5.88 179 12:47 17.03.2022
4745 Clouds 35 1004 56 10000 6.07 181 11:36 17.03.2022
4746 Clouds 36 1003 46 10000 5.98 184 10:44 17.03.2022
4747 Clouds 36 1003 41 10000 5.45 188 09:37 17.03.2022
4748 Clouds 36 1005 41 10000 5.48 183 08:20 17.03.2022
4749 Clouds 34 1007 45 10000 4.39 178 05:53 17.03.2022
4750 Clouds 33 1009 48 10000 4 181 04:40 17.03.2022
4751 Clouds 28 1007 75 10000 3.66 184 00:27 17.03.2022
4752 Clouds 28 1006 75 10000 4.31 189 22:56 16.03.2022
4753 Clouds 28 1006 75 10000 4.31 189 22:36 16.03.2022
4754 Clouds 28 1006 74 10000 4.7 187 21:56 16.03.2022
4755 Clouds 29 1006 74 10000 4.86 186 20:40 16.03.2022
4756 Clouds 30 1007 72 10000 5.18 188 19:23 16.03.2022
4757 Rain 29 1007 72 10000 5.36 186 18:42 16.03.2022
4758 Clouds 30 1007 71 10000 6.03 189 17:49 16.03.2022
4759 Clouds 30 1007 71 10000 6.03 189 17:31 16.03.2022
4760 Clouds 30 1007 69 10000 6.87 181 16:21 16.03.2022
4761 Clouds 31 1007 66 10000 6.89 178 14:50 16.03.2022
4762 Clouds 32 1006 64 10000 6.48 172 13:36 16.03.2022
4763 Rain 32 1005 61 10000 7.03 172 12:55 16.03.2022
4764 Rain 36 1004 46 10000 6.1 166 11:23 16.03.2022
4765 Rain 36 1004 46 10000 6.1 166 10:32 16.03.2022
4766 Rain 37 1004 43 10000 5.81 171 09:56 16.03.2022
4767 Clear 37 1005 41 10000 5.94 176 07:43 16.03.2022
4768 Clouds 33 1008 54 10000 4.07 193 02:45 16.03.2022
4769 Clouds 29 1005 77 10000 3.67 193 22:55 15.03.2022
4770 Clouds 28 1005 77 10000 3.67 193 22:35 15.03.2022
4771 Clouds 30 1005 76 10000 4.64 179 20:55 15.03.2022
4772 Rain 29 1006 75 10000 5.17 179 19:39 15.03.2022
4773 Rain 29 1006 75 10000 5.92 178 17:46 15.03.2022
4774 Clouds 30 1006 73 10000 6.01 181 16:38 15.03.2022
4775 Clouds 30 1006 71 10000 6.34 191 15:38 15.03.2022
4776 Clouds 31 1006 68 10000 6.31 194 14:53 15.03.2022
4777 Clouds 31 1005 65 10000 6.17 190 13:56 15.03.2022
4778 Clouds 32 1004 61 10000 5.34 195 13:21 15.03.2022
4779 Clouds 35 1003 57 10000 6.32 195 11:33 15.03.2022
4780 Clouds 36 1003 45 10000 5.38 187 10:27 15.03.2022
4781 Clouds 36 1004 43 10000 5.51 181 09:20 15.03.2022
4782 Clouds 36 1005 44 10000 5.93 174 08:21 15.03.2022
4783 Rain 36 1005 44 10000 5.93 174 07:36 15.03.2022
4784 Clouds 33 1007 50 10000 4.78 186 05:55 15.03.2022
4785 Clouds 28 1007 76 10000 3.75 180 00:25 15.03.2022
4786 Clouds 28 1006 76 10000 4.25 180 23:28 14.03.2022
4787 Clouds 28 1006 76 10000 4.25 180 22:49 14.03.2022
4788 Clouds 30 1006 76 10000 4.29 184 21:51 14.03.2022
4789 Clouds 30 1006 75 10000 4.12 186 20:55 14.03.2022
4790 Clouds 30 1007 75 10000 4.18 185 20:24 14.03.2022
4791 Clouds 30 1007 73 10000 4.31 181 19:22 14.03.2022
4792 Clouds 30 1007 73 10000 5.54 183 17:55 14.03.2022
4793 Rain 30 1007 73 10000 5.54 183 17:33 14.03.2022
4794 Clouds 30 1008 69 10000 5.91 190 16:27 14.03.2022
4795 Clouds 31 1008 68 10000 5.9 192 14:47 14.03.2022
4796 Clouds 31 1006 65 10000 6.09 193 13:20 14.03.2022
4797 Clouds 34 1005 56 10000 6.31 187 10:59 14.03.2022
4798 Clouds 35 1005 50 10000 6.04 185 09:56 14.03.2022
4799 Clouds 35 1005 47 10000 5.73 180 09:23 14.03.2022
4800 Clouds 35 1005 47 10000 5.73 180 08:57 14.03.2022
4801 Clouds 36 1006 46 10000 6.07 177 08:24 14.03.2022
4802 Clouds 34 1008 45 10000 5.52 176 05:51 14.03.2022
4803 Rain 31 1009 58 10000 3.17 181 02:57 14.03.2022
4804 Rain 29 1009 66 10000 3.47 188 01:33 14.03.2022
4805 Clouds 29 1007 72 10000 3.3 194 23:25 13.03.2022
4806 Clouds 29 1006 72 10000 3.74 192 21:40 13.03.2022
4807 Clouds 29 1006 71 10000 4.31 185 21:19 13.03.2022
4808 Clouds 29 1006 71 10000 4.31 185 20:43 13.03.2022
4809 Rain 29 1006 70 10000 4.7 178 20:20 13.03.2022
4810 Clouds 30 1006 70 10000 4.7 178 19:40 13.03.2022
4811 Rain 30 1007 68 10000 4.98 176 19:19 13.03.2022
4812 Clouds 31 1007 70 10000 5.27 183 18:40 13.03.2022
4813 Clouds 31 1007 68 10000 5.34 184 17:47 13.03.2022
4814 Clouds 30 1008 66 10000 5.44 187 17:22 13.03.2022
4815 Clouds 31 1008 66 10000 5.44 187 16:43 13.03.2022
4816 Clouds 31 1008 65 10000 5.62 185 16:20 13.03.2022
4817 Clouds 31 1008 65 10000 5.62 185 15:33 13.03.2022
4818 Rain 31 1006 63 10000 5.77 186 13:53 13.03.2022
4819 Rain 32 1006 61 10000 5.83 191 13:19 13.03.2022
4820 Rain 33 1005 57 10000 6.18 189 12:19 13.03.2022
4821 Clouds 35 1005 57 10000 6.18 189 11:36 13.03.2022
4822 Clouds 35 1004 50 10000 6.42 187 10:48 13.03.2022
4823 Clouds 37 1004 46 10000 6.11 191 10:25 13.03.2022
4824 Clouds 37 1004 46 10000 6.11 191 09:41 13.03.2022
4825 Clouds 37 1004 46 10000 6.11 191 09:41 13.03.2022
4826 Clouds 37 1004 43 10000 6.3 188 08:47 13.03.2022
4827 Clouds 37 1005 38 10000 5 181 07:47 13.03.2022
4828 Clouds 35 1008 44 10000 4.14 159 05:48 13.03.2022
4829 Clouds 30 1009 60 10000 3.35 172 02:50 13.03.2022
4830 Rain 28 1006 73 10000 3.48 172 00:20 13.03.2022
4831 Clouds 29 1006 72 10000 3.36 165 22:37 12.03.2022
4832 Rain 29 1006 71 10000 3.23 185 20:54 12.03.2022
4833 Rain 29 1006 70 10000 3.69 186 19:50 12.03.2022
4834 Clouds 29 1006 70 10000 3.69 186 19:32 12.03.2022
4835 Rain 31 1007 66 10000 4.4 180 18:27 12.03.2022
4836 Clouds 31 1007 66 10000 4.4 180 17:34 12.03.2022
4837 Rain 31 1007 64 10000 5.11 180 16:24 12.03.2022
4838 Rain 31 1006 62 10000 5.19 186 15:24 12.03.2022
4839 Rain 33 1006 62 10000 5.19 186 14:40 12.03.2022
4840 Clouds 34 1005 60 10000 5.35 187 13:32 12.03.2022
4841 Clouds 36 1003 45 10000 4.72 186 11:56 12.03.2022
4842 Clouds 36 1003 45 10000 4.72 186 11:38 12.03.2022
4843 Rain 36 1003 41 10000 4.94 181 10:58 12.03.2022
4844 Rain 36 1003 41 10000 4.94 181 10:58 12.03.2022
4845 Clouds 37 1003 40 10000 5.96 181 09:45 12.03.2022
4846 Rain 36 1003 38 10000 5.97 180 08:56 12.03.2022
4847 Clouds 36 1006 38 10000 3.68 160 07:20 12.03.2022
4848 Clouds 32 1009 49 10000 3.02 177 03:36 12.03.2022
4849 Clouds 28 1007 72 10000 2.65 168 23:56 11.03.2022
4850 Clouds 28 1007 72 10000 2.65 168 23:56 11.03.2022
4851 Clouds 28 1006 71 10000 2.8 175 23:18 11.03.2022
4852 Clouds 28 1006 70 10000 3.14 180 21:35 11.03.2022
4853 Rain 28 1006 70 10000 3.48 192 20:55 11.03.2022
4854 Clouds 28 1006 70 10000 3.48 192 20:34 11.03.2022
4855 Clouds 28 1007 71 10000 4.18 193 19:49 11.03.2022
4856 Rain 29 1007 70 10000 4.39 194 19:22 11.03.2022
4857 Clouds 31 1007 71 10000 5.31 187 17:30 11.03.2022
4858 Clouds 31 1008 65 10000 5.15 189 16:27 11.03.2022
4859 Clouds 31 1008 65 10000 5.15 189 15:53 11.03.2022
4860 Clouds 32 1006 58 10000 4.65 183 14:19 11.03.2022
4861 Clouds 33 1005 52 10000 4.38 196 12:44 11.03.2022
4862 Clouds 33 1003 53 10000 5 170 12:21 11.03.2022
4863 Clouds 34 1003 53 10000 5 170 11:51 11.03.2022
4864 Clouds 36 1003 46 10000 5.36 184 09:40 11.03.2022
4865 Clouds 36 1004 45 10000 6.01 185 08:47 11.03.2022
4866 Clouds 35 1005 40 10000 5.38 179 07:53 11.03.2022
4867 Clear 34 1007 41 10000 4.3 169 07:28 11.03.2022
4868 Clear 33 1008 44 10000 3.16 167 05:42 11.03.2022
4869 Rain 30 1009 58 10000 2.76 179 02:56 11.03.2022
4870 Rain 28 1007 75 10000 2.72 188 23:31 10.03.2022
4871 Clouds 28 1007 74 10000 2.79 204 22:29 10.03.2022
4872 Clouds 28 1007 74 10000 3.1 194 21:27 10.03.2022
4873 Rain 27 1007 74 10000 3.1 194 20:49 10.03.2022
4874 Clear 28 1008 72 10000 4 183 19:23 10.03.2022
4875 Clear 28 1008 73 10000 4.33 188 18:39 10.03.2022
4876 Clear 30 1009 71 10000 5.5 189 16:54 10.03.2022
4877 Clear 30 1009 69 10000 5.5 186 15:41 10.03.2022
4878 Clear 31 1007 67 10000 5.9 179 14:23 10.03.2022
4879 Clouds 31 1007 64 10000 5.41 181 12:49 10.03.2022
4880 Clouds 32 1006 58 10000 5.18 182 11:39 10.03.2022
4881 Rain 34 1006 48 10000 4.76 192 10:19 10.03.2022
4882 Rain 34 1006 47 10000 4.99 195 08:48 10.03.2022
4883 Clouds 33 1009 50 10000 3.86 179 05:50 10.03.2022
4884 Rain 30 1011 60 10000 3.81 173 03:33 10.03.2022
4885 Clouds 28 1008 74 10000 3.51 182 00:23 10.03.2022
4886 Clouds 28 1007 73 10000 3.73 186 22:43 09.03.2022
4887 Clouds 28 1008 72 10000 4.11 186 21:48 09.03.2022
4888 Clouds 28 1008 71 10000 4.21 186 20:59 09.03.2022
4889 Clouds 28 1009 68 10000 4.2 189 19:28 09.03.2022
4890 Clouds 29 1009 68 10000 4.8 189 17:57 09.03.2022
4891 Clouds 29 1009 65 10000 4.89 188 17:23 09.03.2022
4892 Rain 30 1009 63 10000 4.64 185 15:41 09.03.2022
4893 Clouds 30 1008 55 10000 4.09 182 14:27 09.03.2022
4894 Clouds 31 1008 55 10000 4.09 182 13:50 09.03.2022
4895 Rain 33 1005 43 10000 3.17 198 12:25 09.03.2022
4896 Rain 34 1005 43 10000 3.17 198 11:48 09.03.2022
4897 Rain 34 1005 38 10000 2.34 183 10:55 09.03.2022
4898 Rain 34 1006 36 10000 1.12 202 09:28 09.03.2022
4899 Clouds 34 1006 36 10000 1.12 202 08:44 09.03.2022
4900 Clouds 32 1010 42 10000 0.47 201 05:56 09.03.2022
4901 Clouds 27 1010 56 10000 0.43 284 00:58 09.03.2022
4902 Clouds 26 1010 56 10000 0.45 267 23:46 08.03.2022
4903 Clouds 26 1009 56 10000 0.62 275 22:45 08.03.2022
4904 Clouds 27 1009 55 10000 0.85 268 21:46 08.03.2022
4905 Clouds 27 1009 55 10000 1.19 279 21:19 08.03.2022
4906 Clouds 27 1010 54 10000 1.7 280 20:18 08.03.2022
4907 Clouds 28 1009 60 10000 2.12 224 18:55 08.03.2022
4908 Clouds 28 1010 59 10000 2.39 223 17:58 08.03.2022
4909 Clouds 29 1011 57 10000 2.53 217 16:37 08.03.2022
4910 Clouds 30 1010 52 10000 2.41 216 14:36 08.03.2022
4911 Clouds 31 1008 48 10000 3.04 237 13:23 08.03.2022
4912 Clouds 32 1007 44 10000 3.61 191 12:20 08.03.2022
4913 Clouds 33 1007 44 10000 3.61 191 11:41 08.03.2022
4914 Clouds 33 1006 37 10000 1.96 136 10:27 08.03.2022
4915 Clouds 33 1007 37 10000 1.79 120 08:54 08.03.2022
4916 Clouds 31 1011 46 10000 1.75 33 05:49 08.03.2022
4917 Clouds 26 1012 68 10000 1.94 28 01:49 08.03.2022
4918 Rain 26 1010 79 10000 4.15 73 22:41 07.03.2022
4919 Rain 25 1010 80 10000 4.62 65 21:36 07.03.2022
4920 Rain 25 1010 76 10000 5.72 66 20:55 07.03.2022
4921 Rain 26 1011 75 10000 5.47 74 20:29 07.03.2022
4922 Clouds 26 1011 75 10000 5.47 74 19:48 07.03.2022
4923 Clouds 26 1011 69 10000 3.91 70 18:48 07.03.2022
4924 Clouds 26 1011 71 10000 4.11 67 18:25 07.03.2022
4925 Clouds 26 1011 70 10000 2.35 54 16:56 07.03.2022
4926 Clouds 27 1011 70 10000 2.35 54 16:34 07.03.2022
4927 Clear 29 1010 66 9340 3.82 78 14:40 07.03.2022
4928 Clouds 33 1007 64 10000 4.92 186 12:34 07.03.2022
4929 Rain 34 1005 47 10000 5.47 197 10:48 07.03.2022
4930 Clouds 35 1005 44 10000 5.82 199 10:25 07.03.2022
4931 Clouds 34 1009 44 10000 4.28 168 07:24 07.03.2022
4932 Clouds 27 1009 75 10000 2.36 204 00:24 07.03.2022
4933 Clouds 28 1009 75 10000 2.36 204 23:58 06.03.2022
4934 Clouds 28 1009 75 10000 2.28 206 23:18 06.03.2022
4935 Clouds 28 1009 74 10000 2.84 201 22:24 06.03.2022
4936 Clouds 29 1009 74 10000 3.73 188 20:56 06.03.2022
4937 Clouds 29 1009 74 10000 4.29 195 20:28 06.03.2022
4938 Clear 29 1010 73 10000 5.13 190 19:29 06.03.2022
4939 Clear 30 1010 72 10000 5.3 179 18:25 06.03.2022
4940 Clear 30 1010 70 10000 5.63 188 17:22 06.03.2022
4941 Clear 30 1010 70 10000 5.63 188 16:44 06.03.2022
4942 Clear 30 1010 70 10000 5.63 188 16:44 06.03.2022
4943 Clouds 30 1010 68 10000 5.88 191 16:20 06.03.2022
4944 Clouds 30 1010 67 10000 6.23 182 14:57 06.03.2022
4945 Clouds 31 1010 67 10000 6.23 182 14:38 06.03.2022
4946 Rain 31 1009 64 10000 5.81 178 13:36 06.03.2022
4947 Rain 32 1007 62 10000 6.17 178 12:35 06.03.2022
4948 Clouds 33 1006 49 10000 5.6 177 11:27 06.03.2022
4949 Clouds 35 1006 45 10000 5.89 180 10:29 06.03.2022
4950 Clouds 35 1006 43 10000 5.92 179 08:40 06.03.2022
4951 Clouds 35 1007 43 10000 5.86 176 08:20 06.03.2022
4952 Clouds 35 1009 47 10000 5.43 177 06:22 06.03.2022
4953 Clouds 29 1009 75 10000 3.63 187 00:55 06.03.2022
4954 Clouds 28 1009 75 10000 3.94 179 00:33 06.03.2022
4955 Clouds 28 1009 75 10000 3.94 179 00:33 06.03.2022
4956 Clouds 29 1007 75 10000 4.45 178 23:26 05.03.2022
4957 Clouds 28 1007 75 10000 4.45 178 22:57 05.03.2022
4958 Clouds 29 1007 74 10000 4.53 183 22:23 05.03.2022
4959 Clouds 29 1007 74 10000 4.63 184 21:23 05.03.2022
4960 Clouds 29 1008 74 10000 5.03 183 19:53 05.03.2022
4961 Clouds 30 1008 74 10000 5.84 182 18:56 05.03.2022
4962 Clouds 30 1009 72 10000 6.18 182 18:27 05.03.2022
4963 Clouds 29 1009 70 10000 6.15 185 16:49 05.03.2022
4964 Clouds 31 1009 68 10000 6.36 181 15:31 05.03.2022
4965 Rain 31 1008 64 10000 6.18 180 14:47 05.03.2022
4966 Clouds 31 1007 60 10000 5.95 172 14:29 05.03.2022
4967 Rain 32 1006 57 10000 5.94 168 13:22 05.03.2022
4968 Rain 35 1005 50 10000 6.25 171 11:48 05.03.2022
4969 Rain 35 1005 40 10000 5.37 180 11:19 05.03.2022
4970 Clouds 36 1005 38 10000 5.15 177 10:20 05.03.2022
4971 Clouds 36 1006 38 10000 5.78 172 09:22 05.03.2022
4972 Clouds 36 1007 37 10000 5.39 171 07:38 05.03.2022
4973 Clouds 34 1009 42 10000 4.07 182 05:43 05.03.2022
4974 Clouds 31 1010 55 10000 3.19 181 03:18 05.03.2022
4975 Clouds 29 1008 72 10000 3.29 172 23:37 04.03.2022
4976 Clouds 29 1007 71 10000 3.41 176 22:42 04.03.2022
4977 Clouds 29 1007 69 10000 3.61 175 21:49 04.03.2022
4978 Clouds 30 1007 67 10000 3.66 180 20:54 04.03.2022
4979 Rain 30 1008 65 10000 3.99 185 20:24 04.03.2022
4980 Clouds 30 1008 65 10000 3.99 185 19:36 04.03.2022
4981 Rain 30 1008 64 10000 4.74 185 18:44 04.03.2022
4982 Rain 30 1009 64 10000 5.45 192 17:32 04.03.2022
4983 Clouds 30 1009 67 10000 6.21 196 16:46 04.03.2022
4984 Clouds 31 1008 59 10000 5.36 186 15:29 04.03.2022
4985 Clouds 32 1007 54 10000 5.34 184 14:29 04.03.2022
4986 Rain 32 1006 47 10000 4.96 192 13:26 04.03.2022
4987 Rain 34 1005 43 10000 5.3 199 11:41 04.03.2022
4988 Rain 35 1005 38 10000 5.19 201 10:50 04.03.2022
4989 Rain 36 1005 35 10000 4.45 195 09:42 04.03.2022
4990 Clear 38 1005 35 10000 3.42 179 08:36 04.03.2022
4991 Rain 37 1008 38 10000 1.93 151 07:23 04.03.2022
4992 Rain 32 1012 48 10000 0.96 200 03:50 04.03.2022
4993 Clear 27 1010 73 10000 1.98 205 00:24 04.03.2022
4994 Clear 28 1009 74 10000 3.08 203 22:26 03.03.2022
4995 Clear 28 1009 74 10000 3.08 203 21:41 03.03.2022
4996 Clear 28 1009 73 10000 3.57 198 21:21 03.03.2022
4997 Clear 29 1010 73 10000 3.73 200 19:50 03.03.2022
4998 Clouds 29 1010 73 10000 3.93 203 18:53 03.03.2022
4999 Clear 29 1010 71 10000 4.77 200 18:22 03.03.2022
5000 Clouds 29 1011 69 10000 4.92 197 17:28 03.03.2022
5001 Clouds 30 1010 67 10000 4.88 185 16:22 03.03.2022
5002 Clouds 30 1010 65 10000 5.08 168 15:20 03.03.2022
5003 Clouds 30 1010 65 10000 5.08 168 14:42 03.03.2022
5004 Clouds 31 1009 55 10000 4.24 179 13:19 03.03.2022
5005 Clouds 34 1007 50 10000 4.94 190 11:54 03.03.2022
5006 Clouds 34 1007 44 10000 4.81 187 10:42 03.03.2022
5007 Clouds 34 1007 41 10000 5.17 186 08:57 03.03.2022
5008 Clouds 34 1009 41 10000 4.96 187 07:45 03.03.2022
5009 Clouds 34 1010 41 10000 3.53 184 06:35 03.03.2022
5010 Clear 28 1012 67 10000 2.21 231 01:52 03.03.2022
5011 Clear 28 1010 74 10000 2.13 197 23:29 02.03.2022
5012 Clear 28 1010 74 10000 2.13 197 22:52 02.03.2022
5013 Clear 29 1010 73 10000 2.73 192 21:30 02.03.2022
5014 Clear 29 1010 73 10000 3.23 187 20:45 02.03.2022
5015 Clear 28 1010 72 10000 3.42 186 20:24 02.03.2022
5016 Clear 30 1010 72 10000 3.42 186 19:35 02.03.2022
5017 Clear 29 1010 70 10000 3.66 186 18:44 02.03.2022
5018 Clear 28 1011 69 10000 4.43 185 17:59 02.03.2022
5019 Clear 30 1011 67 10000 4.5 186 17:28 02.03.2022
5020 Clear 30 1011 67 10000 4.5 186 16:45 02.03.2022
5021 Clear 30 1011 63 10000 4.93 189 14:45 02.03.2022
5022 Clouds 31 1009 57 10000 4.78 190 13:24 02.03.2022
5023 Clouds 32 1009 58 10000 5.18 191 12:43 02.03.2022
5024 Clouds 33 1008 50 10000 5.33 194 11:51 02.03.2022
5025 Clouds 33 1007 43 10000 4.77 192 11:24 02.03.2022
5026 Clouds 33 1007 43 10000 4.77 192 11:24 02.03.2022
5027 Clouds 34 1007 40 10000 3.93 183 09:46 02.03.2022
5028 Clouds 35 1008 42 10000 3.85 182 08:59 02.03.2022
5029 Clouds 35 1009 42 10000 4.23 178 07:39 02.03.2022
5030 Clouds 35 1010 39 10000 3.15 159 06:54 02.03.2022
5031 Clouds 30 1013 57 10000 2.12 200 02:54 02.03.2022
5032 Clouds 28 1011 73 10000 2.04 211 00:29 02.03.2022
5033 Rain 28 1010 75 10000 2.14 195 22:48 01.03.2022
5034 Clouds 28 1010 74 10000 2.64 185 22:21 01.03.2022
5035 Clouds 28 1010 73 10000 3.51 185 21:25 01.03.2022
5036 Clouds 28 1010 73 10000 3.51 185 20:32 01.03.2022
5037 Clouds 29 1010 71 10000 3.89 182 19:44 01.03.2022
5038 Clouds 29 1011 68 10000 3.8 180 18:51 01.03.2022
5039 Clouds 29 1011 69 10000 4.94 184 18:21 01.03.2022
5040 Clouds 29 1011 69 10000 4.94 184 17:30 01.03.2022
5041 Clouds 30 1011 67 10000 4.79 187 16:34 01.03.2022
5042 Clouds 30 1011 64 10000 4.93 184 15:41 01.03.2022
5043 Clouds 31 1011 63 10000 5.24 186 14:40 01.03.2022
5044 Clouds 31 1010 60 10000 5.44 188 13:58 01.03.2022
5045 Clear 31 1009 55 10000 5.33 191 13:25 01.03.2022
5046 Clear 33 1008 54 10000 5.48 192 12:33 01.03.2022
5047 Clear 35 1007 41 10000 5.36 200 10:37 01.03.2022
5048 Clear 36 1007 34 10000 4.42 189 08:45 01.03.2022
5049 Clear 35 1008 34 10000 3.44 171 07:53 01.03.2022
5050 Clouds 34 1011 40 10000 3.3 152 06:20 01.03.2022
5051 Clouds 30 1013 56 10000 1.17 139 02:44 01.03.2022
5052 Clear 27 1012 70 10000 0.92 193 00:34 01.03.2022
5053 Clear 27 1011 70 10000 1.22 185 23:30 28.02.2022
5054 Clear 27 1010 68 10000 2.27 185 22:18 28.02.2022
5055 Clear 27 1010 68 10000 2.27 185 21:37 28.02.2022
5056 Clear 27 1010 65 10000 3.1 188 19:56 28.02.2022
5057 Clear 28 1010 65 10000 3.1 188 19:36 28.02.2022
5058 Clear 28 1010 68 10000 4.5 176 18:43 28.02.2022
5059 Clear 29 1010 66 10000 4.48 180 17:33 28.02.2022
5060 Clear 29 1011 63 10000 4.27 185 16:33 28.02.2022
5061 Clear 30 1010 53 10000 3.75 198 15:24 28.02.2022
5062 Clear 30 1010 53 10000 3.75 198 14:32 28.02.2022
5063 Clear 33 1009 49 10000 3.63 206 13:47 28.02.2022
5064 Clouds 34 1008 45 10000 3.93 210 12:47 28.02.2022
5065 Clouds 34 1008 39 10000 3.42 213 11:58 28.02.2022
5066 Clouds 35 1007 35 10000 2.69 206 10:49 28.02.2022
5067 Clouds 35 1007 34 10000 2.38 195 10:21 28.02.2022
5068 Clouds 35 1007 34 10000 2.38 195 09:33 28.02.2022
5069 Clouds 35 1008 33 10000 2.08 183 08:32 28.02.2022
5070 Clouds 35 1009 34 10000 1.96 155 07:35 28.02.2022
5071 Clouds 34 1013 41 10000 2.28 104 05:21 28.02.2022
5072 Rain 32 1014 46 10000 2.31 106 04:27 28.02.2022
5073 Clouds 26 1011 59 10000 0.79 147 23:44 27.02.2022
5074 Clouds 26 1011 58 10000 0.57 173 22:35 27.02.2022
5075 Clouds 27 1011 57 10000 0.65 203 21:52 27.02.2022
5076 Rain 27 1011 57 10000 0.56 239 21:21 27.02.2022
5077 Rain 27 1011 57 10000 0.56 239 20:32 27.02.2022
5078 Clouds 27 1011 56 10000 0.99 253 19:58 27.02.2022
5079 Clouds 28 1012 56 10000 0.9 231 19:27 27.02.2022
5080 Clouds 28 1012 58 10000 1.36 193 18:47 27.02.2022
5081 Clouds 28 1012 56 10000 1.58 185 17:56 27.02.2022
5082 Clouds 28 1012 56 10000 2.17 189 17:18 27.02.2022
5083 Clear 29 1012 56 10000 3.26 193 16:21 27.02.2022
5084 Rain 31 1011 47 10000 3.58 182 13:34 27.02.2022
5085 Clouds 33 1010 40 10000 2.77 150 12:33 27.02.2022
5086 Clouds 34 1008 30 10000 2.91 69 10:59 27.02.2022
5087 Clouds 35 1008 30 10000 3.34 73 10:20 27.02.2022
5088 Clouds 35 1008 30 10000 3.34 73 09:50 27.02.2022
5089 Clouds 35 1009 29 10000 3.89 75 09:20 27.02.2022
5090 Clouds 34 1010 29 10000 4.16 73 08:20 27.02.2022
5091 Clouds 34 1010 29 10000 4.16 73 08:20 27.02.2022
5092 Clouds 32 1012 30 10000 3.74 92 05:38 27.02.2022
5093 Clouds 26 1014 31 10000 3.21 106 02:35 27.02.2022
5094 Clouds 24 1012 36 10000 2.3 328 23:30 26.02.2022
5095 Clouds 24 1012 36 10000 2.3 328 23:30 26.02.2022
5096 Clouds 24 1011 35 10000 2.46 343 22:31 26.02.2022
5097 Clouds 25 1012 33 10000 2.48 32 21:18 26.02.2022
5098 Clouds 26 1012 31 10000 2.83 57 20:27 26.02.2022
5099 Clouds 26 1012 31 10000 2.83 57 19:52 26.02.2022
5100 Clouds 26 1013 30 10000 3.32 68 19:29 26.02.2022
5101 Rain 28 1013 28 10000 3.83 70 17:55 26.02.2022
5102 Clouds 28 1013 27 10000 4.23 69 17:29 26.02.2022
5103 Clouds 28 1013 27 10000 4.23 69 17:29 26.02.2022
5104 Clouds 29 1013 29 10000 3.58 65 16:19 26.02.2022
5105 Clouds 30 1013 32 10000 3.1 71 15:25 26.02.2022
5106 Clouds 30 1013 32 10000 3.1 71 14:56 26.02.2022
5107 Clouds 31 1013 32 10000 3.1 71 14:38 26.02.2022
5108 Clouds 32 1011 30 10000 0.93 39 13:27 26.02.2022
5109 Clouds 32 1011 30 10000 0.93 39 12:52 26.02.2022
5110 Clouds 32 1010 30 10000 1.02 3 11:38 26.02.2022
5111 Clouds 33 1010 29 10000 1.67 358 10:56 26.02.2022
5112 Clouds 33 1010 29 10000 3.16 7 09:21 26.02.2022
5113 Clouds 32 1012 29 10000 3.47 30 07:57 26.02.2022
5114 Clouds 32 1012 29 10000 3.47 30 07:57 26.02.2022
5115 Clouds 25 1016 35 10000 2.68 100 03:21 26.02.2022
5116 Clouds 24 1013 41 10000 1.8 350 23:32 25.02.2022
5117 Clouds 24 1012 41 10000 2.32 347 21:49 25.02.2022
5118 Clouds 24 1012 40 10000 2.13 9 21:29 25.02.2022
5119 Clouds 25 1012 40 10000 2.13 9 20:33 25.02.2022
5120 Clouds 26 1013 39 10000 2.32 38 19:41 25.02.2022
5121 Clouds 26 1014 35 10000 3.84 66 17:35 25.02.2022
5122 Clouds 27 1014 35 10000 4.16 73 16:46 25.02.2022
5123 Clouds 28 1014 36 10000 4.18 71 15:49 25.02.2022
5124 Clear 28 1014 36 10000 4.49 70 15:23 25.02.2022
5125 Clear 29 1014 36 10000 4.49 70 14:45 25.02.2022
5126 Clear 28 1013 36 10000 4.24 75 14:18 25.02.2022
5127 Clouds 29 1012 36 10000 3.29 80 13:20 25.02.2022
5128 Clouds 31 1011 36 10000 3.22 61 11:39 25.02.2022
5129 Clouds 32 1011 34 10000 3.09 54 11:18 25.02.2022
5130 Clouds 33 1011 34 10000 3.09 47 10:23 25.02.2022
5131 Clouds 33 1011 34 10000 3.09 47 09:36 25.02.2022
5132 Clouds 32 1012 34 10000 3.69 45 07:47 25.02.2022
5133 Clouds 30 1014 34 10000 3.33 44 06:45 25.02.2022
5134 Clouds 29 1015 34 10000 3.58 50 05:37 25.02.2022
5135 Clouds 22 1015 50 10000 1.4 47 00:31 25.02.2022
5136 Clouds 23 1013 50 10000 2.38 328 22:29 24.02.2022
5137 Clouds 24 1013 50 10000 2.38 328 21:43 24.02.2022
5138 Clouds 24 1013 50 10000 2.38 328 21:43 24.02.2022
5139 Clouds 24 1013 49 10000 1.98 336 21:21 24.02.2022
5140 Clouds 25 1013 49 10000 1.98 336 20:42 24.02.2022
5141 Clouds 25 1014 45 10000 3.31 61 19:19 24.02.2022
5142 Clouds 26 1015 44 10000 4.13 68 18:20 24.02.2022
5143 Clouds 26 1015 44 10000 4.13 68 17:46 24.02.2022
5144 Clouds 26 1016 43 10000 4.85 70 16:57 24.02.2022
5145 Clear 26 1016 43 10000 5.19 72 16:25 24.02.2022
5146 Clear 27 1016 43 10000 5.19 72 15:31 24.02.2022
5147 Clear 28 1015 42 10000 4.83 76 14:43 24.02.2022
5148 Clear 28 1014 41 10000 3.56 59 13:45 24.02.2022
5149 Clear 29 1013 40 10000 2.21 16 13:27 24.02.2022
5150 Clear 32 1011 36 10000 2.98 32 10:48 24.02.2022
5151 Clear 33 1011 35 10000 3.02 44 09:41 24.02.2022
5152 Clear 32 1012 35 10000 3.29 56 08:42 24.02.2022
5153 Clear 31 1016 37 10000 3.36 77 06:25 24.02.2022
5154 Clear 29 1016 37 10000 3.36 77 05:36 24.02.2022
5155 Clear 23 1015 55 10000 1.53 347 00:30 24.02.2022
5156 Clear 24 1013 53 10000 2.1 29 21:56 23.02.2022
5157 Clear 24 1014 51 10000 2.63 50 20:33 23.02.2022
5158 Clear 24 1014 50 10000 3.13 67 19:56 23.02.2022
5159 Clouds 25 1014 48 10000 3.34 72 19:23 23.02.2022
5160 Clouds 26 1014 47 10000 3.43 76 17:47 23.02.2022
5161 Clouds 28 1014 45 10000 4.22 74 16:18 23.02.2022
5162 Clouds 30 1013 45 10000 2 97 13:36 23.02.2022
5163 Clouds 31 1010 42 10000 3.09 78 12:29 23.02.2022
5164 Clouds 32 1010 39 10000 2.53 68 10:55 23.02.2022
5165 Clouds 32 1010 37 10000 2.14 58 09:38 23.02.2022
5166 Clouds 32 1011 37 10000 2.18 57 08:36 23.02.2022
5167 Clouds 31 1013 39 10000 2.09 47 07:25 23.02.2022
5168 Clear 25 1015 57 10000 2.49 8 02:23 23.02.2022
5169 Clouds 24 1013 58 10000 2.59 51 23:50 22.02.2022
5170 Clouds 24 1013 58 10000 2.59 51 23:31 22.02.2022
5171 Clouds 25 1012 55 10000 2.12 104 22:28 22.02.2022
5172 Clouds 25 1012 55 10000 2.12 104 21:40 22.02.2022
5173 Clouds 25 1013 55 10000 1.96 92 21:19 22.02.2022
5174 Clouds 25 1013 55 10000 1.96 92 20:31 22.02.2022
5175 Clouds 26 1013 55 10000 2.33 91 19:54 22.02.2022
5176 Clouds 26 1013 55 10000 2.33 91 19:33 22.02.2022
5177 Clouds 27 1013 54 10000 2.82 105 18:35 22.02.2022
5178 Clouds 27 1014 60 10000 2.98 144 17:27 22.02.2022
5179 Clouds 27 1014 60 10000 2.98 144 16:55 22.02.2022
5180 Clouds 27 1014 58 10000 3.01 164 16:20 22.02.2022
5181 Clouds 29 1013 55 10000 2.89 170 15:21 22.02.2022
5182 Clouds 29 1012 51 10000 2.2 167 14:19 22.02.2022
5183 Clouds 31 1010 50 10000 3.45 182 11:38 22.02.2022
5184 Clear 32 1009 43 10000 2.04 156 09:44 22.02.2022
5185 Clouds 31 1013 46 10000 1.28 62 07:29 22.02.2022
5186 Clouds 30 1013 47 10000 1.35 65 06:54 22.02.2022
5187 Clouds 23 1015 62 10000 2 36 02:50 22.02.2022
5188 Clouds 23 1012 69 10000 3.78 52 23:18 21.02.2022
5189 Clouds 23 1012 69 10000 3.78 52 22:36 21.02.2022
5190 Clear 24 1012 68 10000 4.72 73 20:52 21.02.2022
5191 Clouds 24 1012 67 10000 4.67 87 18:47 21.02.2022
5192 Clouds 24 1012 68 10000 5.05 107 18:19 21.02.2022
5193 Clouds 25 1011 66 10000 4.94 106 15:49 21.02.2022
5194 Clouds 26 1010 61 10000 3.28 100 14:23 21.02.2022
5195 Clouds 27 1010 61 10000 3.28 100 13:31 21.02.2022
5196 Clouds 27 1009 64 10000 3.64 152 12:46 21.02.2022
5197 Clouds 28 1008 58 10000 3.29 150 12:21 21.02.2022
5198 Clouds 31 1007 46 10000 1.51 160 10:27 21.02.2022
5199 Clouds 31 1011 52 10000 1.58 268 06:25 21.02.2022
5200 Clouds 27 1009 78 10000 1.45 227 00:35 21.02.2022
5201 Clouds 26 1007 77 10000 2.88 196 22:32 20.02.2022
5202 Clouds 27 1007 77 10000 2.9 189 21:43 20.02.2022
5203 Rain 27 1007 77 10000 3.5 188 21:21 20.02.2022
5204 Clouds 27 1007 77 10000 3.5 188 20:43 20.02.2022
5205 Clouds 27 1008 77 10000 4.15 189 19:49 20.02.2022
5206 Clouds 28 1008 78 10000 5.26 178 18:55 20.02.2022
5207 Clouds 29 1008 78 10000 5.26 178 18:34 20.02.2022
5208 Clouds 29 1008 78 10000 5.82 172 17:55 20.02.2022
5209 Clouds 29 1009 77 10000 5.97 163 16:59 20.02.2022
5210 Clouds 28 1008 73 10000 5.25 166 14:55 20.02.2022
5211 Clouds 30 1007 71 10000 4.91 169 13:58 20.02.2022
5212 Clouds 30 1007 68 10000 4.64 176 12:42 20.02.2022
5213 Clouds 31 1007 64 10000 4.81 187 11:30 20.02.2022
5214 Rain 32 1006 55 10000 4.48 192 10:20 20.02.2022
5215 Clouds 33 1006 55 10000 4.31 188 09:24 20.02.2022
5216 Clouds 30 1010 66 10000 2.8 203 02:54 20.02.2022
5217 Clouds 27 1008 82 10000 2.02 198 00:31 20.02.2022
5218 Clouds 27 1008 83 10000 2.04 203 23:30 19.02.2022
5219 Clouds 27 1007 83 10000 2.71 206 22:23 19.02.2022
5220 Clouds 27 1007 83 10000 2.71 206 21:45 19.02.2022
5221 Clouds 27 1008 81 10000 3.51 201 20:25 19.02.2022
5222 Clouds 27 1008 81 10000 3.51 201 20:25 19.02.2022
5223 Clouds 27 1008 81 10000 3.51 201 20:24 19.02.2022
5224 Clouds 27 1008 81 10000 3.51 201 19:34 19.02.2022
5225 Clouds 28 1009 78 10000 3.7 187 18:38 19.02.2022
5226 Clouds 28 1009 77 10000 4.15 184 17:37 19.02.2022
5227 Clouds 28 1009 76 10000 4.43 181 16:44 19.02.2022
5228 Clouds 29 1009 74 10000 4.62 177 15:20 19.02.2022
5229 Clouds 29 1009 74 10000 4.62 177 14:52 19.02.2022
5230 Clouds 29 1009 72 10000 4.75 177 13:50 19.02.2022
5231 Clear 31 1007 66 10000 5.52 178 11:40 19.02.2022
5232 Clear 32 1007 60 10000 5.66 175 10:30 19.02.2022
5233 Clear 34 1007 55 10000 5.89 187 08:31 19.02.2022
5234 Clouds 32 1009 54 10000 5.65 185 06:30 19.02.2022
5235 Rain 24 1009 76 10000 2.67 192 23:55 18.02.2022
5236 Rain 27 1008 76 10000 3.5 194 22:24 18.02.2022
5237 Clouds 27 1009 78 10000 3.7 187 20:57 18.02.2022
5238 Clouds 27 1009 79 10000 3.54 185 19:55 18.02.2022
5239 Clouds 28 1010 78 10000 3.85 182 18:50 18.02.2022
5240 Clouds 28 1010 77 10000 4.39 183 18:24 18.02.2022
5241 Clouds 28 1010 77 10000 4.39 183 17:55 18.02.2022
5242 Clouds 28 1010 73 10000 4.44 182 15:23 18.02.2022
5243 Clouds 29 1009 71 10000 4.63 181 13:55 18.02.2022
5244 Clouds 29 1007 69 10000 4.93 183 12:55 18.02.2022
5245 Clouds 30 1007 68 10000 5.14 183 12:36 18.02.2022
5246 Clouds 31 1006 63 10000 5.55 184 11:40 18.02.2022
5247 Clouds 31 1006 55 10000 5.59 177 10:23 18.02.2022
5248 Rain 33 1008 53 10000 5.29 177 06:57 18.02.2022
5249 Rain 31 1009 56 10000 4.71 171 05:41 18.02.2022
5250 Clouds 25 1007 82 10000 2.13 156 23:34 17.02.2022
5251 Clouds 26 1007 82 10000 2.03 173 21:46 17.02.2022
5252 Clouds 25 1007 82 10000 2.23 171 21:20 17.02.2022
5253 Clouds 26 1007 82 10000 2.23 171 20:38 17.02.2022
5254 Clouds 26 1007 81 10000 2.55 175 19:50 17.02.2022
5255 Clouds 26 1007 80 10000 3.06 175 18:52 17.02.2022
5256 Clouds 25 1008 79 10000 3.1 177 17:55 17.02.2022
5257 Clouds 27 1008 77 10000 3.14 177 16:42 17.02.2022
5258 Clouds 26 1009 75 10000 3.4 176 15:38 17.02.2022
5259 Clouds 27 1008 71 10000 3.91 176 14:26 17.02.2022
5260 Clouds 27 1007 69 10000 4.25 180 12:38 17.02.2022
5261 Clouds 31 1005 64 10000 5.32 183 11:23 17.02.2022
5262 Clouds 32 1005 58 10000 5.12 186 08:53 17.02.2022
5263 Clouds 26 1008 78 10000 2.25 120 02:26 17.02.2022
5264 Clouds 26 1005 80 10000 1.31 122 23:21 16.02.2022
5265 Clouds 26 1005 79 10000 1.18 132 21:40 16.02.2022
5266 Clouds 26 1006 78 10000 1.01 179 19:57 16.02.2022
5267 Clouds 27 1007 82 10000 1.2 165 18:39 16.02.2022
5268 Clouds 26 1008 81 10000 1.32 174 17:53 16.02.2022
5269 Clouds 27 1009 79 10000 1.54 193 15:39 16.02.2022
5270 Clouds 27 1008 78 10000 1.66 188 15:18 16.02.2022
5271 Clouds 28 1006 72 10000 2.88 182 12:59 16.02.2022
5272 Rain 29 1006 68 10000 3.66 184 12:19 16.02.2022
5273 Rain 30 1005 61 10000 4 184 11:26 16.02.2022
5274 Clouds 30 1005 61 10000 4 184 10:33 16.02.2022
5275 Clouds 31 1006 59 10000 3.04 133 07:54 16.02.2022
5276 Clouds 30 1009 61 10000 3.52 99 06:26 16.02.2022
5277 Clouds 24 1008 92 10000 2.35 13 23:45 15.02.2022
5278 Clouds 24 1007 93 10000 2.45 349 22:29 15.02.2022
5279 Clouds 24 1007 93 10000 2.45 349 21:47 15.02.2022
5280 Clouds 24 1008 92 10000 2.22 342 21:27 15.02.2022
5281 Clouds 24 1008 92 10000 2.22 342 20:56 15.02.2022
5282 Clouds 24 1008 91 10000 2.07 353 19:57 15.02.2022
5283 Clouds 24 1009 90 10000 2.19 13 18:56 15.02.2022
5284 Clouds 25 1009 88 10000 2.06 48 18:21 15.02.2022
5285 Clouds 25 1009 88 10000 2.06 48 17:49 15.02.2022
5286 Clouds 26 1009 87 10000 2.44 61 16:38 15.02.2022
5287 Rain 26 1009 82 10000 2.13 112 15:26 15.02.2022
5288 Rain 27 1008 81 8746 1.52 168 13:27 15.02.2022
5289 Rain 30 1006 74 6786 2.19 132 11:58 15.02.2022
5290 Rain 30 1006 65 7228 2.32 119 10:59 15.02.2022
5291 Clouds 30 1006 63 9496 2.74 105 09:31 15.02.2022
5292 Rain 30 1009 54 10000 4.24 76 06:52 15.02.2022
5293 Clouds 29 1012 64 10000 3.53 77 03:55 15.02.2022
5294 Clouds 26 1008 80 10000 1.99 88 22:36 14.02.2022
5295 Clouds 26 1007 78 10000 2.15 89 21:35 14.02.2022
5296 Clouds 26 1007 77 10000 2.41 87 20:30 14.02.2022
5297 Clouds 26 1008 77 10000 1.85 108 19:32 14.02.2022
5298 Clouds 26 1008 75 7106 1.93 154 18:42 14.02.2022
5299 Clouds 27 1009 70 10000 2.26 140 17:58 14.02.2022
5300 Clouds 27 1009 66 10000 2.1 128 17:25 14.02.2022
5301 Clouds 27 1009 65 10000 2.28 106 16:19 14.02.2022
5302 Clouds 28 1008 68 10000 3.75 102 13:54 14.02.2022
5303 Clouds 29 1007 63 10000 3.35 126 13:26 14.02.2022
5304 Clouds 29 1007 58 10000 1.93 144 12:33 14.02.2022
5305 Clouds 30 1006 54 10000 2.19 123 11:54 14.02.2022
5306 Clouds 32 1006 51 10000 2.22 94 10:37 14.02.2022
5307 Rain 31 1006 49 10000 0.97 110 08:43 14.02.2022
5308 Clouds 31 1006 48 10000 2.13 164 07:30 14.02.2022
5309 Clouds 26 1007 76 10000 2.43 187 23:45 13.02.2022
5310 Clouds 26 1006 75 10000 2.51 184 22:42 13.02.2022
5311 Clouds 27 1006 75 10000 2.96 184 22:23 13.02.2022
5312 Clouds 27 1006 75 10000 2.96 184 21:30 13.02.2022
5313 Clouds 27 1006 74 10000 3.22 190 20:33 13.02.2022
5314 Clouds 28 1006 73 10000 3.35 192 19:30 13.02.2022
5315 Clouds 28 1007 72 10000 3.85 189 18:46 13.02.2022
5316 Clouds 28 1007 71 10000 4.55 188 18:26 13.02.2022
5317 Clouds 29 1008 68 10000 5 191 15:54 13.02.2022
5318 Clouds 29 1007 66 10000 4.75 187 15:24 13.02.2022
5319 Clouds 29 1007 31 10000 4.31 181 14:22 13.02.2022
5320 Clouds 30 1006 61 10000 4.2 173 12:50 13.02.2022
5321 Clouds 32 1005 53 10000 4.1 173 11:44 13.02.2022
5322 Clouds 33 1004 48 10000 3.74 178 10:33 13.02.2022
5323 Clouds 31 1004 47 10000 4.11 187 09:45 13.02.2022
5324 Clouds 33 1005 45 10000 3.76 177 07:48 13.02.2022
5325 Rain 25 1007 76 10000 2.02 180 00:35 13.02.2022
5326 Clouds 26 1006 75 10000 2.34 190 23:42 12.02.2022
5327 Clouds 26 1006 75 10000 2.26 203 22:33 12.02.2022
5328 Clouds 26 1006 74 10000 2.81 203 21:27 12.02.2022
5329 Clouds 27 1006 74 10000 2.81 203 20:34 12.02.2022
5330 Clouds 26 1007 74 10000 3.56 190 19:27 12.02.2022
5331 Clouds 26 1007 74 10000 3.56 190 18:53 12.02.2022
5332 Clouds 27 1007 73 10000 3.67 192 18:35 12.02.2022
5333 Clouds 27 1008 73 10000 3.54 207 16:58 12.02.2022
5334 Clouds 27 1009 70 10000 3.41 194 16:25 12.02.2022
5335 Clouds 27 1009 70 10000 3.41 194 15:51 12.02.2022
5336 Clouds 28 1008 67 10000 3.24 183 14:31 12.02.2022
5337 Clouds 28 1007 62 10000 3.25 162 13:19 12.02.2022
5338 Clouds 30 1005 54 10000 3.9 168 10:41 12.02.2022
5339 Clouds 31 1005 51 10000 3.46 174 09:39 12.02.2022
5340 Clouds 31 1006 50 10000 2.81 184 09:21 12.02.2022
5341 Clouds 30 1007 52 10000 2.15 192 08:18 12.02.2022
5342 Clouds 30 1007 52 10000 2.15 192 08:18 12.02.2022
5343 Clouds 31 1009 54 10000 3.02 175 05:33 12.02.2022
5344 Clouds 29 1011 66 10000 1.31 206 04:27 12.02.2022
5345 Clouds 26 1010 74 10000 1.52 255 02:18 12.02.2022
5346 Clouds 27 1008 73 10000 1.59 211 22:29 11.02.2022
5347 Clouds 27 1008 73 10000 1.59 211 21:55 11.02.2022
5348 Clouds 28 1008 73 10000 2.31 209 20:41 11.02.2022
5349 Clouds 27 1008 73 10000 2.39 202 19:47 11.02.2022
5350 Clouds 27 1010 74 10000 2.27 200 19:27 11.02.2022
5351 Clouds 28 1010 70 10000 2.63 195 17:59 11.02.2022
5352 Clouds 28 1010 68 10000 2.68 206 17:26 11.02.2022
5353 Clouds 28 1010 68 10000 2.89 201 16:23 11.02.2022
5354 Clouds 27 1010 66 10000 3.46 180 14:43 11.02.2022
5355 Clouds 27 1009 64 10000 4.13 168 14:21 11.02.2022
5356 Clouds 28 1009 64 10000 4.13 168 13:59 11.02.2022
5357 Clouds 28 1009 64 10000 4.13 168 13:39 11.02.2022
5358 Clouds 32 1007 56 10000 4.25 166 11:42 11.02.2022
5359 Rain 32 1006 49 10000 4.54 168 09:58 11.02.2022
5360 Rain 33 1006 49 10000 4.79 170 08:49 11.02.2022
5361 Clouds 34 1007 46 10000 4.32 169 08:26 11.02.2022
5362 Clouds 33 1008 45 10000 3.34 183 07:18 11.02.2022
5363 Clouds 28 1010 72 10000 2.34 195 02:26 11.02.2022
5364 Clouds 27 1009 77 10000 2.05 191 00:52 11.02.2022
5365 Clouds 28 1008 75 10000 2.52 198 22:51 10.02.2022
5366 Clouds 28 1008 75 10000 2.9 191 21:46 10.02.2022
5367 Clouds 28 1008 74 10000 3.29 190 20:59 10.02.2022
5368 Clouds 28 1008 74 10000 3.29 190 20:38 10.02.2022
5369 Clouds 28 1009 73 10000 3.94 187 19:26 10.02.2022
5370 Clouds 29 1009 73 10000 3.94 187 18:46 10.02.2022
5371 Clouds 28 1009 71 10000 5.09 189 17:26 10.02.2022
5372 Clouds 28 1009 71 10000 5.09 189 16:50 10.02.2022
5373 Clouds 29 1010 68 10000 5.14 188 15:51 10.02.2022
5374 Clouds 29 1010 68 10000 5.14 188 15:30 10.02.2022
5375 Clouds 29 1009 64 10000 5.01 180 14:48 10.02.2022
5376 Clouds 29 1009 61 10000 4.56 182 14:24 10.02.2022
5377 Clouds 29 1008 58 10000 4.84 184 13:29 10.02.2022
5378 Rain 30 1008 60 10000 5.43 184 12:45 10.02.2022
5379 Clouds 31 1007 54 10000 5 190 11:33 10.02.2022
5380 Clouds 31 1007 49 10000 5.16 184 10:44 10.02.2022
5381 Clouds 33 1006 42 10000 5.83 180 09:57 10.02.2022
5382 Clouds 33 1007 39 10000 4.44 178 09:23 10.02.2022
5383 Clouds 33 1009 42 10000 2.89 150 07:28 10.02.2022
5384 Clouds 31 1012 51 10000 2.41 95 04:55 10.02.2022
5385 Clouds 28 1011 68 10000 1.38 244 01:48 10.02.2022
5386 Clouds 27 1010 74 10000 1.26 247 00:47 10.02.2022
5387 Clouds 27 1009 75 10000 1.92 226 00:27 10.02.2022
5388 Rain 27 1009 75 10000 2.49 209 23:22 09.02.2022
5389 Clouds 26 1009 75 10000 2.49 209 22:35 09.02.2022
5390 Rain 26 1009 74 10000 2.67 211 21:50 09.02.2022
5391 Clouds 27 1009 74 10000 3.22 210 21:28 09.02.2022
5392 Clouds 28 1009 74 10000 3.22 210 20:47 09.02.2022
5393 Clouds 28 1010 73 10000 3.76 202 20:24 09.02.2022
5394 Clouds 28 1010 73 10000 3.76 202 19:45 09.02.2022
5395 Clouds 28 1010 72 10000 4.44 193 19:22 09.02.2022
5396 Clouds 29 1011 73 10000 5.52 187 17:35 09.02.2022
5397 Clouds 29 1011 71 10000 5.61 184 16:32 09.02.2022
5398 Clouds 29 1011 67 10000 5.02 183 15:33 09.02.2022
5399 Clouds 29 1009 62 10000 4.11 165 14:25 09.02.2022
5400 Clouds 30 1008 57 10000 5.81 178 12:27 09.02.2022
5401 Clouds 31 1008 49 10000 5.84 176 10:47 09.02.2022
5402 Clouds 34 1007 44 10000 6.49 179 09:59 09.02.2022
5403 Clouds 33 1007 38 10000 5.36 181 09:23 09.02.2022
5404 Clouds 33 1007 38 10000 5.36 181 09:23 09.02.2022
5405 Clouds 34 1007 38 10000 5.36 181 08:58 09.02.2022
5406 Clouds 35 1008 37 10000 3.8 185 07:34 09.02.2022
5407 Clear 32 1011 41 10000 2.17 182 05:30 09.02.2022
5408 Clear 32 1013 49 10000 2 183 03:50 09.02.2022
5409 Clear 27 1010 68 10000 1.52 191 00:21 09.02.2022
5410 Clear 27 1009 67 10000 2.16 218 23:29 08.02.2022
5411 Clear 27 1009 67 10000 2.16 218 22:43 08.02.2022
5412 Rain 27 1009 67 10000 2.96 212 22:20 08.02.2022
5413 Clear 28 1009 67 10000 2.96 212 21:38 08.02.2022
5414 Rain 28 1009 66 10000 3.6 200 21:19 08.02.2022
5415 Clouds 28 1009 66 10000 3.6 200 20:41 08.02.2022
5416 Rain 28 1009 66 10000 4.14 193 19:41 08.02.2022
5417 Rain 29 1010 67 10000 5.47 193 18:25 08.02.2022
5418 Rain 29 1010 67 10000 5.47 193 17:33 08.02.2022
5419 Rain 30 1010 62 10000 5.39 188 15:52 08.02.2022
5420 Clear 30 1009 52 10000 4.36 186 15:28 08.02.2022
5421 Clear 31 1008 45 10000 2.85 177 13:54 08.02.2022
5422 Rain 32 1007 45 10000 2.93 177 12:39 08.02.2022
5423 Rain 35 1006 37 10000 3.21 183 10:55 08.02.2022
5424 Rain 35 1007 35 10000 2.3 179 09:51 08.02.2022
5425 Clouds 35 1007 35 10000 1.86 172 08:54 08.02.2022
5426 Clouds 35 1010 38 10000 0.62 133 06:50 08.02.2022
5427 Clouds 32 1012 42 10000 1.1 336 04:40 08.02.2022
5428 Clouds 32 1013 47 10000 1.5 323 04:22 08.02.2022
5429 Clouds 30 1013 47 10000 1.5 323 03:36 08.02.2022
5430 Clouds 29 1012 52 10000 1.26 295 03:18 08.02.2022
5431 Clouds 28 1012 52 10000 1.26 295 02:59 08.02.2022
5432 Clouds 28 1012 52 10000 1.26 295 02:36 08.02.2022
5433 Clouds 27 1011 57 10000 1.48 294 02:18 08.02.2022
5434 Clouds 26 1011 57 10000 1.48 294 01:45 08.02.2022
5435 Clouds 26 1011 63 10000 1.58 280 01:25 08.02.2022
5436 Clouds 26 1011 63 10000 1.58 280 00:55 08.02.2022
5437 Clouds 26 1010 68 10000 1.35 230 00:32 08.02.2022
5438 Clouds 26 1010 68 10000 1.48 198 23:44 07.02.2022
5439 Clouds 26 1009 67 10000 1.8 180 23:18 07.02.2022
5440 Clouds 27 1009 67 10000 1.8 180 22:59 07.02.2022
5441 Clouds 27 1009 67 10000 1.8 180 22:59 07.02.2022
5442 Rain 27 1009 66 10000 1.75 202 22:19 07.02.2022
5443 Rain 27 1009 66 10000 1.75 202 21:51 07.02.2022
5444 Clouds 27 1009 66 10000 2.24 214 21:27 07.02.2022
5445 Rain 27 1009 66 10000 2.24 214 20:45 07.02.2022
5446 Clouds 27 1010 65 10000 2.56 214 20:27 07.02.2022
5447 Rain 28 1010 65 10000 2.56 214 19:47 07.02.2022
5448 Clouds 27 1010 63 10000 2.97 211 18:40 07.02.2022
5449 Rain 29 1010 62 10000 3.65 205 17:33 07.02.2022
5450 Rain 29 1010 59 10000 3.62 211 16:52 07.02.2022
5451 Rain 30 1010 55 10000 3.3 202 15:48 07.02.2022
5452 Rain 30 1010 46 10000 1.32 198 14:19 07.02.2022
5453 Rain 31 1008 44 10000 1.38 198 13:27 07.02.2022
5454 Clouds 32 1008 44 10000 1.38 198 12:35 07.02.2022
5455 Clouds 34 1008 40 10000 1.11 231 11:40 07.02.2022
5456 Rain 34 1007 38 10000 1.21 220 11:22 07.02.2022
5457 Rain 34 1007 38 10000 1.21 220 10:41 07.02.2022
5458 Rain 34 1007 37 10000 1.15 209 10:22 07.02.2022
5459 Rain 35 1007 37 10000 1.15 209 09:51 07.02.2022
5460 Rain 34 1008 37 10000 0.54 181 09:18 07.02.2022
5461 Clouds 34 1009 38 10000 0.77 110 07:44 07.02.2022
5462 Clouds 33 1010 39 10000 1.47 67 06:34 07.02.2022
5463 Clouds 31 1013 45 10000 2.48 66 04:31 07.02.2022
5464 Clouds 27 1013 53 10000 2.58 59 02:37 07.02.2022
5465 Clouds 25 1011 61 10000 1.82 24 00:20 07.02.2022
5466 Clouds 25 1010 60 10000 1.82 0 23:20 06.02.2022
5467 Clouds 26 1010 60 10000 1.82 0 22:41 06.02.2022
5468 Clouds 26 1010 59 10000 1.42 1 21:38 06.02.2022
5469 Clouds 26 1010 58 10000 1.18 41 21:20 06.02.2022
5470 Clouds 26 1010 58 10000 1.18 41 20:48 06.02.2022
5471 Clouds 26 1011 58 10000 1.27 61 20:21 06.02.2022
5472 Clouds 27 1012 58 10000 1.21 77 18:54 06.02.2022
5473 Clouds 28 1012 58 10000 0.44 308 18:28 06.02.2022
5474 Clouds 28 1012 58 10000 0.44 308 17:30 06.02.2022
5475 Clear 28 1012 58 10000 1.33 295 16:51 06.02.2022
5476 Clear 29 1012 57 10000 2.03 302 15:51 06.02.2022
5477 Clear 29 1012 57 10000 2.57 299 15:28 06.02.2022
5478 Rain 29 1012 57 10000 2.57 299 14:59 06.02.2022
5479 Rain 29 1011 56 10000 3.53 298 13:59 06.02.2022
5480 Clouds 30 1011 53 10000 3.76 293 13:20 06.02.2022
5481 Clouds 31 1009 43 10000 2.73 258 12:19 06.02.2022
5482 Clouds 32 1008 38 10000 1.77 243 10:33 06.02.2022
5483 Clouds 32 1008 37 10000 1.15 217 09:36 06.02.2022
5484 Clouds 33 1009 37 10000 0.56 139 08:41 06.02.2022
5485 Clouds 31 1011 39 10000 2.29 83 06:31 06.02.2022
5486 Clouds 30 1014 44 10000 2.61 80 05:28 06.02.2022
5487 Clouds 25 1013 59 10000 3.11 95 02:25 06.02.2022
5488 Clouds 25 1012 62 10000 3.23 89 00:32 06.02.2022
5489 Clouds 25 1011 64 10000 2.26 88 23:38 05.02.2022
5490 Clouds 25 1011 63 10000 1.91 67 21:46 05.02.2022
5491 Clouds 26 1011 63 10000 1.78 65 20:39 05.02.2022
5492 Clouds 26 1012 62 10000 1.29 46 20:19 05.02.2022
5493 Clouds 26 1012 62 10000 1.29 46 19:41 05.02.2022
5494 Clouds 27 1012 63 10000 1.35 230 18:26 05.02.2022
5495 Clouds 27 1012 63 10000 1.35 230 17:34 05.02.2022
5496 Clouds 29 1012 61 10000 2.45 178 15:43 05.02.2022
5497 Rain 29 1012 59 10000 3.13 169 15:25 05.02.2022
5498 Clouds 30 1010 51 10000 3.08 155 13:24 05.02.2022
5499 Clouds 31 1010 49 10000 2.11 205 12:42 05.02.2022
5500 Clouds 32 1008 42 10000 0.64 282 11:18 05.02.2022
5501 Clouds 32 1008 42 10000 0.64 282 10:43 05.02.2022
5502 Clouds 32 1009 41 10000 0.2 93 09:49 05.02.2022
5503 Clouds 32 1011 40 10000 3.18 112 08:21 05.02.2022
5504 Clouds 31 1012 45 10000 3.81 106 06:58 05.02.2022
5505 Clouds 31 1013 46 10000 3.97 95 05:44 05.02.2022
5506 Clouds 26 1013 62 10000 4.11 97 01:47 05.02.2022
5507 Clouds 26 1012 66 10000 3.65 86 01:18 05.02.2022
5508 Clouds 25 1012 75 10000 2.61 64 00:36 05.02.2022
5509 Clouds 25 1011 76 10000 1.92 54 23:33 04.02.2022
5510 Clouds 25 1010 71 10000 1.93 63 22:28 04.02.2022
5511 Clouds 26 1010 71 10000 1.93 63 21:36 04.02.2022
5512 Clouds 26 1010 67 10000 1.73 55 21:18 04.02.2022
5513 Clouds 26 1010 65 10000 1.4 62 20:21 04.02.2022
5514 Clouds 26 1011 59 10000 1.86 122 18:27 04.02.2022
5515 Clouds 26 1011 54 10000 2.35 97 15:55 04.02.2022
5516 Clouds 27 1010 52 10000 2.27 83 14:56 04.02.2022
5517 Rain 27 1010 51 10000 3.03 72 13:55 04.02.2022
5518 Rain 31 1009 49 10000 2.9 53 12:43 04.02.2022
5519 Rain 32 1008 48 10000 1.11 25 11:43 04.02.2022
5520 Clouds 32 1008 46 10000 1.2 96 10:37 04.02.2022
5521 Clouds 34 1008 46 10000 2 148 08:49 04.02.2022
5522 Clouds 32 1011 50 10000 2.43 90 06:57 04.02.2022
5523 Clouds 28 1013 68 10000 0.97 62 02:51 04.02.2022
5524 Clouds 27 1012 76 10000 0.37 160 01:56 04.02.2022
5525 Clouds 26 1010 77 10000 1.92 187 23:31 03.02.2022
5526 Clouds 26 1009 76 10000 1.98 195 22:46 03.02.2022
5527 Clouds 27 1009 75 10000 1.99 198 21:49 03.02.2022
5528 Clouds 27 1009 74 10000 2.06 204 20:41 03.02.2022
5529 Clouds 27 1010 73 10000 2.1 194 20:19 03.02.2022
5530 Clouds 27 1010 73 10000 2.1 194 19:32 03.02.2022
5531 Clouds 27 1010 71 10000 2.59 187 18:40 03.02.2022
5532 Clouds 28 1011 69 10000 2.83 187 17:35 03.02.2022
5533 Clouds 28 1011 68 10000 2.9 185 16:35 03.02.2022
5534 Clouds 28 1011 65 10000 3 179 14:49 03.02.2022
5535 Clouds 30 1009 62 10000 4.13 189 12:58 03.02.2022
5536 Clouds 32 1008 51 10000 4.92 180 11:23 03.02.2022
5537 Clouds 33 1008 45 10000 5.05 187 08:37 03.02.2022
5538 Rain 31 1012 50 10000 3.73 170 05:26 03.02.2022
5539 Rain 25 1011 83 10000 2.06 190 00:32 03.02.2022
5540 Clear 25 1010 82 10000 2.23 199 23:43 02.02.2022
5541 Rain 26 1009 78 10000 2.61 191 22:19 02.02.2022
5542 Rain 26 1009 78 10000 2.61 191 21:34 02.02.2022
5543 Clear 26 1010 77 10000 2.98 186 20:51 02.02.2022
5544 Clear 27 1010 75 10000 3.25 183 19:59 02.02.2022
5545 Clear 27 1011 73 10000 3.54 182 19:27 02.02.2022
5546 Clear 27 1010 73 10000 3.55 189 18:46 02.02.2022
5547 Clear 27 1011 72 10000 3.75 187 17:57 02.02.2022
5548 Clear 28 1011 71 10000 4.2 185 17:19 02.02.2022
5549 Clear 28 1011 71 10000 4.2 185 16:42 02.02.2022
5550 Clear 30 1010 61 10000 4.76 160 13:28 02.02.2022
5551 Clear 30 1009 57 10000 5.56 154 12:25 02.02.2022
5552 Clear 32 1009 57 10000 5.56 154 11:34 02.02.2022
5553 Clear 33 1009 48 10000 4.93 178 10:22 02.02.2022
5554 Clear 33 1010 47 10000 5.47 183 07:35 02.02.2022
5555 Clouds 26 1009 78 10000 3.36 200 22:52 01.02.2022
5556 Clouds 27 1009 77 10000 3.61 195 21:51 01.02.2022
5557 Clouds 27 1009 76 10000 4.35 187 20:35 01.02.2022
5558 Clear 28 1010 73 10000 4.87 186 17:44 01.02.2022
5559 Clear 28 1010 72 10000 4.87 186 16:39 01.02.2022
5560 Clouds 29 1009 65 10000 5.49 168 14:24 01.02.2022
5561 Clouds 30 1008 65 10000 5.5 166 12:43 01.02.2022
5562 Clear 32 1008 59 10000 5.51 173 11:30 01.02.2022
5563 Clear 32 1012 51 10000 5.5 179 04:53 01.02.2022
5564 Clouds 26 1009 76 10000 3.6 181 23:41 31.01.2022
5565 Clouds 27 1009 76 10000 3.87 178 22:58 31.01.2022
5566 Clear 27 1008 76 10000 4.11 175 21:40 31.01.2022
5567 Clear 27 1008 75 10000 4.07 174 21:19 31.01.2022
5568 Clear 27 1009 75 10000 4.36 178 20:29 31.01.2022
5569 Clear 27 1009 74 10000 4.71 185 19:29 31.01.2022
5570 Clear 27 1010 74 10000 5.37 188 18:26 31.01.2022
5571 Clear 28 1009 72 10000 5.31 192 17:32 31.01.2022
5572 Clear 28 1010 71 10000 5.81 186 16:29 31.01.2022
5573 Clear 28 1010 70 10000 5.96 181 14:54 31.01.2022
5574 Clear 29 1009 67 10000 5.73 180 14:22 31.01.2022
5575 Clear 30 1008 65 10000 5.57 169 12:39 31.01.2022
5576 Clear 31 1008 58 10000 5.57 169 11:55 31.01.2022
5577 Clear 33 1007 49 10000 5.27 177 10:50 31.01.2022
5578 Clear 33 1007 49 10000 5.27 177 10:50 31.01.2022
5579 Clear 33 1007 46 10000 5.55 181 10:25 31.01.2022
5580 Clear 33 1007 45 10000 5.85 181 09:23 31.01.2022
5581 Clear 34 1007 45 10000 5.85 181 08:47 31.01.2022
5582 Clear 34 1008 46 10000 5.53 185 08:20 31.01.2022
5583 Clouds 33 1010 50 10000 5.4 184 06:18 31.01.2022
5584 Clear 25 1009 75 10000 3.4 202 00:46 31.01.2022
5585 Clear 27 1008 74 10000 3.96 196 22:40 30.01.2022
5586 Clouds 27 1008 74 10000 4.24 191 22:22 30.01.2022
5587 Clouds 26 1008 74 10000 4.24 191 21:38 30.01.2022
5588 Clouds 26 1008 75 10000 4.71 187 21:18 30.01.2022
5589 Clouds 27 1008 75 10000 4.71 187 20:45 30.01.2022
5590 Clouds 27 1008 75 10000 5.02 185 20:27 30.01.2022
5591 Clouds 28 1009 74 10000 5.4 182 19:24 30.01.2022
5592 Clouds 27 1009 74 10000 5.4 182 18:36 30.01.2022
5593 Clouds 27 1009 72 10000 5.4 186 17:54 30.01.2022
5594 Clouds 27 1009 70 10000 5.68 187 17:21 30.01.2022
5595 Clouds 29 1009 70 10000 5.68 187 16:39 30.01.2022
5596 Clouds 29 1010 66 10000 5.81 187 16:21 30.01.2022
5597 Clouds 28 1010 66 10000 5.81 187 15:50 30.01.2022
5598 Clouds 29 1010 66 10000 5.81 187 15:31 30.01.2022
5599 Rain 30 1009 62 10000 5.61 186 14:46 30.01.2022
5600 Rain 30 1009 62 10000 5.61 186 14:46 30.01.2022
5601 Clouds 31 1006 53 10000 5.1 157 12:47 30.01.2022
5602 Clouds 33 1006 44 10000 4.7 149 11:53 30.01.2022
5603 Clouds 36 1006 36 10000 4.12 162 10:32 30.01.2022
5604 Clouds 36 1006 32 10000 3.8 180 09:50 30.01.2022
5605 Rain 35 1006 29 10000 2.23 199 08:54 30.01.2022
5606 Rain 35 1009 30 10000 1.14 269 07:28 30.01.2022
5607 Clouds 27 1010 56 10000 2.4 309 01:56 30.01.2022
5608 Clouds 27 1010 56 10000 2.4 309 01:56 30.01.2022
5609 Clouds 26 1008 74 10000 2.05 276 00:22 30.01.2022
5610 Clouds 26 1008 76 10000 2.21 259 23:18 29.01.2022
5611 Clouds 27 1008 75 10000 2.73 226 21:49 29.01.2022
5612 Clouds 27 1008 75 10000 2.89 209 21:24 29.01.2022
5613 Clouds 27 1008 74 10000 3.23 199 20:28 29.01.2022
5614 Clouds 28 1008 74 10000 3.23 199 19:34 29.01.2022
5615 Clouds 28 1009 73 10000 3.7 197 18:52 29.01.2022
5616 Clouds 28 1009 74 10000 4.86 195 18:18 29.01.2022
5617 Clouds 28 1009 75 10000 5.06 196 17:28 29.01.2022
5618 Clouds 29 1009 73 10000 5.46 194 15:50 29.01.2022
5619 Rain 30 1007 66 10000 6.04 180 13:59 29.01.2022
5620 Rain 30 1007 66 10000 6.04 180 13:41 29.01.2022
5621 Clouds 30 1006 58 10000 5.5 162 13:22 29.01.2022
5622 Clouds 32 1006 52 10000 4.58 153 11:47 29.01.2022
5623 Clear 34 1005 47 10000 4.77 160 10:54 29.01.2022
5624 Clear 35 1006 41 10000 4.66 179 08:42 29.01.2022
5625 Clouds 33 1008 40 10000 3.22 196 06:37 29.01.2022
5626 Rain 26 1010 75 10000 2.41 188 00:34 29.01.2022
5627 Clouds 26 1009 75 10000 2.54 194 23:44 28.01.2022
5628 Clouds 26 1009 75 10000 2.94 193 22:48 28.01.2022
5629 Clouds 26 1008 74 10000 3.19 188 22:20 28.01.2022
5630 Clouds 26 1008 75 10000 3.21 188 20:42 28.01.2022
5631 Clear 26 1009 75 10000 3.43 194 20:23 28.01.2022
5632 Clear 27 1010 74 10000 3.71 201 19:28 28.01.2022
5633 Clear 27 1010 74 10000 3.71 201 18:38 28.01.2022
5634 Clear 28 1010 73 10000 5.15 199 16:39 28.01.2022
5635 Clear 28 1010 66 10000 4.81 181 14:59 28.01.2022
5636 Clear 30 1009 60 10000 4.38 171 13:34 28.01.2022
5637 Rain 31 1007 46 10000 4.08 183 12:26 28.01.2022
5638 Clear 33 1007 42 10000 4.64 175 10:32 28.01.2022
5639 Rain 34 1007 41 10000 5.59 186 09:47 28.01.2022
5640 Clear 33 1009 39 10000 4.12 183 07:43 28.01.2022
5641 Clouds 32 1010 39 10000 2.94 183 06:30 28.01.2022
5642 Clouds 29 1012 50 10000 1.76 174 03:51 28.01.2022
5643 Clouds 27 1011 65 10000 0.65 193 02:29 28.01.2022
5644 Clouds 26 1011 65 10000 0.65 193 01:57 28.01.2022
5645 Clouds 26 1011 65 10000 0.65 193 01:57 28.01.2022
5646 Rain 25 1010 70 10000 0.73 211 01:29 28.01.2022
5647 Clear 26 1009 69 10000 1.25 185 22:39 27.01.2022
5648 Clear 26 1009 69 10000 1.64 205 21:41 27.01.2022
5649 Clear 27 1009 68 10000 2.49 198 20:59 27.01.2022
5650 Clear 27 1010 66 10000 2.82 197 19:47 27.01.2022
5651 Clouds 27 1010 65 10000 3.86 203 18:22 27.01.2022
5652 Clouds 28 1010 63 10000 4.3 205 16:59 27.01.2022
5653 Clear 29 1009 49 10000 3.16 205 14:23 27.01.2022
5654 Clouds 29 1008 47 10000 3.22 183 12:49 27.01.2022
5655 Clouds 30 1007 42 10000 2.7 187 12:18 27.01.2022
5656 Clouds 29 1007 38 10000 2.7 203 09:48 27.01.2022
5657 Rain 33 1007 36 10000 1.39 181 08:40 27.01.2022
5658 Rain 34 1008 37 10000 0.81 162 07:53 27.01.2022
5659 Clouds 29 1012 59 10000 0.91 196 03:34 27.01.2022
5660 Clouds 25 1009 78 10000 1.83 191 00:24 27.01.2022
5661 Rain 26 1009 75 10000 2.3 182 22:28 26.01.2022
5662 Rain 26 1009 75 10000 2.3 182 21:44 26.01.2022
5663 Clouds 26 1009 74 10000 2.85 182 20:52 26.01.2022
5664 Clouds 26 1009 74 10000 2.85 182 20:32 26.01.2022
5665 Clouds 27 1010 73 10000 3.16 185 19:49 26.01.2022
5666 Clouds 28 1010 72 10000 3.71 189 18:48 26.01.2022
5667 Clear 27 1010 72 10000 4.68 192 18:24 26.01.2022
5668 Clear 27 1010 72 10000 4.68 192 17:33 26.01.2022
5669 Clear 27 1010 69 10000 4.92 199 16:49 26.01.2022
5670 Clear 28 1010 67 10000 4.72 196 16:22 26.01.2022
5671 Clear 29 1010 64 10000 4.19 184 14:40 26.01.2022
5672 Clear 31 1007 48 10000 4.26 180 12:20 26.01.2022
5673 Clear 32 1007 43 10000 4.48 196 10:52 26.01.2022
5674 Clear 32 1007 40 10000 4.6 204 09:52 26.01.2022
5675 Clear 33 1007 39 10000 3.81 200 08:49 26.01.2022
5676 Clear 32 1009 41 10000 2 173 06:36 26.01.2022
5677 Clouds 25 1009 72 10000 1.63 172 00:24 26.01.2022
5678 Clouds 25 1009 72 10000 1.63 172 23:41 25.01.2022
5679 Clouds 25 1009 71 10000 1.29 185 22:48 25.01.2022
5680 Clouds 25 1009 70 10000 1.47 188 22:18 25.01.2022
5681 Clouds 26 1009 69 10000 2 197 21:27 25.01.2022
5682 Rain 26 1009 69 10000 2 197 20:45 25.01.2022
5683 Clouds 26 1009 68 10000 2.6 199 19:54 25.01.2022
5684 Clear 26 1010 68 10000 3.03 206 19:23 25.01.2022
5685 Rain 27 1009 68 10000 3.79 204 17:56 25.01.2022
5686 Rain 27 1009 66 10000 4 199 17:18 25.01.2022
5687 Rain 28 1009 66 10000 4 199 16:34 25.01.2022
5688 Clear 28 1009 59 10000 3.69 197 15:39 25.01.2022
5689 Clear 29 1009 50 10000 3.38 194 15:19 25.01.2022
5690 Clear 29 1009 50 10000 3.38 194 14:51 25.01.2022
5691 Rain 31 1007 39 10000 2.76 188 12:20 25.01.2022
5692 Rain 34 1007 34 10000 1.73 221 09:24 25.01.2022
5693 Clear 34 1008 36 10000 0.88 185 07:52 25.01.2022
5694 Clear 34 1009 41 10000 0.68 138 06:55 25.01.2022
5695 Clouds 32 1012 49 10000 0.45 189 05:23 25.01.2022
5696 Rain 24 1010 70 10000 0.74 2 00:31 25.01.2022
5697 Rain 24 1010 70 10000 1.12 335 23:36 24.01.2022
5698 Rain 24 1009 71 10000 1.49 330 23:18 24.01.2022
5699 Rain 24 1009 71 10000 1.49 330 22:42 24.01.2022
5700 Rain 25 1009 71 10000 1.42 314 21:58 24.01.2022
5701 Rain 25 1009 71 10000 1.42 314 21:32 24.01.2022
5702 Rain 25 1009 71 10000 1.41 254 20:38 24.01.2022
5703 Rain 25 1009 70 10000 2.29 231 20:20 24.01.2022
5704 Clear 26 1009 70 10000 2.29 231 19:38 24.01.2022
5705 Clear 26 1009 69 10000 2.78 226 18:47 24.01.2022
5706 Rain 26 1009 60 10000 2.69 212 17:24 24.01.2022
5707 Clear 27 1009 60 10000 2.69 212 16:58 24.01.2022
5708 Clear 27 1009 60 10000 2.69 212 16:58 24.01.2022
5709 Clear 27 1009 60 10000 2.69 212 16:58 24.01.2022
5710 Rain 27 1009 60 10000 2.69 212 16:30 24.01.2022
5711 Clear 28 1009 43 10000 2.73 176 14:54 24.01.2022
5712 Rain 29 1008 41 10000 2.7 163 13:38 24.01.2022
5713 Clear 31 1007 38 10000 3.04 162 12:32 24.01.2022
5714 Rain 32 1007 33 10000 4.69 176 11:21 24.01.2022
5715 Rain 33 1007 31 10000 4.06 187 09:50 24.01.2022
5716 Rain 33 1007 31 10000 2.89 193 09:25 24.01.2022
5717 Clear 32 1010 35 10000 1.26 204 07:28 24.01.2022
5718 Clear 23 1011 71 10000 0.75 262 01:34 24.01.2022
5719 Clear 23 1010 77 10000 0.79 325 00:47 24.01.2022
5720 Clear 23 1009 77 10000 1.15 258 00:28 24.01.2022
5721 Clear 24 1009 76 10000 1.66 234 22:46 23.01.2022
5722 Clear 25 1008 75 10000 2.11 224 21:51 23.01.2022
5723 Clear 25 1008 73 10000 2.18 213 21:27 23.01.2022
5724 Clear 25 1008 73 10000 2.18 213 20:54 23.01.2022
5725 Clear 25 1009 71 10000 2.74 200 19:55 23.01.2022
5726 Clear 26 1009 70 10000 3.31 195 18:52 23.01.2022
5727 Clear 26 1009 71 10000 4.56 193 17:54 23.01.2022
5728 Clear 27 1009 70 10000 4.71 193 16:52 23.01.2022
5729 Clear 28 1009 58 10000 4.74 178 15:18 23.01.2022
5730 Rain 28 1009 58 10000 4.74 178 14:33 23.01.2022
5731 Clear 29 1008 53 10000 4.48 158 13:43 23.01.2022
5732 Clear 30 1007 50 10000 4.22 148 12:40 23.01.2022
5733 Clear 30 1007 47 10000 4.21 155 12:18 23.01.2022
5734 Clear 32 1007 40 10000 4.1 166 11:25 23.01.2022
5735 Clear 32 1007 40 10000 4.1 166 10:57 23.01.2022
5736 Clear 33 1006 36 10000 3.44 177 10:23 23.01.2022
5737 Clear 32 1007 34 10000 2.48 192 09:22 23.01.2022
5738 Clear 32 1011 43 10000 1.7 255 05:59 23.01.2022
5739 Clear 25 1011 77 10000 2.02 292 02:25 23.01.2022
5740 Clear 24 1011 77 10000 2.02 292 01:35 23.01.2022
5741 Clear 24 1010 82 10000 1.9 289 00:41 23.01.2022
5742 Clear 24 1009 81 10000 1.82 270 23:57 22.01.2022
5743 Clear 24 1008 79 10000 1.92 242 22:48 22.01.2022
5744 Clear 24 1008 76 10000 2.12 202 21:58 22.01.2022
5745 Clear 25 1008 72 10000 3.3 179 20:26 22.01.2022
5746 Clear 25 1008 72 10000 3.3 179 19:34 22.01.2022
5747 Clouds 26 1009 71 10000 4.05 179 18:36 22.01.2022
5748 Clouds 26 1009 69 10000 3.62 173 17:42 22.01.2022
5749 Clouds 26 1009 70 10000 3.3 169 16:57 22.01.2022
5750 Clouds 26 1010 69 10000 3.4 168 16:20 22.01.2022
5751 Clouds 27 1010 69 10000 3.4 168 15:42 22.01.2022
5752 Clouds 28 1009 63 10000 3.97 171 14:22 22.01.2022
5753 Clouds 28 1008 64 10000 3.71 174 13:27 22.01.2022
5754 Clouds 29 1007 64 10000 4.24 175 12:32 22.01.2022
5755 Clouds 29 1007 60 10000 5.05 173 11:58 22.01.2022
5756 Clouds 31 1006 54 10000 5.66 170 10:39 22.01.2022
5757 Clouds 31 1006 50 10000 5.13 160 10:19 22.01.2022
5758 Clouds 31 1006 48 10000 5.41 173 08:54 22.01.2022
5759 Clouds 31 1006 48 10000 5.41 173 08:31 22.01.2022
5760 Clear 28 1011 59 10000 2.09 203 05:20 22.01.2022
5761 Clear 24 1011 79 10000 2.63 243 02:27 22.01.2022
5762 Clear 24 1009 80 10000 3.56 211 23:49 21.01.2022
5763 Clear 25 1008 79 10000 3.29 191 22:58 21.01.2022
5764 Clear 25 1009 77 10000 4.21 176 20:48 21.01.2022
5765 Clouds 26 1010 77 10000 3.8 169 19:20 21.01.2022
5766 Clouds 27 1010 77 10000 4.4 174 17:48 21.01.2022
5767 Clouds 28 1011 76 10000 4.15 167 15:48 21.01.2022
5768 Clouds 28 1011 73 10000 3.68 164 14:41 21.01.2022
5769 Clouds 28 1009 66 10000 4.32 169 12:43 21.01.2022
5770 Clouds 30 1008 56 10000 5.12 165 11:29 21.01.2022
5771 Clouds 30 1007 53 10000 4.92 168 10:27 21.01.2022
5772 Clouds 30 1008 51 10000 5 172 08:50 21.01.2022
5773 Clouds 30 1010 53 10000 4.43 179 07:48 21.01.2022
5774 Clouds 25 1012 76 10000 2.52 199 01:48 21.01.2022
5775 Clouds 26 1010 72 7599 3.21 200 22:47 20.01.2022
5776 Clouds 25 1009 69 10000 3.81 201 21:48 20.01.2022
5777 Clouds 26 1009 66 10000 3.85 195 21:24 20.01.2022
5778 Clouds 28 1010 65 10000 4.19 194 19:46 20.01.2022
5779 Clouds 28 1010 66 10000 4.28 189 19:18 20.01.2022
5780 Clouds 28 1010 63 10000 4.67 197 17:36 20.01.2022
5781 Clouds 28 1011 64 10000 4.78 194 15:59 20.01.2022
5782 Clouds 28 1010 62 10000 5.25 194 15:29 20.01.2022
5783 Clouds 28 1010 59 10000 4.98 192 14:18 20.01.2022
5784 Clouds 29 1009 56 10000 5.14 191 12:44 20.01.2022
5785 Clouds 30 1008 51 10000 5.82 191 12:26 20.01.2022
5786 Clouds 31 1007 41 10000 5.47 185 10:58 20.01.2022
5787 Clouds 32 1007 38 10000 5.7 185 09:43 20.01.2022
5788 Clouds 32 1007 36 10000 5.98 188 08:37 20.01.2022
5789 Clouds 31 1011 42 10000 2.7 134 06:19 20.01.2022
5790 Clouds 24 1010 59 10000 1.51 56 23:56 19.01.2022
5791 Clouds 24 1010 56 10000 1.23 49 22:37 19.01.2022
5792 Clouds 25 1010 52 10000 1.21 61 21:26 19.01.2022
5793 Clouds 24 1010 52 10000 1.21 61 20:55 19.01.2022
5794 Clear 25 1010 50 10000 1.03 38 20:24 19.01.2022
5795 Clouds 27 1010 45 10000 0.45 100 18:49 19.01.2022
5796 Clouds 27 1010 44 10000 0.53 46 17:50 19.01.2022
5797 Clouds 27 1010 42 10000 0.75 352 17:18 19.01.2022
5798 Clouds 29 1010 39 10000 0.66 163 14:55 19.01.2022
5799 Clouds 30 1009 36 10000 0.63 334 13:20 19.01.2022
5800 Clouds 31 1008 35 10000 0.9 217 11:54 19.01.2022
5801 Clouds 32 1008 33 10000 0.55 104 10:52 19.01.2022
5802 Clouds 31 1008 32 10000 1.37 57 09:35 19.01.2022
5803 Clouds 32 1009 34 10000 2.3 45 07:34 19.01.2022
5804 Clouds 30 1013 41 10000 3.21 57 05:19 19.01.2022
5805 Clouds 25 1012 55 10000 3.02 98 23:53 18.01.2022
5806 Clouds 25 1012 55 10000 3.02 98 23:53 18.01.2022
5807 Clouds 24 1011 53 10000 2.57 95 23:18 18.01.2022
5808 Clouds 25 1011 51 10000 1.9 83 21:43 18.01.2022
5809 Clouds 26 1011 58 10000 1.2 176 19:57 18.01.2022
5810 Clouds 27 1011 58 10000 1.2 176 19:38 18.01.2022
5811 Clouds 27 1011 57 10000 2.1 164 19:18 18.01.2022
5812 Rain 28 1011 54 10000 2.21 160 17:59 18.01.2022
5813 Rain 29 1012 51 10000 1.89 168 17:27 18.01.2022
5814 Rain 30 1012 47 10000 2.1 175 15:56 18.01.2022
5815 Rain 29 1011 43 10000 1.69 162 15:23 18.01.2022
5816 Clouds 31 1011 40 10000 1.2 159 13:32 18.01.2022
5817 Rain 33 1009 31 10000 2.88 77 10:49 18.01.2022
5818 Clouds 33 1009 30 10000 3.01 85 09:39 18.01.2022
5819 Clouds 33 1010 31 10000 3.22 81 07:58 18.01.2022
5820 Clouds 33 1011 34 10000 3.31 68 07:21 18.01.2022
5821 Clouds 24 1013 51 10000 1.57 111 00:21 18.01.2022
5822 Clouds 25 1012 50 10000 1.82 102 22:30 17.01.2022
5823 Clouds 25 1012 49 10000 1.75 102 21:36 17.01.2022
5824 Clouds 25 1012 49 10000 2.15 90 20:29 17.01.2022
5825 Clear 27 1012 53 10000 2.04 149 18:31 17.01.2022
5826 Rain 28 1012 49 10000 2.16 138 17:51 17.01.2022
5827 Rain 28 1012 46 10000 1.69 167 16:53 17.01.2022
5828 Rain 29 1012 43 10000 2.01 235 15:24 17.01.2022
5829 Rain 29 1012 43 10000 2.01 235 14:57 17.01.2022
5830 Clear 30 1012 41 10000 1.68 233 13:30 17.01.2022
5831 Clouds 31 1010 38 10000 1.44 207 12:57 17.01.2022
5832 Rain 32 1010 35 10000 0.66 174 11:50 17.01.2022
5833 Rain 33 1009 32 10000 0.32 147 10:38 17.01.2022
5834 Rain 33 1009 32 10000 0.56 116 09:35 17.01.2022
5835 Clouds 33 1011 34 10000 1.4 79 07:47 17.01.2022
5836 Clouds 33 1012 37 10000 1.48 65 07:19 17.01.2022
5837 Clouds 24 1014 70 10000 1.17 256 00:57 17.01.2022
5838 Clouds 24 1013 70 10000 1.62 234 22:31 16.01.2022
5839 Clouds 25 1012 68 10000 1.9 208 20:38 16.01.2022
5840 Clouds 26 1012 67 10000 3.3 187 18:53 16.01.2022
5841 Clouds 27 1012 66 10000 3.43 189 17:59 16.01.2022
5842 Clouds 27 1012 63 10000 3.58 185 17:23 16.01.2022
5843 Clouds 27 1012 63 10000 3.58 185 16:38 16.01.2022
5844 Clouds 28 1012 56 10000 3.5 184 14:31 16.01.2022
5845 Rain 29 1012 52 10000 3.23 195 13:49 16.01.2022
5846 Clouds 30 1011 49 10000 3.98 197 12:49 16.01.2022
5847 Clouds 32 1011 45 10000 4.42 203 11:43 16.01.2022
5848 Clouds 32 1010 40 10000 4.14 198 10:55 16.01.2022
5849 Clouds 32 1010 37 10000 3.33 193 10:19 16.01.2022
5850 Clouds 33 1010 37 10000 3.33 193 09:51 16.01.2022
5851 Rain 33 1010 37 10000 2.48 183 09:22 16.01.2022
5852 Rain 33 1010 37 10000 2.48 183 09:22 16.01.2022
5853 Clouds 32 1011 38 10000 2 161 07:33 16.01.2022
5854 Clouds 24 1014 71 10000 1.2 170 00:42 16.01.2022
5855 Clouds 24 1013 70 10000 1.73 159 23:49 15.01.2022
5856 Clouds 25 1012 68 10000 2.12 165 21:37 15.01.2022
5857 Clouds 25 1012 67 10000 2.1 174 21:19 15.01.2022
5858 Clouds 25 1012 67 10000 2.1 174 20:39 15.01.2022
5859 Clouds 26 1013 64 10000 2.47 189 19:29 15.01.2022
5860 Clouds 26 1013 65 10000 2.8 186 18:44 15.01.2022
5861 Clouds 27 1013 62 10000 3.51 184 17:25 15.01.2022
5862 Clouds 28 1013 60 10000 3.63 190 15:42 15.01.2022
5863 Clear 29 1012 51 10000 4.01 199 13:52 15.01.2022
5864 Clouds 32 1011 42 10000 4.17 198 11:46 15.01.2022
5865 Clouds 33 1010 33 10000 3.4 174 10:25 15.01.2022
5866 Clouds 31 1013 37 10000 2.97 135 06:40 15.01.2022
5867 Clear 24 1013 71 10000 1.06 153 23:49 14.01.2022
5868 Clear 24 1012 70 10000 1.51 170 21:41 14.01.2022
5869 Clear 25 1012 69 10000 2.2 170 20:37 14.01.2022
5870 Clear 25 1012 67 10000 2.17 171 19:58 14.01.2022
5871 Clouds 26 1013 66 10000 2.37 166 18:46 14.01.2022
5872 Clouds 26 1013 67 10000 3.86 171 17:54 14.01.2022
5873 Clear 27 1013 65 10000 3.59 173 16:47 14.01.2022
5874 Clear 27 1013 63 10000 3.68 179 15:33 14.01.2022
5875 Clear 28 1012 57 10000 3.88 191 14:29 14.01.2022
5876 Clouds 29 1011 47 10000 3.55 195 12:59 14.01.2022
5877 Clouds 31 1011 40 10000 3.06 190 12:20 14.01.2022
5878 Clouds 32 1010 34 10000 2.66 182 10:46 14.01.2022
5879 Clouds 32 1010 32 10000 2.36 148 08:54 14.01.2022
5880 Clouds 32 1011 34 10000 2.78 134 07:46 14.01.2022
5881 Clear 28 1016 61 10000 2.27 112 03:19 14.01.2022
5882 Clouds 25 1014 73 10000 1.91 115 00:35 14.01.2022
5883 Clouds 25 1012 71 10000 2.08 170 21:55 13.01.2022
5884 Clouds 25 1012 71 10000 2.08 170 21:30 13.01.2022
5885 Clouds 25 1012 71 10000 2.08 170 21:30 13.01.2022
5886 Clouds 25 1012 70 10000 2.21 183 20:33 13.01.2022
5887 Clouds 26 1013 70 10000 3.64 170 19:32 13.01.2022
5888 Clouds 26 1013 69 10000 3.88 169 18:50 13.01.2022
5889 Clouds 27 1013 64 10000 3.64 176 16:58 13.01.2022
5890 Clouds 28 1013 60 10000 3.35 182 15:49 13.01.2022
5891 Clouds 28 1013 58 10000 3.84 186 15:26 13.01.2022
5892 Clouds 29 1012 54 10000 4.16 196 13:36 13.01.2022
5893 Clouds 33 1010 45 10000 4.94 197 11:43 13.01.2022
5894 Clouds 33 1009 31 10000 3.05 182 09:37 13.01.2022
5895 Clouds 33 1009 30 10000 3.09 164 08:52 13.01.2022
5896 Clouds 34 1010 29 10000 3.23 150 08:18 13.01.2022
5897 Clear 33 1012 31 10000 2.99 131 07:20 13.01.2022
5898 Clear 32 1014 38 10000 3.29 120 05:21 13.01.2022
5899 Clear 31 1014 38 10000 3.29 120 04:55 13.01.2022
5900 Clear 26 1014 64 10000 2.55 121 01:41 13.01.2022
5901 Clouds 25 1013 68 10000 0.91 112 23:54 12.01.2022
5902 Clouds 25 1013 68 10000 0.91 112 23:34 12.01.2022
5903 Clouds 25 1013 66 10000 1.15 133 22:35 12.01.2022
5904 Clouds 25 1012 65 10000 1.42 158 21:49 12.01.2022
5905 Clouds 26 1012 62 10000 1.87 159 21:20 12.01.2022
5906 Clouds 26 1012 62 10000 1.87 159 20:49 12.01.2022
5907 Clouds 26 1014 54 10000 0.97 151 19:23 12.01.2022
5908 Clouds 27 1014 65 10000 2.63 188 18:27 12.01.2022
5909 Clouds 28 1014 63 10000 3.14 184 16:58 12.01.2022
5910 Clouds 28 1014 58 10000 3.01 195 15:49 12.01.2022
5911 Clouds 29 1014 54 10000 3.11 208 14:45 12.01.2022
5912 Clouds 30 1012 46 10000 2.89 215 12:57 12.01.2022
5913 Clouds 32 1010 36 10000 1.64 173 09:58 12.01.2022
5914 Clouds 32 1011 36 10000 2.55 117 07:59 12.01.2022
5915 Clouds 32 1011 36 10000 2.55 117 07:33 12.01.2022
5916 Clouds 30 1015 48 10000 2.78 95 04:54 12.01.2022
5917 Clouds 24 1012 72 10000 1.41 174 23:27 11.01.2022
5918 Clouds 24 1012 72 10000 1.41 174 22:40 11.01.2022
5919 Clouds 24 1011 71 10000 2.17 187 22:18 11.01.2022
5920 Clouds 25 1011 70 10000 2.69 192 20:40 11.01.2022
5921 Clouds 26 1012 68 10000 3.02 192 19:40 11.01.2022
5922 Clouds 26 1013 63 10000 3.07 186 17:55 11.01.2022
5923 Clear 27 1013 61 10000 3.02 188 16:59 11.01.2022
5924 Clear 27 1013 61 10000 3.02 188 16:35 11.01.2022
5925 Clear 29 1012 54 10000 3.43 191 14:57 11.01.2022
5926 Clear 28 1012 54 10000 3.43 191 14:38 11.01.2022
5927 Rain 30 1011 50 10000 3.53 198 13:53 11.01.2022
5928 Clouds 30 1010 43 10000 3.3 193 13:28 11.01.2022
5929 Rain 32 1011 43 10000 3.46 196 12:37 11.01.2022
5930 Rain 34 1010 30 10000 2.26 156 10:45 11.01.2022
5931 Rain 34 1011 29 10000 2.88 131 08:27 11.01.2022
5932 Rain 30 1014 43 10000 1.62 134 04:30 11.01.2022
5933 Rain 30 1014 43 10000 1.62 134 04:30 11.01.2022
5934 Rain 24 1013 65 10000 0.63 184 00:28 11.01.2022
5935 Clouds 24 1013 65 10000 0.63 184 23:40 10.01.2022
5936 Rain 23 1013 65 10000 1.01 230 22:43 10.01.2022
5937 Rain 24 1012 64 10000 1.43 222 22:18 10.01.2022
5938 Rain 24 1012 64 10000 1.43 222 21:42 10.01.2022
5939 Rain 24 1012 64 10000 1.75 218 21:18 10.01.2022
5940 Clear 24 1012 64 10000 1.75 218 20:55 10.01.2022
5941 Rain 24 1013 62 10000 2.18 206 20:23 10.01.2022
5942 Rain 26 1013 62 10000 2.18 206 19:39 10.01.2022
5943 Rain 26 1013 62 10000 2.18 206 19:39 10.01.2022
5944 Rain 26 1013 59 10000 2.3 192 19:19 10.01.2022
5945 Rain 26 1013 61 10000 3.03 187 18:47 10.01.2022
5946 Rain 28 1013 56 10000 3.07 199 16:51 10.01.2022
5947 Clouds 28 1013 56 10000 3.07 199 16:33 10.01.2022
5948 Rain 29 1012 47 10000 3.07 196 14:49 10.01.2022
5949 Clear 30 1011 43 10000 2.98 196 13:35 10.01.2022
5950 Rain 32 1010 35 10000 2.99 199 11:57 10.01.2022
5951 Rain 33 1009 30 10000 1.86 185 10:50 10.01.2022
5952 Rain 34 1009 28 10000 1.51 168 09:40 10.01.2022
5953 Clear 32 1013 33 10000 2.58 124 05:52 10.01.2022
5954 Clear 27 1014 41 10000 1.78 72 02:38 10.01.2022
5955 Clear 23 1012 48 10000 1.03 29 01:21 10.01.2022
5956 Clear 22 1012 47 10000 1.04 70 00:21 10.01.2022
5957 Rain 23 1011 47 10000 0.74 93 22:47 09.01.2022
5958 Clear 23 1011 48 10000 0.78 127 22:21 09.01.2022
5959 Clear 24 1011 48 10000 0.78 127 21:41 09.01.2022
5960 Clear 24 1010 48 10000 0.99 127 21:22 09.01.2022
5961 Rain 25 1010 48 10000 0.99 127 20:47 09.01.2022
5962 Rain 25 1011 47 10000 1.24 126 20:28 09.01.2022
5963 Clear 26 1011 47 10000 1.24 126 19:41 09.01.2022
5964 Clear 26 1011 45 10000 1.05 117 19:21 09.01.2022
5965 Clear 26 1011 52 10000 1.35 149 18:41 09.01.2022
5966 Clear 26 1011 49 10000 1.21 145 18:23 09.01.2022
5967 Clear 26 1011 49 10000 1.21 145 17:30 09.01.2022
5968 Clear 27 1011 46 10000 1.26 154 16:50 09.01.2022
5969 Rain 28 1011 44 10000 1.75 191 15:51 09.01.2022
5970 Clear 29 1011 44 10000 1.75 191 15:32 09.01.2022
5971 Rain 29 1011 41 10000 2.07 192 14:39 09.01.2022
5972 Clear 30 1010 38 10000 1.64 181 13:49 09.01.2022
5973 Clear 31 1009 32 10000 1.64 144 12:19 09.01.2022
5974 Clear 32 1009 32 10000 1.64 144 11:38 09.01.2022
5975 Clear 33 1008 26 10000 1.45 95 09:55 09.01.2022
5976 Clear 33 1009 27 10000 1.84 87 09:24 09.01.2022
5977 Clear 33 1009 28 10000 2.18 86 07:54 09.01.2022
5978 Clear 23 1013 49 10000 1.48 24 01:30 09.01.2022
5979 Clear 23 1012 51 10000 1.26 13 00:50 09.01.2022
5980 Clear 23 1011 50 10000 1.76 345 23:36 08.01.2022
5981 Clear 23 1011 49 10000 1.76 333 22:56 08.01.2022
5982 Rain 25 1011 49 10000 1.48 314 21:32 08.01.2022
5983 Clear 25 1011 50 10000 1.21 271 20:44 08.01.2022
5984 Clear 25 1012 48 10000 0.95 227 20:23 08.01.2022
5985 Clouds 26 1012 52 10000 1.9 182 19:22 08.01.2022
5986 Clouds 27 1012 47 10000 1.67 163 17:43 08.01.2022
5987 Rain 28 1012 44 10000 1 165 16:57 08.01.2022
5988 Clouds 29 1013 42 10000 0.62 257 15:34 08.01.2022
5989 Clouds 30 1012 38 10000 0.77 265 14:25 08.01.2022
5990 Rain 32 1010 32 10000 1.08 18 11:43 08.01.2022
5991 Clouds 33 1009 28 10000 1.83 29 10:40 08.01.2022
5992 Rain 33 1009 27 10000 2.07 38 10:22 08.01.2022
5993 Rain 33 1009 27 10000 2.07 38 09:34 08.01.2022
5994 Clouds 32 1013 36 10000 2.44 67 06:22 08.01.2022
5995 Clear 25 1014 54 10000 1.42 28 01:46 08.01.2022
5996 Clouds 24 1013 55 10000 0.93 10 23:36 07.01.2022
5997 Rain 25 1012 52 10000 0.69 17 21:49 07.01.2022
5998 Rain 26 1012 51 10000 0.48 57 20:34 07.01.2022
5999 Rain 26 1013 49 10000 0.61 94 19:27 07.01.2022
6000 Clear 26 1013 53 10000 0.68 147 18:49 07.01.2022
6001 Rain 27 1013 51 10000 1.13 169 18:21 07.01.2022
6002 Rain 27 1013 49 10000 1.26 177 17:24 07.01.2022
6003 Clear 30 1013 44 10000 1.4 199 14:56 07.01.2022
6004 Clear 30 1014 100 10000 0.88 227 13:52 07.01.2022
6005 Clear 30 1012 38 10000 0.42 294 12:51 07.01.2022
6006 Clear 32 1011 31 10000 1.47 36 11:28 07.01.2022
6007 Rain 31 1015 35 10000 2.68 71 04:54 07.01.2022
6008 Clear 28 1015 41 10000 1.88 91 02:53 07.01.2022
6009 Clear 24 1014 46 10000 1.61 95 01:49 07.01.2022
6010 Clear 23 1013 49 10000 1.25 83 01:26 07.01.2022
6011 Rain 23 1013 48 10000 1.34 79 00:31 07.01.2022
6012 Rain 25 1012 45 10000 1.82 91 22:33 06.01.2022
6013 Clear 25 1011 42 10000 2.12 102 20:51 06.01.2022
6014 Rain 25 1012 41 10000 1.9 101 20:18 06.01.2022
6015 Rain 25 1012 41 10000 1.9 101 19:38 06.01.2022
6016 Rain 26 1013 44 10000 1.28 132 17:51 06.01.2022
6017 Clouds 27 1013 44 10000 0.96 152 17:27 06.01.2022
6018 Clouds 27 1013 44 10000 0.96 152 16:38 06.01.2022
6019 Clouds 28 1013 43 10000 1.33 231 15:44 06.01.2022
6020 Clouds 29 1014 100 10000 1.83 225 15:22 06.01.2022
6021 Clouds 29 1011 39 10000 1.33 211 14:20 06.01.2022
6022 Clouds 30 1011 34 10000 1.33 211 13:39 06.01.2022
6023 Clouds 31 1010 28 10000 1.32 64 12:21 06.01.2022
6024 Rain 33 1010 32 10000 1.32 64 11:30 06.01.2022
6025 Rain 33 1009 29 10000 1.88 57 10:50 06.01.2022
6026 Clouds 33 1013 100 10000 2.23 38 06:54 06.01.2022
6027 Clouds 23 1013 54 10000 0.86 48 00:34 06.01.2022
6028 Clouds 24 1012 54 10000 0.36 120 23:33 05.01.2022
6029 Clouds 24 1012 53 10000 0.11 107 22:48 05.01.2022
6030 Clouds 24 1011 52 10000 0.57 51 22:26 05.01.2022
6031 Clouds 24 1011 51 10000 0.63 47 21:28 05.01.2022
6032 Clouds 25 1011 51 10000 0.63 47 20:30 05.01.2022
6033 Rain 26 1012 49 10000 0.6 8 19:29 05.01.2022
6034 Clouds 26 1012 49 10000 0.37 14 18:21 05.01.2022
6035 Clouds 27 1012 48 10000 0.73 289 16:57 05.01.2022
6036 Rain 27 1013 47 10000 1.54 252 16:19 05.01.2022
6037 Clouds 28 1012 45 10000 1.81 224 15:19 05.01.2022
6038 Rain 30 1013 100 10000 1.88 196 13:34 05.01.2022
6039 Clouds 31 1010 35 10000 0.26 196 12:20 05.01.2022
6040 Rain 33 1012 100 10000 0.76 27 08:35 05.01.2022
6041 Clouds 32 1013 100 10000 1.7 17 06:46 05.01.2022
6042 Clouds 23 1013 57 10000 1.48 337 01:46 05.01.2022
6043 Clouds 24 1012 56 10000 0.97 317 23:43 04.01.2022
6044 Clouds 24 1011 55 10000 1.32 338 23:21 04.01.2022
6045 Clouds 24 1012 55 10000 1.12 328 21:41 04.01.2022
6046 Clouds 25 1012 54 10000 0.52 352 20:42 04.01.2022
6047 Clouds 26 1013 49 10000 0.62 84 18:39 04.01.2022
6048 Clouds 27 1013 48 10000 1.82 75 17:30 04.01.2022
6049 Clouds 27 1013 46 10000 2.33 32 16:34 04.01.2022
6050 Clouds 28 1013 43 10000 3.37 9 15:25 04.01.2022
6051 Clouds 28 1013 43 10000 3.37 9 14:38 04.01.2022
6052 Clouds 29 1012 41 10000 3.39 9 13:56 04.01.2022
6053 Clouds 30 1010 38 10000 1.6 347 12:22 04.01.2022
6054 Rain 31 1009 35 10000 1.49 1 10:23 04.01.2022
6055 Clouds 32 1010 36 10000 1.44 2 08:57 04.01.2022
6056 Clouds 30 1013 40 10000 1.39 55 06:28 04.01.2022
6057 Clouds 24 1013 61 10000 0.63 291 00:42 04.01.2022
6058 Clouds 24 1013 61 10000 1.05 306 23:54 03.01.2022
6059 Clouds 25 1012 58 10000 1.79 319 22:22 03.01.2022
6060 Clouds 25 1012 58 10000 1.79 319 21:39 03.01.2022
6061 Clouds 25 1012 56 10000 1.35 320 20:41 03.01.2022
6062 Clouds 26 1013 54 10000 1.6 101 18:55 03.01.2022
6063 Clouds 26 1013 54 10000 1.6 101 18:30 03.01.2022
6064 Clouds 26 1013 51 10000 1.73 91 17:21 03.01.2022
6065 Clouds 27 1013 51 10000 1.73 91 16:53 03.01.2022
6066 Clouds 29 1013 49 10000 1.72 30 14:31 03.01.2022
6067 Clouds 29 1011 44 10000 1.53 13 12:52 03.01.2022
6068 Clouds 30 1011 43 10000 1.68 17 11:50 03.01.2022
6069 Clouds 30 1010 40 10000 2.05 34 10:38 03.01.2022
6070 Clouds 31 1009 40 10000 2.62 50 09:28 03.01.2022
6071 Clouds 31 1010 41 10000 2.6 46 07:53 03.01.2022
6072 Clouds 24 1015 54 10000 2.16 54 02:56 03.01.2022
6073 Clouds 23 1012 58 10000 1.82 18 23:24 02.01.2022
6074 Clouds 23 1012 58 10000 1.82 18 22:56 02.01.2022
6075 Clouds 23 1012 57 10000 1.97 40 21:58 02.01.2022
6076 Clouds 23 1013 55 10000 2.17 42 20:50 02.01.2022
6077 Clouds 24 1013 54 10000 2.65 40 20:29 02.01.2022
6078 Clouds 24 1013 54 10000 2.65 40 19:31 02.01.2022
6079 Clouds 25 1014 52 10000 3.44 54 18:56 02.01.2022
6080 Clouds 25 1014 51 10000 2.85 62 17:57 02.01.2022
6081 Clouds 25 1014 51 10000 2.85 62 17:39 02.01.2022
6082 Clouds 26 1015 51 10000 2.6 69 17:20 02.01.2022
6083 Clouds 26 1014 50 10000 2.63 78 16:28 02.01.2022
6084 Clouds 27 1014 48 10000 1.62 80 14:41 02.01.2022
6085 Clouds 28 1013 45 10000 0.9 24 13:25 02.01.2022
6086 Clouds 29 1012 44 10000 1.1 22 12:32 02.01.2022
6087 Clouds 30 1013 100 10000 1.8 33 11:49 02.01.2022
6088 Clouds 30 1011 40 10000 2.45 21 10:53 02.01.2022
6089 Clouds 30 1011 40 10000 2.74 10 09:56 02.01.2022
6090 Clouds 30 1012 41 10000 3.14 34 07:34 02.01.2022
6091 Clear 25 1017 56 10000 2.58 91 02:51 02.01.2022
6092 Clouds 22 1014 60 10000 2.83 17 23:42 01.01.2022
6093 Clouds 23 1014 58 10000 2.98 3 23:23 01.01.2022
6094 Clouds 24 1013 57 10000 2.53 28 22:25 01.01.2022
6095 Clouds 24 1013 57 10000 2.53 28 21:44 01.01.2022
6096 Clouds 24 1013 55 10000 2.47 39 20:56 01.01.2022
6097 Clear 25 1014 54 10000 2.92 40 20:20 01.01.2022
6098 Clear 25 1014 54 10000 2.92 40 19:33 01.01.2022
6099 Clear 25 1015 51 10000 3.02 51 18:29 01.01.2022
6100 Clear 26 1015 49 10000 3.61 59 16:55 01.01.2022
6101 Clear 26 1015 49 10000 3.61 59 16:34 01.01.2022
6102 Clear 27 1015 49 10000 4.03 63 15:33 01.01.2022
6103 Clear 28 1015 46 10000 3.82 86 14:22 01.01.2022
6104 Clouds 28 1013 44 10000 2.66 88 13:28 01.01.2022
6105 Clear 29 1012 42 10000 2.25 74 11:59 01.01.2022
6106 Clear 30 1012 40 10000 2.35 56 11:24 01.01.2022
6107 Clear 30 1012 40 10000 2.35 56 10:43 01.01.2022
6108 Clear 31 1013 100 10000 2.2 21 09:47 01.01.2022
6109 Clear 31 1014 100 10000 3.15 17 08:27 01.01.2022
6110 Clear 31 1015 100 10000 3.15 17 07:56 01.01.2022
6111 Clear 31 1015 100 10000 3.15 17 07:37 01.01.2022
6112 Clouds 30 1016 100 10000 3.15 44 06:43 01.01.2022
6113 Clouds 27 1017 45 10000 2.55 57 04:39 01.01.2022
6114 Clouds 26 1017 49 10000 1.95 74 03:48 01.01.2022
6115 Clouds 23 1015 56 10000 1.21 345 23:53 31.12.2021
6116 Clouds 23 1014 53 10000 1.8 34 21:56 31.12.2021
6117 Clouds 24 1014 53 10000 1.8 34 21:32 31.12.2021
6118 Clouds 25 1015 52 10000 2.37 50 19:43 31.12.2021
6119 Clouds 25 1015 52 10000 3.28 70 18:47 31.12.2021
6120 Clouds 26 1015 51 10000 3.62 68 17:49 31.12.2021
6121 Clouds 26 1015 50 10000 3.39 62 17:22 31.12.2021
6122 Clouds 26 1015 50 10000 3.39 62 16:46 31.12.2021
6123 Clouds 27 1016 50 10000 3.42 59 16:18 31.12.2021
6124 Clouds 26 1016 50 10000 3.42 59 15:42 31.12.2021
6125 Clouds 27 1015 49 10000 3.92 53 15:20 31.12.2021
6126 Clouds 28 1017 100 10000 3.92 53 14:37 31.12.2021
6127 Clouds 28 1016 100 10000 4.29 37 13:45 31.12.2021
6128 Clouds 29 1016 100 10000 4.09 23 12:50 31.12.2021
6129 Clouds 29 1013 42 10000 2.17 36 12:19 31.12.2021
6130 Clouds 30 1013 42 10000 2.17 36 11:41 31.12.2021
6131 Clouds 30 1012 40 10000 2.21 38 10:48 31.12.2021
6132 Clouds 31 1014 100 10000 2.17 32 10:25 31.12.2021
6133 Clouds 31 1014 100 10000 2.17 32 09:34 31.12.2021
6134 Clouds 31 1015 100 10000 2.21 25 08:50 31.12.2021
6135 Clouds 31 1015 100 10000 2.71 14 07:49 31.12.2021
6136 Clouds 25 1017 56 10000 4.26 77 02:36 31.12.2021
6137 Clouds 24 1014 59 10000 2.59 42 23:18 30.12.2021
6138 Clouds 25 1013 58 10000 2.59 13 22:27 30.12.2021
6139 Clouds 25 1013 58 10000 2.59 13 21:39 30.12.2021
6140 Clouds 25 1013 57 10000 2.15 11 20:58 30.12.2021
6141 Clouds 26 1013 57 10000 2.15 11 20:35 30.12.2021
6142 Clear 26 1014 56 10000 2.57 36 19:53 30.12.2021
6143 Clouds 26 1015 55 10000 3.25 51 19:28 30.12.2021
6144 Clouds 27 1015 54 10000 3.29 53 18:26 30.12.2021
6145 Clouds 27 1016 54 10000 2.6 60 16:39 30.12.2021
6146 Clouds 27 1016 53 10000 2.68 59 15:53 30.12.2021
6147 Clouds 27 1016 53 10000 2.68 59 15:53 30.12.2021
6148 Clear 27 1016 51 10000 2.6 44 14:51 30.12.2021
6149 Clear 28 1016 51 10000 2.6 44 14:31 30.12.2021
6150 Clouds 29 1016 100 10000 3.03 32 13:24 30.12.2021
6151 Clouds 30 1013 44 10000 3.13 47 11:45 30.12.2021
6152 Clouds 32 1014 100 10000 3.99 60 10:28 30.12.2021
6153 Clouds 32 1014 100 10000 3.99 60 09:44 30.12.2021
6154 Clouds 31 1016 100 10000 4.84 73 06:56 30.12.2021
6155 Clouds 30 1019 100 10000 5.02 76 04:56 30.12.2021
6156 Clouds 28 1017 47 10000 4.39 83 03:40 30.12.2021
6157 Clouds 26 1016 56 10000 3.39 78 02:27 30.12.2021
6158 Clouds 26 1014 57 10000 3.44 21 23:37 29.12.2021
6159 Clouds 26 1013 58 10000 3.36 4 22:35 29.12.2021
6160 Clouds 26 1013 60 10000 3.03 353 21:55 29.12.2021
6161 Clouds 27 1013 60 10000 2.91 347 20:57 29.12.2021
6162 Clouds 27 1013 60 10000 2.29 353 20:29 29.12.2021
6163 Clouds 27 1013 60 10000 2.29 353 19:31 29.12.2021
6164 Clouds 28 1014 53 10000 3.19 51 18:36 29.12.2021
6165 Clouds 28 1015 52 10000 3.25 55 17:42 29.12.2021
6166 Clouds 29 1015 52 10000 2.97 63 17:23 29.12.2021
6167 Clouds 29 1015 51 10000 3.41 77 16:21 29.12.2021
6168 Clouds 29 1015 50 10000 3.82 82 15:21 29.12.2021
6169 Clouds 30 1013 47 10000 2.01 74 12:57 29.12.2021
6170 Clouds 30 1013 47 10000 3.72 71 12:32 29.12.2021
6171 Clouds 31 1012 45 10000 3.6 56 11:22 29.12.2021
6172 Clouds 31 1011 44 10000 4.16 60 09:30 29.12.2021
6173 Clouds 31 1012 43 10000 4.12 60 07:30 29.12.2021
6174 Clouds 31 1013 45 10000 4.56 60 06:32 29.12.2021
6175 Clouds 31 1014 45 10000 4.54 66 05:55 29.12.2021
6176 Clouds 30 1015 48 10000 4.15 68 04:57 29.12.2021
6177 Clouds 25 1014 55 10000 2.65 58 00:43 29.12.2021
6178 Clouds 25 1013 57 10000 1.94 38 23:58 28.12.2021
6179 Clouds 26 1013 57 10000 2.18 41 22:57 28.12.2021
6180 Clouds 26 1012 57 10000 2.28 51 22:25 28.12.2021
6181 Clouds 26 1012 57 10000 2.28 51 22:25 28.12.2021
6182 Clouds 26 1012 57 10000 2.28 51 22:25 28.12.2021
6183 Clouds 26 1012 57 10000 2.28 51 21:54 28.12.2021
6184 Clouds 26 1012 57 10000 2.28 51 21:54 28.12.2021
6185 Clouds 27 1012 57 10000 2.28 51 21:35 28.12.2021
6186 Clouds 27 1013 58 10000 2.1 33 20:25 28.12.2021
6187 Clouds 27 1013 57 10000 2.64 18 18:54 28.12.2021
6188 Clouds 27 1014 55 10000 3.77 48 18:27 28.12.2021
6189 Clouds 28 1014 55 10000 3.77 48 17:34 28.12.2021
6190 Clouds 28 1014 53 10000 4.26 75 16:20 28.12.2021
6191 Clouds 29 1014 53 10000 4.26 75 15:41 28.12.2021
6192 Clouds 29 1014 52 10000 4.74 74 14:55 28.12.2021
6193 Clouds 29 1014 52 10000 4.74 74 14:37 28.12.2021
6194 Clouds 30 1014 49 10000 5.07 67 14:18 28.12.2021
6195 Clouds 30 1014 49 10000 5.07 67 13:37 28.12.2021
6196 Clouds 31 1012 46 10000 4.31 60 12:56 28.12.2021
6197 Clouds 31 1011 44 10000 3.22 57 12:20 28.12.2021
6198 Clouds 32 1011 41 10000 2.79 60 10:19 28.12.2021
6199 Clear 32 1012 41 10000 3.17 63 07:33 28.12.2021
6200 Clear 27 1017 49 10000 4.18 64 03:37 28.12.2021
6201 Clouds 25 1014 60 10000 3.32 66 23:40 27.12.2021
6202 Clouds 26 1013 58 10000 3.09 61 22:21 27.12.2021
6203 Clouds 27 1013 58 10000 3.09 61 21:30 27.12.2021
6204 Clouds 27 1013 57 10000 3.17 69 20:39 27.12.2021
6205 Clouds 27 1013 56 10000 3.27 74 19:49 27.12.2021
6206 Rain 28 1014 54 10000 3.28 52 19:27 27.12.2021
6207 Clouds 29 1014 52 10000 3.33 42 17:54 27.12.2021
6208 Clouds 29 1014 52 10000 3.33 42 17:54 27.12.2021
6209 Rain 29 1015 50 10000 2.64 48 17:28 27.12.2021
6210 Clouds 30 1015 49 10000 2.77 48 16:23 27.12.2021
6211 Clouds 30 1015 49 10000 2.77 48 15:44 27.12.2021
6212 Rain 31 1016 100 10000 2.6 18 14:24 27.12.2021
6213 Clouds 31 1012 47 10000 1.89 343 12:56 27.12.2021
6214 Clouds 33 1013 100 10000 2.08 50 10:56 27.12.2021
6215 Clouds 33 1013 100 10000 2.57 69 10:27 27.12.2021
6216 Clear 33 1013 100 10000 3.04 78 09:27 27.12.2021
6217 Clear 33 1015 100 10000 3.14 70 07:34 27.12.2021
6218 Clouds 32 1016 100 10000 4.71 77 06:29 27.12.2021
6219 Clouds 25 1016 71 10000 1.86 17 01:57 27.12.2021
6220 Clouds 26 1014 66 10000 1.51 21 23:50 26.12.2021
6221 Clouds 26 1014 66 10000 1.58 25 23:20 26.12.2021
6222 Clouds 27 1014 65 10000 0.98 24 21:41 26.12.2021
6223 Clouds 27 1014 64 10000 1.6 66 19:57 26.12.2021
6224 Rain 26 1015 69 10000 2.09 52 18:53 26.12.2021
6225 Clouds 27 1015 68 10000 2.53 75 18:22 26.12.2021
6226 Clouds 28 1015 63 10000 2.29 84 15:54 26.12.2021
6227 Clouds 30 1014 58 10000 1.57 70 13:51 26.12.2021
6228 Clouds 30 1014 58 10000 1.57 70 13:32 26.12.2021
6229 Rain 30 1013 58 10000 0.83 50 12:37 26.12.2021
6230 Clouds 30 1012 57 10000 1.31 79 11:56 26.12.2021
6231 Clouds 31 1011 53 10000 2.14 71 09:42 26.12.2021
6232 Clouds 32 1011 53 10000 1.88 62 08:59 26.12.2021
6233 Clouds 32 1011 53 10000 1.88 62 08:38 26.12.2021
6234 Clouds 31 1013 52 10000 2.49 37 06:47 26.12.2021
6235 Clouds 25 1014 78 10000 1.62 44 00:45 26.12.2021
6236 Clouds 25 1013 73 10000 2.05 74 23:49 25.12.2021
6237 Rain 25 1013 73 10000 1.9 79 23:25 25.12.2021
6238 Clouds 25 1013 72 10000 2.29 94 22:21 25.12.2021
6239 Clouds 26 1012 72 10000 2.81 104 20:36 25.12.2021
6240 Clouds 26 1013 72 10000 2.7 111 19:20 25.12.2021
6241 Clouds 27 1013 72 10000 2.79 110 18:54 25.12.2021
6242 Clouds 27 1014 71 10000 3.14 105 16:58 25.12.2021
6243 Clouds 27 1014 69 10000 3.16 96 15:54 25.12.2021
6244 Clouds 29 1012 66 10000 3.42 93 14:25 25.12.2021
6245 Clouds 30 1012 60 10000 3.75 95 12:42 25.12.2021
6246 Rain 32 1010 51 10000 0.36 353 11:27 25.12.2021
6247 Clouds 32 1009 48 10000 0.54 27 09:49 25.12.2021
6248 Clouds 32 1010 46 10000 2.11 71 07:51 25.12.2021
6249 Clouds 25 1013 75 10000 1.8 37 01:45 25.12.2021
6250 Clear 24 1011 77 10000 1.66 8 00:27 25.12.2021
6251 Clear 25 1011 73 10000 0.91 49 22:28 24.12.2021
6252 Clear 26 1011 70 10000 1.31 120 19:37 24.12.2021
6253 Clear 27 1011 69 10000 1.74 125 19:19 24.12.2021
6254 Clear 28 1012 69 10000 2.39 158 16:50 24.12.2021
6255 Clear 28 1012 67 10000 2.77 156 15:54 24.12.2021
6256 Clear 29 1012 67 10000 2.77 156 15:34 24.12.2021
6257 Clear 29 1011 65 10000 2.91 150 14:40 24.12.2021
6258 Clouds 29 1011 63 10000 2.8 145 14:19 24.12.2021
6259 Clouds 30 1011 63 10000 2.8 145 13:34 24.12.2021
6260 Clouds 31 1010 61 10000 3.09 157 12:47 24.12.2021
6261 Clouds 31 1009 55 10000 3.99 169 11:52 24.12.2021
6262 Clouds 32 1009 49 10000 4.07 171 11:25 24.12.2021
6263 Clouds 32 1009 49 10000 4.07 171 10:46 24.12.2021
6264 Clouds 32 1008 46 10000 3.88 180 09:32 24.12.2021
6265 Clouds 32 1009 42 10000 1.55 178 08:23 24.12.2021
6266 Clouds 33 1009 42 10000 1.55 178 07:47 24.12.2021
6267 Clouds 27 1013 56 10000 1.2 19 02:33 24.12.2021
6268 Clouds 24 1010 67 10000 0.7 337 23:56 23.12.2021
6269 Clouds 25 1010 68 10000 0.96 299 22:56 23.12.2021
6270 Clouds 25 1010 68 10000 0.96 299 22:37 23.12.2021
6271 Clouds 25 1010 68 10000 0.96 243 22:18 23.12.2021
6272 Clouds 26 1010 67 10000 1.16 224 20:56 23.12.2021
6273 Clouds 27 1011 66 10000 1.6 213 19:47 23.12.2021
6274 Clouds 27 1011 67 10000 2.97 187 18:34 23.12.2021
6275 Clouds 27 1012 65 10000 3.02 193 17:55 23.12.2021
6276 Clouds 28 1012 62 10000 3.12 180 16:43 23.12.2021
6277 Rain 28 1012 59 10000 3.27 192 16:23 23.12.2021
6278 Clouds 29 1012 59 10000 3.27 192 15:31 23.12.2021
6279 Clouds 29 1012 59 10000 3.27 192 15:31 23.12.2021
6280 Clouds 29 1012 55 10000 3.5 185 14:43 23.12.2021
6281 Clouds 29 1011 48 10000 2.98 175 14:19 23.12.2021
6282 Clouds 30 1010 46 10000 2.6 161 12:48 23.12.2021
6283 Clouds 32 1008 41 10000 1.04 210 10:43 23.12.2021
6284 Clouds 32 1008 37 10000 0.82 261 09:35 23.12.2021
6285 Clouds 32 1009 36 10000 0.52 270 08:59 23.12.2021
6286 Clear 32 1011 37 10000 1.17 23 06:48 23.12.2021
6287 Clear 29 1014 43 10000 2.54 343 03:41 23.12.2021
6288 Clouds 23 1011 56 10000 1.08 323 22:57 22.12.2021
6289 Clouds 24 1011 56 10000 1.08 323 22:32 22.12.2021
6290 Clouds 24 1011 55 10000 1.2 305 21:53 22.12.2021
6291 Clouds 24 1011 54 10000 0.88 288 21:28 22.12.2021
6292 Clouds 25 1011 54 10000 0.88 288 20:41 22.12.2021
6293 Clouds 25 1011 53 10000 0.69 314 20:20 22.12.2021
6294 Clouds 25 1012 51 10000 0.35 351 19:19 22.12.2021
6295 Clouds 27 1012 50 10000 1.31 259 17:39 22.12.2021
6296 Clouds 28 1011 48 10000 1.7 261 16:36 22.12.2021
6297 Clouds 28 1011 46 10000 1.32 238 15:36 22.12.2021
6298 Clouds 30 1010 39 10000 1.25 225 13:23 22.12.2021
6299 Clouds 30 1009 35 10000 0.68 211 12:19 22.12.2021
6300 Rain 32 1008 31 10000 0.51 63 09:53 22.12.2021
6301 Rain 32 1008 31 10000 0.51 63 09:31 22.12.2021
6302 Clouds 32 1011 35 10000 1.9 7 07:22 22.12.2021
6303 Clouds 30 1013 37 10000 2.26 356 05:41 22.12.2021
6304 Clouds 30 1014 40 10000 2.76 345 05:22 22.12.2021
6305 Clouds 29 1014 40 10000 2.76 345 04:45 22.12.2021
6306 Rain 28 1015 44 10000 2.62 344 04:19 22.12.2021
6307 Clouds 26 1015 44 10000 2.62 344 03:32 22.12.2021
6308 Clouds 23 1012 54 10000 1.78 347 23:58 21.12.2021
6309 Clouds 23 1012 54 10000 2.05 340 22:49 21.12.2021
6310 Clouds 23 1012 53 10000 2.31 327 22:27 21.12.2021
6311 Clouds 24 1012 53 10000 2.31 327 21:43 21.12.2021
6312 Clear 24 1012 52 10000 2.38 320 20:53 21.12.2021
6313 Clear 24 1012 51 10000 2.52 314 20:20 21.12.2021
6314 Clear 24 1012 51 10000 2.52 314 19:41 21.12.2021
6315 Clouds 25 1013 52 10000 2.09 303 18:36 21.12.2021
6316 Clouds 25 1013 51 10000 2.23 293 17:59 21.12.2021
6317 Clouds 25 1013 51 10000 2.23 293 17:40 21.12.2021
6318 Clouds 27 1013 48 10000 1.89 279 15:46 21.12.2021
6319 Clouds 27 1013 47 10000 1.24 272 14:59 21.12.2021
6320 Clouds 28 1012 45 10000 1.51 224 13:44 21.12.2021
6321 Clouds 29 1011 42 10000 1.6 202 12:58 21.12.2021
6322 Clouds 31 1010 34 10000 0.53 240 10:53 21.12.2021
6323 Clouds 31 1009 32 10000 0.68 334 09:57 21.12.2021
6324 Clouds 31 1010 33 10000 0.7 341 09:18 21.12.2021
6325 Clouds 31 1010 33 10000 0.7 341 09:18 21.12.2021
6326 Clouds 31 1011 34 10000 0.96 29 07:50 21.12.2021
6327 Clouds 31 1012 36 10000 1.85 30 07:25 21.12.2021
6328 Clouds 29 1014 43 10000 2.42 34 04:48 21.12.2021
6329 Clouds 26 1015 52 10000 2.68 21 02:39 21.12.2021
6330 Clouds 21 1013 58 10000 2.09 340 23:57 20.12.2021
6331 Clouds 23 1012 56 10000 2.21 335 22:48 20.12.2021
6332 Clouds 23 1012 54 10000 2.1 340 22:27 20.12.2021
6333 Clouds 23 1012 52 10000 2.16 354 21:28 20.12.2021
6334 Clouds 23 1012 52 10000 2.16 354 20:57 20.12.2021
6335 Clouds 24 1012 52 10000 2.16 354 20:32 20.12.2021
6336 Clouds 24 1012 51 10000 2.42 356 19:38 20.12.2021
6337 Clouds 24 1013 50 10000 2.58 351 19:20 20.12.2021
6338 Clouds 24 1013 50 10000 2.7 348 18:33 20.12.2021
6339 Clouds 25 1013 49 10000 2.52 342 17:51 20.12.2021
6340 Clouds 25 1013 47 10000 2.15 346 16:47 20.12.2021
6341 Clouds 25 1013 46 10000 2.08 352 16:25 20.12.2021
6342 Clouds 26 1013 46 10000 2.08 352 15:40 20.12.2021
6343 Clear 26 1013 44 10000 2.27 340 14:26 20.12.2021
6344 Clouds 27 1012 42 10000 2.88 353 12:40 20.12.2021
6345 Clouds 29 1010 36 10000 3.37 355 10:51 20.12.2021
6346 Clouds 29 1010 34 10000 3.8 353 09:44 20.12.2021
6347 Clear 30 1010 34 10000 3.78 355 08:56 20.12.2021
6348 Clear 30 1010 34 10000 3.78 355 08:38 20.12.2021
6349 Clear 30 1011 34 10000 3.56 3 07:38 20.12.2021
6350 Clouds 29 1012 36 10000 3.03 14 06:39 20.12.2021
6351 Clouds 22 1015 55 10000 1.56 331 01:33 20.12.2021
6352 Clouds 22 1013 57 10000 0.63 115 23:28 19.12.2021
6353 Clouds 21 1013 57 10000 0.63 115 22:44 19.12.2021
6354 Clouds 22 1012 56 10000 1.06 50 21:32 19.12.2021
6355 Clouds 22 1013 55 10000 1.55 55 20:44 19.12.2021
6356 Clouds 23 1013 52 10000 1.72 71 20:23 19.12.2021
6357 Clouds 24 1013 52 10000 1.72 71 19:42 19.12.2021
6358 Clouds 24 1014 50 10000 2.79 77 18:46 19.12.2021
6359 Clouds 25 1014 48 10000 2.6 60 17:54 19.12.2021
6360 Clouds 24 1014 48 10000 2.6 60 17:35 19.12.2021
6361 Clouds 24 1014 46 10000 2.68 42 16:41 19.12.2021
6362 Clouds 24 1014 45 10000 2.19 72 15:56 19.12.2021
6363 Clouds 26 1014 45 10000 2.4 99 15:25 19.12.2021
6364 Clouds 25 1014 45 10000 2.4 99 14:45 19.12.2021
6365 Clouds 26 1013 44 10000 1.6 65 13:35 19.12.2021
6366 Clouds 26 1012 44 10000 1.61 324 12:59 19.12.2021
6367 Clouds 28 1012 44 10000 1.61 324 12:31 19.12.2021
6368 Clouds 28 1011 42 10000 1.95 284 11:38 19.12.2021
6369 Clouds 29 1011 40 10000 1.74 267 10:50 19.12.2021
6370 Clouds 30 1010 38 10000 1.64 273 10:22 19.12.2021
6371 Clouds 30 1010 38 10000 1.14 286 08:51 19.12.2021
6372 Clouds 29 1013 40 10000 0.64 327 06:51 19.12.2021
6373 Clouds 24 1015 53 10000 2.91 69 01:52 19.12.2021
6374 Clouds 24 1014 55 10000 2.76 74 00:54 19.12.2021
6375 Clouds 23 1012 52 10000 3.39 61 23:18 18.12.2021
6376 Clouds 24 1012 52 10000 3.54 62 22:28 18.12.2021
6377 Clouds 24 1012 52 10000 3.54 62 21:44 18.12.2021
6378 Clouds 25 1011 52 10000 4.55 60 21:25 18.12.2021
6379 Clouds 25 1011 52 10000 4.55 60 20:43 18.12.2021
6380 Clouds 25 1012 53 10000 5.44 69 19:38 18.12.2021
6381 Clouds 26 1013 52 10000 5.21 73 18:25 18.12.2021
6382 Clouds 26 1013 52 10000 5.21 73 17:49 18.12.2021
6383 Clouds 27 1013 51 10000 5.72 68 16:48 18.12.2021
6384 Clouds 28 1013 49 10000 5.2 66 16:20 18.12.2021
6385 Clouds 29 1012 48 10000 4.52 59 15:24 18.12.2021
6386 Clouds 29 1011 46 10000 4.22 73 13:58 18.12.2021
6387 Rain 30 1010 43 10000 6.35 75 11:57 18.12.2021
6388 Clouds 31 1008 39 10000 4.49 62 09:59 18.12.2021
6389 Clouds 33 1008 39 10000 4.49 62 09:32 18.12.2021
6390 Clouds 32 1008 38 10000 3.77 68 08:36 18.12.2021
6391 Clouds 32 1011 41 10000 2.49 59 07:24 18.12.2021
6392 Clouds 27 1013 50 10000 6.1 80 01:46 18.12.2021
6393 Clouds 28 1011 51 10000 3.97 68 23:51 17.12.2021
6394 Clouds 28 1010 51 10000 3.97 65 22:40 17.12.2021
6395 Clouds 28 1010 51 10000 3.97 70 21:49 17.12.2021
6396 Clouds 29 1010 51 10000 3.82 72 20:44 17.12.2021
6397 Clouds 29 1010 51 10000 3.67 67 19:57 17.12.2021
6398 Clouds 30 1011 52 10000 4.21 58 18:40 17.12.2021
6399 Clouds 30 1011 51 10000 4.16 58 17:59 17.12.2021
6400 Clouds 30 1012 50 10000 3.95 62 16:53 17.12.2021
6401 Clouds 30 1012 49 10000 3.63 63 16:28 17.12.2021
6402 Clouds 30 1012 49 10000 3.63 63 15:49 17.12.2021
6403 Clouds 31 1011 48 10000 3.41 62 14:43 17.12.2021
6404 Clouds 31 1010 46 10000 2.36 49 13:51 17.12.2021
6405 Clouds 32 1009 44 10000 1.06 50 12:36 17.12.2021
6406 Clouds 33 1007 37 10000 2.26 77 10:42 17.12.2021
6407 Clouds 34 1007 36 10000 2.19 70 09:47 17.12.2021
6408 Rain 34 1007 37 10000 2.13 64 08:32 17.12.2021
6409 Clouds 34 1008 37 10000 2.37 60 07:38 17.12.2021
6410 Clouds 31 1012 43 10000 3.72 15 04:41 17.12.2021
6411 Clouds 24 1011 56 10000 3.21 349 00:28 17.12.2021
6412 Clouds 25 1010 54 10000 3.52 345 22:25 16.12.2021
6413 Clouds 26 1010 54 10000 3.52 345 21:55 16.12.2021
6414 Clouds 26 1010 54 10000 3.52 345 21:36 16.12.2021
6415 Clouds 26 1010 54 10000 3.37 341 20:40 16.12.2021
6416 Rain 26 1011 53 10000 3.01 349 19:52 16.12.2021
6417 Rain 27 1011 52 10000 2.79 349 18:45 16.12.2021
6418 Rain 27 1011 52 10000 2.81 348 18:26 16.12.2021
6419 Clouds 27 1011 52 10000 2.81 348 17:35 16.12.2021
6420 Rain 29 1011 52 10000 2.67 347 16:23 16.12.2021
6421 Rain 29 1011 51 10000 2.52 338 15:22 16.12.2021
6422 Clouds 30 1010 48 10000 2.13 341 13:44 16.12.2021
6423 Clouds 32 1009 43 10000 2.55 0 11:48 16.12.2021
6424 Clouds 32 1008 39 10000 2.78 8 11:18 16.12.2021
6425 Clouds 33 1008 39 10000 2.78 8 10:39 16.12.2021
6426 Rain 33 1007 38 10000 2.67 1 09:39 16.12.2021
6427 Clouds 31 1011 41 10000 2.98 355 06:23 16.12.2021
6428 Clouds 27 1013 53 10000 3.16 350 03:19 16.12.2021
6429 Clouds 24 1011 62 10000 2.92 342 23:36 15.12.2021
6430 Clouds 24 1010 61 10000 3.08 339 22:49 15.12.2021
6431 Clouds 24 1010 60 10000 2.75 338 22:19 15.12.2021
6432 Clouds 25 1010 60 10000 2.75 338 21:31 15.12.2021
6433 Rain 25 1010 58 10000 2.54 342 20:32 15.12.2021
6434 Rain 25 1010 57 10000 2.65 340 19:53 15.12.2021
6435 Rain 26 1011 56 10000 2.76 340 18:40 15.12.2021
6436 Rain 27 1011 54 10000 2.88 343 17:57 15.12.2021
6437 Rain 27 1011 54 10000 2.88 343 17:39 15.12.2021
6438 Clouds 27 1011 53 10000 2.94 349 16:35 15.12.2021
6439 Clouds 28 1011 53 10000 3.18 349 15:47 15.12.2021
6440 Clouds 28 1011 53 10000 3.18 349 15:47 15.12.2021
6441 Rain 28 1011 52 10000 3.39 348 15:29 15.12.2021
6442 Clouds 28 1011 52 10000 3.35 347 14:43 15.12.2021
6443 Clouds 29 1009 49 10000 3.59 349 12:52 15.12.2021
6444 Clouds 32 1008 42 10000 3.31 359 10:49 15.12.2021
6445 Clouds 32 1008 39 10000 2.86 5 09:28 15.12.2021
6446 Clouds 32 1009 39 10000 2.69 7 07:44 15.12.2021
6447 Clouds 23 1013 55 10000 3.17 325 01:39 15.12.2021
6448 Clouds 23 1011 62 10000 2.34 321 23:44 14.12.2021
6449 Clouds 23 1011 62 10000 2.12 318 22:49 14.12.2021
6450 Clouds 23 1011 62 10000 2.12 318 22:49 14.12.2021
6451 Clouds 23 1011 62 10000 2.12 318 22:30 14.12.2021
6452 Clouds 24 1011 61 10000 1.95 315 20:57 14.12.2021
6453 Clouds 24 1011 59 10000 1.48 320 19:44 14.12.2021
6454 Clouds 24 1011 59 10000 1.48 320 19:44 14.12.2021
6455 Clouds 24 1012 58 10000 0.88 354 19:20 14.12.2021
6456 Rain 25 1012 57 10000 1.39 6 18:29 14.12.2021
6457 Clouds 25 1012 57 10000 1.39 6 17:33 14.12.2021
6458 Clouds 26 1012 56 10000 1.73 15 16:42 14.12.2021
6459 Clouds 26 1012 54 10000 2.52 23 15:41 14.12.2021
6460 Clouds 27 1011 53 10000 3.71 10 13:32 14.12.2021
6461 Clouds 29 1009 45 10000 2.47 5 12:26 14.12.2021
6462 Clouds 30 1008 42 10000 2.14 3 11:24 14.12.2021
6463 Clouds 31 1008 41 10000 1.89 2 10:25 14.12.2021
6464 Clouds 30 1008 41 10000 1.89 2 09:53 14.12.2021
6465 Clouds 30 1010 41 10000 1.96 2 08:28 14.12.2021
6466 Clouds 31 1010 41 10000 1.96 2 07:59 14.12.2021
6467 Clouds 29 1013 43 10000 1.61 44 05:38 14.12.2021
6468 Clouds 23 1012 60 10000 3.06 357 22:59 13.12.2021
6469 Clouds 23 1011 59 10000 3.04 355 21:53 13.12.2021
6470 Clouds 24 1011 59 10000 3.04 355 21:33 13.12.2021
6471 Clouds 24 1012 58 10000 2.74 359 20:45 13.12.2021
6472 Clear 24 1012 56 10000 2.7 29 19:53 13.12.2021
6473 Clouds 25 1012 54 10000 3.32 51 19:19 13.12.2021
6474 Clouds 25 1013 53 10000 4.41 67 17:26 13.12.2021
6475 Clouds 26 1014 52 10000 4.7 72 15:56 13.12.2021
6476 Clouds 26 1014 52 10000 4.7 72 15:38 13.12.2021
6477 Clouds 27 1013 49 10000 5.41 76 13:47 13.12.2021
6478 Clouds 28 1011 46 10000 3.78 64 12:59 13.12.2021
6479 Clouds 29 1011 44 10000 3.9 60 12:19 13.12.2021
6480 Clouds 30 1011 44 10000 3.9 60 11:35 13.12.2021
6481 Clouds 30 1010 42 10000 3.81 55 10:47 13.12.2021
6482 Clouds 31 1010 41 10000 3.79 46 10:21 13.12.2021
6483 Clouds 31 1011 40 10000 3.8 43 07:57 13.12.2021
6484 Clear 29 1014 44 10000 3.32 46 05:36 13.12.2021
6485 Clouds 26 1015 52 10000 3.82 34 03:30 13.12.2021
6486 Clear 24 1013 64 10000 1.92 53 23:27 12.12.2021
6487 Clear 25 1012 64 10000 2.06 44 21:50 12.12.2021
6488 Clear 26 1013 61 10000 3.04 36 20:28 12.12.2021
6489 Clear 26 1014 58 10000 3.16 30 18:43 12.12.2021
6490 Clear 26 1014 56 10000 3.5 34 17:45 12.12.2021
6491 Clear 27 1014 51 10000 2.66 29 16:28 12.12.2021
6492 Clear 27 1014 51 10000 2.66 29 15:51 12.12.2021
6493 Clear 27 1014 50 10000 3.17 42 15:26 12.12.2021
6494 Clear 27 1014 50 10000 3.17 42 14:37 12.12.2021
6495 Clear 28 1013 49 10000 3.66 42 13:33 12.12.2021
6496 Clear 29 1012 46 10000 3.2 55 12:32 12.12.2021
6497 Clear 30 1011 41 10000 2.96 74 11:44 12.12.2021
6498 Clear 30 1011 38 10000 3.42 77 11:24 12.12.2021
6499 Clear 31 1010 36 10000 2.74 76 10:28 12.12.2021
6500 Rain 31 1010 36 10000 2.74 76 09:38 12.12.2021
6501 Clear 31 1011 35 10000 1.99 61 08:33 12.12.2021
6502 Clear 30 1014 39 10000 2.09 5 06:20 12.12.2021
6503 Clear 29 1015 42 10000 2.08 27 04:56 12.12.2021
6504 Clear 27 1016 45 10000 2.21 22 03:57 12.12.2021
6505 Clear 23 1014 56 10000 1.67 351 23:47 11.12.2021
6506 Clear 23 1013 54 10000 1.8 18 22:23 11.12.2021
6507 Clear 24 1013 54 10000 1.8 18 21:52 11.12.2021
6508 Clear 24 1013 53 10000 2.01 24 20:51 11.12.2021
6509 Clear 25 1014 50 10000 2.63 47 19:27 11.12.2021
6510 Clear 25 1014 50 10000 2.63 47 18:52 11.12.2021
6511 Clear 26 1014 49 10000 2.79 57 18:21 11.12.2021
6512 Clouds 26 1014 47 10000 3.21 64 17:21 11.12.2021
6513 Clouds 27 1014 47 10000 3.23 71 15:54 11.12.2021
6514 Clouds 28 1013 48 10000 2.99 70 15:28 11.12.2021
6515 Clear 29 1012 45 10000 4.07 18 12:57 11.12.2021
6516 Rain 32 1010 40 10000 2.82 34 11:25 11.12.2021
6517 Clear 32 1010 38 10000 2.33 47 09:46 11.12.2021
6518 Clear 33 1012 39 10000 2.1 50 08:23 11.12.2021
6519 Clear 25 1015 60 10000 2.18 17 02:23 11.12.2021
6520 Clear 24 1014 65 10000 2.6 355 23:58 10.12.2021
6521 Clear 24 1013 63 10000 2.53 347 23:21 10.12.2021
6522 Clear 24 1013 60 10000 1.86 360 21:56 10.12.2021
6523 Clear 24 1013 59 10000 1.88 21 21:28 10.12.2021
6524 Rain 26 1014 56 10000 2.14 70 19:21 10.12.2021
6525 Clouds 26 1014 54 10000 2.16 64 18:19 10.12.2021
6526 Rain 27 1014 52 10000 2.17 71 16:56 10.12.2021
6527 Clouds 27 1014 52 10000 2.57 66 16:28 10.12.2021
6528 Clouds 27 1014 52 10000 2.57 66 15:40 10.12.2021
6529 Rain 27 1013 54 10000 2.39 41 15:21 10.12.2021
6530 Rain 28 1013 51 10000 2.97 18 13:51 10.12.2021
6531 Clouds 28 1012 49 10000 3.44 13 13:26 10.12.2021
6532 Clouds 29 1012 50 10000 3.62 10 12:36 10.12.2021
6533 Clouds 31 1010 45 10000 2.63 356 11:28 10.12.2021
6534 Clear 32 1010 44 10000 2.17 346 10:26 10.12.2021
6535 Clear 32 1010 43 10000 1.95 354 08:57 10.12.2021
6536 Clouds 31 1013 46 10000 1.81 22 06:50 10.12.2021
6537 Clouds 26 1016 62 10000 1.73 3 02:48 10.12.2021
6538 Clouds 23 1015 70 10000 2.18 350 00:32 10.12.2021
6539 Clouds 24 1014 69 10000 2.94 3 23:20 09.12.2021
6540 Clouds 24 1013 67 10000 2.97 4 22:24 09.12.2021
6541 Clouds 24 1013 67 10000 2.97 4 21:59 09.12.2021
6542 Clouds 25 1014 66 10000 2.59 8 20:44 09.12.2021
6543 Clouds 25 1014 64 10000 2.38 23 20:21 09.12.2021
6544 Clouds 25 1015 63 10000 2.86 26 19:21 09.12.2021
6545 Clouds 25 1015 64 10000 3.27 26 18:46 09.12.2021
6546 Clouds 26 1015 63 10000 3.7 23 17:52 09.12.2021
6547 Clouds 27 1015 62 10000 3.87 17 17:26 09.12.2021
6548 Clouds 27 1015 62 10000 3.87 17 16:54 09.12.2021
6549 Clouds 27 1015 60 10000 3.89 22 15:34 09.12.2021
6550 Clouds 28 1015 59 10000 3.99 26 14:46 09.12.2021
6551 Clouds 28 1013 54 10000 4.93 18 13:20 09.12.2021
6552 Clouds 29 1013 54 10000 4.93 18 12:37 09.12.2021
6553 Clouds 30 1012 48 10000 2.71 14 11:21 09.12.2021
6554 Clouds 32 1013 100 10000 2.93 39 09:21 09.12.2021
6555 Clouds 31 1016 100 10000 2.62 51 06:44 09.12.2021
6556 Clouds 27 1017 50 10000 1.96 24 03:40 09.12.2021
6557 Clouds 22 1014 60 10000 2.68 357 23:43 08.12.2021
6558 Clouds 23 1013 60 10000 2.84 359 23:21 08.12.2021
6559 Clouds 23 1013 60 10000 2.84 359 22:47 08.12.2021
6560 Clouds 23 1013 59 10000 2.69 0 21:40 08.12.2021
6561 Clouds 24 1013 59 10000 2.56 8 20:59 08.12.2021
6562 Clouds 24 1013 60 10000 2.62 3 19:58 08.12.2021
6563 Clouds 24 1013 60 10000 2.62 3 19:58 08.12.2021
6564 Clouds 23 1013 60 10000 2.62 3 19:33 08.12.2021
6565 Clouds 23 1014 60 10000 2.98 5 18:40 08.12.2021
6566 Clouds 24 1015 60 10000 2.68 8 17:34 08.12.2021
6567 Clouds 24 1015 58 10000 2.9 35 15:49 08.12.2021
6568 Clouds 25 1015 56 10000 3.4 29 15:28 08.12.2021
6569 Clouds 26 1015 56 10000 3.4 29 14:30 08.12.2021
6570 Clouds 30 1012 36 10000 4.17 21 10:55 08.12.2021
6571 Clouds 31 1013 100 10000 4.17 21 10:31 08.12.2021
6572 Clouds 31 1013 100 10000 3.32 28 08:55 08.12.2021
6573 Clouds 30 1015 100 10000 2.63 3 07:25 08.12.2021
6574 Clouds 23 1017 36 10000 1.48 2 02:30 08.12.2021
6575 Clouds 22 1015 52 10000 2.51 334 23:33 07.12.2021
6576 Clouds 22 1014 54 10000 2.47 313 21:40 07.12.2021
6577 Clouds 22 1014 54 10000 2.29 304 21:18 07.12.2021
6578 Clouds 23 1014 54 10000 1.44 315 20:19 07.12.2021
6579 Clouds 24 1015 53 10000 1.06 327 18:42 07.12.2021
6580 Clouds 24 1015 51 10000 0.86 41 17:29 07.12.2021
6581 Clouds 25 1015 51 10000 0.86 41 16:58 07.12.2021
6582 Clouds 25 1015 52 10000 1.31 31 16:28 07.12.2021
6583 Rain 26 1015 51 10000 2.03 22 15:23 07.12.2021
6584 Clouds 27 1014 53 10000 2.88 21 13:53 07.12.2021
6585 Clouds 28 1013 53 10000 3.3 10 12:49 07.12.2021
6586 Clouds 29 1012 48 10000 2.78 353 11:25 07.12.2021
6587 Clouds 30 1011 40 10000 1.98 360 09:55 07.12.2021
6588 Clouds 30 1012 41 10000 1.96 14 07:55 07.12.2021
6589 Clouds 29 1015 44 10000 2.09 15 05:55 07.12.2021
6590 Clouds 29 1017 74 10000 2.09 15 05:33 07.12.2021
6591 Clouds 22 1014 61 10000 1.95 336 23:45 06.12.2021
6592 Clouds 22 1014 62 10000 1.9 338 22:44 06.12.2021
6593 Clouds 22 1013 60 10000 1.83 347 22:22 06.12.2021
6594 Clouds 22 1013 61 10000 1.83 347 21:46 06.12.2021
6595 Clouds 23 1013 61 10000 1.87 337 20:33 06.12.2021
6596 Clouds 23 1014 61 10000 1.66 347 19:27 06.12.2021
6597 Clouds 23 1014 60 10000 1.66 347 18:59 06.12.2021
6598 Clouds 24 1015 58 10000 1.69 8 17:56 06.12.2021
6599 Clouds 24 1015 58 10000 1.69 8 17:37 06.12.2021
6600 Clouds 25 1015 55 10000 1.87 49 16:22 06.12.2021
6601 Clouds 25 1015 56 10000 1.79 37 15:38 06.12.2021
6602 Clouds 26 1014 54 10000 3.54 23 13:45 06.12.2021
6603 Clouds 27 1013 51 10000 4.18 10 12:39 06.12.2021
6604 Clouds 30 1011 47 10000 2.86 22 10:32 06.12.2021
6605 Clouds 30 1011 43 10000 2.27 19 08:35 06.12.2021
6606 Clear 26 1017 49 10000 1.5 343 04:28 06.12.2021
6607 Clouds 20 1014 58 10000 2.38 1 22:52 05.12.2021
6608 Clouds 20 1014 57 10000 2.74 349 21:26 05.12.2021
6609 Clouds 21 1014 57 10000 2.74 349 20:59 05.12.2021
6610 Clouds 21 1014 57 10000 2.6 354 20:19 05.12.2021
6611 Clouds 22 1014 57 10000 2.6 354 19:33 05.12.2021
6612 Clouds 23 1015 49 10000 2.38 356 18:41 05.12.2021
6613 Clouds 23 1015 49 10000 2.45 4 18:19 05.12.2021
6614 Clouds 23 1015 49 10000 2.45 4 17:47 05.12.2021
6615 Clouds 23 1015 48 10000 2.62 9 16:45 05.12.2021
6616 Clouds 23 1015 46 10000 2.61 25 16:24 05.12.2021
6617 Clouds 24 1015 44 10000 3.26 25 14:49 05.12.2021
6618 Clouds 24 1015 44 10000 3.26 25 14:30 05.12.2021
6619 Clouds 25 1014 45 10000 3.96 20 13:43 05.12.2021
6620 Clouds 25 1013 44 10000 4.12 13 12:55 05.12.2021
6621 Clouds 25 1013 43 10000 3.72 21 12:29 05.12.2021
6622 Clouds 26 1013 42 10000 3.72 21 11:49 05.12.2021
6623 Clouds 27 1012 41 10000 3.47 37 10:51 05.12.2021
6624 Clouds 28 1012 39 10000 3.07 44 09:53 05.12.2021
6625 Clouds 27 1013 41 10000 2.68 22 07:33 05.12.2021
6626 Clouds 21 1017 46 10000 2.34 16 02:25 05.12.2021
6627 Clouds 21 1015 55 10000 3.1 357 23:28 04.12.2021
6628 Clouds 21 1015 54